<?xml version="1.0" encoding="UTF-8" standalone="no" ?>
<gpx xmlns="http://www.topografix.com/GPX/1/1" xmlns:xsi="http://www.w3.org/2001/XMLSchema-instance" xsi:schemaLocation="http://www.topografix.com/GPX/1/1 http://www.topografix.com/GPX/1/1/gpx.xsd" version="1.1" creator="VisuGPX - https://www.visugpx.com">
  <metadata>
    <name>Marche Audax 18 km Limours-Bonnelles-Bissy-Malassis-Forges</name>
    <desc><![CDATA[Certaines parties sur chaussée sans trop de circulation.
Marche #Audax

Difficulté : Facile]]></desc>
  </metadata>
  <trk>
    <name><![CDATA[Limours-Bonnelles-Bissy-Malassis-Forges]]></name>
    <extensions>
      <line xmlns="http://www.topografix.com/GPX/gpx_style/0/2">
        <color>0000FF</color>
        <width>4</width>
      </line>
    </extensions>
    <trkseg>
      <trkpt lat="48.64328" lon="2.06708">
        <ele>164.2</ele>
        <time>2024-12-30T17:35:52.989Z</time>
      </trkpt>
      <trkpt lat="48.64331" lon="2.06697">
        <ele>164.1</ele>
        <time>2024-12-30T17:35:57.898Z</time>
      </trkpt>
      <trkpt lat="48.64335" lon="2.06686">
        <ele>163.9</ele>
        <time>2024-12-30T17:36:02.807Z</time>
      </trkpt>
      <trkpt lat="48.64338" lon="2.06675">
        <ele>163.7</ele>
        <time>2024-12-30T17:36:07.716Z</time>
      </trkpt>
      <trkpt lat="48.64342" lon="2.06664">
        <ele>163.4</ele>
        <time>2024-12-30T17:36:12.625Z</time>
      </trkpt>
      <trkpt lat="48.64345" lon="2.06653">
        <ele>163.4</ele>
        <time>2024-12-30T17:36:17.534Z</time>
      </trkpt>
      <trkpt lat="48.64345" lon="2.06653">
        <ele>163.4</ele>
        <time>2024-12-30T17:36:17.534Z</time>
      </trkpt>
      <trkpt lat="48.64345" lon="2.06653">
        <ele>163.4</ele>
        <time>2024-12-30T17:36:17.534Z</time>
      </trkpt>
      <trkpt lat="48.64345" lon="2.06653">
        <ele>163.4</ele>
        <time>2024-12-30T17:36:17.534Z</time>
        <extensions>
          <visugpx:TrkExtension xmlns:visugpx="https://www.visugpx.com/editgpx/">
            <visugpx:node>1</visugpx:node>
            </visugpx:TrkExtension>
        </extensions>
      </trkpt>
      <trkpt lat="48.64349" lon="2.06656">
        <ele>163.1</ele>
        <time>2024-12-30T17:36:20.114Z</time>
      </trkpt>
      <trkpt lat="48.64353" lon="2.0666">
        <ele>162.8</ele>
        <time>2024-12-30T17:36:22.694Z</time>
      </trkpt>
      <trkpt lat="48.64357" lon="2.06663">
        <ele>162.4</ele>
        <time>2024-12-30T17:36:25.274Z</time>
      </trkpt>
      <trkpt lat="48.64361" lon="2.06667">
        <ele>162</ele>
        <time>2024-12-30T17:36:27.854Z</time>
      </trkpt>
      <trkpt lat="48.64365" lon="2.0667">
        <ele>161.9</ele>
        <time>2024-12-30T17:36:30.434Z</time>
      </trkpt>
      <trkpt lat="48.64369" lon="2.06673">
        <ele>161.7</ele>
        <time>2024-12-30T17:36:33.015Z</time>
      </trkpt>
      <trkpt lat="48.64373" lon="2.06677">
        <ele>161.6</ele>
        <time>2024-12-30T17:36:35.596Z</time>
      </trkpt>
      <trkpt lat="48.64377" lon="2.0668">
        <ele>161.4</ele>
        <time>2024-12-30T17:36:38.177Z</time>
      </trkpt>
      <trkpt lat="48.64384" lon="2.06687">
        <ele>161.2</ele>
        <time>2024-12-30T17:36:42.997Z</time>
      </trkpt>
      <trkpt lat="48.64392" lon="2.06694">
        <ele>160.8</ele>
        <time>2024-12-30T17:36:47.817Z</time>
      </trkpt>
      <trkpt lat="48.64399" lon="2.06701">
        <ele>160.1</ele>
        <time>2024-12-30T17:36:52.637Z</time>
      </trkpt>
      <trkpt lat="48.64406" lon="2.06708">
        <ele>159.6</ele>
        <time>2024-12-30T17:36:57.458Z</time>
      </trkpt>
      <trkpt lat="48.64413" lon="2.06714">
        <ele>159.2</ele>
        <time>2024-12-30T17:37:02.279Z</time>
      </trkpt>
      <trkpt lat="48.64421" lon="2.06721">
        <ele>158.7</ele>
        <time>2024-12-30T17:37:07.100Z</time>
      </trkpt>
      <trkpt lat="48.64428" lon="2.06728">
        <ele>158.1</ele>
        <time>2024-12-30T17:37:11.921Z</time>
      </trkpt>
      <trkpt lat="48.64435" lon="2.06735">
        <ele>157.5</ele>
        <time>2024-12-30T17:37:16.742Z</time>
      </trkpt>
      <trkpt lat="48.64439" lon="2.06739">
        <ele>157.3</ele>
        <time>2024-12-30T17:37:19.355Z</time>
      </trkpt>
      <trkpt lat="48.64443" lon="2.06742">
        <ele>157.1</ele>
        <time>2024-12-30T17:37:21.968Z</time>
      </trkpt>
      <trkpt lat="48.64448" lon="2.06747">
        <ele>156.8</ele>
        <time>2024-12-30T17:37:25.007Z</time>
      </trkpt>
      <trkpt lat="48.64452" lon="2.06751">
        <ele>156.4</ele>
        <time>2024-12-30T17:37:28.046Z</time>
        <extensions>
          <visugpx:TrkExtension xmlns:visugpx="https://www.visugpx.com/editgpx/">
            <visugpx:node>2</visugpx:node>
            </visugpx:TrkExtension>
        </extensions>
      </trkpt>
      <trkpt lat="48.64459" lon="2.06757">
        <ele>155.7</ele>
        <time>2024-12-30T17:37:32.579Z</time>
      </trkpt>
      <trkpt lat="48.6446" lon="2.06748">
        <ele>155.9</ele>
        <time>2024-12-30T17:37:36.627Z</time>
      </trkpt>
      <trkpt lat="48.6446" lon="2.06739">
        <ele>155.9</ele>
        <time>2024-12-30T17:37:40.676Z</time>
        <extensions>
          <visugpx:TrkExtension xmlns:visugpx="https://www.visugpx.com/editgpx/">
            <visugpx:node>3</visugpx:node>
            </visugpx:TrkExtension>
        </extensions>
      </trkpt>
      <trkpt lat="48.6446" lon="2.06739">
        <ele>155.9</ele>
        <time>2024-12-30T17:37:40.676Z</time>
      </trkpt>
      <trkpt lat="48.64461" lon="2.06732">
        <ele>155.8</ele>
        <time>2024-12-30T17:37:43.709Z</time>
      </trkpt>
      <trkpt lat="48.64461" lon="2.06725">
        <ele>155.8</ele>
        <time>2024-12-30T17:37:46.742Z</time>
      </trkpt>
      <trkpt lat="48.64462" lon="2.06718">
        <ele>155.8</ele>
        <time>2024-12-30T17:37:49.775Z</time>
      </trkpt>
      <trkpt lat="48.64463" lon="2.06711">
        <ele>155.8</ele>
        <time>2024-12-30T17:37:52.808Z</time>
      </trkpt>
      <trkpt lat="48.64463" lon="2.06703">
        <ele>155.9</ele>
        <time>2024-12-30T17:37:55.841Z</time>
      </trkpt>
      <trkpt lat="48.64464" lon="2.06696">
        <ele>155.9</ele>
        <time>2024-12-30T17:37:58.875Z</time>
      </trkpt>
      <trkpt lat="48.64464" lon="2.06689">
        <ele>155.8</ele>
        <time>2024-12-30T17:38:01.909Z</time>
      </trkpt>
      <trkpt lat="48.64465" lon="2.06682">
        <ele>155.8</ele>
        <time>2024-12-30T17:38:04.943Z</time>
        <extensions>
          <visugpx:TrkExtension xmlns:visugpx="https://www.visugpx.com/editgpx/">
            <visugpx:node>4</visugpx:node>
            </visugpx:TrkExtension>
        </extensions>
      </trkpt>
      <trkpt lat="48.64466" lon="2.06675">
        <ele>155.7</ele>
        <time>2024-12-30T17:38:07.986Z</time>
      </trkpt>
      <trkpt lat="48.64466" lon="2.06667">
        <ele>155.7</ele>
        <time>2024-12-30T17:38:11.029Z</time>
      </trkpt>
      <trkpt lat="48.64467" lon="2.0666">
        <ele>155.6</ele>
        <time>2024-12-30T17:38:14.072Z</time>
      </trkpt>
      <trkpt lat="48.64468" lon="2.06653">
        <ele>155.5</ele>
        <time>2024-12-30T17:38:17.115Z</time>
      </trkpt>
      <trkpt lat="48.64468" lon="2.06645">
        <ele>155.4</ele>
        <time>2024-12-30T17:38:20.158Z</time>
      </trkpt>
      <trkpt lat="48.64469" lon="2.06638">
        <ele>155.4</ele>
        <time>2024-12-30T17:38:23.201Z</time>
      </trkpt>
      <trkpt lat="48.64469" lon="2.0663">
        <ele>155.3</ele>
        <time>2024-12-30T17:38:26.244Z</time>
      </trkpt>
      <trkpt lat="48.6447" lon="2.06623">
        <ele>155.3</ele>
        <time>2024-12-30T17:38:29.287Z</time>
      </trkpt>
      <trkpt lat="48.6447" lon="2.06623">
        <ele>155.3</ele>
        <time>2024-12-30T17:38:29.287Z</time>
        <extensions>
          <visugpx:TrkExtension xmlns:visugpx="https://www.visugpx.com/editgpx/">
            <visugpx:node>5</visugpx:node>
            </visugpx:TrkExtension>
        </extensions>
      </trkpt>
      <trkpt lat="48.64471" lon="2.06616">
        <ele>155.2</ele>
        <time>2024-12-30T17:38:32.185Z</time>
      </trkpt>
      <trkpt lat="48.64471" lon="2.06609">
        <ele>155.2</ele>
        <time>2024-12-30T17:38:35.084Z</time>
      </trkpt>
      <trkpt lat="48.64472" lon="2.06597">
        <ele>155</ele>
        <time>2024-12-30T17:38:40.645Z</time>
      </trkpt>
      <trkpt lat="48.64473" lon="2.06585">
        <ele>155</ele>
        <time>2024-12-30T17:38:46.206Z</time>
      </trkpt>
      <trkpt lat="48.64474" lon="2.06572">
        <ele>155.4</ele>
        <time>2024-12-30T17:38:51.767Z</time>
      </trkpt>
      <trkpt lat="48.64475" lon="2.0656">
        <ele>155.8</ele>
        <time>2024-12-30T17:38:57.329Z</time>
      </trkpt>
      <trkpt lat="48.64476" lon="2.06553">
        <ele>155.9</ele>
        <time>2024-12-30T17:39:00.331Z</time>
      </trkpt>
      <trkpt lat="48.64476" lon="2.06546">
        <ele>155.8</ele>
        <time>2024-12-30T17:39:03.333Z</time>
      </trkpt>
      <trkpt lat="48.64477" lon="2.06539">
        <ele>155.7</ele>
        <time>2024-12-30T17:39:06.336Z</time>
      </trkpt>
      <trkpt lat="48.64478" lon="2.06533">
        <ele>155.7</ele>
        <time>2024-12-30T17:39:09.339Z</time>
      </trkpt>
      <trkpt lat="48.64478" lon="2.06526">
        <ele>155.6</ele>
        <time>2024-12-30T17:39:12.342Z</time>
      </trkpt>
      <trkpt lat="48.64479" lon="2.06519">
        <ele>155.8</ele>
        <time>2024-12-30T17:39:15.345Z</time>
      </trkpt>
      <trkpt lat="48.64479" lon="2.06512">
        <ele>155.9</ele>
        <time>2024-12-30T17:39:18.348Z</time>
      </trkpt>
      <trkpt lat="48.6448" lon="2.06505">
        <ele>156</ele>
        <time>2024-12-30T17:39:21.351Z</time>
      </trkpt>
      <trkpt lat="48.64481" lon="2.06495">
        <ele>156.1</ele>
        <time>2024-12-30T17:39:26.085Z</time>
      </trkpt>
      <trkpt lat="48.64482" lon="2.06485">
        <ele>156.2</ele>
        <time>2024-12-30T17:39:30.819Z</time>
      </trkpt>
      <trkpt lat="48.64482" lon="2.06475">
        <ele>156.2</ele>
        <time>2024-12-30T17:39:35.553Z</time>
      </trkpt>
      <trkpt lat="48.64483" lon="2.06465">
        <ele>156.5</ele>
        <time>2024-12-30T17:39:40.287Z</time>
      </trkpt>
      <trkpt lat="48.64484" lon="2.06455">
        <ele>156.8</ele>
        <time>2024-12-30T17:39:45.021Z</time>
      </trkpt>
      <trkpt lat="48.64485" lon="2.06445">
        <ele>157.1</ele>
        <time>2024-12-30T17:39:49.755Z</time>
      </trkpt>
      <trkpt lat="48.64485" lon="2.06435">
        <ele>157.4</ele>
        <time>2024-12-30T17:39:54.489Z</time>
      </trkpt>
      <trkpt lat="48.64486" lon="2.06425">
        <ele>157.7</ele>
        <time>2024-12-30T17:39:59.223Z</time>
      </trkpt>
      <trkpt lat="48.64487" lon="2.06418">
        <ele>157.9</ele>
        <time>2024-12-30T17:40:02.589Z</time>
      </trkpt>
      <trkpt lat="48.64488" lon="2.06411">
        <ele>158</ele>
        <time>2024-12-30T17:40:05.955Z</time>
      </trkpt>
      <trkpt lat="48.6449" lon="2.06398">
        <ele>158.2</ele>
        <time>2024-12-30T17:40:12.051Z</time>
      </trkpt>
      <trkpt lat="48.64492" lon="2.06385">
        <ele>158.4</ele>
        <time>2024-12-30T17:40:18.147Z</time>
      </trkpt>
      <trkpt lat="48.64492" lon="2.06378">
        <ele>158.7</ele>
        <time>2024-12-30T17:40:21.813Z</time>
        <extensions>
          <visugpx:TrkExtension xmlns:visugpx="https://www.visugpx.com/editgpx/">
            <visugpx:node>6</visugpx:node>
            </visugpx:TrkExtension>
        </extensions>
      </trkpt>
      <trkpt lat="48.64493" lon="2.06376">
        <ele>158.7</ele>
        <time>2024-12-30T17:40:22.880Z</time>
      </trkpt>
      <trkpt lat="48.64492" lon="2.06369">
        <ele>159</ele>
        <time>2024-12-30T17:40:26.290Z</time>
      </trkpt>
      <trkpt lat="48.64492" lon="2.06363">
        <ele>159.3</ele>
        <time>2024-12-30T17:40:29.700Z</time>
      </trkpt>
      <trkpt lat="48.64491" lon="2.06356">
        <ele>159.5</ele>
        <time>2024-12-30T17:40:33.111Z</time>
      </trkpt>
      <trkpt lat="48.6449" lon="2.06349">
        <ele>159.6</ele>
        <time>2024-12-30T17:40:36.523Z</time>
      </trkpt>
      <trkpt lat="48.64488" lon="2.06342">
        <ele>159.8</ele>
        <time>2024-12-30T17:40:40.339Z</time>
      </trkpt>
      <trkpt lat="48.64485" lon="2.06335">
        <ele>160</ele>
        <time>2024-12-30T17:40:44.157Z</time>
      </trkpt>
      <trkpt lat="48.64479" lon="2.06327">
        <ele>160.2</ele>
        <time>2024-12-30T17:40:50.200Z</time>
      </trkpt>
      <trkpt lat="48.64473" lon="2.06319">
        <ele>160.5</ele>
        <time>2024-12-30T17:40:56.244Z</time>
      </trkpt>
      <trkpt lat="48.64467" lon="2.0631">
        <ele>161</ele>
        <time>2024-12-30T17:41:02.288Z</time>
      </trkpt>
      <trkpt lat="48.64461" lon="2.06302">
        <ele>161.5</ele>
        <time>2024-12-30T17:41:08.333Z</time>
      </trkpt>
      <trkpt lat="48.64457" lon="2.06296">
        <ele>161.7</ele>
        <time>2024-12-30T17:41:12.281Z</time>
      </trkpt>
      <trkpt lat="48.64454" lon="2.0629">
        <ele>161.9</ele>
        <time>2024-12-30T17:41:16.229Z</time>
      </trkpt>
      <trkpt lat="48.6445" lon="2.06284">
        <ele>162</ele>
        <time>2024-12-30T17:41:20.177Z</time>
      </trkpt>
      <trkpt lat="48.64447" lon="2.06278">
        <ele>162</ele>
        <time>2024-12-30T17:41:24.126Z</time>
      </trkpt>
      <trkpt lat="48.64443" lon="2.06272">
        <ele>162.3</ele>
        <time>2024-12-30T17:41:28.075Z</time>
      </trkpt>
      <trkpt lat="48.64439" lon="2.06266">
        <ele>162.6</ele>
        <time>2024-12-30T17:41:32.024Z</time>
      </trkpt>
      <trkpt lat="48.64436" lon="2.0626">
        <ele>163</ele>
        <time>2024-12-30T17:41:35.973Z</time>
      </trkpt>
      <trkpt lat="48.64432" lon="2.06254">
        <ele>163.3</ele>
        <time>2024-12-30T17:41:39.923Z</time>
      </trkpt>
      <trkpt lat="48.64428" lon="2.06244">
        <ele>163.7</ele>
        <time>2024-12-30T17:41:45.787Z</time>
        <extensions>
          <visugpx:TrkExtension xmlns:visugpx="https://www.visugpx.com/editgpx/">
            <visugpx:node>7</visugpx:node>
            </visugpx:TrkExtension>
        </extensions>
      </trkpt>
      <trkpt lat="48.64425" lon="2.06236">
        <ele>163.9</ele>
        <time>2024-12-30T17:41:50.127Z</time>
      </trkpt>
      <trkpt lat="48.64422" lon="2.06226">
        <ele>164</ele>
        <time>2024-12-30T17:41:55.440Z</time>
      </trkpt>
      <trkpt lat="48.64418" lon="2.06215">
        <ele>164.2</ele>
        <time>2024-12-30T17:42:00.755Z</time>
      </trkpt>
      <trkpt lat="48.64417" lon="2.06208">
        <ele>164.5</ele>
        <time>2024-12-30T17:42:04.122Z</time>
      </trkpt>
      <trkpt lat="48.64415" lon="2.06202">
        <ele>164.7</ele>
        <time>2024-12-30T17:42:07.489Z</time>
      </trkpt>
      <trkpt lat="48.64414" lon="2.06195">
        <ele>165</ele>
        <time>2024-12-30T17:42:10.856Z</time>
      </trkpt>
      <trkpt lat="48.64412" lon="2.06188">
        <ele>165.2</ele>
        <time>2024-12-30T17:42:14.223Z</time>
      </trkpt>
      <trkpt lat="48.64411" lon="2.06182">
        <ele>165.5</ele>
        <time>2024-12-30T17:42:17.590Z</time>
      </trkpt>
      <trkpt lat="48.64409" lon="2.06175">
        <ele>165.7</ele>
        <time>2024-12-30T17:42:20.957Z</time>
      </trkpt>
      <trkpt lat="48.64408" lon="2.06168">
        <ele>165.9</ele>
        <time>2024-12-30T17:42:24.324Z</time>
      </trkpt>
      <trkpt lat="48.64406" lon="2.06162">
        <ele>166.1</ele>
        <time>2024-12-30T17:42:27.691Z</time>
      </trkpt>
      <trkpt lat="48.64405" lon="2.06155">
        <ele>166.2</ele>
        <time>2024-12-30T17:42:31.058Z</time>
      </trkpt>
      <trkpt lat="48.64403" lon="2.06148">
        <ele>166.3</ele>
        <time>2024-12-30T17:42:34.425Z</time>
      </trkpt>
      <trkpt lat="48.64402" lon="2.06141">
        <ele>166.5</ele>
        <time>2024-12-30T17:42:37.792Z</time>
      </trkpt>
      <trkpt lat="48.644" lon="2.06135">
        <ele>166.6</ele>
        <time>2024-12-30T17:42:41.159Z</time>
      </trkpt>
      <trkpt lat="48.64399" lon="2.06128">
        <ele>166.7</ele>
        <time>2024-12-30T17:42:44.526Z</time>
      </trkpt>
      <trkpt lat="48.64397" lon="2.06121">
        <ele>166.7</ele>
        <time>2024-12-30T17:42:47.893Z</time>
      </trkpt>
      <trkpt lat="48.64396" lon="2.06115">
        <ele>166.8</ele>
        <time>2024-12-30T17:42:51.261Z</time>
      </trkpt>
      <trkpt lat="48.64394" lon="2.06108">
        <ele>166.9</ele>
        <time>2024-12-30T17:42:54.630Z</time>
      </trkpt>
      <trkpt lat="48.64393" lon="2.06101">
        <ele>167.3</ele>
        <time>2024-12-30T17:42:58.772Z</time>
      </trkpt>
      <trkpt lat="48.64391" lon="2.06093">
        <ele>167.6</ele>
        <time>2024-12-30T17:43:02.915Z</time>
        <extensions>
          <visugpx:TrkExtension xmlns:visugpx="https://www.visugpx.com/editgpx/">
            <visugpx:node>8</visugpx:node>
            </visugpx:TrkExtension>
        </extensions>
      </trkpt>
      <trkpt lat="48.64389" lon="2.06085">
        <ele>167.9</ele>
        <time>2024-12-30T17:43:06.916Z</time>
      </trkpt>
      <trkpt lat="48.64388" lon="2.06077">
        <ele>168</ele>
        <time>2024-12-30T17:43:10.917Z</time>
      </trkpt>
      <trkpt lat="48.64386" lon="2.06068">
        <ele>168.1</ele>
        <time>2024-12-30T17:43:14.919Z</time>
      </trkpt>
      <trkpt lat="48.64384" lon="2.0606">
        <ele>168.2</ele>
        <time>2024-12-30T17:43:18.922Z</time>
      </trkpt>
      <trkpt lat="48.64383" lon="2.06052">
        <ele>168.3</ele>
        <time>2024-12-30T17:43:22.997Z</time>
      </trkpt>
      <trkpt lat="48.64382" lon="2.06044">
        <ele>168.7</ele>
        <time>2024-12-30T17:43:27.072Z</time>
      </trkpt>
      <trkpt lat="48.64381" lon="2.06036">
        <ele>169</ele>
        <time>2024-12-30T17:43:31.147Z</time>
      </trkpt>
      <trkpt lat="48.6438" lon="2.06028">
        <ele>169.3</ele>
        <time>2024-12-30T17:43:35.223Z</time>
      </trkpt>
      <trkpt lat="48.64379" lon="2.06015">
        <ele>169.7</ele>
        <time>2024-12-30T17:43:41.596Z</time>
      </trkpt>
      <trkpt lat="48.64377" lon="2.06002">
        <ele>170</ele>
        <time>2024-12-30T17:43:47.970Z</time>
      </trkpt>
      <trkpt lat="48.64378" lon="2.05989">
        <ele>170</ele>
        <time>2024-12-30T17:43:53.659Z</time>
      </trkpt>
      <trkpt lat="48.6438" lon="2.05976">
        <ele>170</ele>
        <time>2024-12-30T17:43:59.349Z</time>
      </trkpt>
      <trkpt lat="48.64381" lon="2.05963">
        <ele>170.1</ele>
        <time>2024-12-30T17:44:05.039Z</time>
      </trkpt>
      <trkpt lat="48.64382" lon="2.0595">
        <ele>170.2</ele>
        <time>2024-12-30T17:44:10.729Z</time>
      </trkpt>
      <trkpt lat="48.64385" lon="2.05937">
        <ele>170.4</ele>
        <time>2024-12-30T17:44:17.130Z</time>
      </trkpt>
      <trkpt lat="48.64387" lon="2.05924">
        <ele>170.8</ele>
        <time>2024-12-30T17:44:23.531Z</time>
      </trkpt>
      <trkpt lat="48.6439" lon="2.05913">
        <ele>171</ele>
        <time>2024-12-30T17:44:28.480Z</time>
      </trkpt>
      <trkpt lat="48.64392" lon="2.05902">
        <ele>170.8</ele>
        <time>2024-12-30T17:44:33.430Z</time>
        <extensions>
          <visugpx:TrkExtension xmlns:visugpx="https://www.visugpx.com/editgpx/">
            <visugpx:node>9</visugpx:node>
            </visugpx:TrkExtension>
        </extensions>
      </trkpt>
      <trkpt lat="48.64394" lon="2.05895">
        <ele>170.8</ele>
        <time>2024-12-30T17:44:36.617Z</time>
      </trkpt>
      <trkpt lat="48.64396" lon="2.05888">
        <ele>170.8</ele>
        <time>2024-12-30T17:44:39.804Z</time>
      </trkpt>
      <trkpt lat="48.64397" lon="2.0588">
        <ele>170.7</ele>
        <time>2024-12-30T17:44:42.991Z</time>
      </trkpt>
      <trkpt lat="48.64399" lon="2.05873">
        <ele>170.6</ele>
        <time>2024-12-30T17:44:46.178Z</time>
      </trkpt>
      <trkpt lat="48.64402" lon="2.0586">
        <ele>170.5</ele>
        <time>2024-12-30T17:44:51.884Z</time>
      </trkpt>
      <trkpt lat="48.64405" lon="2.05848">
        <ele>170.7</ele>
        <time>2024-12-30T17:44:57.590Z</time>
      </trkpt>
      <trkpt lat="48.64408" lon="2.05835">
        <ele>171</ele>
        <time>2024-12-30T17:45:03.296Z</time>
      </trkpt>
      <trkpt lat="48.64411" lon="2.05823">
        <ele>171</ele>
        <time>2024-12-30T17:45:09.002Z</time>
      </trkpt>
      <trkpt lat="48.64413" lon="2.0581">
        <ele>171</ele>
        <time>2024-12-30T17:45:14.708Z</time>
      </trkpt>
      <trkpt lat="48.64416" lon="2.05798">
        <ele>171</ele>
        <time>2024-12-30T17:45:20.414Z</time>
      </trkpt>
      <trkpt lat="48.64419" lon="2.05785">
        <ele>170.9</ele>
        <time>2024-12-30T17:45:26.120Z</time>
      </trkpt>
      <trkpt lat="48.64422" lon="2.05773">
        <ele>170.8</ele>
        <time>2024-12-30T17:45:31.826Z</time>
      </trkpt>
      <trkpt lat="48.64425" lon="2.0576">
        <ele>170.9</ele>
        <time>2024-12-30T17:45:37.532Z</time>
      </trkpt>
      <trkpt lat="48.64428" lon="2.05747">
        <ele>171</ele>
        <time>2024-12-30T17:45:43.238Z</time>
      </trkpt>
      <trkpt lat="48.64431" lon="2.05735">
        <ele>171</ele>
        <time>2024-12-30T17:45:48.945Z</time>
      </trkpt>
      <trkpt lat="48.64434" lon="2.05722">
        <ele>171</ele>
        <time>2024-12-30T17:45:54.652Z</time>
      </trkpt>
      <trkpt lat="48.64436" lon="2.0571">
        <ele>171</ele>
        <time>2024-12-30T17:46:00.359Z</time>
      </trkpt>
      <trkpt lat="48.64439" lon="2.05697">
        <ele>171</ele>
        <time>2024-12-30T17:46:06.066Z</time>
      </trkpt>
      <trkpt lat="48.64442" lon="2.05685">
        <ele>171</ele>
        <time>2024-12-30T17:46:11.773Z</time>
      </trkpt>
      <trkpt lat="48.64445" lon="2.05672">
        <ele>171</ele>
        <time>2024-12-30T17:46:17.480Z</time>
      </trkpt>
      <trkpt lat="48.64446" lon="2.05663">
        <ele>170.9</ele>
        <time>2024-12-30T17:46:21.504Z</time>
      </trkpt>
      <trkpt lat="48.64448" lon="2.05653">
        <ele>170.9</ele>
        <time>2024-12-30T17:46:25.528Z</time>
      </trkpt>
      <trkpt lat="48.64449" lon="2.05644">
        <ele>170.8</ele>
        <time>2024-12-30T17:46:29.552Z</time>
      </trkpt>
      <trkpt lat="48.6445" lon="2.05634">
        <ele>170.8</ele>
        <time>2024-12-30T17:46:33.576Z</time>
      </trkpt>
      <trkpt lat="48.64451" lon="2.05621">
        <ele>170.8</ele>
        <time>2024-12-30T17:46:39.137Z</time>
      </trkpt>
      <trkpt lat="48.64453" lon="2.05608">
        <ele>170.7</ele>
        <time>2024-12-30T17:46:44.698Z</time>
      </trkpt>
      <trkpt lat="48.64454" lon="2.05595">
        <ele>170.7</ele>
        <time>2024-12-30T17:46:50.259Z</time>
      </trkpt>
      <trkpt lat="48.64455" lon="2.05583">
        <ele>170.6</ele>
        <time>2024-12-30T17:46:55.820Z</time>
      </trkpt>
      <trkpt lat="48.64456" lon="2.0557">
        <ele>170.6</ele>
        <time>2024-12-30T17:47:01.382Z</time>
      </trkpt>
      <trkpt lat="48.64458" lon="2.05557">
        <ele>170.5</ele>
        <time>2024-12-30T17:47:06.944Z</time>
      </trkpt>
      <trkpt lat="48.64459" lon="2.05544">
        <ele>170.7</ele>
        <time>2024-12-30T17:47:12.506Z</time>
      </trkpt>
      <trkpt lat="48.6446" lon="2.05531">
        <ele>170.9</ele>
        <time>2024-12-30T17:47:18.068Z</time>
      </trkpt>
      <trkpt lat="48.64461" lon="2.05524">
        <ele>171.1</ele>
        <time>2024-12-30T17:47:21.593Z</time>
      </trkpt>
      <trkpt lat="48.64461" lon="2.05516">
        <ele>171.2</ele>
        <time>2024-12-30T17:47:25.118Z</time>
      </trkpt>
      <trkpt lat="48.64461" lon="2.05509">
        <ele>171.3</ele>
        <time>2024-12-30T17:47:28.184Z</time>
      </trkpt>
      <trkpt lat="48.64462" lon="2.05502">
        <ele>171.4</ele>
        <time>2024-12-30T17:47:31.250Z</time>
      </trkpt>
      <trkpt lat="48.64462" lon="2.05495">
        <ele>171.4</ele>
        <time>2024-12-30T17:47:34.316Z</time>
      </trkpt>
      <trkpt lat="48.64463" lon="2.05488">
        <ele>171.4</ele>
        <time>2024-12-30T17:47:37.382Z</time>
      </trkpt>
      <trkpt lat="48.64463" lon="2.0548">
        <ele>171.3</ele>
        <time>2024-12-30T17:47:40.448Z</time>
      </trkpt>
      <trkpt lat="48.64463" lon="2.05473">
        <ele>171.3</ele>
        <time>2024-12-30T17:47:43.514Z</time>
      </trkpt>
      <trkpt lat="48.64464" lon="2.05466">
        <ele>171.3</ele>
        <time>2024-12-30T17:47:46.580Z</time>
      </trkpt>
      <trkpt lat="48.64464" lon="2.05459">
        <ele>171.3</ele>
        <time>2024-12-30T17:47:49.646Z</time>
      </trkpt>
      <trkpt lat="48.64461" lon="2.05457">
        <ele>171.4</ele>
        <time>2024-12-30T17:47:51.969Z</time>
        <extensions>
          <visugpx:TrkExtension xmlns:visugpx="https://www.visugpx.com/editgpx/">
            <visugpx:node>10</visugpx:node>
            </visugpx:TrkExtension>
        </extensions>
      </trkpt>
      <trkpt lat="48.64464" lon="2.05459">
        <ele>171.3</ele>
        <time>2024-12-30T17:47:53.894Z</time>
      </trkpt>
      <trkpt lat="48.64466" lon="2.05447">
        <ele>171.2</ele>
        <time>2024-12-30T17:47:58.992Z</time>
      </trkpt>
      <trkpt lat="48.64467" lon="2.05435">
        <ele>171.2</ele>
        <time>2024-12-30T17:48:04.090Z</time>
      </trkpt>
      <trkpt lat="48.64469" lon="2.05423">
        <ele>171.1</ele>
        <time>2024-12-30T17:48:09.189Z</time>
      </trkpt>
      <trkpt lat="48.6447" lon="2.05411">
        <ele>171.1</ele>
        <time>2024-12-30T17:48:14.288Z</time>
      </trkpt>
      <trkpt lat="48.64471" lon="2.05404">
        <ele>171.1</ele>
        <time>2024-12-30T17:48:17.553Z</time>
      </trkpt>
      <trkpt lat="48.64471" lon="2.05397">
        <ele>171</ele>
        <time>2024-12-30T17:48:20.818Z</time>
      </trkpt>
      <trkpt lat="48.64472" lon="2.0539">
        <ele>171</ele>
        <time>2024-12-30T17:48:24.083Z</time>
      </trkpt>
      <trkpt lat="48.64473" lon="2.05383">
        <ele>171.2</ele>
        <time>2024-12-30T17:48:27.349Z</time>
      </trkpt>
      <trkpt lat="48.64473" lon="2.05375">
        <ele>171.5</ele>
        <time>2024-12-30T17:48:30.615Z</time>
      </trkpt>
      <trkpt lat="48.64474" lon="2.05368">
        <ele>171.7</ele>
        <time>2024-12-30T17:48:33.881Z</time>
      </trkpt>
      <trkpt lat="48.64474" lon="2.05361">
        <ele>171.9</ele>
        <time>2024-12-30T17:48:37.147Z</time>
      </trkpt>
      <trkpt lat="48.64475" lon="2.05354">
        <ele>171.9</ele>
        <time>2024-12-30T17:48:40.413Z</time>
      </trkpt>
      <trkpt lat="48.64476" lon="2.05341">
        <ele>171.9</ele>
        <time>2024-12-30T17:48:46.215Z</time>
      </trkpt>
      <trkpt lat="48.64476" lon="2.05327">
        <ele>171.9</ele>
        <time>2024-12-30T17:48:52.018Z</time>
      </trkpt>
      <trkpt lat="48.64477" lon="2.05314">
        <ele>172</ele>
        <time>2024-12-30T17:48:57.821Z</time>
      </trkpt>
      <trkpt lat="48.64477" lon="2.053">
        <ele>172</ele>
        <time>2024-12-30T17:49:03.624Z</time>
      </trkpt>
      <trkpt lat="48.64477" lon="2.05293">
        <ele>172</ele>
        <time>2024-12-30T17:49:06.815Z</time>
      </trkpt>
      <trkpt lat="48.64477" lon="2.05285">
        <ele>172</ele>
        <time>2024-12-30T17:49:10.006Z</time>
      </trkpt>
      <trkpt lat="48.64477" lon="2.05278">
        <ele>172</ele>
        <time>2024-12-30T17:49:13.197Z</time>
      </trkpt>
      <trkpt lat="48.64477" lon="2.0527">
        <ele>172</ele>
        <time>2024-12-30T17:49:16.388Z</time>
      </trkpt>
      <trkpt lat="48.64476" lon="2.05264">
        <ele>172</ele>
        <time>2024-12-30T17:49:19.020Z</time>
        <extensions>
          <visugpx:TrkExtension xmlns:visugpx="https://www.visugpx.com/editgpx/">
            <visugpx:node>11</visugpx:node>
            </visugpx:TrkExtension>
        </extensions>
      </trkpt>
      <trkpt lat="48.64476" lon="2.05256">
        <ele>172</ele>
        <time>2024-12-30T17:49:22.374Z</time>
      </trkpt>
      <trkpt lat="48.64476" lon="2.05248">
        <ele>172</ele>
        <time>2024-12-30T17:49:25.728Z</time>
      </trkpt>
      <trkpt lat="48.64475" lon="2.0524">
        <ele>172</ele>
        <time>2024-12-30T17:49:29.082Z</time>
      </trkpt>
      <trkpt lat="48.64475" lon="2.05233">
        <ele>172</ele>
        <time>2024-12-30T17:49:32.436Z</time>
      </trkpt>
      <trkpt lat="48.64475" lon="2.05225">
        <ele>172</ele>
        <time>2024-12-30T17:49:35.790Z</time>
      </trkpt>
      <trkpt lat="48.64475" lon="2.05217">
        <ele>172</ele>
        <time>2024-12-30T17:49:39.145Z</time>
      </trkpt>
      <trkpt lat="48.64474" lon="2.05209">
        <ele>172</ele>
        <time>2024-12-30T17:49:42.500Z</time>
      </trkpt>
      <trkpt lat="48.64474" lon="2.05201">
        <ele>172</ele>
        <time>2024-12-30T17:49:45.856Z</time>
      </trkpt>
      <trkpt lat="48.64474" lon="2.05188">
        <ele>172</ele>
        <time>2024-12-30T17:49:51.387Z</time>
      </trkpt>
      <trkpt lat="48.64474" lon="2.05175">
        <ele>172</ele>
        <time>2024-12-30T17:49:56.918Z</time>
      </trkpt>
      <trkpt lat="48.64474" lon="2.05162">
        <ele>172</ele>
        <time>2024-12-30T17:50:02.449Z</time>
      </trkpt>
      <trkpt lat="48.64474" lon="2.05149">
        <ele>172</ele>
        <time>2024-12-30T17:50:07.980Z</time>
      </trkpt>
      <trkpt lat="48.64474" lon="2.0514">
        <ele>172</ele>
        <time>2024-12-30T17:50:11.809Z</time>
      </trkpt>
      <trkpt lat="48.6447" lon="2.0514">
        <ele>172</ele>
        <time>2024-12-30T17:50:14.385Z</time>
        <extensions>
          <visugpx:TrkExtension xmlns:visugpx="https://www.visugpx.com/editgpx/">
            <visugpx:node>12</visugpx:node>
            </visugpx:TrkExtension>
        </extensions>
      </trkpt>
      <trkpt lat="48.64474" lon="2.0514">
        <ele>172</ele>
        <time>2024-12-30T17:50:16.961Z</time>
      </trkpt>
      <trkpt lat="48.64477" lon="2.0513">
        <ele>172</ele>
        <time>2024-12-30T17:50:21.633Z</time>
      </trkpt>
      <trkpt lat="48.6448" lon="2.0512">
        <ele>172</ele>
        <time>2024-12-30T17:50:26.306Z</time>
      </trkpt>
      <trkpt lat="48.64485" lon="2.05112">
        <ele>172</ele>
        <time>2024-12-30T17:50:31.148Z</time>
      </trkpt>
      <trkpt lat="48.6449" lon="2.05103">
        <ele>172</ele>
        <time>2024-12-30T17:50:35.990Z</time>
      </trkpt>
      <trkpt lat="48.64494" lon="2.05096">
        <ele>172</ele>
        <time>2024-12-30T17:50:39.789Z</time>
      </trkpt>
      <trkpt lat="48.64498" lon="2.05089">
        <ele>172</ele>
        <time>2024-12-30T17:50:43.588Z</time>
      </trkpt>
      <trkpt lat="48.64502" lon="2.05082">
        <ele>172</ele>
        <time>2024-12-30T17:50:47.387Z</time>
      </trkpt>
      <trkpt lat="48.64507" lon="2.05075">
        <ele>171.9</ele>
        <time>2024-12-30T17:50:51.186Z</time>
      </trkpt>
      <trkpt lat="48.64511" lon="2.05068">
        <ele>171.8</ele>
        <time>2024-12-30T17:50:54.985Z</time>
      </trkpt>
      <trkpt lat="48.64515" lon="2.05061">
        <ele>171.6</ele>
        <time>2024-12-30T17:50:58.784Z</time>
      </trkpt>
      <trkpt lat="48.64519" lon="2.05054">
        <ele>171.3</ele>
        <time>2024-12-30T17:51:02.584Z</time>
      </trkpt>
      <trkpt lat="48.64523" lon="2.05047">
        <ele>171.2</ele>
        <time>2024-12-30T17:51:06.384Z</time>
      </trkpt>
      <trkpt lat="48.64527" lon="2.05042">
        <ele>171</ele>
        <time>2024-12-30T17:51:09.664Z</time>
      </trkpt>
      <trkpt lat="48.6453" lon="2.05036">
        <ele>171</ele>
        <time>2024-12-30T17:51:12.944Z</time>
      </trkpt>
      <trkpt lat="48.64534" lon="2.05031">
        <ele>171</ele>
        <time>2024-12-30T17:51:16.224Z</time>
      </trkpt>
      <trkpt lat="48.64538" lon="2.05025">
        <ele>171.1</ele>
        <time>2024-12-30T17:51:19.505Z</time>
      </trkpt>
      <trkpt lat="48.64541" lon="2.0502">
        <ele>171.2</ele>
        <time>2024-12-30T17:51:22.786Z</time>
      </trkpt>
      <trkpt lat="48.64545" lon="2.05014">
        <ele>171.2</ele>
        <time>2024-12-30T17:51:26.067Z</time>
      </trkpt>
      <trkpt lat="48.64548" lon="2.05009">
        <ele>171.2</ele>
        <time>2024-12-30T17:51:29.348Z</time>
      </trkpt>
      <trkpt lat="48.64552" lon="2.05003">
        <ele>171.1</ele>
        <time>2024-12-30T17:51:32.629Z</time>
      </trkpt>
      <trkpt lat="48.64556" lon="2.04997">
        <ele>171</ele>
        <time>2024-12-30T17:51:35.959Z</time>
      </trkpt>
      <trkpt lat="48.64559" lon="2.04991">
        <ele>171</ele>
        <time>2024-12-30T17:51:39.290Z</time>
      </trkpt>
      <trkpt lat="48.64563" lon="2.04985">
        <ele>171</ele>
        <time>2024-12-30T17:51:42.621Z</time>
      </trkpt>
      <trkpt lat="48.64567" lon="2.04979">
        <ele>171</ele>
        <time>2024-12-30T17:51:45.952Z</time>
      </trkpt>
      <trkpt lat="48.6457" lon="2.04972">
        <ele>171</ele>
        <time>2024-12-30T17:51:49.283Z</time>
      </trkpt>
      <trkpt lat="48.64574" lon="2.04966">
        <ele>170.9</ele>
        <time>2024-12-30T17:51:52.614Z</time>
      </trkpt>
      <trkpt lat="48.64577" lon="2.0496">
        <ele>170.7</ele>
        <time>2024-12-30T17:51:55.945Z</time>
      </trkpt>
      <trkpt lat="48.64581" lon="2.04954">
        <ele>170.4</ele>
        <time>2024-12-30T17:51:59.276Z</time>
      </trkpt>
      <trkpt lat="48.64584" lon="2.04949">
        <ele>170.1</ele>
        <time>2024-12-30T17:52:02.225Z</time>
      </trkpt>
      <trkpt lat="48.64588" lon="2.04943">
        <ele>170</ele>
        <time>2024-12-30T17:52:05.175Z</time>
      </trkpt>
      <trkpt lat="48.64591" lon="2.04938">
        <ele>170</ele>
        <time>2024-12-30T17:52:08.125Z</time>
      </trkpt>
      <trkpt lat="48.64594" lon="2.04932">
        <ele>170</ele>
        <time>2024-12-30T17:52:11.075Z</time>
      </trkpt>
      <trkpt lat="48.64597" lon="2.04927">
        <ele>170</ele>
        <time>2024-12-30T17:52:14.058Z</time>
      </trkpt>
      <trkpt lat="48.646" lon="2.04921">
        <ele>170</ele>
        <time>2024-12-30T17:52:17.041Z</time>
      </trkpt>
      <trkpt lat="48.64603" lon="2.04916">
        <ele>170</ele>
        <time>2024-12-30T17:52:20.025Z</time>
      </trkpt>
      <trkpt lat="48.64606" lon="2.0491">
        <ele>170</ele>
        <time>2024-12-30T17:52:23.009Z</time>
      </trkpt>
      <trkpt lat="48.64608" lon="2.04905">
        <ele>170</ele>
        <time>2024-12-30T17:52:25.993Z</time>
      </trkpt>
      <trkpt lat="48.64611" lon="2.04899">
        <ele>170</ele>
        <time>2024-12-30T17:52:28.977Z</time>
      </trkpt>
      <trkpt lat="48.64614" lon="2.04894">
        <ele>170</ele>
        <time>2024-12-30T17:52:31.961Z</time>
      </trkpt>
      <trkpt lat="48.64617" lon="2.04888">
        <ele>170</ele>
        <time>2024-12-30T17:52:34.945Z</time>
      </trkpt>
      <trkpt lat="48.64621" lon="2.04882">
        <ele>170.2</ele>
        <time>2024-12-30T17:52:38.901Z</time>
      </trkpt>
      <trkpt lat="48.64624" lon="2.04876">
        <ele>170.5</ele>
        <time>2024-12-30T17:52:42.857Z</time>
        <extensions>
          <visugpx:TrkExtension xmlns:visugpx="https://www.visugpx.com/editgpx/">
            <visugpx:node>13</visugpx:node>
            </visugpx:TrkExtension>
        </extensions>
      </trkpt>
      <trkpt lat="48.64624" lon="2.04876">
        <ele>170.5</ele>
        <time>2024-12-30T17:52:42.857Z</time>
      </trkpt>
      <trkpt lat="48.64624" lon="2.04876">
        <ele>170.5</ele>
        <time>2024-12-30T17:52:42.857Z</time>
      </trkpt>
      <trkpt lat="48.64619" lon="2.04872">
        <ele>170.6</ele>
        <time>2024-12-30T17:52:46.965Z</time>
      </trkpt>
      <trkpt lat="48.64613" lon="2.04867">
        <ele>170.8</ele>
        <time>2024-12-30T17:52:51.075Z</time>
      </trkpt>
      <trkpt lat="48.64606" lon="2.04863">
        <ele>170.9</ele>
        <time>2024-12-30T17:52:55.973Z</time>
      </trkpt>
      <trkpt lat="48.64599" lon="2.04859">
        <ele>171</ele>
        <time>2024-12-30T17:53:00.871Z</time>
      </trkpt>
      <trkpt lat="48.64592" lon="2.04855">
        <ele>171</ele>
        <time>2024-12-30T17:53:05.769Z</time>
      </trkpt>
      <trkpt lat="48.64585" lon="2.04852">
        <ele>171</ele>
        <time>2024-12-30T17:53:10.667Z</time>
      </trkpt>
      <trkpt lat="48.64578" lon="2.04848">
        <ele>171</ele>
        <time>2024-12-30T17:53:15.565Z</time>
      </trkpt>
      <trkpt lat="48.64571" lon="2.04844">
        <ele>171</ele>
        <time>2024-12-30T17:53:20.464Z</time>
      </trkpt>
      <trkpt lat="48.64564" lon="2.0484">
        <ele>171</ele>
        <time>2024-12-30T17:53:25.363Z</time>
      </trkpt>
      <trkpt lat="48.64557" lon="2.04836">
        <ele>171</ele>
        <time>2024-12-30T17:53:30.263Z</time>
      </trkpt>
      <trkpt lat="48.64557" lon="2.04827">
        <ele>171</ele>
        <time>2024-12-30T17:53:34.178Z</time>
      </trkpt>
      <trkpt lat="48.64558" lon="2.04818">
        <ele>171</ele>
        <time>2024-12-30T17:53:38.093Z</time>
      </trkpt>
      <trkpt lat="48.64558" lon="2.04809">
        <ele>171</ele>
        <time>2024-12-30T17:53:42.009Z</time>
      </trkpt>
      <trkpt lat="48.64559" lon="2.048">
        <ele>171.2</ele>
        <time>2024-12-30T17:53:45.925Z</time>
      </trkpt>
      <trkpt lat="48.64559" lon="2.04791">
        <ele>171.5</ele>
        <time>2024-12-30T17:53:49.841Z</time>
      </trkpt>
      <trkpt lat="48.64559" lon="2.04782">
        <ele>171.8</ele>
        <time>2024-12-30T17:53:53.757Z</time>
      </trkpt>
      <trkpt lat="48.6456" lon="2.04773">
        <ele>172</ele>
        <time>2024-12-30T17:53:57.673Z</time>
      </trkpt>
      <trkpt lat="48.6456" lon="2.04764">
        <ele>172</ele>
        <time>2024-12-30T17:54:01.589Z</time>
      </trkpt>
      <trkpt lat="48.64561" lon="2.04757">
        <ele>172</ele>
        <time>2024-12-30T17:54:04.561Z</time>
      </trkpt>
      <trkpt lat="48.64562" lon="2.04751">
        <ele>172</ele>
        <time>2024-12-30T17:54:07.533Z</time>
      </trkpt>
      <trkpt lat="48.64562" lon="2.04744">
        <ele>172</ele>
        <time>2024-12-30T17:54:10.505Z</time>
      </trkpt>
      <trkpt lat="48.64563" lon="2.04737">
        <ele>172</ele>
        <time>2024-12-30T17:54:13.477Z</time>
      </trkpt>
      <trkpt lat="48.64565" lon="2.04728">
        <ele>172</ele>
        <time>2024-12-30T17:54:17.806Z</time>
      </trkpt>
      <trkpt lat="48.64567" lon="2.04718">
        <ele>172</ele>
        <time>2024-12-30T17:54:22.136Z</time>
      </trkpt>
      <trkpt lat="48.6457" lon="2.0471">
        <ele>172</ele>
        <time>2024-12-30T17:54:25.955Z</time>
      </trkpt>
      <trkpt lat="48.64573" lon="2.04703">
        <ele>172</ele>
        <time>2024-12-30T17:54:29.775Z</time>
      </trkpt>
      <trkpt lat="48.64575" lon="2.04695">
        <ele>172</ele>
        <time>2024-12-30T17:54:33.595Z</time>
      </trkpt>
      <trkpt lat="48.64578" lon="2.04687">
        <ele>172.2</ele>
        <time>2024-12-30T17:54:37.415Z</time>
      </trkpt>
      <trkpt lat="48.6458" lon="2.04678">
        <ele>172.5</ele>
        <time>2024-12-30T17:54:41.518Z</time>
      </trkpt>
      <trkpt lat="48.64581" lon="2.04669">
        <ele>172.9</ele>
        <time>2024-12-30T17:54:45.621Z</time>
      </trkpt>
      <trkpt lat="48.64583" lon="2.0466">
        <ele>173</ele>
        <time>2024-12-30T17:54:49.725Z</time>
      </trkpt>
      <trkpt lat="48.64585" lon="2.04651">
        <ele>173</ele>
        <time>2024-12-30T17:54:53.829Z</time>
      </trkpt>
      <trkpt lat="48.64586" lon="2.04641">
        <ele>172.9</ele>
        <time>2024-12-30T17:54:57.933Z</time>
      </trkpt>
      <trkpt lat="48.64588" lon="2.04632">
        <ele>172.9</ele>
        <time>2024-12-30T17:55:02.037Z</time>
      </trkpt>
      <trkpt lat="48.64589" lon="2.04623">
        <ele>172.9</ele>
        <time>2024-12-30T17:55:06.141Z</time>
      </trkpt>
      <trkpt lat="48.64591" lon="2.04614">
        <ele>173</ele>
        <time>2024-12-30T17:55:10.245Z</time>
      </trkpt>
      <trkpt lat="48.64593" lon="2.04608">
        <ele>173</ele>
        <time>2024-12-30T17:55:13.163Z</time>
      </trkpt>
      <trkpt lat="48.64588" lon="2.04604">
        <ele>173</ele>
        <time>2024-12-30T17:55:17.271Z</time>
      </trkpt>
      <trkpt lat="48.64582" lon="2.04599">
        <ele>173</ele>
        <time>2024-12-30T17:55:21.380Z</time>
      </trkpt>
      <trkpt lat="48.64577" lon="2.04595">
        <ele>172.9</ele>
        <time>2024-12-30T17:55:25.489Z</time>
      </trkpt>
      <trkpt lat="48.64571" lon="2.0459">
        <ele>172.9</ele>
        <time>2024-12-30T17:55:29.599Z</time>
      </trkpt>
      <trkpt lat="48.64567" lon="2.04587">
        <ele>172.9</ele>
        <time>2024-12-30T17:55:32.830Z</time>
      </trkpt>
      <trkpt lat="48.64562" lon="2.04584">
        <ele>173</ele>
        <time>2024-12-30T17:55:36.061Z</time>
      </trkpt>
      <trkpt lat="48.64558" lon="2.04581">
        <ele>173</ele>
        <time>2024-12-30T17:55:39.292Z</time>
      </trkpt>
      <trkpt lat="48.64553" lon="2.04578">
        <ele>172.9</ele>
        <time>2024-12-30T17:55:42.525Z</time>
        <extensions>
          <visugpx:TrkExtension xmlns:visugpx="https://www.visugpx.com/editgpx/">
            <visugpx:node>14</visugpx:node>
            </visugpx:TrkExtension>
        </extensions>
      </trkpt>
      <trkpt lat="48.64549" lon="2.04575">
        <ele>172.8</ele>
        <time>2024-12-30T17:55:45.756Z</time>
      </trkpt>
      <trkpt lat="48.64544" lon="2.04572">
        <ele>172.8</ele>
        <time>2024-12-30T17:55:48.987Z</time>
      </trkpt>
      <trkpt lat="48.6454" lon="2.04569">
        <ele>172.7</ele>
        <time>2024-12-30T17:55:52.219Z</time>
      </trkpt>
      <trkpt lat="48.64535" lon="2.04566">
        <ele>172.7</ele>
        <time>2024-12-30T17:55:55.452Z</time>
      </trkpt>
      <trkpt lat="48.64527" lon="2.04562">
        <ele>172.8</ele>
        <time>2024-12-30T17:56:00.799Z</time>
      </trkpt>
      <trkpt lat="48.6452" lon="2.04559">
        <ele>172.9</ele>
        <time>2024-12-30T17:56:06.146Z</time>
      </trkpt>
      <trkpt lat="48.64512" lon="2.04555">
        <ele>173</ele>
        <time>2024-12-30T17:56:11.493Z</time>
      </trkpt>
      <trkpt lat="48.64504" lon="2.04551">
        <ele>173</ele>
        <time>2024-12-30T17:56:16.842Z</time>
      </trkpt>
      <trkpt lat="48.64497" lon="2.04548">
        <ele>173</ele>
        <time>2024-12-30T17:56:21.861Z</time>
      </trkpt>
      <trkpt lat="48.64489" lon="2.04545">
        <ele>173</ele>
        <time>2024-12-30T17:56:26.880Z</time>
      </trkpt>
      <trkpt lat="48.64482" lon="2.04542">
        <ele>173</ele>
        <time>2024-12-30T17:56:31.899Z</time>
      </trkpt>
      <trkpt lat="48.64475" lon="2.04539">
        <ele>173</ele>
        <time>2024-12-30T17:56:36.918Z</time>
      </trkpt>
      <trkpt lat="48.64467" lon="2.04536">
        <ele>173</ele>
        <time>2024-12-30T17:56:41.937Z</time>
      </trkpt>
      <trkpt lat="48.6446" lon="2.04533">
        <ele>173</ele>
        <time>2024-12-30T17:56:46.956Z</time>
      </trkpt>
      <trkpt lat="48.64452" lon="2.0453">
        <ele>173</ele>
        <time>2024-12-30T17:56:51.975Z</time>
      </trkpt>
      <trkpt lat="48.64445" lon="2.04527">
        <ele>173</ele>
        <time>2024-12-30T17:56:56.994Z</time>
      </trkpt>
      <trkpt lat="48.64438" lon="2.04524">
        <ele>173</ele>
        <time>2024-12-30T17:57:02.013Z</time>
      </trkpt>
      <trkpt lat="48.6443" lon="2.04521">
        <ele>173</ele>
        <time>2024-12-30T17:57:07.032Z</time>
      </trkpt>
      <trkpt lat="48.64423" lon="2.04518">
        <ele>173</ele>
        <time>2024-12-30T17:57:12.051Z</time>
      </trkpt>
      <trkpt lat="48.64416" lon="2.04515">
        <ele>173</ele>
        <time>2024-12-30T17:57:17.070Z</time>
      </trkpt>
      <trkpt lat="48.64408" lon="2.04512">
        <ele>173</ele>
        <time>2024-12-30T17:57:22.089Z</time>
      </trkpt>
      <trkpt lat="48.64401" lon="2.04509">
        <ele>173</ele>
        <time>2024-12-30T17:57:27.108Z</time>
      </trkpt>
      <trkpt lat="48.64393" lon="2.04506">
        <ele>173</ele>
        <time>2024-12-30T17:57:32.127Z</time>
      </trkpt>
      <trkpt lat="48.64386" lon="2.04503">
        <ele>173</ele>
        <time>2024-12-30T17:57:37.147Z</time>
      </trkpt>
      <trkpt lat="48.64379" lon="2.04499">
        <ele>173</ele>
        <time>2024-12-30T17:57:42.297Z</time>
      </trkpt>
      <trkpt lat="48.64372" lon="2.04494">
        <ele>172.9</ele>
        <time>2024-12-30T17:57:47.447Z</time>
      </trkpt>
      <trkpt lat="48.64364" lon="2.0449">
        <ele>173</ele>
        <time>2024-12-30T17:57:52.597Z</time>
      </trkpt>
      <trkpt lat="48.64357" lon="2.04485">
        <ele>173</ele>
        <time>2024-12-30T17:57:57.748Z</time>
      </trkpt>
      <trkpt lat="48.64353" lon="2.04483">
        <ele>173</ele>
        <time>2024-12-30T17:58:00.517Z</time>
      </trkpt>
      <trkpt lat="48.64353" lon="2.04483">
        <ele>173</ele>
        <time>2024-12-30T17:58:00.517Z</time>
        <extensions>
          <visugpx:TrkExtension xmlns:visugpx="https://www.visugpx.com/editgpx/">
            <visugpx:node>15</visugpx:node>
            </visugpx:TrkExtension>
        </extensions>
      </trkpt>
      <trkpt lat="48.64347" lon="2.04479">
        <ele>173</ele>
        <time>2024-12-30T17:58:04.570Z</time>
      </trkpt>
      <trkpt lat="48.64342" lon="2.04475">
        <ele>173</ele>
        <time>2024-12-30T17:58:08.623Z</time>
      </trkpt>
      <trkpt lat="48.64336" lon="2.04471">
        <ele>173</ele>
        <time>2024-12-30T17:58:12.676Z</time>
      </trkpt>
      <trkpt lat="48.6433" lon="2.04468">
        <ele>173</ele>
        <time>2024-12-30T17:58:16.729Z</time>
      </trkpt>
      <trkpt lat="48.64324" lon="2.04464">
        <ele>173</ele>
        <time>2024-12-30T17:58:20.782Z</time>
      </trkpt>
      <trkpt lat="48.64319" lon="2.0446">
        <ele>173</ele>
        <time>2024-12-30T17:58:24.835Z</time>
      </trkpt>
      <trkpt lat="48.64313" lon="2.04456">
        <ele>173</ele>
        <time>2024-12-30T17:58:28.888Z</time>
      </trkpt>
      <trkpt lat="48.64307" lon="2.04452">
        <ele>173</ele>
        <time>2024-12-30T17:58:32.942Z</time>
      </trkpt>
      <trkpt lat="48.64302" lon="2.04449">
        <ele>172.9</ele>
        <time>2024-12-30T17:58:36.230Z</time>
      </trkpt>
      <trkpt lat="48.64297" lon="2.04446">
        <ele>172.7</ele>
        <time>2024-12-30T17:58:39.518Z</time>
      </trkpt>
      <trkpt lat="48.64291" lon="2.04443">
        <ele>172.5</ele>
        <time>2024-12-30T17:58:42.807Z</time>
      </trkpt>
      <trkpt lat="48.64286" lon="2.0444">
        <ele>172.3</ele>
        <time>2024-12-30T17:58:46.097Z</time>
      </trkpt>
      <trkpt lat="48.6428" lon="2.04437">
        <ele>172.1</ele>
        <time>2024-12-30T17:58:49.942Z</time>
      </trkpt>
      <trkpt lat="48.64274" lon="2.04434">
        <ele>172</ele>
        <time>2024-12-30T17:58:53.788Z</time>
      </trkpt>
      <trkpt lat="48.64268" lon="2.04431">
        <ele>172</ele>
        <time>2024-12-30T17:58:57.634Z</time>
      </trkpt>
      <trkpt lat="48.64262" lon="2.04429">
        <ele>172</ele>
        <time>2024-12-30T17:59:01.480Z</time>
      </trkpt>
      <trkpt lat="48.64256" lon="2.04426">
        <ele>172</ele>
        <time>2024-12-30T17:59:05.326Z</time>
      </trkpt>
      <trkpt lat="48.6425" lon="2.04423">
        <ele>172</ele>
        <time>2024-12-30T17:59:09.172Z</time>
      </trkpt>
      <trkpt lat="48.64244" lon="2.0442">
        <ele>171.8</ele>
        <time>2024-12-30T17:59:13.018Z</time>
      </trkpt>
      <trkpt lat="48.64239" lon="2.04417">
        <ele>171.6</ele>
        <time>2024-12-30T17:59:16.864Z</time>
      </trkpt>
      <trkpt lat="48.64233" lon="2.04414">
        <ele>171.4</ele>
        <time>2024-12-30T17:59:20.710Z</time>
      </trkpt>
      <trkpt lat="48.64227" lon="2.04411">
        <ele>171.2</ele>
        <time>2024-12-30T17:59:24.556Z</time>
      </trkpt>
      <trkpt lat="48.64221" lon="2.04408">
        <ele>171</ele>
        <time>2024-12-30T17:59:28.402Z</time>
      </trkpt>
      <trkpt lat="48.64215" lon="2.04406">
        <ele>171</ele>
        <time>2024-12-30T17:59:32.248Z</time>
      </trkpt>
      <trkpt lat="48.64209" lon="2.04403">
        <ele>171</ele>
        <time>2024-12-30T17:59:36.094Z</time>
      </trkpt>
      <trkpt lat="48.64203" lon="2.044">
        <ele>171</ele>
        <time>2024-12-30T17:59:39.940Z</time>
      </trkpt>
      <trkpt lat="48.64197" lon="2.04397">
        <ele>171</ele>
        <time>2024-12-30T17:59:43.786Z</time>
      </trkpt>
      <trkpt lat="48.64191" lon="2.04394">
        <ele>170.9</ele>
        <time>2024-12-30T17:59:47.633Z</time>
      </trkpt>
      <trkpt lat="48.64183" lon="2.04391">
        <ele>170.6</ele>
        <time>2024-12-30T17:59:52.381Z</time>
      </trkpt>
      <trkpt lat="48.64175" lon="2.04387">
        <ele>170.3</ele>
        <time>2024-12-30T17:59:57.129Z</time>
      </trkpt>
      <trkpt lat="48.64167" lon="2.04384">
        <ele>170</ele>
        <time>2024-12-30T18:00:01.877Z</time>
      </trkpt>
      <trkpt lat="48.64159" lon="2.0438">
        <ele>169.7</ele>
        <time>2024-12-30T18:00:06.625Z</time>
      </trkpt>
      <trkpt lat="48.64151" lon="2.04377">
        <ele>169.4</ele>
        <time>2024-12-30T18:00:11.373Z</time>
      </trkpt>
      <trkpt lat="48.64143" lon="2.04373">
        <ele>169.1</ele>
        <time>2024-12-30T18:00:16.121Z</time>
      </trkpt>
      <trkpt lat="48.64135" lon="2.0437">
        <ele>168.8</ele>
        <time>2024-12-30T18:00:20.869Z</time>
      </trkpt>
      <trkpt lat="48.64127" lon="2.04366">
        <ele>168.2</ele>
        <time>2024-12-30T18:00:25.618Z</time>
      </trkpt>
      <trkpt lat="48.64122" lon="2.04362">
        <ele>167.8</ele>
        <time>2024-12-30T18:00:29.055Z</time>
      </trkpt>
      <trkpt lat="48.64116" lon="2.04358">
        <ele>167.4</ele>
        <time>2024-12-30T18:00:32.494Z</time>
      </trkpt>
      <trkpt lat="48.64112" lon="2.04352">
        <ele>167</ele>
        <time>2024-12-30T18:00:35.998Z</time>
      </trkpt>
      <trkpt lat="48.64107" lon="2.04345">
        <ele>166.4</ele>
        <time>2024-12-30T18:00:39.504Z</time>
      </trkpt>
      <trkpt lat="48.64103" lon="2.04339">
        <ele>165.6</ele>
        <time>2024-12-30T18:00:42.810Z</time>
      </trkpt>
      <trkpt lat="48.64099" lon="2.04332">
        <ele>164.8</ele>
        <time>2024-12-30T18:00:46.117Z</time>
      </trkpt>
      <trkpt lat="48.64095" lon="2.04326">
        <ele>163.9</ele>
        <time>2024-12-30T18:00:49.424Z</time>
      </trkpt>
      <trkpt lat="48.64091" lon="2.04319">
        <ele>163</ele>
        <time>2024-12-30T18:00:52.731Z</time>
      </trkpt>
      <trkpt lat="48.64087" lon="2.04313">
        <ele>162</ele>
        <time>2024-12-30T18:00:56.038Z</time>
      </trkpt>
      <trkpt lat="48.64083" lon="2.04306">
        <ele>160.9</ele>
        <time>2024-12-30T18:00:59.345Z</time>
      </trkpt>
      <trkpt lat="48.64079" lon="2.043">
        <ele>160.3</ele>
        <time>2024-12-30T18:01:02.652Z</time>
      </trkpt>
      <trkpt lat="48.64075" lon="2.04293">
        <ele>159.7</ele>
        <time>2024-12-30T18:01:05.960Z</time>
      </trkpt>
      <trkpt lat="48.64071" lon="2.04287">
        <ele>159</ele>
        <time>2024-12-30T18:01:09.266Z</time>
      </trkpt>
      <trkpt lat="48.64067" lon="2.0428">
        <ele>158.4</ele>
        <time>2024-12-30T18:01:12.574Z</time>
      </trkpt>
      <trkpt lat="48.64062" lon="2.04274">
        <ele>157.6</ele>
        <time>2024-12-30T18:01:16.393Z</time>
      </trkpt>
      <trkpt lat="48.64056" lon="2.04268">
        <ele>156.8</ele>
        <time>2024-12-30T18:01:20.214Z</time>
      </trkpt>
      <trkpt lat="48.64051" lon="2.04266">
        <ele>156.1</ele>
        <time>2024-12-30T18:01:23.264Z</time>
      </trkpt>
      <trkpt lat="48.64046" lon="2.04264">
        <ele>155.4</ele>
        <time>2024-12-30T18:01:26.314Z</time>
      </trkpt>
      <trkpt lat="48.6404" lon="2.04262">
        <ele>154.6</ele>
        <time>2024-12-30T18:01:29.365Z</time>
      </trkpt>
      <trkpt lat="48.64035" lon="2.0426">
        <ele>153.8</ele>
        <time>2024-12-30T18:01:32.416Z</time>
      </trkpt>
      <trkpt lat="48.64029" lon="2.04258">
        <ele>152.9</ele>
        <time>2024-12-30T18:01:35.997Z</time>
      </trkpt>
      <trkpt lat="48.64023" lon="2.04257">
        <ele>152.4</ele>
        <time>2024-12-30T18:01:39.578Z</time>
      </trkpt>
      <trkpt lat="48.64016" lon="2.04255">
        <ele>152</ele>
        <time>2024-12-30T18:01:43.159Z</time>
      </trkpt>
      <trkpt lat="48.6401" lon="2.04253">
        <ele>151.6</ele>
        <time>2024-12-30T18:01:46.741Z</time>
      </trkpt>
      <trkpt lat="48.64004" lon="2.0425">
        <ele>151.3</ele>
        <time>2024-12-30T18:01:50.363Z</time>
      </trkpt>
      <trkpt lat="48.63998" lon="2.04246">
        <ele>151</ele>
        <time>2024-12-30T18:01:53.987Z</time>
      </trkpt>
      <trkpt lat="48.63993" lon="2.04241">
        <ele>150.9</ele>
        <time>2024-12-30T18:01:58.343Z</time>
      </trkpt>
      <trkpt lat="48.63988" lon="2.04236">
        <ele>150.9</ele>
        <time>2024-12-30T18:02:02.699Z</time>
      </trkpt>
      <trkpt lat="48.63984" lon="2.04231">
        <ele>150.9</ele>
        <time>2024-12-30T18:02:07.055Z</time>
      </trkpt>
      <trkpt lat="48.63979" lon="2.04226">
        <ele>151</ele>
        <time>2024-12-30T18:02:11.411Z</time>
      </trkpt>
      <trkpt lat="48.63974" lon="2.04221">
        <ele>151.1</ele>
        <time>2024-12-30T18:02:15.767Z</time>
      </trkpt>
      <trkpt lat="48.63969" lon="2.04216">
        <ele>151</ele>
        <time>2024-12-30T18:02:20.123Z</time>
      </trkpt>
      <trkpt lat="48.63965" lon="2.04211">
        <ele>151.1</ele>
        <time>2024-12-30T18:02:24.479Z</time>
      </trkpt>
      <trkpt lat="48.6396" lon="2.04207">
        <ele>151.3</ele>
        <time>2024-12-30T18:02:28.835Z</time>
      </trkpt>
      <trkpt lat="48.63955" lon="2.04202">
        <ele>151.5</ele>
        <time>2024-12-30T18:02:33.191Z</time>
      </trkpt>
      <trkpt lat="48.6395" lon="2.04197">
        <ele>151.7</ele>
        <time>2024-12-30T18:02:37.547Z</time>
      </trkpt>
      <trkpt lat="48.63945" lon="2.04192">
        <ele>152</ele>
        <time>2024-12-30T18:02:41.903Z</time>
      </trkpt>
      <trkpt lat="48.63941" lon="2.04187">
        <ele>152.2</ele>
        <time>2024-12-30T18:02:46.259Z</time>
      </trkpt>
      <trkpt lat="48.63936" lon="2.04182">
        <ele>152.5</ele>
        <time>2024-12-30T18:02:50.615Z</time>
      </trkpt>
      <trkpt lat="48.63931" lon="2.04177">
        <ele>152.8</ele>
        <time>2024-12-30T18:02:54.971Z</time>
      </trkpt>
      <trkpt lat="48.63926" lon="2.04172">
        <ele>153.2</ele>
        <time>2024-12-30T18:02:59.327Z</time>
      </trkpt>
      <trkpt lat="48.63922" lon="2.04167">
        <ele>153.6</ele>
        <time>2024-12-30T18:03:03.683Z</time>
      </trkpt>
      <trkpt lat="48.63917" lon="2.04162">
        <ele>154</ele>
        <time>2024-12-30T18:03:08.039Z</time>
      </trkpt>
      <trkpt lat="48.63912" lon="2.04157">
        <ele>154.3</ele>
        <time>2024-12-30T18:03:12.396Z</time>
      </trkpt>
      <trkpt lat="48.63907" lon="2.04152">
        <ele>154.7</ele>
        <time>2024-12-30T18:03:16.753Z</time>
      </trkpt>
      <trkpt lat="48.63902" lon="2.04147">
        <ele>155</ele>
        <time>2024-12-30T18:03:21.110Z</time>
      </trkpt>
      <trkpt lat="48.63898" lon="2.04142">
        <ele>155.4</ele>
        <time>2024-12-30T18:03:25.467Z</time>
      </trkpt>
      <trkpt lat="48.63893" lon="2.04137">
        <ele>155.7</ele>
        <time>2024-12-30T18:03:29.824Z</time>
      </trkpt>
      <trkpt lat="48.63888" lon="2.04132">
        <ele>156.1</ele>
        <time>2024-12-30T18:03:34.181Z</time>
      </trkpt>
      <trkpt lat="48.63883" lon="2.04128">
        <ele>156.4</ele>
        <time>2024-12-30T18:03:38.538Z</time>
      </trkpt>
      <trkpt lat="48.63879" lon="2.04123">
        <ele>156.7</ele>
        <time>2024-12-30T18:03:42.895Z</time>
      </trkpt>
      <trkpt lat="48.63874" lon="2.04118">
        <ele>157.1</ele>
        <time>2024-12-30T18:03:47.252Z</time>
      </trkpt>
      <trkpt lat="48.63869" lon="2.04113">
        <ele>157.4</ele>
        <time>2024-12-30T18:03:51.609Z</time>
      </trkpt>
      <trkpt lat="48.63864" lon="2.04108">
        <ele>157.9</ele>
        <time>2024-12-30T18:03:55.966Z</time>
      </trkpt>
      <trkpt lat="48.63859" lon="2.04103">
        <ele>158.5</ele>
        <time>2024-12-30T18:04:00.323Z</time>
      </trkpt>
      <trkpt lat="48.63855" lon="2.04098">
        <ele>159.1</ele>
        <time>2024-12-30T18:04:04.680Z</time>
      </trkpt>
      <trkpt lat="48.6385" lon="2.04093">
        <ele>159.6</ele>
        <time>2024-12-30T18:04:09.037Z</time>
      </trkpt>
      <trkpt lat="48.63845" lon="2.04088">
        <ele>160.1</ele>
        <time>2024-12-30T18:04:13.395Z</time>
      </trkpt>
      <trkpt lat="48.6384" lon="2.04084">
        <ele>160.5</ele>
        <time>2024-12-30T18:04:17.488Z</time>
      </trkpt>
      <trkpt lat="48.63836" lon="2.0408">
        <ele>160.9</ele>
        <time>2024-12-30T18:04:21.581Z</time>
      </trkpt>
      <trkpt lat="48.63831" lon="2.04076">
        <ele>161.4</ele>
        <time>2024-12-30T18:04:25.674Z</time>
      </trkpt>
      <trkpt lat="48.63827" lon="2.04073">
        <ele>161.8</ele>
        <time>2024-12-30T18:04:29.767Z</time>
      </trkpt>
      <trkpt lat="48.63822" lon="2.04069">
        <ele>162.1</ele>
        <time>2024-12-30T18:04:33.861Z</time>
      </trkpt>
      <trkpt lat="48.63818" lon="2.04065">
        <ele>162.4</ele>
        <time>2024-12-30T18:04:37.955Z</time>
      </trkpt>
      <trkpt lat="48.63813" lon="2.04061">
        <ele>162.7</ele>
        <time>2024-12-30T18:04:42.049Z</time>
      </trkpt>
      <trkpt lat="48.63809" lon="2.04057">
        <ele>162.9</ele>
        <time>2024-12-30T18:04:46.143Z</time>
      </trkpt>
      <trkpt lat="48.63804" lon="2.04053">
        <ele>163.1</ele>
        <time>2024-12-30T18:04:50.237Z</time>
      </trkpt>
      <trkpt lat="48.63799" lon="2.04049">
        <ele>163.4</ele>
        <time>2024-12-30T18:04:54.331Z</time>
      </trkpt>
      <trkpt lat="48.63795" lon="2.04045">
        <ele>163.8</ele>
        <time>2024-12-30T18:04:58.425Z</time>
      </trkpt>
      <trkpt lat="48.6379" lon="2.04042">
        <ele>164.1</ele>
        <time>2024-12-30T18:05:02.519Z</time>
      </trkpt>
      <trkpt lat="48.63786" lon="2.04038">
        <ele>164.4</ele>
        <time>2024-12-30T18:05:06.613Z</time>
      </trkpt>
      <trkpt lat="48.63781" lon="2.04034">
        <ele>164.8</ele>
        <time>2024-12-30T18:05:10.707Z</time>
      </trkpt>
      <trkpt lat="48.63777" lon="2.0403">
        <ele>165</ele>
        <time>2024-12-30T18:05:14.801Z</time>
      </trkpt>
      <trkpt lat="48.63772" lon="2.04026">
        <ele>165.2</ele>
        <time>2024-12-30T18:05:18.896Z</time>
      </trkpt>
      <trkpt lat="48.63765" lon="2.0402">
        <ele>165.5</ele>
        <time>2024-12-30T18:05:24.929Z</time>
      </trkpt>
      <trkpt lat="48.63757" lon="2.04015">
        <ele>165.7</ele>
        <time>2024-12-30T18:05:30.963Z</time>
      </trkpt>
      <trkpt lat="48.6375" lon="2.04009">
        <ele>166</ele>
        <time>2024-12-30T18:05:36.997Z</time>
      </trkpt>
      <trkpt lat="48.63742" lon="2.04004">
        <ele>166.3</ele>
        <time>2024-12-30T18:05:43.031Z</time>
      </trkpt>
      <trkpt lat="48.63735" lon="2.03998">
        <ele>166.6</ele>
        <time>2024-12-30T18:05:49.065Z</time>
      </trkpt>
      <trkpt lat="48.63727" lon="2.03992">
        <ele>166.8</ele>
        <time>2024-12-30T18:05:55.099Z</time>
      </trkpt>
      <trkpt lat="48.6372" lon="2.03987">
        <ele>167.1</ele>
        <time>2024-12-30T18:06:01.133Z</time>
      </trkpt>
      <trkpt lat="48.63712" lon="2.03981">
        <ele>167.6</ele>
        <time>2024-12-30T18:06:07.168Z</time>
      </trkpt>
      <trkpt lat="48.63706" lon="2.03977">
        <ele>168.1</ele>
        <time>2024-12-30T18:06:11.897Z</time>
      </trkpt>
      <trkpt lat="48.637" lon="2.03972">
        <ele>168.6</ele>
        <time>2024-12-30T18:06:16.626Z</time>
      </trkpt>
      <trkpt lat="48.63694" lon="2.03968">
        <ele>169</ele>
        <time>2024-12-30T18:06:21.355Z</time>
      </trkpt>
      <trkpt lat="48.63688" lon="2.03964">
        <ele>169.2</ele>
        <time>2024-12-30T18:06:26.084Z</time>
      </trkpt>
      <trkpt lat="48.63682" lon="2.03959">
        <ele>169.4</ele>
        <time>2024-12-30T18:06:30.813Z</time>
      </trkpt>
      <trkpt lat="48.63676" lon="2.03955">
        <ele>169.7</ele>
        <time>2024-12-30T18:06:35.542Z</time>
      </trkpt>
      <trkpt lat="48.6367" lon="2.03951">
        <ele>169.9</ele>
        <time>2024-12-30T18:06:40.271Z</time>
      </trkpt>
      <trkpt lat="48.63664" lon="2.03947">
        <ele>170</ele>
        <time>2024-12-30T18:06:45.000Z</time>
      </trkpt>
      <trkpt lat="48.63658" lon="2.03942">
        <ele>170</ele>
        <time>2024-12-30T18:06:49.729Z</time>
      </trkpt>
      <trkpt lat="48.63652" lon="2.03938">
        <ele>170.1</ele>
        <time>2024-12-30T18:06:54.458Z</time>
      </trkpt>
      <trkpt lat="48.63646" lon="2.03934">
        <ele>170.3</ele>
        <time>2024-12-30T18:06:59.187Z</time>
      </trkpt>
      <trkpt lat="48.6364" lon="2.03929">
        <ele>170.5</ele>
        <time>2024-12-30T18:07:03.917Z</time>
      </trkpt>
      <trkpt lat="48.63634" lon="2.03925">
        <ele>170.8</ele>
        <time>2024-12-30T18:07:08.647Z</time>
      </trkpt>
      <trkpt lat="48.63628" lon="2.03921">
        <ele>170.9</ele>
        <time>2024-12-30T18:07:13.377Z</time>
      </trkpt>
      <trkpt lat="48.63622" lon="2.03916">
        <ele>171</ele>
        <time>2024-12-30T18:07:18.107Z</time>
      </trkpt>
      <trkpt lat="48.63616" lon="2.03912">
        <ele>171</ele>
        <time>2024-12-30T18:07:22.838Z</time>
      </trkpt>
      <trkpt lat="48.63611" lon="2.03909">
        <ele>171</ele>
        <time>2024-12-30T18:07:26.236Z</time>
      </trkpt>
      <trkpt lat="48.63607" lon="2.03905">
        <ele>171</ele>
        <time>2024-12-30T18:07:29.634Z</time>
      </trkpt>
      <trkpt lat="48.63602" lon="2.03902">
        <ele>171</ele>
        <time>2024-12-30T18:07:33.032Z</time>
      </trkpt>
      <trkpt lat="48.63597" lon="2.03898">
        <ele>171</ele>
        <time>2024-12-30T18:07:36.430Z</time>
      </trkpt>
      <trkpt lat="48.63593" lon="2.03895">
        <ele>171</ele>
        <time>2024-12-30T18:07:39.828Z</time>
      </trkpt>
      <trkpt lat="48.63588" lon="2.03891">
        <ele>171</ele>
        <time>2024-12-30T18:07:43.226Z</time>
      </trkpt>
      <trkpt lat="48.63583" lon="2.03888">
        <ele>171</ele>
        <time>2024-12-30T18:07:46.624Z</time>
      </trkpt>
      <trkpt lat="48.63579" lon="2.03885">
        <ele>171</ele>
        <time>2024-12-30T18:07:50.023Z</time>
      </trkpt>
      <trkpt lat="48.63574" lon="2.03881">
        <ele>171.1</ele>
        <time>2024-12-30T18:07:53.422Z</time>
      </trkpt>
      <trkpt lat="48.63569" lon="2.03878">
        <ele>171.2</ele>
        <time>2024-12-30T18:07:56.821Z</time>
      </trkpt>
      <trkpt lat="48.63565" lon="2.03874">
        <ele>171.4</ele>
        <time>2024-12-30T18:08:00.220Z</time>
      </trkpt>
      <trkpt lat="48.6356" lon="2.03871">
        <ele>171.5</ele>
        <time>2024-12-30T18:08:03.619Z</time>
      </trkpt>
      <trkpt lat="48.63556" lon="2.03867">
        <ele>171.8</ele>
        <time>2024-12-30T18:08:07.018Z</time>
      </trkpt>
      <trkpt lat="48.63551" lon="2.03864">
        <ele>171.9</ele>
        <time>2024-12-30T18:08:10.417Z</time>
      </trkpt>
      <trkpt lat="48.63546" lon="2.0386">
        <ele>172</ele>
        <time>2024-12-30T18:08:13.816Z</time>
      </trkpt>
      <trkpt lat="48.63542" lon="2.03857">
        <ele>172</ele>
        <time>2024-12-30T18:08:17.215Z</time>
      </trkpt>
      <trkpt lat="48.63537" lon="2.03854">
        <ele>172</ele>
        <time>2024-12-30T18:08:20.614Z</time>
      </trkpt>
      <trkpt lat="48.63532" lon="2.0385">
        <ele>172</ele>
        <time>2024-12-30T18:08:24.013Z</time>
      </trkpt>
      <trkpt lat="48.63528" lon="2.03847">
        <ele>172</ele>
        <time>2024-12-30T18:08:27.412Z</time>
      </trkpt>
      <trkpt lat="48.63523" lon="2.03843">
        <ele>172</ele>
        <time>2024-12-30T18:08:30.811Z</time>
      </trkpt>
      <trkpt lat="48.63518" lon="2.0384">
        <ele>172</ele>
        <time>2024-12-30T18:08:34.210Z</time>
      </trkpt>
      <trkpt lat="48.63514" lon="2.03836">
        <ele>172</ele>
        <time>2024-12-30T18:08:37.609Z</time>
      </trkpt>
      <trkpt lat="48.63509" lon="2.03833">
        <ele>172</ele>
        <time>2024-12-30T18:08:41.008Z</time>
      </trkpt>
      <trkpt lat="48.63504" lon="2.0383">
        <ele>172</ele>
        <time>2024-12-30T18:08:44.407Z</time>
      </trkpt>
      <trkpt lat="48.635" lon="2.03826">
        <ele>172</ele>
        <time>2024-12-30T18:08:47.806Z</time>
      </trkpt>
      <trkpt lat="48.63495" lon="2.03823">
        <ele>172.1</ele>
        <time>2024-12-30T18:08:51.205Z</time>
      </trkpt>
      <trkpt lat="48.6349" lon="2.03819">
        <ele>172.2</ele>
        <time>2024-12-30T18:08:54.604Z</time>
      </trkpt>
      <trkpt lat="48.63486" lon="2.03816">
        <ele>172.3</ele>
        <time>2024-12-30T18:08:58.003Z</time>
      </trkpt>
      <trkpt lat="48.63481" lon="2.03812">
        <ele>172.5</ele>
        <time>2024-12-30T18:09:01.402Z</time>
      </trkpt>
      <trkpt lat="48.63476" lon="2.03809">
        <ele>172.8</ele>
        <time>2024-12-30T18:09:04.801Z</time>
      </trkpt>
      <trkpt lat="48.63472" lon="2.03805">
        <ele>173</ele>
        <time>2024-12-30T18:09:08.200Z</time>
      </trkpt>
      <trkpt lat="48.63467" lon="2.03802">
        <ele>172.8</ele>
        <time>2024-12-30T18:09:11.599Z</time>
      </trkpt>
      <trkpt lat="48.63462" lon="2.03799">
        <ele>172.7</ele>
        <time>2024-12-30T18:09:14.998Z</time>
      </trkpt>
      <trkpt lat="48.63458" lon="2.03795">
        <ele>172.7</ele>
        <time>2024-12-30T18:09:18.397Z</time>
      </trkpt>
      <trkpt lat="48.63453" lon="2.03792">
        <ele>172.7</ele>
        <time>2024-12-30T18:09:21.796Z</time>
      </trkpt>
      <trkpt lat="48.63448" lon="2.03788">
        <ele>172.7</ele>
        <time>2024-12-30T18:09:25.195Z</time>
      </trkpt>
      <trkpt lat="48.63444" lon="2.03785">
        <ele>172.7</ele>
        <time>2024-12-30T18:09:28.594Z</time>
      </trkpt>
      <trkpt lat="48.63439" lon="2.03781">
        <ele>172.7</ele>
        <time>2024-12-30T18:09:31.993Z</time>
      </trkpt>
      <trkpt lat="48.63434" lon="2.03778">
        <ele>172.6</ele>
        <time>2024-12-30T18:09:35.392Z</time>
      </trkpt>
      <trkpt lat="48.6343" lon="2.03775">
        <ele>172.5</ele>
        <time>2024-12-30T18:09:38.791Z</time>
      </trkpt>
      <trkpt lat="48.63425" lon="2.03771">
        <ele>172.5</ele>
        <time>2024-12-30T18:09:42.190Z</time>
      </trkpt>
      <trkpt lat="48.6342" lon="2.03768">
        <ele>172.5</ele>
        <time>2024-12-30T18:09:45.589Z</time>
      </trkpt>
      <trkpt lat="48.63416" lon="2.03764">
        <ele>172.5</ele>
        <time>2024-12-30T18:09:48.988Z</time>
      </trkpt>
      <trkpt lat="48.63411" lon="2.03761">
        <ele>172.6</ele>
        <time>2024-12-30T18:09:52.387Z</time>
      </trkpt>
      <trkpt lat="48.63407" lon="2.03757">
        <ele>172.7</ele>
        <time>2024-12-30T18:09:55.786Z</time>
      </trkpt>
      <trkpt lat="48.63402" lon="2.03754">
        <ele>172.9</ele>
        <time>2024-12-30T18:09:59.185Z</time>
      </trkpt>
      <trkpt lat="48.63397" lon="2.0375">
        <ele>173</ele>
        <time>2024-12-30T18:10:02.584Z</time>
      </trkpt>
      <trkpt lat="48.63393" lon="2.03747">
        <ele>172.9</ele>
        <time>2024-12-30T18:10:05.983Z</time>
      </trkpt>
      <trkpt lat="48.63388" lon="2.03744">
        <ele>172.8</ele>
        <time>2024-12-30T18:10:09.382Z</time>
      </trkpt>
      <trkpt lat="48.63383" lon="2.0374">
        <ele>172.7</ele>
        <time>2024-12-30T18:10:12.781Z</time>
      </trkpt>
      <trkpt lat="48.63379" lon="2.03737">
        <ele>172.7</ele>
        <time>2024-12-30T18:10:16.180Z</time>
      </trkpt>
      <trkpt lat="48.63374" lon="2.03733">
        <ele>172.7</ele>
        <time>2024-12-30T18:10:19.579Z</time>
      </trkpt>
      <trkpt lat="48.63369" lon="2.0373">
        <ele>172.8</ele>
        <time>2024-12-30T18:10:22.978Z</time>
      </trkpt>
      <trkpt lat="48.63365" lon="2.03726">
        <ele>172.9</ele>
        <time>2024-12-30T18:10:26.377Z</time>
      </trkpt>
      <trkpt lat="48.6336" lon="2.03723">
        <ele>173</ele>
        <time>2024-12-30T18:10:29.776Z</time>
      </trkpt>
      <trkpt lat="48.63355" lon="2.0372">
        <ele>173</ele>
        <time>2024-12-30T18:10:33.175Z</time>
      </trkpt>
      <trkpt lat="48.63351" lon="2.03716">
        <ele>173</ele>
        <time>2024-12-30T18:10:36.574Z</time>
      </trkpt>
      <trkpt lat="48.63346" lon="2.03713">
        <ele>173</ele>
        <time>2024-12-30T18:10:39.973Z</time>
      </trkpt>
      <trkpt lat="48.63341" lon="2.03709">
        <ele>173</ele>
        <time>2024-12-30T18:10:43.372Z</time>
      </trkpt>
      <trkpt lat="48.63337" lon="2.03706">
        <ele>173</ele>
        <time>2024-12-30T18:10:46.771Z</time>
      </trkpt>
      <trkpt lat="48.63332" lon="2.03702">
        <ele>173</ele>
        <time>2024-12-30T18:10:50.170Z</time>
      </trkpt>
      <trkpt lat="48.63327" lon="2.03699">
        <ele>173</ele>
        <time>2024-12-30T18:10:53.569Z</time>
      </trkpt>
      <trkpt lat="48.63323" lon="2.03695">
        <ele>173</ele>
        <time>2024-12-30T18:10:56.968Z</time>
      </trkpt>
      <trkpt lat="48.63318" lon="2.03692">
        <ele>173</ele>
        <time>2024-12-30T18:11:00.368Z</time>
      </trkpt>
      <trkpt lat="48.6331" lon="2.03687">
        <ele>173</ele>
        <time>2024-12-30T18:11:05.914Z</time>
      </trkpt>
      <trkpt lat="48.63302" lon="2.03682">
        <ele>173</ele>
        <time>2024-12-30T18:11:11.460Z</time>
      </trkpt>
      <trkpt lat="48.63293" lon="2.03676">
        <ele>173</ele>
        <time>2024-12-30T18:11:17.006Z</time>
      </trkpt>
      <trkpt lat="48.63285" lon="2.03671">
        <ele>173</ele>
        <time>2024-12-30T18:11:22.552Z</time>
      </trkpt>
      <trkpt lat="48.63277" lon="2.03666">
        <ele>173</ele>
        <time>2024-12-30T18:11:28.098Z</time>
      </trkpt>
      <trkpt lat="48.63269" lon="2.03661">
        <ele>172.7</ele>
        <time>2024-12-30T18:11:33.644Z</time>
      </trkpt>
      <trkpt lat="48.6326" lon="2.03655">
        <ele>172.4</ele>
        <time>2024-12-30T18:11:39.190Z</time>
      </trkpt>
      <trkpt lat="48.63252" lon="2.0365">
        <ele>172.1</ele>
        <time>2024-12-30T18:11:44.737Z</time>
      </trkpt>
      <trkpt lat="48.63251" lon="2.03656">
        <ele>172</ele>
        <time>2024-12-30T18:11:47.182Z</time>
        <extensions>
          <visugpx:TrkExtension xmlns:visugpx="https://www.visugpx.com/editgpx/">
            <visugpx:node>16</visugpx:node>
            </visugpx:TrkExtension>
        </extensions>
      </trkpt>
      <trkpt lat="48.63252" lon="2.0365">
        <ele>172.1</ele>
        <time>2024-12-30T18:11:50.025Z</time>
      </trkpt>
      <trkpt lat="48.63249" lon="2.03642">
        <ele>172</ele>
        <time>2024-12-30T18:11:53.799Z</time>
      </trkpt>
      <trkpt lat="48.63246" lon="2.03635">
        <ele>172</ele>
        <time>2024-12-30T18:11:57.573Z</time>
      </trkpt>
      <trkpt lat="48.63242" lon="2.03627">
        <ele>172</ele>
        <time>2024-12-30T18:12:01.347Z</time>
      </trkpt>
      <trkpt lat="48.63239" lon="2.03619">
        <ele>172</ele>
        <time>2024-12-30T18:12:05.121Z</time>
      </trkpt>
      <trkpt lat="48.63236" lon="2.03612">
        <ele>172</ele>
        <time>2024-12-30T18:12:08.895Z</time>
      </trkpt>
      <trkpt lat="48.63233" lon="2.03604">
        <ele>171.7</ele>
        <time>2024-12-30T18:12:12.669Z</time>
      </trkpt>
      <trkpt lat="48.63229" lon="2.03596">
        <ele>171.5</ele>
        <time>2024-12-30T18:12:16.443Z</time>
      </trkpt>
      <trkpt lat="48.63226" lon="2.03589">
        <ele>171.3</ele>
        <time>2024-12-30T18:12:20.217Z</time>
      </trkpt>
      <trkpt lat="48.63223" lon="2.03581">
        <ele>171.1</ele>
        <time>2024-12-30T18:12:23.991Z</time>
      </trkpt>
      <trkpt lat="48.6322" lon="2.03573">
        <ele>171.2</ele>
        <time>2024-12-30T18:12:27.765Z</time>
      </trkpt>
      <trkpt lat="48.63216" lon="2.03565">
        <ele>171.3</ele>
        <time>2024-12-30T18:12:31.539Z</time>
      </trkpt>
      <trkpt lat="48.63213" lon="2.03558">
        <ele>171.3</ele>
        <time>2024-12-30T18:12:35.314Z</time>
      </trkpt>
      <trkpt lat="48.6321" lon="2.0355">
        <ele>171.2</ele>
        <time>2024-12-30T18:12:39.089Z</time>
      </trkpt>
      <trkpt lat="48.63207" lon="2.03542">
        <ele>171.1</ele>
        <time>2024-12-30T18:12:42.864Z</time>
      </trkpt>
      <trkpt lat="48.63203" lon="2.03535">
        <ele>171.1</ele>
        <time>2024-12-30T18:12:46.639Z</time>
      </trkpt>
      <trkpt lat="48.632" lon="2.03527">
        <ele>171.2</ele>
        <time>2024-12-30T18:12:50.415Z</time>
      </trkpt>
      <trkpt lat="48.63197" lon="2.0352">
        <ele>171.1</ele>
        <time>2024-12-30T18:12:53.823Z</time>
      </trkpt>
      <trkpt lat="48.63193" lon="2.03513">
        <ele>170.9</ele>
        <time>2024-12-30T18:12:57.231Z</time>
      </trkpt>
      <trkpt lat="48.6319" lon="2.03506">
        <ele>170.8</ele>
        <time>2024-12-30T18:13:00.639Z</time>
      </trkpt>
      <trkpt lat="48.63187" lon="2.035">
        <ele>170.7</ele>
        <time>2024-12-30T18:13:04.047Z</time>
      </trkpt>
      <trkpt lat="48.63183" lon="2.03493">
        <ele>170.6</ele>
        <time>2024-12-30T18:13:07.455Z</time>
      </trkpt>
      <trkpt lat="48.6318" lon="2.03486">
        <ele>170.5</ele>
        <time>2024-12-30T18:13:10.863Z</time>
      </trkpt>
      <trkpt lat="48.63176" lon="2.03479">
        <ele>170.4</ele>
        <time>2024-12-30T18:13:14.272Z</time>
      </trkpt>
      <trkpt lat="48.63173" lon="2.03472">
        <ele>170.2</ele>
        <time>2024-12-30T18:13:17.682Z</time>
      </trkpt>
      <trkpt lat="48.63168" lon="2.03465">
        <ele>170.3</ele>
        <time>2024-12-30T18:13:22.030Z</time>
      </trkpt>
      <trkpt lat="48.63164" lon="2.03459">
        <ele>170.4</ele>
        <time>2024-12-30T18:13:26.378Z</time>
      </trkpt>
      <trkpt lat="48.63159" lon="2.03452">
        <ele>170.5</ele>
        <time>2024-12-30T18:13:30.726Z</time>
      </trkpt>
      <trkpt lat="48.63154" lon="2.03445">
        <ele>170.5</ele>
        <time>2024-12-30T18:13:35.076Z</time>
      </trkpt>
      <trkpt lat="48.6315" lon="2.0344">
        <ele>170.5</ele>
        <time>2024-12-30T18:13:38.392Z</time>
      </trkpt>
      <trkpt lat="48.63146" lon="2.03435">
        <ele>170.5</ele>
        <time>2024-12-30T18:13:41.708Z</time>
      </trkpt>
      <trkpt lat="48.63142" lon="2.0343">
        <ele>170.6</ele>
        <time>2024-12-30T18:13:45.024Z</time>
      </trkpt>
      <trkpt lat="48.63138" lon="2.03425">
        <ele>170.7</ele>
        <time>2024-12-30T18:13:48.340Z</time>
      </trkpt>
      <trkpt lat="48.63134" lon="2.0342">
        <ele>170.7</ele>
        <time>2024-12-30T18:13:51.656Z</time>
      </trkpt>
      <trkpt lat="48.6313" lon="2.03415">
        <ele>170.7</ele>
        <time>2024-12-30T18:13:54.972Z</time>
      </trkpt>
      <trkpt lat="48.63126" lon="2.0341">
        <ele>170.5</ele>
        <time>2024-12-30T18:13:58.289Z</time>
      </trkpt>
      <trkpt lat="48.63122" lon="2.03405">
        <ele>170.4</ele>
        <time>2024-12-30T18:14:01.607Z</time>
      </trkpt>
      <trkpt lat="48.63117" lon="2.03398">
        <ele>170.2</ele>
        <time>2024-12-30T18:14:05.791Z</time>
      </trkpt>
      <trkpt lat="48.63112" lon="2.03391">
        <ele>170</ele>
        <time>2024-12-30T18:14:09.975Z</time>
      </trkpt>
      <trkpt lat="48.63107" lon="2.03384">
        <ele>169.9</ele>
        <time>2024-12-30T18:14:14.159Z</time>
      </trkpt>
      <trkpt lat="48.63102" lon="2.03377">
        <ele>169.7</ele>
        <time>2024-12-30T18:14:18.343Z</time>
      </trkpt>
      <trkpt lat="48.63097" lon="2.03369">
        <ele>169.5</ele>
        <time>2024-12-30T18:14:22.527Z</time>
      </trkpt>
      <trkpt lat="48.63092" lon="2.03362">
        <ele>169.3</ele>
        <time>2024-12-30T18:14:26.712Z</time>
      </trkpt>
      <trkpt lat="48.63087" lon="2.03355">
        <ele>169.3</ele>
        <time>2024-12-30T18:14:30.897Z</time>
      </trkpt>
      <trkpt lat="48.63082" lon="2.03348">
        <ele>169.4</ele>
        <time>2024-12-30T18:14:35.083Z</time>
      </trkpt>
      <trkpt lat="48.63079" lon="2.03342">
        <ele>169.4</ele>
        <time>2024-12-30T18:14:38.209Z</time>
      </trkpt>
      <trkpt lat="48.63076" lon="2.03336">
        <ele>169.4</ele>
        <time>2024-12-30T18:14:41.335Z</time>
      </trkpt>
      <trkpt lat="48.63072" lon="2.03329">
        <ele>169.2</ele>
        <time>2024-12-30T18:14:44.461Z</time>
      </trkpt>
      <trkpt lat="48.63069" lon="2.03323">
        <ele>169</ele>
        <time>2024-12-30T18:14:47.587Z</time>
      </trkpt>
      <trkpt lat="48.63066" lon="2.03317">
        <ele>168.7</ele>
        <time>2024-12-30T18:14:50.714Z</time>
      </trkpt>
      <trkpt lat="48.63063" lon="2.03311">
        <ele>168.5</ele>
        <time>2024-12-30T18:14:53.841Z</time>
      </trkpt>
      <trkpt lat="48.63059" lon="2.03304">
        <ele>168.3</ele>
        <time>2024-12-30T18:14:56.968Z</time>
      </trkpt>
      <trkpt lat="48.63056" lon="2.03298">
        <ele>168.3</ele>
        <time>2024-12-30T18:15:00.096Z</time>
      </trkpt>
      <trkpt lat="48.63052" lon="2.0329">
        <ele>168.4</ele>
        <time>2024-12-30T18:15:03.652Z</time>
      </trkpt>
      <trkpt lat="48.63049" lon="2.03283">
        <ele>168.4</ele>
        <time>2024-12-30T18:15:07.208Z</time>
      </trkpt>
      <trkpt lat="48.63045" lon="2.03275">
        <ele>168.2</ele>
        <time>2024-12-30T18:15:10.764Z</time>
      </trkpt>
      <trkpt lat="48.63041" lon="2.03267">
        <ele>168</ele>
        <time>2024-12-30T18:15:14.320Z</time>
      </trkpt>
      <trkpt lat="48.63038" lon="2.03259">
        <ele>167.7</ele>
        <time>2024-12-30T18:15:17.876Z</time>
      </trkpt>
      <trkpt lat="48.63034" lon="2.03252">
        <ele>167.4</ele>
        <time>2024-12-30T18:15:21.432Z</time>
      </trkpt>
      <trkpt lat="48.6303" lon="2.03244">
        <ele>167</ele>
        <time>2024-12-30T18:15:24.988Z</time>
      </trkpt>
      <trkpt lat="48.63027" lon="2.03236">
        <ele>166.4</ele>
        <time>2024-12-30T18:15:28.544Z</time>
      </trkpt>
      <trkpt lat="48.63023" lon="2.03228">
        <ele>165.9</ele>
        <time>2024-12-30T18:15:32.100Z</time>
      </trkpt>
      <trkpt lat="48.63019" lon="2.03221">
        <ele>165.4</ele>
        <time>2024-12-30T18:15:35.656Z</time>
      </trkpt>
      <trkpt lat="48.63015" lon="2.03213">
        <ele>165.1</ele>
        <time>2024-12-30T18:15:39.212Z</time>
      </trkpt>
      <trkpt lat="48.63012" lon="2.03205">
        <ele>164.8</ele>
        <time>2024-12-30T18:15:42.768Z</time>
      </trkpt>
      <trkpt lat="48.63008" lon="2.03197">
        <ele>164.6</ele>
        <time>2024-12-30T18:15:46.324Z</time>
      </trkpt>
      <trkpt lat="48.63004" lon="2.0319">
        <ele>164.3</ele>
        <time>2024-12-30T18:15:49.880Z</time>
      </trkpt>
      <trkpt lat="48.63001" lon="2.03182">
        <ele>164.1</ele>
        <time>2024-12-30T18:15:53.436Z</time>
      </trkpt>
      <trkpt lat="48.62997" lon="2.03174">
        <ele>163.8</ele>
        <time>2024-12-30T18:15:56.994Z</time>
      </trkpt>
      <trkpt lat="48.62993" lon="2.03169">
        <ele>163.5</ele>
        <time>2024-12-30T18:16:00.061Z</time>
      </trkpt>
      <trkpt lat="48.62989" lon="2.03163">
        <ele>163.2</ele>
        <time>2024-12-30T18:16:03.128Z</time>
      </trkpt>
      <trkpt lat="48.62985" lon="2.03158">
        <ele>162.9</ele>
        <time>2024-12-30T18:16:06.195Z</time>
      </trkpt>
      <trkpt lat="48.62981" lon="2.03153">
        <ele>162.6</ele>
        <time>2024-12-30T18:16:09.262Z</time>
      </trkpt>
      <trkpt lat="48.62976" lon="2.03147">
        <ele>162.3</ele>
        <time>2024-12-30T18:16:12.329Z</time>
      </trkpt>
      <trkpt lat="48.62972" lon="2.03142">
        <ele>162</ele>
        <time>2024-12-30T18:16:15.396Z</time>
      </trkpt>
      <trkpt lat="48.62968" lon="2.03136">
        <ele>161.9</ele>
        <time>2024-12-30T18:16:18.464Z</time>
      </trkpt>
      <trkpt lat="48.62964" lon="2.03131">
        <ele>161.7</ele>
        <time>2024-12-30T18:16:21.533Z</time>
      </trkpt>
      <trkpt lat="48.6296" lon="2.03129">
        <ele>161.5</ele>
        <time>2024-12-30T18:16:24.224Z</time>
      </trkpt>
      <trkpt lat="48.62955" lon="2.03126">
        <ele>161.4</ele>
        <time>2024-12-30T18:16:26.915Z</time>
      </trkpt>
      <trkpt lat="48.62951" lon="2.03124">
        <ele>161.2</ele>
        <time>2024-12-30T18:16:29.606Z</time>
      </trkpt>
      <trkpt lat="48.62947" lon="2.03122">
        <ele>161.1</ele>
        <time>2024-12-30T18:16:32.297Z</time>
      </trkpt>
      <trkpt lat="48.62943" lon="2.03119">
        <ele>160.9</ele>
        <time>2024-12-30T18:16:34.988Z</time>
      </trkpt>
      <trkpt lat="48.62938" lon="2.03117">
        <ele>160.8</ele>
        <time>2024-12-30T18:16:37.679Z</time>
      </trkpt>
      <trkpt lat="48.62934" lon="2.03114">
        <ele>160.6</ele>
        <time>2024-12-30T18:16:40.370Z</time>
      </trkpt>
      <trkpt lat="48.6293" lon="2.03112">
        <ele>160.5</ele>
        <time>2024-12-30T18:16:43.061Z</time>
      </trkpt>
      <trkpt lat="48.62926" lon="2.0311">
        <ele>160.3</ele>
        <time>2024-12-30T18:16:45.752Z</time>
      </trkpt>
      <trkpt lat="48.62921" lon="2.03107">
        <ele>160.2</ele>
        <time>2024-12-30T18:16:48.443Z</time>
      </trkpt>
      <trkpt lat="48.62917" lon="2.03105">
        <ele>160</ele>
        <time>2024-12-30T18:16:51.134Z</time>
      </trkpt>
      <trkpt lat="48.62913" lon="2.03103">
        <ele>159.9</ele>
        <time>2024-12-30T18:16:53.825Z</time>
      </trkpt>
      <trkpt lat="48.62908" lon="2.031">
        <ele>159.8</ele>
        <time>2024-12-30T18:16:56.516Z</time>
      </trkpt>
      <trkpt lat="48.62904" lon="2.03098">
        <ele>159.8</ele>
        <time>2024-12-30T18:16:59.207Z</time>
      </trkpt>
      <trkpt lat="48.629" lon="2.03095">
        <ele>159.7</ele>
        <time>2024-12-30T18:17:01.898Z</time>
      </trkpt>
      <trkpt lat="48.62896" lon="2.03093">
        <ele>159.7</ele>
        <time>2024-12-30T18:17:04.589Z</time>
      </trkpt>
      <trkpt lat="48.62891" lon="2.03091">
        <ele>159.8</ele>
        <time>2024-12-30T18:17:07.281Z</time>
      </trkpt>
      <trkpt lat="48.62887" lon="2.03088">
        <ele>159.8</ele>
        <time>2024-12-30T18:17:09.973Z</time>
      </trkpt>
      <trkpt lat="48.62883" lon="2.03086">
        <ele>159.7</ele>
        <time>2024-12-30T18:17:12.665Z</time>
      </trkpt>
      <trkpt lat="48.62878" lon="2.03084">
        <ele>159.6</ele>
        <time>2024-12-30T18:17:15.357Z</time>
      </trkpt>
      <trkpt lat="48.62874" lon="2.03081">
        <ele>159.5</ele>
        <time>2024-12-30T18:17:18.049Z</time>
      </trkpt>
      <trkpt lat="48.6287" lon="2.03079">
        <ele>159.3</ele>
        <time>2024-12-30T18:17:20.741Z</time>
      </trkpt>
      <trkpt lat="48.62866" lon="2.03076">
        <ele>159.2</ele>
        <time>2024-12-30T18:17:23.433Z</time>
      </trkpt>
      <trkpt lat="48.62861" lon="2.03074">
        <ele>159</ele>
        <time>2024-12-30T18:17:26.125Z</time>
      </trkpt>
      <trkpt lat="48.62857" lon="2.03072">
        <ele>158.9</ele>
        <time>2024-12-30T18:17:28.817Z</time>
      </trkpt>
      <trkpt lat="48.62853" lon="2.03069">
        <ele>158.7</ele>
        <time>2024-12-30T18:17:31.509Z</time>
      </trkpt>
      <trkpt lat="48.62848" lon="2.03067">
        <ele>158.5</ele>
        <time>2024-12-30T18:17:34.201Z</time>
      </trkpt>
      <trkpt lat="48.62844" lon="2.03065">
        <ele>158.4</ele>
        <time>2024-12-30T18:17:36.893Z</time>
      </trkpt>
      <trkpt lat="48.6284" lon="2.03062">
        <ele>158.2</ele>
        <time>2024-12-30T18:17:39.585Z</time>
      </trkpt>
      <trkpt lat="48.62836" lon="2.0306">
        <ele>158.1</ele>
        <time>2024-12-30T18:17:42.277Z</time>
      </trkpt>
      <trkpt lat="48.62831" lon="2.03057">
        <ele>157.9</ele>
        <time>2024-12-30T18:17:44.969Z</time>
      </trkpt>
      <trkpt lat="48.62827" lon="2.03055">
        <ele>157.5</ele>
        <time>2024-12-30T18:17:47.662Z</time>
      </trkpt>
      <trkpt lat="48.6282" lon="2.03048">
        <ele>157.1</ele>
        <time>2024-12-30T18:17:52.326Z</time>
      </trkpt>
      <trkpt lat="48.62814" lon="2.03041">
        <ele>156.6</ele>
        <time>2024-12-30T18:17:56.990Z</time>
      </trkpt>
      <trkpt lat="48.62807" lon="2.03033">
        <ele>156.1</ele>
        <time>2024-12-30T18:18:01.654Z</time>
      </trkpt>
      <trkpt lat="48.628" lon="2.03026">
        <ele>155.6</ele>
        <time>2024-12-30T18:18:06.319Z</time>
      </trkpt>
      <trkpt lat="48.62797" lon="2.0302">
        <ele>155.4</ele>
        <time>2024-12-30T18:18:09.247Z</time>
      </trkpt>
      <trkpt lat="48.62794" lon="2.03014">
        <ele>155.2</ele>
        <time>2024-12-30T18:18:12.175Z</time>
      </trkpt>
      <trkpt lat="48.62791" lon="2.03007">
        <ele>154.9</ele>
        <time>2024-12-30T18:18:15.103Z</time>
      </trkpt>
      <trkpt lat="48.62788" lon="2.03001">
        <ele>154.7</ele>
        <time>2024-12-30T18:18:18.031Z</time>
      </trkpt>
      <trkpt lat="48.62784" lon="2.02995">
        <ele>154.5</ele>
        <time>2024-12-30T18:18:20.959Z</time>
      </trkpt>
      <trkpt lat="48.62781" lon="2.02989">
        <ele>154.3</ele>
        <time>2024-12-30T18:18:23.887Z</time>
      </trkpt>
      <trkpt lat="48.62778" lon="2.02982">
        <ele>154</ele>
        <time>2024-12-30T18:18:26.815Z</time>
      </trkpt>
      <trkpt lat="48.62775" lon="2.02976">
        <ele>153.8</ele>
        <time>2024-12-30T18:18:29.745Z</time>
      </trkpt>
      <trkpt lat="48.62773" lon="2.02964">
        <ele>153.6</ele>
        <time>2024-12-30T18:18:34.634Z</time>
      </trkpt>
      <trkpt lat="48.6277" lon="2.02952">
        <ele>153.4</ele>
        <time>2024-12-30T18:18:39.524Z</time>
      </trkpt>
      <trkpt lat="48.62768" lon="2.0294">
        <ele>153.2</ele>
        <time>2024-12-30T18:18:44.414Z</time>
      </trkpt>
      <trkpt lat="48.62765" lon="2.02928">
        <ele>152.8</ele>
        <time>2024-12-30T18:18:49.305Z</time>
      </trkpt>
      <trkpt lat="48.62764" lon="2.02921">
        <ele>152.6</ele>
        <time>2024-12-30T18:18:52.165Z</time>
      </trkpt>
      <trkpt lat="48.62763" lon="2.02913">
        <ele>152.4</ele>
        <time>2024-12-30T18:18:55.026Z</time>
      </trkpt>
      <trkpt lat="48.62762" lon="2.02906">
        <ele>152.2</ele>
        <time>2024-12-30T18:18:57.887Z</time>
      </trkpt>
      <trkpt lat="48.62761" lon="2.02899">
        <ele>152</ele>
        <time>2024-12-30T18:19:00.748Z</time>
      </trkpt>
      <trkpt lat="48.6276" lon="2.02891">
        <ele>151.8</ele>
        <time>2024-12-30T18:19:03.609Z</time>
      </trkpt>
      <trkpt lat="48.62759" lon="2.02884">
        <ele>151.6</ele>
        <time>2024-12-30T18:19:06.470Z</time>
      </trkpt>
      <trkpt lat="48.62758" lon="2.02876">
        <ele>151.4</ele>
        <time>2024-12-30T18:19:09.331Z</time>
      </trkpt>
      <trkpt lat="48.62757" lon="2.02869">
        <ele>151.3</ele>
        <time>2024-12-30T18:19:12.193Z</time>
      </trkpt>
      <trkpt lat="48.62757" lon="2.02859">
        <ele>151.3</ele>
        <time>2024-12-30T18:19:16.424Z</time>
      </trkpt>
      <trkpt lat="48.62757" lon="2.02849">
        <ele>151.3</ele>
        <time>2024-12-30T18:19:20.655Z</time>
      </trkpt>
      <trkpt lat="48.62757" lon="2.02839">
        <ele>151.3</ele>
        <time>2024-12-30T18:19:24.886Z</time>
      </trkpt>
      <trkpt lat="48.62757" lon="2.02829">
        <ele>151.2</ele>
        <time>2024-12-30T18:19:29.117Z</time>
      </trkpt>
      <trkpt lat="48.62757" lon="2.02819">
        <ele>151.1</ele>
        <time>2024-12-30T18:19:33.348Z</time>
      </trkpt>
      <trkpt lat="48.62757" lon="2.02809">
        <ele>151</ele>
        <time>2024-12-30T18:19:37.580Z</time>
      </trkpt>
      <trkpt lat="48.62757" lon="2.02799">
        <ele>151.1</ele>
        <time>2024-12-30T18:19:41.812Z</time>
      </trkpt>
      <trkpt lat="48.62757" lon="2.02789">
        <ele>151.2</ele>
        <time>2024-12-30T18:19:46.044Z</time>
      </trkpt>
      <trkpt lat="48.62755" lon="2.0278">
        <ele>151.2</ele>
        <time>2024-12-30T18:19:50.954Z</time>
      </trkpt>
      <trkpt lat="48.62754" lon="2.02771">
        <ele>151.6</ele>
        <time>2024-12-30T18:19:55.864Z</time>
      </trkpt>
      <trkpt lat="48.62752" lon="2.02762">
        <ele>152.1</ele>
        <time>2024-12-30T18:20:00.774Z</time>
      </trkpt>
      <trkpt lat="48.6275" lon="2.02753">
        <ele>152.8</ele>
        <time>2024-12-30T18:20:05.685Z</time>
      </trkpt>
      <trkpt lat="48.62745" lon="2.02748">
        <ele>152.5</ele>
        <time>2024-12-30T18:20:09.062Z</time>
      </trkpt>
      <trkpt lat="48.6274" lon="2.02751">
        <ele>151.9</ele>
        <time>2024-12-30T18:20:12.028Z</time>
      </trkpt>
      <trkpt lat="48.62735" lon="2.02753">
        <ele>151.3</ele>
        <time>2024-12-30T18:20:14.996Z</time>
      </trkpt>
      <trkpt lat="48.62733" lon="2.02754">
        <ele>151.1</ele>
        <time>2024-12-30T18:20:16.183Z</time>
      </trkpt>
      <trkpt lat="48.62728" lon="2.02756">
        <ele>150.7</ele>
        <time>2024-12-30T18:20:19.370Z</time>
      </trkpt>
      <trkpt lat="48.62722" lon="2.02758">
        <ele>150.3</ele>
        <time>2024-12-30T18:20:22.557Z</time>
        <extensions>
          <visugpx:TrkExtension xmlns:visugpx="https://www.visugpx.com/editgpx/">
            <visugpx:node>17</visugpx:node>
            </visugpx:TrkExtension>
        </extensions>
      </trkpt>
      <trkpt lat="48.62716" lon="2.0276">
        <ele>150.2</ele>
        <time>2024-12-30T18:20:27.466Z</time>
      </trkpt>
      <trkpt lat="48.62709" lon="2.02762">
        <ele>150.2</ele>
        <time>2024-12-30T18:20:32.375Z</time>
      </trkpt>
      <trkpt lat="48.62703" lon="2.02764">
        <ele>150.2</ele>
        <time>2024-12-30T18:20:37.284Z</time>
      </trkpt>
      <trkpt lat="48.62696" lon="2.02767">
        <ele>150.2</ele>
        <time>2024-12-30T18:20:42.193Z</time>
      </trkpt>
      <trkpt lat="48.6269" lon="2.02769">
        <ele>150.7</ele>
        <time>2024-12-30T18:20:47.103Z</time>
      </trkpt>
      <trkpt lat="48.62683" lon="2.02771">
        <ele>151.3</ele>
        <time>2024-12-30T18:20:52.013Z</time>
      </trkpt>
      <trkpt lat="48.62677" lon="2.02773">
        <ele>151.9</ele>
        <time>2024-12-30T18:20:56.923Z</time>
      </trkpt>
      <trkpt lat="48.6267" lon="2.02775">
        <ele>152.6</ele>
        <time>2024-12-30T18:21:01.834Z</time>
      </trkpt>
      <trkpt lat="48.62663" lon="2.02777">
        <ele>153.2</ele>
        <time>2024-12-30T18:21:07.864Z</time>
      </trkpt>
      <trkpt lat="48.62657" lon="2.02779">
        <ele>153.7</ele>
        <time>2024-12-30T18:21:12.615Z</time>
      </trkpt>
      <trkpt lat="48.62652" lon="2.0278">
        <ele>154.1</ele>
        <time>2024-12-30T18:21:17.366Z</time>
      </trkpt>
      <trkpt lat="48.62646" lon="2.02782">
        <ele>154.5</ele>
        <time>2024-12-30T18:21:22.117Z</time>
      </trkpt>
      <trkpt lat="48.6264" lon="2.02783">
        <ele>154.9</ele>
        <time>2024-12-30T18:21:26.869Z</time>
      </trkpt>
      <trkpt lat="48.62634" lon="2.02783">
        <ele>155.4</ele>
        <time>2024-12-30T18:21:31.932Z</time>
        <extensions>
          <visugpx:TrkExtension xmlns:visugpx="https://www.visugpx.com/editgpx/">
            <visugpx:node>18</visugpx:node>
            </visugpx:TrkExtension>
        </extensions>
      </trkpt>
      <trkpt lat="48.62626" lon="2.02782">
        <ele>155.9</ele>
        <time>2024-12-30T18:21:37.840Z</time>
      </trkpt>
      <trkpt lat="48.62619" lon="2.02781">
        <ele>156.5</ele>
        <time>2024-12-30T18:21:43.748Z</time>
      </trkpt>
      <trkpt lat="48.62611" lon="2.02779">
        <ele>157</ele>
        <time>2024-12-30T18:21:49.656Z</time>
      </trkpt>
      <trkpt lat="48.62603" lon="2.02778">
        <ele>157</ele>
        <time>2024-12-30T18:21:55.565Z</time>
        <extensions>
          <visugpx:TrkExtension xmlns:visugpx="https://www.visugpx.com/editgpx/">
            <visugpx:node>19</visugpx:node>
            </visugpx:TrkExtension>
        </extensions>
      </trkpt>
      <trkpt lat="48.62602" lon="2.02778">
        <ele>157</ele>
        <time>2024-12-30T18:21:56.209Z</time>
      </trkpt>
      <trkpt lat="48.62595" lon="2.02774">
        <ele>156.9</ele>
        <time>2024-12-30T18:22:00.624Z</time>
      </trkpt>
      <trkpt lat="48.62588" lon="2.02769">
        <ele>156.7</ele>
        <time>2024-12-30T18:22:05.039Z</time>
      </trkpt>
      <trkpt lat="48.6258" lon="2.02765">
        <ele>156.3</ele>
        <time>2024-12-30T18:22:09.454Z</time>
      </trkpt>
      <trkpt lat="48.62573" lon="2.0276">
        <ele>155.6</ele>
        <time>2024-12-30T18:22:13.871Z</time>
        <extensions>
          <visugpx:TrkExtension xmlns:visugpx="https://www.visugpx.com/editgpx/">
            <visugpx:node>20</visugpx:node>
            </visugpx:TrkExtension>
        </extensions>
      </trkpt>
      <trkpt lat="48.6257" lon="2.02758">
        <ele>155.3</ele>
        <time>2024-12-30T18:22:15.718Z</time>
      </trkpt>
      <trkpt lat="48.62568" lon="2.02758">
        <ele>155.2</ele>
        <time>2024-12-30T18:22:16.845Z</time>
      </trkpt>
      <trkpt lat="48.62565" lon="2.02757">
        <ele>154.9</ele>
        <time>2024-12-30T18:22:18.576Z</time>
      </trkpt>
      <trkpt lat="48.6256" lon="2.02754">
        <ele>154.4</ele>
        <time>2024-12-30T18:22:21.679Z</time>
      </trkpt>
      <trkpt lat="48.62555" lon="2.0275">
        <ele>153.9</ele>
        <time>2024-12-30T18:22:24.784Z</time>
        <extensions>
          <visugpx:TrkExtension xmlns:visugpx="https://www.visugpx.com/editgpx/">
            <visugpx:node>21</visugpx:node>
            </visugpx:TrkExtension>
        </extensions>
      </trkpt>
      <trkpt lat="48.62549" lon="2.02746">
        <ele>153</ele>
        <time>2024-12-30T18:22:28.478Z</time>
      </trkpt>
      <trkpt lat="48.62542" lon="2.02745">
        <ele>152.1</ele>
        <time>2024-12-30T18:22:32.601Z</time>
      </trkpt>
      <trkpt lat="48.62535" lon="2.02743">
        <ele>151.2</ele>
        <time>2024-12-30T18:22:36.724Z</time>
      </trkpt>
      <trkpt lat="48.62527" lon="2.02742">
        <ele>150.3</ele>
        <time>2024-12-30T18:22:40.847Z</time>
      </trkpt>
      <trkpt lat="48.6252" lon="2.0274">
        <ele>149.4</ele>
        <time>2024-12-30T18:22:44.971Z</time>
      </trkpt>
      <trkpt lat="48.62511" lon="2.02739">
        <ele>148.5</ele>
        <time>2024-12-30T18:22:49.838Z</time>
      </trkpt>
      <trkpt lat="48.62503" lon="2.02739">
        <ele>147.5</ele>
        <time>2024-12-30T18:22:54.705Z</time>
      </trkpt>
      <trkpt lat="48.62494" lon="2.02738">
        <ele>146.6</ele>
        <time>2024-12-30T18:22:59.573Z</time>
      </trkpt>
      <trkpt lat="48.62486" lon="2.02737">
        <ele>145.7</ele>
        <time>2024-12-30T18:23:04.441Z</time>
      </trkpt>
      <trkpt lat="48.62477" lon="2.02736">
        <ele>144.9</ele>
        <time>2024-12-30T18:23:09.309Z</time>
      </trkpt>
      <trkpt lat="48.62468" lon="2.02736">
        <ele>144.2</ele>
        <time>2024-12-30T18:23:14.177Z</time>
      </trkpt>
      <trkpt lat="48.6246" lon="2.02735">
        <ele>143.5</ele>
        <time>2024-12-30T18:23:19.045Z</time>
      </trkpt>
      <trkpt lat="48.62451" lon="2.02734">
        <ele>142.9</ele>
        <time>2024-12-30T18:23:23.913Z</time>
        <extensions>
          <visugpx:TrkExtension xmlns:visugpx="https://www.visugpx.com/editgpx/">
            <visugpx:node>22</visugpx:node>
            </visugpx:TrkExtension>
        </extensions>
      </trkpt>
      <trkpt lat="48.62447" lon="2.02734">
        <ele>142.6</ele>
        <time>2024-12-30T18:23:26.450Z</time>
      </trkpt>
      <trkpt lat="48.62442" lon="2.02734">
        <ele>142.3</ele>
        <time>2024-12-30T18:23:28.987Z</time>
      </trkpt>
      <trkpt lat="48.62438" lon="2.02733">
        <ele>142</ele>
        <time>2024-12-30T18:23:31.524Z</time>
      </trkpt>
      <trkpt lat="48.62433" lon="2.02733">
        <ele>141.7</ele>
        <time>2024-12-30T18:23:34.061Z</time>
      </trkpt>
      <trkpt lat="48.62428" lon="2.02733">
        <ele>141.4</ele>
        <time>2024-12-30T18:23:36.983Z</time>
      </trkpt>
      <trkpt lat="48.62423" lon="2.02733">
        <ele>141.1</ele>
        <time>2024-12-30T18:23:39.905Z</time>
      </trkpt>
      <trkpt lat="48.62417" lon="2.02733">
        <ele>140.8</ele>
        <time>2024-12-30T18:23:42.828Z</time>
      </trkpt>
      <trkpt lat="48.62412" lon="2.02733">
        <ele>140.6</ele>
        <time>2024-12-30T18:23:45.751Z</time>
      </trkpt>
      <trkpt lat="48.62407" lon="2.02733">
        <ele>140.4</ele>
        <time>2024-12-30T18:23:48.674Z</time>
      </trkpt>
      <trkpt lat="48.62402" lon="2.02733">
        <ele>140.2</ele>
        <time>2024-12-30T18:23:51.597Z</time>
      </trkpt>
      <trkpt lat="48.62397" lon="2.02733">
        <ele>140.1</ele>
        <time>2024-12-30T18:23:54.520Z</time>
      </trkpt>
      <trkpt lat="48.62392" lon="2.02733">
        <ele>139.9</ele>
        <time>2024-12-30T18:23:57.443Z</time>
      </trkpt>
      <trkpt lat="48.62386" lon="2.02733">
        <ele>139.7</ele>
        <time>2024-12-30T18:24:00.366Z</time>
      </trkpt>
      <trkpt lat="48.62381" lon="2.02733">
        <ele>139.5</ele>
        <time>2024-12-30T18:24:03.289Z</time>
      </trkpt>
      <trkpt lat="48.62376" lon="2.02733">
        <ele>139.3</ele>
        <time>2024-12-30T18:24:06.212Z</time>
      </trkpt>
      <trkpt lat="48.62371" lon="2.02733">
        <ele>139.1</ele>
        <time>2024-12-30T18:24:09.135Z</time>
      </trkpt>
      <trkpt lat="48.62366" lon="2.02733">
        <ele>138.9</ele>
        <time>2024-12-30T18:24:12.058Z</time>
      </trkpt>
      <trkpt lat="48.6236" lon="2.02733">
        <ele>138.7</ele>
        <time>2024-12-30T18:24:14.981Z</time>
      </trkpt>
      <trkpt lat="48.62355" lon="2.02733">
        <ele>138.4</ele>
        <time>2024-12-30T18:24:17.904Z</time>
      </trkpt>
      <trkpt lat="48.6235" lon="2.02733">
        <ele>138</ele>
        <time>2024-12-30T18:24:20.827Z</time>
      </trkpt>
      <trkpt lat="48.62343" lon="2.02734">
        <ele>137.5</ele>
        <time>2024-12-30T18:24:24.775Z</time>
      </trkpt>
      <trkpt lat="48.62336" lon="2.02734">
        <ele>137</ele>
        <time>2024-12-30T18:24:28.724Z</time>
      </trkpt>
      <trkpt lat="48.62335" lon="2.02734">
        <ele>137</ele>
        <time>2024-12-30T18:24:29.368Z</time>
        <extensions>
          <visugpx:TrkExtension xmlns:visugpx="https://www.visugpx.com/editgpx/">
            <visugpx:node>23</visugpx:node>
            </visugpx:TrkExtension>
        </extensions>
      </trkpt>
      <trkpt lat="48.62329" lon="2.02736">
        <ele>136.6</ele>
        <time>2024-12-30T18:24:32.967Z</time>
      </trkpt>
      <trkpt lat="48.62323" lon="2.02738">
        <ele>136.1</ele>
        <time>2024-12-30T18:24:36.566Z</time>
      </trkpt>
      <trkpt lat="48.62316" lon="2.0274">
        <ele>135.7</ele>
        <time>2024-12-30T18:24:40.166Z</time>
      </trkpt>
      <trkpt lat="48.6231" lon="2.02742">
        <ele>135.1</ele>
        <time>2024-12-30T18:24:43.766Z</time>
      </trkpt>
      <trkpt lat="48.62302" lon="2.02744">
        <ele>134.6</ele>
        <time>2024-12-30T18:24:48.498Z</time>
      </trkpt>
      <trkpt lat="48.62294" lon="2.02747">
        <ele>134.4</ele>
        <time>2024-12-30T18:24:53.230Z</time>
      </trkpt>
      <trkpt lat="48.62286" lon="2.02749">
        <ele>134.2</ele>
        <time>2024-12-30T18:24:57.962Z</time>
      </trkpt>
      <trkpt lat="48.62278" lon="2.02751">
        <ele>134</ele>
        <time>2024-12-30T18:25:02.695Z</time>
      </trkpt>
      <trkpt lat="48.62271" lon="2.02752">
        <ele>133.5</ele>
        <time>2024-12-30T18:25:06.925Z</time>
      </trkpt>
      <trkpt lat="48.62263" lon="2.02752">
        <ele>132.9</ele>
        <time>2024-12-30T18:25:11.155Z</time>
      </trkpt>
      <trkpt lat="48.62256" lon="2.0275">
        <ele>132.4</ele>
        <time>2024-12-30T18:25:15.169Z</time>
      </trkpt>
      <trkpt lat="48.62249" lon="2.02748">
        <ele>131.9</ele>
        <time>2024-12-30T18:25:19.183Z</time>
        <extensions>
          <visugpx:TrkExtension xmlns:visugpx="https://www.visugpx.com/editgpx/">
            <visugpx:node>24</visugpx:node>
            </visugpx:TrkExtension>
        </extensions>
      </trkpt>
      <trkpt lat="48.62245" lon="2.02747">
        <ele>131.5</ele>
        <time>2024-12-30T18:25:21.467Z</time>
      </trkpt>
      <trkpt lat="48.62237" lon="2.02743">
        <ele>130.8</ele>
        <time>2024-12-30T18:25:26.214Z</time>
      </trkpt>
      <trkpt lat="48.62232" lon="2.02738">
        <ele>130.3</ele>
        <time>2024-12-30T18:25:29.697Z</time>
      </trkpt>
      <trkpt lat="48.62227" lon="2.02732">
        <ele>129.7</ele>
        <time>2024-12-30T18:25:33.181Z</time>
      </trkpt>
      <trkpt lat="48.62223" lon="2.02725">
        <ele>129.1</ele>
        <time>2024-12-30T18:25:36.769Z</time>
      </trkpt>
      <trkpt lat="48.62219" lon="2.02717">
        <ele>128.9</ele>
        <time>2024-12-30T18:25:40.359Z</time>
      </trkpt>
      <trkpt lat="48.62217" lon="2.02712">
        <ele>128.8</ele>
        <time>2024-12-30T18:25:42.659Z</time>
        <extensions>
          <visugpx:TrkExtension xmlns:visugpx="https://www.visugpx.com/editgpx/">
            <visugpx:node>25</visugpx:node>
            </visugpx:TrkExtension>
        </extensions>
      </trkpt>
      <trkpt lat="48.62217" lon="2.02712">
        <ele>128.8</ele>
        <time>2024-12-30T18:25:42.659Z</time>
      </trkpt>
      <trkpt lat="48.62217" lon="2.0271">
        <ele>128.8</ele>
        <time>2024-12-30T18:25:43.511Z</time>
      </trkpt>
      <trkpt lat="48.62214" lon="2.02706">
        <ele>128.7</ele>
        <time>2024-12-30T18:25:45.898Z</time>
      </trkpt>
      <trkpt lat="48.62207" lon="2.02705">
        <ele>128.5</ele>
        <time>2024-12-30T18:25:50.052Z</time>
      </trkpt>
      <trkpt lat="48.62205" lon="2.02707">
        <ele>128.4</ele>
        <time>2024-12-30T18:25:51.414Z</time>
      </trkpt>
      <trkpt lat="48.62203" lon="2.02696">
        <ele>128.3</ele>
        <time>2024-12-30T18:25:56.078Z</time>
      </trkpt>
      <trkpt lat="48.62205" lon="2.02688">
        <ele>128.1</ele>
        <time>2024-12-30T18:25:59.297Z</time>
      </trkpt>
      <trkpt lat="48.62207" lon="2.0268">
        <ele>127.9</ele>
        <time>2024-12-30T18:26:02.516Z</time>
      </trkpt>
      <trkpt lat="48.62208" lon="2.02672">
        <ele>127.7</ele>
        <time>2024-12-30T18:26:05.735Z</time>
      </trkpt>
      <trkpt lat="48.6221" lon="2.02664">
        <ele>127.5</ele>
        <time>2024-12-30T18:26:08.955Z</time>
      </trkpt>
      <trkpt lat="48.62211" lon="2.02653">
        <ele>127.1</ele>
        <time>2024-12-30T18:26:13.355Z</time>
      </trkpt>
      <trkpt lat="48.62211" lon="2.02641">
        <ele>126.7</ele>
        <time>2024-12-30T18:26:17.755Z</time>
      </trkpt>
      <trkpt lat="48.62212" lon="2.0263">
        <ele>126.6</ele>
        <time>2024-12-30T18:26:22.155Z</time>
      </trkpt>
      <trkpt lat="48.62212" lon="2.02618">
        <ele>126.6</ele>
        <time>2024-12-30T18:26:26.555Z</time>
      </trkpt>
      <trkpt lat="48.62213" lon="2.02607">
        <ele>126.5</ele>
        <time>2024-12-30T18:26:30.956Z</time>
      </trkpt>
      <trkpt lat="48.62213" lon="2.02595">
        <ele>126.1</ele>
        <time>2024-12-30T18:26:35.357Z</time>
      </trkpt>
      <trkpt lat="48.62214" lon="2.02584">
        <ele>125.7</ele>
        <time>2024-12-30T18:26:39.758Z</time>
      </trkpt>
      <trkpt lat="48.62214" lon="2.02572">
        <ele>125.3</ele>
        <time>2024-12-30T18:26:44.159Z</time>
      </trkpt>
      <trkpt lat="48.62211" lon="2.02564">
        <ele>124.9</ele>
        <time>2024-12-30T18:26:47.532Z</time>
      </trkpt>
      <trkpt lat="48.62209" lon="2.02556">
        <ele>124.5</ele>
        <time>2024-12-30T18:26:50.906Z</time>
      </trkpt>
      <trkpt lat="48.62206" lon="2.02547">
        <ele>124.3</ele>
        <time>2024-12-30T18:26:54.280Z</time>
      </trkpt>
      <trkpt lat="48.62204" lon="2.02539">
        <ele>123.9</ele>
        <time>2024-12-30T18:26:57.654Z</time>
      </trkpt>
      <trkpt lat="48.62201" lon="2.02531">
        <ele>123.6</ele>
        <time>2024-12-30T18:27:01.028Z</time>
      </trkpt>
      <trkpt lat="48.62199" lon="2.02523">
        <ele>123.3</ele>
        <time>2024-12-30T18:27:04.402Z</time>
      </trkpt>
      <trkpt lat="48.62196" lon="2.02515">
        <ele>123.1</ele>
        <time>2024-12-30T18:27:07.776Z</time>
      </trkpt>
      <trkpt lat="48.62194" lon="2.02507">
        <ele>123</ele>
        <time>2024-12-30T18:27:11.150Z</time>
      </trkpt>
      <trkpt lat="48.62191" lon="2.02498">
        <ele>122.8</ele>
        <time>2024-12-30T18:27:14.524Z</time>
      </trkpt>
      <trkpt lat="48.62188" lon="2.0249">
        <ele>122.4</ele>
        <time>2024-12-30T18:27:17.898Z</time>
      </trkpt>
      <trkpt lat="48.62186" lon="2.02482">
        <ele>122</ele>
        <time>2024-12-30T18:27:21.272Z</time>
      </trkpt>
      <trkpt lat="48.62183" lon="2.02474">
        <ele>121.7</ele>
        <time>2024-12-30T18:27:24.646Z</time>
      </trkpt>
      <trkpt lat="48.62181" lon="2.02466">
        <ele>121.4</ele>
        <time>2024-12-30T18:27:28.020Z</time>
      </trkpt>
      <trkpt lat="48.62178" lon="2.02457">
        <ele>121.1</ele>
        <time>2024-12-30T18:27:31.394Z</time>
      </trkpt>
      <trkpt lat="48.62176" lon="2.02449">
        <ele>120.8</ele>
        <time>2024-12-30T18:27:34.768Z</time>
      </trkpt>
      <trkpt lat="48.62173" lon="2.02441">
        <ele>120.4</ele>
        <time>2024-12-30T18:27:38.143Z</time>
        <extensions>
          <visugpx:TrkExtension xmlns:visugpx="https://www.visugpx.com/editgpx/">
            <visugpx:node>26</visugpx:node>
            </visugpx:TrkExtension>
        </extensions>
      </trkpt>
      <trkpt lat="48.62173" lon="2.02441">
        <ele>120.4</ele>
        <time>2024-12-30T18:27:38.143Z</time>
      </trkpt>
      <trkpt lat="48.62167" lon="2.02442">
        <ele>120</ele>
        <time>2024-12-30T18:27:41.544Z</time>
      </trkpt>
      <trkpt lat="48.62164" lon="2.02434">
        <ele>119.9</ele>
        <time>2024-12-30T18:27:45.253Z</time>
      </trkpt>
      <trkpt lat="48.62161" lon="2.02427">
        <ele>119.8</ele>
        <time>2024-12-30T18:27:48.962Z</time>
      </trkpt>
      <trkpt lat="48.62158" lon="2.02419">
        <ele>119.7</ele>
        <time>2024-12-30T18:27:52.671Z</time>
      </trkpt>
      <trkpt lat="48.62156" lon="2.02411">
        <ele>119.7</ele>
        <time>2024-12-30T18:27:56.380Z</time>
      </trkpt>
      <trkpt lat="48.62153" lon="2.02403">
        <ele>119.7</ele>
        <time>2024-12-30T18:28:00.089Z</time>
      </trkpt>
      <trkpt lat="48.6215" lon="2.02396">
        <ele>119.9</ele>
        <time>2024-12-30T18:28:03.799Z</time>
      </trkpt>
      <trkpt lat="48.62147" lon="2.02388">
        <ele>120</ele>
        <time>2024-12-30T18:28:07.509Z</time>
      </trkpt>
      <trkpt lat="48.62144" lon="2.0238">
        <ele>119.7</ele>
        <time>2024-12-30T18:28:11.220Z</time>
      </trkpt>
      <trkpt lat="48.62142" lon="2.02373">
        <ele>119.5</ele>
        <time>2024-12-30T18:28:14.171Z</time>
      </trkpt>
      <trkpt lat="48.62141" lon="2.02366">
        <ele>119.2</ele>
        <time>2024-12-30T18:28:17.122Z</time>
      </trkpt>
      <trkpt lat="48.62139" lon="2.02359">
        <ele>119</ele>
        <time>2024-12-30T18:28:20.073Z</time>
      </trkpt>
      <trkpt lat="48.62138" lon="2.02352">
        <ele>119</ele>
        <time>2024-12-30T18:28:23.024Z</time>
      </trkpt>
      <trkpt lat="48.62136" lon="2.02344">
        <ele>118.9</ele>
        <time>2024-12-30T18:28:25.975Z</time>
      </trkpt>
      <trkpt lat="48.62134" lon="2.02337">
        <ele>118.8</ele>
        <time>2024-12-30T18:28:28.926Z</time>
      </trkpt>
      <trkpt lat="48.62133" lon="2.0233">
        <ele>118.7</ele>
        <time>2024-12-30T18:28:31.877Z</time>
      </trkpt>
      <trkpt lat="48.62131" lon="2.02323">
        <ele>118.6</ele>
        <time>2024-12-30T18:28:34.830Z</time>
      </trkpt>
      <trkpt lat="48.62131" lon="2.02318">
        <ele>118.6</ele>
        <time>2024-12-30T18:28:36.958Z</time>
      </trkpt>
      <trkpt lat="48.62129" lon="2.02316">
        <ele>118.4</ele>
        <time>2024-12-30T18:28:38.309Z</time>
        <extensions>
          <visugpx:TrkExtension xmlns:visugpx="https://www.visugpx.com/editgpx/">
            <visugpx:node>27</visugpx:node>
            </visugpx:TrkExtension>
        </extensions>
      </trkpt>
      <trkpt lat="48.62129" lon="2.02316">
        <ele>118.4</ele>
        <time>2024-12-30T18:28:38.309Z</time>
      </trkpt>
      <trkpt lat="48.62124" lon="2.0231">
        <ele>118</ele>
        <time>2024-12-30T18:28:42.486Z</time>
      </trkpt>
      <trkpt lat="48.62118" lon="2.02317">
        <ele>117.8</ele>
        <time>2024-12-30T18:28:47.380Z</time>
      </trkpt>
      <trkpt lat="48.62112" lon="2.02324">
        <ele>117.7</ele>
        <time>2024-12-30T18:28:52.274Z</time>
      </trkpt>
      <trkpt lat="48.62106" lon="2.0233">
        <ele>117.7</ele>
        <time>2024-12-30T18:28:57.168Z</time>
      </trkpt>
      <trkpt lat="48.621" lon="2.02337">
        <ele>117.6</ele>
        <time>2024-12-30T18:29:02.063Z</time>
      </trkpt>
      <trkpt lat="48.62096" lon="2.02341">
        <ele>117.5</ele>
        <time>2024-12-30T18:29:05.087Z</time>
      </trkpt>
      <trkpt lat="48.62092" lon="2.02344">
        <ele>117.3</ele>
        <time>2024-12-30T18:29:08.111Z</time>
      </trkpt>
      <trkpt lat="48.62088" lon="2.02348">
        <ele>117.2</ele>
        <time>2024-12-30T18:29:11.135Z</time>
      </trkpt>
      <trkpt lat="48.62084" lon="2.02351">
        <ele>117</ele>
        <time>2024-12-30T18:29:14.159Z</time>
      </trkpt>
      <trkpt lat="48.6208" lon="2.02355">
        <ele>116.9</ele>
        <time>2024-12-30T18:29:17.184Z</time>
      </trkpt>
      <trkpt lat="48.62076" lon="2.02358">
        <ele>116.7</ele>
        <time>2024-12-30T18:29:20.209Z</time>
      </trkpt>
      <trkpt lat="48.62072" lon="2.02362">
        <ele>116.6</ele>
        <time>2024-12-30T18:29:23.234Z</time>
      </trkpt>
      <trkpt lat="48.62068" lon="2.02365">
        <ele>116.6</ele>
        <time>2024-12-30T18:29:26.260Z</time>
      </trkpt>
      <trkpt lat="48.62062" lon="2.02368">
        <ele>116.5</ele>
        <time>2024-12-30T18:29:30.241Z</time>
      </trkpt>
      <trkpt lat="48.62057" lon="2.02371">
        <ele>116.4</ele>
        <time>2024-12-30T18:29:34.222Z</time>
      </trkpt>
      <trkpt lat="48.62051" lon="2.02374">
        <ele>116.4</ele>
        <time>2024-12-30T18:29:38.203Z</time>
      </trkpt>
      <trkpt lat="48.62045" lon="2.02377">
        <ele>116.4</ele>
        <time>2024-12-30T18:29:42.184Z</time>
      </trkpt>
      <trkpt lat="48.62039" lon="2.0238">
        <ele>116.3</ele>
        <time>2024-12-30T18:29:46.165Z</time>
      </trkpt>
      <trkpt lat="48.62034" lon="2.02383">
        <ele>116.2</ele>
        <time>2024-12-30T18:29:50.146Z</time>
      </trkpt>
      <trkpt lat="48.62028" lon="2.02386">
        <ele>116</ele>
        <time>2024-12-30T18:29:54.127Z</time>
      </trkpt>
      <trkpt lat="48.62022" lon="2.02389">
        <ele>115.8</ele>
        <time>2024-12-30T18:29:58.110Z</time>
      </trkpt>
      <trkpt lat="48.62017" lon="2.02391">
        <ele>115.6</ele>
        <time>2024-12-30T18:30:01.778Z</time>
      </trkpt>
      <trkpt lat="48.62011" lon="2.02392">
        <ele>115.4</ele>
        <time>2024-12-30T18:30:05.446Z</time>
      </trkpt>
      <trkpt lat="48.62006" lon="2.02394">
        <ele>115.2</ele>
        <time>2024-12-30T18:30:09.114Z</time>
      </trkpt>
      <trkpt lat="48.62" lon="2.02396">
        <ele>115</ele>
        <time>2024-12-30T18:30:12.782Z</time>
      </trkpt>
      <trkpt lat="48.61995" lon="2.02397">
        <ele>114.8</ele>
        <time>2024-12-30T18:30:16.450Z</time>
      </trkpt>
      <trkpt lat="48.61989" lon="2.02399">
        <ele>114.6</ele>
        <time>2024-12-30T18:30:20.118Z</time>
      </trkpt>
      <trkpt lat="48.61984" lon="2.024">
        <ele>114.4</ele>
        <time>2024-12-30T18:30:23.786Z</time>
      </trkpt>
      <trkpt lat="48.61978" lon="2.02402">
        <ele>114.2</ele>
        <time>2024-12-30T18:30:27.455Z</time>
      </trkpt>
      <trkpt lat="48.61977" lon="2.02392">
        <ele>114.2</ele>
        <time>2024-12-30T18:30:31.786Z</time>
      </trkpt>
      <trkpt lat="48.61975" lon="2.02383">
        <ele>113.9</ele>
        <time>2024-12-30T18:30:36.117Z</time>
      </trkpt>
      <trkpt lat="48.61974" lon="2.02373">
        <ele>113.5</ele>
        <time>2024-12-30T18:30:40.448Z</time>
      </trkpt>
      <trkpt lat="48.61972" lon="2.02363">
        <ele>113.1</ele>
        <time>2024-12-30T18:30:44.781Z</time>
      </trkpt>
      <trkpt lat="48.61967" lon="2.02361">
        <ele>113</ele>
        <time>2024-12-30T18:30:48.483Z</time>
      </trkpt>
      <trkpt lat="48.61961" lon="2.02359">
        <ele>113</ele>
        <time>2024-12-30T18:30:52.185Z</time>
      </trkpt>
      <trkpt lat="48.61956" lon="2.02357">
        <ele>112.9</ele>
        <time>2024-12-30T18:30:55.888Z</time>
      </trkpt>
      <trkpt lat="48.6195" lon="2.02355">
        <ele>112.8</ele>
        <time>2024-12-30T18:30:59.591Z</time>
      </trkpt>
      <trkpt lat="48.61949" lon="2.02355">
        <ele>112.8</ele>
        <time>2024-12-30T18:31:00.245Z</time>
        <extensions>
          <visugpx:TrkExtension xmlns:visugpx="https://www.visugpx.com/editgpx/">
            <visugpx:node>28</visugpx:node>
            </visugpx:TrkExtension>
        </extensions>
      </trkpt>
      <trkpt lat="48.61949" lon="2.02355">
        <ele>112.8</ele>
        <time>2024-12-30T18:31:00.245Z</time>
      </trkpt>
      <trkpt lat="48.61946" lon="2.02355">
        <ele>112.8</ele>
        <time>2024-12-30T18:31:02.208Z</time>
      </trkpt>
      <trkpt lat="48.6194" lon="2.02359">
        <ele>112.8</ele>
        <time>2024-12-30T18:31:06.693Z</time>
      </trkpt>
      <trkpt lat="48.61934" lon="2.02364">
        <ele>112.6</ele>
        <time>2024-12-30T18:31:11.178Z</time>
      </trkpt>
      <trkpt lat="48.61927" lon="2.02368">
        <ele>112.4</ele>
        <time>2024-12-30T18:31:15.663Z</time>
      </trkpt>
      <trkpt lat="48.61921" lon="2.02372">
        <ele>112.2</ele>
        <time>2024-12-30T18:31:20.149Z</time>
      </trkpt>
      <trkpt lat="48.61913" lon="2.02373">
        <ele>111.9</ele>
        <time>2024-12-30T18:31:25.559Z</time>
      </trkpt>
      <trkpt lat="48.61905" lon="2.02374">
        <ele>111.8</ele>
        <time>2024-12-30T18:31:30.969Z</time>
      </trkpt>
      <trkpt lat="48.61896" lon="2.02374">
        <ele>111.6</ele>
        <time>2024-12-30T18:31:36.379Z</time>
      </trkpt>
      <trkpt lat="48.61888" lon="2.02375">
        <ele>111.5</ele>
        <time>2024-12-30T18:31:41.789Z</time>
        <extensions>
          <visugpx:TrkExtension xmlns:visugpx="https://www.visugpx.com/editgpx/">
            <visugpx:node>29</visugpx:node>
            </visugpx:TrkExtension>
        </extensions>
      </trkpt>
      <trkpt lat="48.61886" lon="2.02376">
        <ele>111.5</ele>
        <time>2024-12-30T18:31:43.167Z</time>
      </trkpt>
      <trkpt lat="48.6188" lon="2.0238">
        <ele>111.4</ele>
        <time>2024-12-30T18:31:47.683Z</time>
      </trkpt>
      <trkpt lat="48.61873" lon="2.02383">
        <ele>111.3</ele>
        <time>2024-12-30T18:31:52.199Z</time>
      </trkpt>
      <trkpt lat="48.61867" lon="2.02387">
        <ele>111.2</ele>
        <time>2024-12-30T18:31:56.715Z</time>
      </trkpt>
      <trkpt lat="48.6186" lon="2.0239">
        <ele>111</ele>
        <time>2024-12-30T18:32:01.231Z</time>
      </trkpt>
      <trkpt lat="48.61854" lon="2.02394">
        <ele>111</ele>
        <time>2024-12-30T18:32:05.747Z</time>
      </trkpt>
      <trkpt lat="48.61847" lon="2.02397">
        <ele>111</ele>
        <time>2024-12-30T18:32:10.263Z</time>
      </trkpt>
      <trkpt lat="48.61841" lon="2.02401">
        <ele>111</ele>
        <time>2024-12-30T18:32:14.780Z</time>
      </trkpt>
      <trkpt lat="48.61834" lon="2.02404">
        <ele>111</ele>
        <time>2024-12-30T18:32:19.298Z</time>
      </trkpt>
      <trkpt lat="48.61828" lon="2.02409">
        <ele>111</ele>
        <time>2024-12-30T18:32:23.976Z</time>
      </trkpt>
      <trkpt lat="48.61821" lon="2.02413">
        <ele>111</ele>
        <time>2024-12-30T18:32:28.656Z</time>
      </trkpt>
      <trkpt lat="48.61818" lon="2.02418">
        <ele>111</ele>
        <time>2024-12-30T18:32:31.578Z</time>
      </trkpt>
      <trkpt lat="48.61818" lon="2.02429">
        <ele>111.2</ele>
        <time>2024-12-30T18:32:36.133Z</time>
      </trkpt>
      <trkpt lat="48.61817" lon="2.02439">
        <ele>111.3</ele>
        <time>2024-12-30T18:32:40.688Z</time>
      </trkpt>
      <trkpt lat="48.61817" lon="2.0245">
        <ele>111.6</ele>
        <time>2024-12-30T18:32:45.243Z</time>
      </trkpt>
      <trkpt lat="48.61816" lon="2.0246">
        <ele>111.9</ele>
        <time>2024-12-30T18:32:49.800Z</time>
      </trkpt>
      <trkpt lat="48.61816" lon="2.02469">
        <ele>112.3</ele>
        <time>2024-12-30T18:32:53.695Z</time>
      </trkpt>
      <trkpt lat="48.61813" lon="2.02472">
        <ele>112.3</ele>
        <time>2024-12-30T18:32:56.049Z</time>
      </trkpt>
      <trkpt lat="48.61813" lon="2.0247">
        <ele>112.2</ele>
        <time>2024-12-30T18:32:56.915Z</time>
      </trkpt>
      <trkpt lat="48.61813" lon="2.0247">
        <ele>112.2</ele>
        <time>2024-12-30T18:32:56.915Z</time>
        <extensions>
          <visugpx:TrkExtension xmlns:visugpx="https://www.visugpx.com/editgpx/">
            <visugpx:node>30</visugpx:node>
            </visugpx:TrkExtension>
        </extensions>
      </trkpt>
      <trkpt lat="48.61813" lon="2.0247">
        <ele>112.2</ele>
        <time>2024-12-30T18:32:56.915Z</time>
      </trkpt>
      <trkpt lat="48.61813" lon="2.02472">
        <ele>112.3</ele>
        <time>2024-12-30T18:32:57.784Z</time>
      </trkpt>
      <trkpt lat="48.61818" lon="2.02481">
        <ele>112.4</ele>
        <time>2024-12-30T18:33:02.692Z</time>
      </trkpt>
      <trkpt lat="48.61822" lon="2.0249">
        <ele>112.6</ele>
        <time>2024-12-30T18:33:07.601Z</time>
      </trkpt>
      <trkpt lat="48.61819" lon="2.02499">
        <ele>112.5</ele>
        <time>2024-12-30T18:33:12.142Z</time>
      </trkpt>
      <trkpt lat="48.61815" lon="2.02508">
        <ele>112.6</ele>
        <time>2024-12-30T18:33:16.685Z</time>
      </trkpt>
      <trkpt lat="48.61812" lon="2.02515">
        <ele>112.8</ele>
        <time>2024-12-30T18:33:20.546Z</time>
      </trkpt>
      <trkpt lat="48.61808" lon="2.02522">
        <ele>112.9</ele>
        <time>2024-12-30T18:33:24.407Z</time>
      </trkpt>
      <trkpt lat="48.61805" lon="2.02529">
        <ele>112.9</ele>
        <time>2024-12-30T18:33:28.268Z</time>
      </trkpt>
      <trkpt lat="48.61801" lon="2.02537">
        <ele>112.7</ele>
        <time>2024-12-30T18:33:32.129Z</time>
      </trkpt>
      <trkpt lat="48.61798" lon="2.02544">
        <ele>112.6</ele>
        <time>2024-12-30T18:33:35.990Z</time>
      </trkpt>
      <trkpt lat="48.61794" lon="2.02551">
        <ele>112.5</ele>
        <time>2024-12-30T18:33:39.851Z</time>
      </trkpt>
      <trkpt lat="48.61791" lon="2.02558">
        <ele>112.5</ele>
        <time>2024-12-30T18:33:43.712Z</time>
      </trkpt>
      <trkpt lat="48.61787" lon="2.02565">
        <ele>112.7</ele>
        <time>2024-12-30T18:33:47.575Z</time>
      </trkpt>
      <trkpt lat="48.61783" lon="2.02576">
        <ele>112.9</ele>
        <time>2024-12-30T18:33:52.846Z</time>
      </trkpt>
      <trkpt lat="48.61779" lon="2.02586">
        <ele>113</ele>
        <time>2024-12-30T18:33:58.117Z</time>
      </trkpt>
      <trkpt lat="48.61775" lon="2.02597">
        <ele>112.9</ele>
        <time>2024-12-30T18:34:03.388Z</time>
      </trkpt>
      <trkpt lat="48.61771" lon="2.02607">
        <ele>112.8</ele>
        <time>2024-12-30T18:34:08.661Z</time>
      </trkpt>
      <trkpt lat="48.61765" lon="2.02615">
        <ele>112.7</ele>
        <time>2024-12-30T18:34:13.923Z</time>
        <extensions>
          <visugpx:TrkExtension xmlns:visugpx="https://www.visugpx.com/editgpx/">
            <visugpx:node>31</visugpx:node>
            </visugpx:TrkExtension>
        </extensions>
      </trkpt>
      <trkpt lat="48.61765" lon="2.02615">
        <ele>112.7</ele>
        <time>2024-12-30T18:34:13.923Z</time>
      </trkpt>
      <trkpt lat="48.6176" lon="2.02624">
        <ele>112.8</ele>
        <time>2024-12-30T18:34:19.036Z</time>
      </trkpt>
      <trkpt lat="48.61753" lon="2.02631">
        <ele>112.8</ele>
        <time>2024-12-30T18:34:24.778Z</time>
      </trkpt>
      <trkpt lat="48.61745" lon="2.02638">
        <ele>112.9</ele>
        <time>2024-12-30T18:34:30.520Z</time>
      </trkpt>
      <trkpt lat="48.61738" lon="2.02644">
        <ele>113.1</ele>
        <time>2024-12-30T18:34:36.262Z</time>
      </trkpt>
      <trkpt lat="48.6173" lon="2.02651">
        <ele>113.1</ele>
        <time>2024-12-30T18:34:42.006Z</time>
      </trkpt>
      <trkpt lat="48.61724" lon="2.02653">
        <ele>113</ele>
        <time>2024-12-30T18:34:46.169Z</time>
      </trkpt>
      <trkpt lat="48.61718" lon="2.02654">
        <ele>112.9</ele>
        <time>2024-12-30T18:34:50.333Z</time>
      </trkpt>
      <trkpt lat="48.61711" lon="2.02656">
        <ele>112.8</ele>
        <time>2024-12-30T18:34:54.497Z</time>
      </trkpt>
      <trkpt lat="48.61705" lon="2.02657">
        <ele>112.8</ele>
        <time>2024-12-30T18:34:58.662Z</time>
      </trkpt>
      <trkpt lat="48.617" lon="2.02657">
        <ele>112.7</ele>
        <time>2024-12-30T18:35:01.959Z</time>
      </trkpt>
      <trkpt lat="48.61695" lon="2.02656">
        <ele>112.6</ele>
        <time>2024-12-30T18:35:05.256Z</time>
      </trkpt>
      <trkpt lat="48.6169" lon="2.02655">
        <ele>112.5</ele>
        <time>2024-12-30T18:35:08.590Z</time>
      </trkpt>
      <trkpt lat="48.61685" lon="2.02654">
        <ele>112.3</ele>
        <time>2024-12-30T18:35:11.924Z</time>
      </trkpt>
      <trkpt lat="48.6168" lon="2.02652">
        <ele>112.2</ele>
        <time>2024-12-30T18:35:15.259Z</time>
      </trkpt>
      <trkpt lat="48.61675" lon="2.02651">
        <ele>112.1</ele>
        <time>2024-12-30T18:35:18.594Z</time>
      </trkpt>
      <trkpt lat="48.61667" lon="2.02651">
        <ele>112</ele>
        <time>2024-12-30T18:35:23.858Z</time>
      </trkpt>
      <trkpt lat="48.61659" lon="2.02651">
        <ele>112</ele>
        <time>2024-12-30T18:35:29.122Z</time>
      </trkpt>
      <trkpt lat="48.61654" lon="2.02649">
        <ele>112</ele>
        <time>2024-12-30T18:35:32.524Z</time>
      </trkpt>
      <trkpt lat="48.61649" lon="2.02647">
        <ele>112</ele>
        <time>2024-12-30T18:35:35.927Z</time>
      </trkpt>
      <trkpt lat="48.61644" lon="2.02645">
        <ele>112</ele>
        <time>2024-12-30T18:35:39.330Z</time>
      </trkpt>
      <trkpt lat="48.61639" lon="2.02643">
        <ele>112</ele>
        <time>2024-12-30T18:35:42.734Z</time>
      </trkpt>
      <trkpt lat="48.61633" lon="2.02642">
        <ele>111.8</ele>
        <time>2024-12-30T18:35:46.637Z</time>
      </trkpt>
      <trkpt lat="48.61627" lon="2.02641">
        <ele>111.6</ele>
        <time>2024-12-30T18:35:50.540Z</time>
      </trkpt>
      <trkpt lat="48.61621" lon="2.02639">
        <ele>111.4</ele>
        <time>2024-12-30T18:35:54.444Z</time>
      </trkpt>
      <trkpt lat="48.61616" lon="2.02638">
        <ele>111.2</ele>
        <time>2024-12-30T18:35:58.348Z</time>
      </trkpt>
      <trkpt lat="48.6161" lon="2.02637">
        <ele>111</ele>
        <time>2024-12-30T18:36:02.252Z</time>
      </trkpt>
      <trkpt lat="48.61604" lon="2.02636">
        <ele>111</ele>
        <time>2024-12-30T18:36:06.156Z</time>
      </trkpt>
      <trkpt lat="48.61598" lon="2.02634">
        <ele>111</ele>
        <time>2024-12-30T18:36:10.060Z</time>
      </trkpt>
      <trkpt lat="48.61592" lon="2.02633">
        <ele>111</ele>
        <time>2024-12-30T18:36:13.965Z</time>
      </trkpt>
      <trkpt lat="48.61585" lon="2.02634">
        <ele>111</ele>
        <time>2024-12-30T18:36:18.576Z</time>
      </trkpt>
      <trkpt lat="48.61578" lon="2.02634">
        <ele>111.2</ele>
        <time>2024-12-30T18:36:23.187Z</time>
      </trkpt>
      <trkpt lat="48.61572" lon="2.02635">
        <ele>111.4</ele>
        <time>2024-12-30T18:36:27.469Z</time>
      </trkpt>
      <trkpt lat="48.61565" lon="2.02635">
        <ele>111.6</ele>
        <time>2024-12-30T18:36:31.752Z</time>
        <extensions>
          <visugpx:TrkExtension xmlns:visugpx="https://www.visugpx.com/editgpx/">
            <visugpx:node>32</visugpx:node>
            </visugpx:TrkExtension>
        </extensions>
      </trkpt>
      <trkpt lat="48.61565" lon="2.02635">
        <ele>111.6</ele>
        <time>2024-12-30T18:36:31.752Z</time>
      </trkpt>
      <trkpt lat="48.61559" lon="2.02636">
        <ele>111.8</ele>
        <time>2024-12-30T18:36:35.887Z</time>
      </trkpt>
      <trkpt lat="48.61553" lon="2.02637">
        <ele>111.9</ele>
        <time>2024-12-30T18:36:40.022Z</time>
      </trkpt>
      <trkpt lat="48.61546" lon="2.02638">
        <ele>112</ele>
        <time>2024-12-30T18:36:44.157Z</time>
      </trkpt>
      <trkpt lat="48.6154" lon="2.02639">
        <ele>112</ele>
        <time>2024-12-30T18:36:48.292Z</time>
      </trkpt>
      <trkpt lat="48.61534" lon="2.0264">
        <ele>112</ele>
        <time>2024-12-30T18:36:52.428Z</time>
      </trkpt>
      <trkpt lat="48.61528" lon="2.02641">
        <ele>112</ele>
        <time>2024-12-30T18:36:56.564Z</time>
      </trkpt>
      <trkpt lat="48.61521" lon="2.02642">
        <ele>112</ele>
        <time>2024-12-30T18:37:00.700Z</time>
      </trkpt>
      <trkpt lat="48.61515" lon="2.02643">
        <ele>112</ele>
        <time>2024-12-30T18:37:04.836Z</time>
      </trkpt>
      <trkpt lat="48.61512" lon="2.02649">
        <ele>112</ele>
        <time>2024-12-30T18:37:08.108Z</time>
        <extensions>
          <visugpx:TrkExtension xmlns:visugpx="https://www.visugpx.com/editgpx/">
            <visugpx:node>33</visugpx:node>
            </visugpx:TrkExtension>
        </extensions>
      </trkpt>
      <trkpt lat="48.61512" lon="2.02649">
        <ele>112</ele>
        <time>2024-12-30T18:37:08.108Z</time>
      </trkpt>
      <trkpt lat="48.61507" lon="2.02656">
        <ele>112</ele>
        <time>2024-12-30T18:37:12.591Z</time>
      </trkpt>
      <trkpt lat="48.61501" lon="2.02661">
        <ele>112</ele>
        <time>2024-12-30T18:37:17.098Z</time>
      </trkpt>
      <trkpt lat="48.61495" lon="2.02666">
        <ele>112</ele>
        <time>2024-12-30T18:37:21.606Z</time>
      </trkpt>
      <trkpt lat="48.61487" lon="2.02669">
        <ele>112</ele>
        <time>2024-12-30T18:37:27.215Z</time>
      </trkpt>
      <trkpt lat="48.61479" lon="2.02673">
        <ele>112</ele>
        <time>2024-12-30T18:37:32.824Z</time>
      </trkpt>
      <trkpt lat="48.6147" lon="2.02676">
        <ele>112</ele>
        <time>2024-12-30T18:37:38.434Z</time>
      </trkpt>
      <trkpt lat="48.61462" lon="2.02679">
        <ele>112</ele>
        <time>2024-12-30T18:37:44.045Z</time>
      </trkpt>
      <trkpt lat="48.61462" lon="2.02679">
        <ele>112</ele>
        <time>2024-12-30T18:37:44.045Z</time>
        <extensions>
          <visugpx:TrkExtension xmlns:visugpx="https://www.visugpx.com/editgpx/">
            <visugpx:node>34</visugpx:node>
            </visugpx:TrkExtension>
        </extensions>
      </trkpt>
      <trkpt lat="48.61465" lon="2.02687">
        <ele>112</ele>
        <time>2024-12-30T18:37:48.141Z</time>
      </trkpt>
      <trkpt lat="48.61468" lon="2.02696">
        <ele>112</ele>
        <time>2024-12-30T18:37:52.237Z</time>
      </trkpt>
      <trkpt lat="48.61471" lon="2.02704">
        <ele>112</ele>
        <time>2024-12-30T18:37:56.333Z</time>
      </trkpt>
      <trkpt lat="48.61474" lon="2.02712">
        <ele>112</ele>
        <time>2024-12-30T18:38:00.429Z</time>
      </trkpt>
      <trkpt lat="48.61477" lon="2.02719">
        <ele>112</ele>
        <time>2024-12-30T18:38:03.794Z</time>
      </trkpt>
      <trkpt lat="48.61479" lon="2.02726">
        <ele>112</ele>
        <time>2024-12-30T18:38:07.160Z</time>
      </trkpt>
      <trkpt lat="48.61482" lon="2.02732">
        <ele>112</ele>
        <time>2024-12-30T18:38:10.526Z</time>
      </trkpt>
      <trkpt lat="48.61484" lon="2.02739">
        <ele>112</ele>
        <time>2024-12-30T18:38:13.892Z</time>
      </trkpt>
      <trkpt lat="48.61488" lon="2.02749">
        <ele>112</ele>
        <time>2024-12-30T18:38:18.643Z</time>
      </trkpt>
      <trkpt lat="48.61491" lon="2.02758">
        <ele>112.2</ele>
        <time>2024-12-30T18:38:23.394Z</time>
      </trkpt>
      <trkpt lat="48.61495" lon="2.02768">
        <ele>112.5</ele>
        <time>2024-12-30T18:38:28.145Z</time>
      </trkpt>
      <trkpt lat="48.61498" lon="2.02777">
        <ele>112.9</ele>
        <time>2024-12-30T18:38:32.896Z</time>
      </trkpt>
      <trkpt lat="48.61502" lon="2.02787">
        <ele>113</ele>
        <time>2024-12-30T18:38:37.647Z</time>
      </trkpt>
      <trkpt lat="48.61505" lon="2.02796">
        <ele>113</ele>
        <time>2024-12-30T18:38:42.398Z</time>
      </trkpt>
      <trkpt lat="48.61509" lon="2.02806">
        <ele>113</ele>
        <time>2024-12-30T18:38:47.149Z</time>
      </trkpt>
      <trkpt lat="48.61513" lon="2.02815">
        <ele>113.2</ele>
        <time>2024-12-30T18:38:51.900Z</time>
      </trkpt>
      <trkpt lat="48.61516" lon="2.02825">
        <ele>113.4</ele>
        <time>2024-12-30T18:38:56.651Z</time>
      </trkpt>
      <trkpt lat="48.6152" lon="2.02834">
        <ele>113.7</ele>
        <time>2024-12-30T18:39:01.402Z</time>
      </trkpt>
      <trkpt lat="48.61523" lon="2.02844">
        <ele>113.5</ele>
        <time>2024-12-30T18:39:06.154Z</time>
      </trkpt>
      <trkpt lat="48.61527" lon="2.02853">
        <ele>113.3</ele>
        <time>2024-12-30T18:39:10.906Z</time>
      </trkpt>
      <trkpt lat="48.6153" lon="2.02863">
        <ele>113.1</ele>
        <time>2024-12-30T18:39:15.658Z</time>
      </trkpt>
      <trkpt lat="48.61534" lon="2.02872">
        <ele>113.2</ele>
        <time>2024-12-30T18:39:20.410Z</time>
      </trkpt>
      <trkpt lat="48.61537" lon="2.02882">
        <ele>113.3</ele>
        <time>2024-12-30T18:39:25.162Z</time>
      </trkpt>
      <trkpt lat="48.61541" lon="2.02891">
        <ele>113.5</ele>
        <time>2024-12-30T18:39:29.914Z</time>
      </trkpt>
      <trkpt lat="48.61541" lon="2.0289">
        <ele>113.5</ele>
        <time>2024-12-30T18:39:30.349Z</time>
        <extensions>
          <visugpx:TrkExtension xmlns:visugpx="https://www.visugpx.com/editgpx/">
            <visugpx:node>35</visugpx:node>
            </visugpx:TrkExtension>
        </extensions>
      </trkpt>
      <trkpt lat="48.61541" lon="2.02896">
        <ele>113.5</ele>
        <time>2024-12-30T18:39:32.959Z</time>
      </trkpt>
      <trkpt lat="48.61541" lon="2.02899">
        <ele>113.5</ele>
        <time>2024-12-30T18:39:34.264Z</time>
      </trkpt>
      <trkpt lat="48.61537" lon="2.02903">
        <ele>113.3</ele>
        <time>2024-12-30T18:39:37.304Z</time>
      </trkpt>
      <trkpt lat="48.61533" lon="2.02906">
        <ele>113.2</ele>
        <time>2024-12-30T18:39:40.345Z</time>
      </trkpt>
      <trkpt lat="48.6153" lon="2.02912">
        <ele>113.1</ele>
        <time>2024-12-30T18:39:43.617Z</time>
      </trkpt>
      <trkpt lat="48.61534" lon="2.02924">
        <ele>113.2</ele>
        <time>2024-12-30T18:39:49.293Z</time>
      </trkpt>
      <trkpt lat="48.61538" lon="2.02936">
        <ele>113.1</ele>
        <time>2024-12-30T18:39:54.969Z</time>
      </trkpt>
      <trkpt lat="48.61541" lon="2.02947">
        <ele>113</ele>
        <time>2024-12-30T18:40:00.645Z</time>
      </trkpt>
      <trkpt lat="48.61545" lon="2.02959">
        <ele>113</ele>
        <time>2024-12-30T18:40:06.321Z</time>
      </trkpt>
      <trkpt lat="48.61549" lon="2.02971">
        <ele>113</ele>
        <time>2024-12-30T18:40:11.997Z</time>
      </trkpt>
      <trkpt lat="48.61553" lon="2.02983">
        <ele>113</ele>
        <time>2024-12-30T18:40:17.673Z</time>
      </trkpt>
      <trkpt lat="48.61556" lon="2.02994">
        <ele>113</ele>
        <time>2024-12-30T18:40:23.349Z</time>
      </trkpt>
      <trkpt lat="48.6156" lon="2.03006">
        <ele>113</ele>
        <time>2024-12-30T18:40:29.026Z</time>
        <extensions>
          <visugpx:TrkExtension xmlns:visugpx="https://www.visugpx.com/editgpx/">
            <visugpx:node>36</visugpx:node>
            </visugpx:TrkExtension>
        </extensions>
      </trkpt>
      <trkpt lat="48.61563" lon="2.03015">
        <ele>113</ele>
        <time>2024-12-30T18:40:33.410Z</time>
      </trkpt>
      <trkpt lat="48.61568" lon="2.03019">
        <ele>113</ele>
        <time>2024-12-30T18:40:37.132Z</time>
      </trkpt>
      <trkpt lat="48.61573" lon="2.03023">
        <ele>113</ele>
        <time>2024-12-30T18:40:40.854Z</time>
      </trkpt>
      <trkpt lat="48.61569" lon="2.03028">
        <ele>113</ele>
        <time>2024-12-30T18:40:44.403Z</time>
      </trkpt>
      <trkpt lat="48.61564" lon="2.03032">
        <ele>113.2</ele>
        <time>2024-12-30T18:40:47.952Z</time>
      </trkpt>
      <trkpt lat="48.6156" lon="2.03037">
        <ele>113.3</ele>
        <time>2024-12-30T18:40:51.502Z</time>
      </trkpt>
      <trkpt lat="48.61555" lon="2.03041">
        <ele>113.5</ele>
        <time>2024-12-30T18:40:55.053Z</time>
      </trkpt>
      <trkpt lat="48.61558" lon="2.03047">
        <ele>113.7</ele>
        <time>2024-12-30T18:40:58.319Z</time>
      </trkpt>
      <trkpt lat="48.61561" lon="2.03054">
        <ele>113.9</ele>
        <time>2024-12-30T18:41:01.585Z</time>
      </trkpt>
      <trkpt lat="48.61563" lon="2.0306">
        <ele>114</ele>
        <time>2024-12-30T18:41:04.851Z</time>
      </trkpt>
      <trkpt lat="48.61566" lon="2.03066">
        <ele>114</ele>
        <time>2024-12-30T18:41:08.117Z</time>
      </trkpt>
      <trkpt lat="48.61568" lon="2.03075">
        <ele>114</ele>
        <time>2024-12-30T18:41:12.404Z</time>
      </trkpt>
      <trkpt lat="48.61571" lon="2.03085">
        <ele>114</ele>
        <time>2024-12-30T18:41:16.692Z</time>
      </trkpt>
      <trkpt lat="48.61573" lon="2.03094">
        <ele>114</ele>
        <time>2024-12-30T18:41:20.980Z</time>
      </trkpt>
      <trkpt lat="48.61575" lon="2.03103">
        <ele>114</ele>
        <time>2024-12-30T18:41:25.268Z</time>
      </trkpt>
      <trkpt lat="48.61581" lon="2.03101">
        <ele>114</ele>
        <time>2024-12-30T18:41:29.495Z</time>
      </trkpt>
      <trkpt lat="48.61588" lon="2.03099">
        <ele>114</ele>
        <time>2024-12-30T18:41:33.722Z</time>
      </trkpt>
      <trkpt lat="48.61594" lon="2.03096">
        <ele>114</ele>
        <time>2024-12-30T18:41:37.950Z</time>
      </trkpt>
      <trkpt lat="48.616" lon="2.03094">
        <ele>114</ele>
        <time>2024-12-30T18:41:42.178Z</time>
      </trkpt>
      <trkpt lat="48.61601" lon="2.03101">
        <ele>114</ele>
        <time>2024-12-30T18:41:45.227Z</time>
      </trkpt>
      <trkpt lat="48.61603" lon="2.03108">
        <ele>114</ele>
        <time>2024-12-30T18:41:48.276Z</time>
      </trkpt>
      <trkpt lat="48.61604" lon="2.03114">
        <ele>114</ele>
        <time>2024-12-30T18:41:51.326Z</time>
      </trkpt>
      <trkpt lat="48.61605" lon="2.03121">
        <ele>114</ele>
        <time>2024-12-30T18:41:54.376Z</time>
      </trkpt>
      <trkpt lat="48.61609" lon="2.03128">
        <ele>114</ele>
        <time>2024-12-30T18:41:58.484Z</time>
      </trkpt>
      <trkpt lat="48.61613" lon="2.03136">
        <ele>114.1</ele>
        <time>2024-12-30T18:42:02.592Z</time>
      </trkpt>
      <trkpt lat="48.61617" lon="2.03143">
        <ele>114.2</ele>
        <time>2024-12-30T18:42:06.700Z</time>
      </trkpt>
      <trkpt lat="48.61621" lon="2.0315">
        <ele>114.4</ele>
        <time>2024-12-30T18:42:10.808Z</time>
      </trkpt>
      <trkpt lat="48.61625" lon="2.03157">
        <ele>114.5</ele>
        <time>2024-12-30T18:42:14.916Z</time>
      </trkpt>
      <trkpt lat="48.61629" lon="2.03165">
        <ele>114.6</ele>
        <time>2024-12-30T18:42:19.024Z</time>
      </trkpt>
      <trkpt lat="48.61633" lon="2.03172">
        <ele>114.8</ele>
        <time>2024-12-30T18:42:23.132Z</time>
      </trkpt>
      <trkpt lat="48.61637" lon="2.03179">
        <ele>114.9</ele>
        <time>2024-12-30T18:42:27.240Z</time>
      </trkpt>
      <trkpt lat="48.61643" lon="2.03183">
        <ele>115</ele>
        <time>2024-12-30T18:42:31.255Z</time>
      </trkpt>
      <trkpt lat="48.61648" lon="2.03187">
        <ele>115</ele>
        <time>2024-12-30T18:42:35.271Z</time>
      </trkpt>
      <trkpt lat="48.61657" lon="2.03186">
        <ele>115</ele>
        <time>2024-12-30T18:42:40.874Z</time>
      </trkpt>
      <trkpt lat="48.61665" lon="2.03186">
        <ele>115</ele>
        <time>2024-12-30T18:42:46.477Z</time>
      </trkpt>
      <trkpt lat="48.61674" lon="2.03185">
        <ele>115.2</ele>
        <time>2024-12-30T18:42:52.080Z</time>
      </trkpt>
      <trkpt lat="48.61682" lon="2.03184">
        <ele>115.6</ele>
        <time>2024-12-30T18:42:57.683Z</time>
      </trkpt>
      <trkpt lat="48.61688" lon="2.03187">
        <ele>115.8</ele>
        <time>2024-12-30T18:43:01.620Z</time>
      </trkpt>
      <trkpt lat="48.61694" lon="2.03189">
        <ele>116</ele>
        <time>2024-12-30T18:43:05.557Z</time>
      </trkpt>
      <trkpt lat="48.61699" lon="2.03192">
        <ele>116</ele>
        <time>2024-12-30T18:43:09.494Z</time>
      </trkpt>
      <trkpt lat="48.61705" lon="2.03194">
        <ele>116</ele>
        <time>2024-12-30T18:43:13.431Z</time>
      </trkpt>
      <trkpt lat="48.61703" lon="2.03201">
        <ele>116</ele>
        <time>2024-12-30T18:43:16.737Z</time>
      </trkpt>
      <trkpt lat="48.61702" lon="2.03208">
        <ele>116</ele>
        <time>2024-12-30T18:43:20.043Z</time>
      </trkpt>
      <trkpt lat="48.617" lon="2.03215">
        <ele>116</ele>
        <time>2024-12-30T18:43:23.349Z</time>
      </trkpt>
      <trkpt lat="48.61698" lon="2.03223">
        <ele>116</ele>
        <time>2024-12-30T18:43:26.655Z</time>
      </trkpt>
      <trkpt lat="48.61696" lon="2.0323">
        <ele>116</ele>
        <time>2024-12-30T18:43:29.962Z</time>
      </trkpt>
      <trkpt lat="48.61695" lon="2.03237">
        <ele>116</ele>
        <time>2024-12-30T18:43:33.269Z</time>
      </trkpt>
      <trkpt lat="48.61693" lon="2.03244">
        <ele>116</ele>
        <time>2024-12-30T18:43:36.576Z</time>
      </trkpt>
      <trkpt lat="48.61691" lon="2.03251">
        <ele>116</ele>
        <time>2024-12-30T18:43:39.884Z</time>
      </trkpt>
      <trkpt lat="48.61689" lon="2.03258">
        <ele>116</ele>
        <time>2024-12-30T18:43:43.306Z</time>
      </trkpt>
      <trkpt lat="48.61686" lon="2.03265">
        <ele>116</ele>
        <time>2024-12-30T18:43:46.729Z</time>
      </trkpt>
      <trkpt lat="48.61684" lon="2.03272">
        <ele>116</ele>
        <time>2024-12-30T18:43:50.152Z</time>
      </trkpt>
      <trkpt lat="48.61682" lon="2.03279">
        <ele>116</ele>
        <time>2024-12-30T18:43:53.575Z</time>
      </trkpt>
      <trkpt lat="48.61679" lon="2.03286">
        <ele>116.1</ele>
        <time>2024-12-30T18:43:56.998Z</time>
      </trkpt>
      <trkpt lat="48.61677" lon="2.03293">
        <ele>116.2</ele>
        <time>2024-12-30T18:44:00.421Z</time>
      </trkpt>
      <trkpt lat="48.61674" lon="2.033">
        <ele>116.2</ele>
        <time>2024-12-30T18:44:03.844Z</time>
      </trkpt>
      <trkpt lat="48.61672" lon="2.03307">
        <ele>116.2</ele>
        <time>2024-12-30T18:44:07.268Z</time>
      </trkpt>
      <trkpt lat="48.61672" lon="2.03307">
        <ele>116.2</ele>
        <time>2024-12-30T18:44:07.268Z</time>
        <extensions>
          <visugpx:TrkExtension xmlns:visugpx="https://www.visugpx.com/editgpx/">
            <visugpx:node>37</visugpx:node>
            </visugpx:TrkExtension>
        </extensions>
      </trkpt>
      <trkpt lat="48.6167" lon="2.03315">
        <ele>116.4</ele>
        <time>2024-12-30T18:44:11.272Z</time>
      </trkpt>
      <trkpt lat="48.61667" lon="2.03322">
        <ele>116.6</ele>
        <time>2024-12-30T18:44:15.278Z</time>
      </trkpt>
      <trkpt lat="48.61664" lon="2.03332">
        <ele>116.9</ele>
        <time>2024-12-30T18:44:20.605Z</time>
      </trkpt>
      <trkpt lat="48.61661" lon="2.03339">
        <ele>116.8</ele>
        <time>2024-12-30T18:44:24.383Z</time>
      </trkpt>
      <trkpt lat="48.61658" lon="2.03347">
        <ele>116.8</ele>
        <time>2024-12-30T18:44:28.162Z</time>
      </trkpt>
      <trkpt lat="48.61654" lon="2.03354">
        <ele>116.9</ele>
        <time>2024-12-30T18:44:31.941Z</time>
      </trkpt>
      <trkpt lat="48.61651" lon="2.03361">
        <ele>117</ele>
        <time>2024-12-30T18:44:35.721Z</time>
      </trkpt>
      <trkpt lat="48.61655" lon="2.03367">
        <ele>117</ele>
        <time>2024-12-30T18:44:39.207Z</time>
      </trkpt>
      <trkpt lat="48.61658" lon="2.03374">
        <ele>117</ele>
        <time>2024-12-30T18:44:42.694Z</time>
      </trkpt>
      <trkpt lat="48.61662" lon="2.0338">
        <ele>117</ele>
        <time>2024-12-30T18:44:46.181Z</time>
      </trkpt>
      <trkpt lat="48.61665" lon="2.03386">
        <ele>117</ele>
        <time>2024-12-30T18:44:49.668Z</time>
      </trkpt>
      <trkpt lat="48.61665" lon="2.03395">
        <ele>117</ele>
        <time>2024-12-30T18:44:53.500Z</time>
      </trkpt>
      <trkpt lat="48.61665" lon="2.03408">
        <ele>117</ele>
        <time>2024-12-30T18:44:59.325Z</time>
      </trkpt>
      <trkpt lat="48.61664" lon="2.0342">
        <ele>117.1</ele>
        <time>2024-12-30T18:45:05.150Z</time>
      </trkpt>
      <trkpt lat="48.61664" lon="2.03433">
        <ele>117.6</ele>
        <time>2024-12-30T18:45:10.975Z</time>
      </trkpt>
      <trkpt lat="48.61664" lon="2.03446">
        <ele>118</ele>
        <time>2024-12-30T18:45:16.800Z</time>
      </trkpt>
      <trkpt lat="48.61663" lon="2.03458">
        <ele>118</ele>
        <time>2024-12-30T18:45:22.625Z</time>
      </trkpt>
      <trkpt lat="48.61663" lon="2.03471">
        <ele>118</ele>
        <time>2024-12-30T18:45:28.450Z</time>
      </trkpt>
      <trkpt lat="48.61662" lon="2.03483">
        <ele>118.3</ele>
        <time>2024-12-30T18:45:34.276Z</time>
      </trkpt>
      <trkpt lat="48.61662" lon="2.03496">
        <ele>118.7</ele>
        <time>2024-12-30T18:45:40.103Z</time>
      </trkpt>
      <trkpt lat="48.61662" lon="2.03503">
        <ele>118.8</ele>
        <time>2024-12-30T18:45:43.345Z</time>
      </trkpt>
      <trkpt lat="48.61662" lon="2.03511">
        <ele>118.8</ele>
        <time>2024-12-30T18:45:46.587Z</time>
      </trkpt>
      <trkpt lat="48.61663" lon="2.03518">
        <ele>118.9</ele>
        <time>2024-12-30T18:45:49.829Z</time>
      </trkpt>
      <trkpt lat="48.61663" lon="2.03525">
        <ele>118.9</ele>
        <time>2024-12-30T18:45:53.071Z</time>
      </trkpt>
      <trkpt lat="48.61663" lon="2.03532">
        <ele>118.9</ele>
        <time>2024-12-30T18:45:56.313Z</time>
      </trkpt>
      <trkpt lat="48.61663" lon="2.0354">
        <ele>118.9</ele>
        <time>2024-12-30T18:45:59.555Z</time>
      </trkpt>
      <trkpt lat="48.61663" lon="2.03547">
        <ele>119</ele>
        <time>2024-12-30T18:46:02.797Z</time>
      </trkpt>
      <trkpt lat="48.61664" lon="2.03554">
        <ele>119</ele>
        <time>2024-12-30T18:46:06.040Z</time>
      </trkpt>
      <trkpt lat="48.61664" lon="2.03561">
        <ele>119.2</ele>
        <time>2024-12-30T18:46:09.283Z</time>
      </trkpt>
      <trkpt lat="48.61664" lon="2.03569">
        <ele>119.4</ele>
        <time>2024-12-30T18:46:12.526Z</time>
      </trkpt>
      <trkpt lat="48.61664" lon="2.03576">
        <ele>119.7</ele>
        <time>2024-12-30T18:46:15.769Z</time>
      </trkpt>
      <trkpt lat="48.61664" lon="2.03583">
        <ele>119.9</ele>
        <time>2024-12-30T18:46:19.012Z</time>
      </trkpt>
      <trkpt lat="48.61664" lon="2.0359">
        <ele>119.9</ele>
        <time>2024-12-30T18:46:22.255Z</time>
      </trkpt>
      <trkpt lat="48.61665" lon="2.03598">
        <ele>119.9</ele>
        <time>2024-12-30T18:46:25.498Z</time>
      </trkpt>
      <trkpt lat="48.61665" lon="2.03605">
        <ele>119.9</ele>
        <time>2024-12-30T18:46:28.741Z</time>
      </trkpt>
      <trkpt lat="48.61665" lon="2.03612">
        <ele>119.9</ele>
        <time>2024-12-30T18:46:31.984Z</time>
      </trkpt>
      <trkpt lat="48.61666" lon="2.03623">
        <ele>120</ele>
        <time>2024-12-30T18:46:36.858Z</time>
      </trkpt>
      <trkpt lat="48.61666" lon="2.03634">
        <ele>120</ele>
        <time>2024-12-30T18:46:41.732Z</time>
      </trkpt>
      <trkpt lat="48.61667" lon="2.03645">
        <ele>120</ele>
        <time>2024-12-30T18:46:46.606Z</time>
      </trkpt>
      <trkpt lat="48.61667" lon="2.03656">
        <ele>120</ele>
        <time>2024-12-30T18:46:51.480Z</time>
      </trkpt>
      <trkpt lat="48.61668" lon="2.03667">
        <ele>120.1</ele>
        <time>2024-12-30T18:46:56.354Z</time>
      </trkpt>
      <trkpt lat="48.61668" lon="2.03678">
        <ele>120.1</ele>
        <time>2024-12-30T18:47:01.228Z</time>
      </trkpt>
      <trkpt lat="48.61669" lon="2.03689">
        <ele>120.2</ele>
        <time>2024-12-30T18:47:06.102Z</time>
      </trkpt>
      <trkpt lat="48.6167" lon="2.037">
        <ele>120.2</ele>
        <time>2024-12-30T18:47:10.976Z</time>
      </trkpt>
      <trkpt lat="48.6167" lon="2.0371">
        <ele>120.2</ele>
        <time>2024-12-30T18:47:15.850Z</time>
      </trkpt>
      <trkpt lat="48.61671" lon="2.03721">
        <ele>120.3</ele>
        <time>2024-12-30T18:47:20.725Z</time>
      </trkpt>
      <trkpt lat="48.61671" lon="2.03732">
        <ele>120.7</ele>
        <time>2024-12-30T18:47:25.600Z</time>
      </trkpt>
      <trkpt lat="48.61672" lon="2.03743">
        <ele>121.1</ele>
        <time>2024-12-30T18:47:30.475Z</time>
      </trkpt>
      <trkpt lat="48.61672" lon="2.03754">
        <ele>121.4</ele>
        <time>2024-12-30T18:47:35.350Z</time>
      </trkpt>
      <trkpt lat="48.61673" lon="2.03765">
        <ele>121.4</ele>
        <time>2024-12-30T18:47:40.225Z</time>
      </trkpt>
      <trkpt lat="48.61673" lon="2.03776">
        <ele>121.5</ele>
        <time>2024-12-30T18:47:45.100Z</time>
      </trkpt>
      <trkpt lat="48.61674" lon="2.03787">
        <ele>121.5</ele>
        <time>2024-12-30T18:47:49.975Z</time>
      </trkpt>
      <trkpt lat="48.61674" lon="2.03796">
        <ele>121.5</ele>
        <time>2024-12-30T18:47:53.535Z</time>
      </trkpt>
      <trkpt lat="48.61674" lon="2.03805">
        <ele>121.5</ele>
        <time>2024-12-30T18:47:57.095Z</time>
      </trkpt>
      <trkpt lat="48.61674" lon="2.03813">
        <ele>121.2</ele>
        <time>2024-12-30T18:48:00.655Z</time>
      </trkpt>
      <trkpt lat="48.61674" lon="2.03822">
        <ele>120.9</ele>
        <time>2024-12-30T18:48:04.215Z</time>
      </trkpt>
      <trkpt lat="48.61674" lon="2.03831">
        <ele>120.6</ele>
        <time>2024-12-30T18:48:07.775Z</time>
      </trkpt>
      <trkpt lat="48.61674" lon="2.0384">
        <ele>120.5</ele>
        <time>2024-12-30T18:48:11.335Z</time>
      </trkpt>
      <trkpt lat="48.61674" lon="2.03849">
        <ele>120.5</ele>
        <time>2024-12-30T18:48:14.895Z</time>
      </trkpt>
      <trkpt lat="48.61674" lon="2.03858">
        <ele>120.5</ele>
        <time>2024-12-30T18:48:18.455Z</time>
      </trkpt>
      <trkpt lat="48.61674" lon="2.03866">
        <ele>120.5</ele>
        <time>2024-12-30T18:48:22.015Z</time>
      </trkpt>
      <trkpt lat="48.61674" lon="2.03875">
        <ele>120.5</ele>
        <time>2024-12-30T18:48:25.576Z</time>
      </trkpt>
      <trkpt lat="48.61674" lon="2.03884">
        <ele>120.5</ele>
        <time>2024-12-30T18:48:29.137Z</time>
      </trkpt>
      <trkpt lat="48.61674" lon="2.03893">
        <ele>120.5</ele>
        <time>2024-12-30T18:48:32.698Z</time>
      </trkpt>
      <trkpt lat="48.61674" lon="2.03902">
        <ele>120.4</ele>
        <time>2024-12-30T18:48:36.259Z</time>
      </trkpt>
      <trkpt lat="48.61674" lon="2.0391">
        <ele>120.3</ele>
        <time>2024-12-30T18:48:39.820Z</time>
      </trkpt>
      <trkpt lat="48.61674" lon="2.03919">
        <ele>120.2</ele>
        <time>2024-12-30T18:48:43.381Z</time>
      </trkpt>
      <trkpt lat="48.61674" lon="2.03928">
        <ele>119.9</ele>
        <time>2024-12-30T18:48:46.942Z</time>
      </trkpt>
      <trkpt lat="48.61673" lon="2.03936">
        <ele>119.6</ele>
        <time>2024-12-30T18:48:50.047Z</time>
      </trkpt>
      <trkpt lat="48.61673" lon="2.03944">
        <ele>119.2</ele>
        <time>2024-12-30T18:48:53.152Z</time>
      </trkpt>
      <trkpt lat="48.61672" lon="2.03951">
        <ele>119.2</ele>
        <time>2024-12-30T18:48:56.257Z</time>
      </trkpt>
      <trkpt lat="48.61671" lon="2.03959">
        <ele>119.2</ele>
        <time>2024-12-30T18:48:59.362Z</time>
      </trkpt>
      <trkpt lat="48.6167" lon="2.03967">
        <ele>119.1</ele>
        <time>2024-12-30T18:49:02.467Z</time>
      </trkpt>
      <trkpt lat="48.6167" lon="2.03975">
        <ele>119</ele>
        <time>2024-12-30T18:49:05.572Z</time>
      </trkpt>
      <trkpt lat="48.61669" lon="2.03983">
        <ele>118.7</ele>
        <time>2024-12-30T18:49:08.677Z</time>
      </trkpt>
      <trkpt lat="48.61668" lon="2.0399">
        <ele>118.4</ele>
        <time>2024-12-30T18:49:11.782Z</time>
      </trkpt>
      <trkpt lat="48.61667" lon="2.03998">
        <ele>118.1</ele>
        <time>2024-12-30T18:49:14.887Z</time>
      </trkpt>
      <trkpt lat="48.61667" lon="2.04006">
        <ele>117.8</ele>
        <time>2024-12-30T18:49:17.992Z</time>
      </trkpt>
      <trkpt lat="48.61666" lon="2.04014">
        <ele>117.5</ele>
        <time>2024-12-30T18:49:21.097Z</time>
      </trkpt>
      <trkpt lat="48.61665" lon="2.04021">
        <ele>117.2</ele>
        <time>2024-12-30T18:49:24.202Z</time>
      </trkpt>
      <trkpt lat="48.61665" lon="2.04029">
        <ele>116.9</ele>
        <time>2024-12-30T18:49:27.307Z</time>
      </trkpt>
      <trkpt lat="48.61664" lon="2.04037">
        <ele>116.9</ele>
        <time>2024-12-30T18:49:30.412Z</time>
      </trkpt>
      <trkpt lat="48.61663" lon="2.04045">
        <ele>116.9</ele>
        <time>2024-12-30T18:49:33.517Z</time>
      </trkpt>
      <trkpt lat="48.61662" lon="2.04053">
        <ele>116.8</ele>
        <time>2024-12-30T18:49:36.622Z</time>
      </trkpt>
      <trkpt lat="48.61662" lon="2.0406">
        <ele>116.6</ele>
        <time>2024-12-30T18:49:39.727Z</time>
      </trkpt>
      <trkpt lat="48.61661" lon="2.04068">
        <ele>116.3</ele>
        <time>2024-12-30T18:49:42.832Z</time>
      </trkpt>
      <trkpt lat="48.6166" lon="2.04076">
        <ele>116</ele>
        <time>2024-12-30T18:49:45.937Z</time>
      </trkpt>
      <trkpt lat="48.61659" lon="2.04084">
        <ele>115.7</ele>
        <time>2024-12-30T18:49:49.042Z</time>
      </trkpt>
      <trkpt lat="48.61659" lon="2.04091">
        <ele>115.5</ele>
        <time>2024-12-30T18:49:52.147Z</time>
      </trkpt>
      <trkpt lat="48.61658" lon="2.04099">
        <ele>115.3</ele>
        <time>2024-12-30T18:49:55.252Z</time>
      </trkpt>
      <trkpt lat="48.61657" lon="2.04107">
        <ele>115.1</ele>
        <time>2024-12-30T18:49:58.357Z</time>
      </trkpt>
      <trkpt lat="48.61656" lon="2.04115">
        <ele>115</ele>
        <time>2024-12-30T18:50:01.462Z</time>
      </trkpt>
      <trkpt lat="48.61656" lon="2.04123">
        <ele>114.8</ele>
        <time>2024-12-30T18:50:04.567Z</time>
      </trkpt>
      <trkpt lat="48.61655" lon="2.0413">
        <ele>114.7</ele>
        <time>2024-12-30T18:50:07.672Z</time>
      </trkpt>
      <trkpt lat="48.61654" lon="2.04138">
        <ele>114.6</ele>
        <time>2024-12-30T18:50:10.777Z</time>
      </trkpt>
      <trkpt lat="48.61653" lon="2.04146">
        <ele>114.4</ele>
        <time>2024-12-30T18:50:13.882Z</time>
      </trkpt>
      <trkpt lat="48.61653" lon="2.04154">
        <ele>114.2</ele>
        <time>2024-12-30T18:50:16.987Z</time>
      </trkpt>
      <trkpt lat="48.61652" lon="2.04161">
        <ele>114.1</ele>
        <time>2024-12-30T18:50:20.092Z</time>
      </trkpt>
      <trkpt lat="48.61651" lon="2.04169">
        <ele>114</ele>
        <time>2024-12-30T18:50:23.197Z</time>
      </trkpt>
      <trkpt lat="48.61651" lon="2.04177">
        <ele>114</ele>
        <time>2024-12-30T18:50:26.302Z</time>
      </trkpt>
      <trkpt lat="48.6165" lon="2.04185">
        <ele>114</ele>
        <time>2024-12-30T18:50:29.407Z</time>
      </trkpt>
      <trkpt lat="48.61649" lon="2.04193">
        <ele>114</ele>
        <time>2024-12-30T18:50:32.512Z</time>
      </trkpt>
      <trkpt lat="48.61648" lon="2.042">
        <ele>113.9</ele>
        <time>2024-12-30T18:50:35.617Z</time>
      </trkpt>
      <trkpt lat="48.61648" lon="2.04208">
        <ele>113.7</ele>
        <time>2024-12-30T18:50:38.722Z</time>
      </trkpt>
      <trkpt lat="48.61647" lon="2.04216">
        <ele>113.4</ele>
        <time>2024-12-30T18:50:41.827Z</time>
      </trkpt>
      <trkpt lat="48.61646" lon="2.04224">
        <ele>113.2</ele>
        <time>2024-12-30T18:50:44.932Z</time>
      </trkpt>
      <trkpt lat="48.61645" lon="2.04232">
        <ele>113.2</ele>
        <time>2024-12-30T18:50:48.037Z</time>
      </trkpt>
      <trkpt lat="48.61645" lon="2.04239">
        <ele>113.1</ele>
        <time>2024-12-30T18:50:51.142Z</time>
      </trkpt>
      <trkpt lat="48.61644" lon="2.04247">
        <ele>113</ele>
        <time>2024-12-30T18:50:54.247Z</time>
      </trkpt>
      <trkpt lat="48.61643" lon="2.04255">
        <ele>113</ele>
        <time>2024-12-30T18:50:57.352Z</time>
      </trkpt>
      <trkpt lat="48.61642" lon="2.04263">
        <ele>113</ele>
        <time>2024-12-30T18:51:00.457Z</time>
      </trkpt>
      <trkpt lat="48.61642" lon="2.0427">
        <ele>113</ele>
        <time>2024-12-30T18:51:03.562Z</time>
      </trkpt>
      <trkpt lat="48.61641" lon="2.04278">
        <ele>113</ele>
        <time>2024-12-30T18:51:06.667Z</time>
      </trkpt>
      <trkpt lat="48.6164" lon="2.04286">
        <ele>113</ele>
        <time>2024-12-30T18:51:09.772Z</time>
      </trkpt>
      <trkpt lat="48.6164" lon="2.04294">
        <ele>113</ele>
        <time>2024-12-30T18:51:12.877Z</time>
      </trkpt>
      <trkpt lat="48.61639" lon="2.04302">
        <ele>113</ele>
        <time>2024-12-30T18:51:15.982Z</time>
      </trkpt>
      <trkpt lat="48.61638" lon="2.04309">
        <ele>113</ele>
        <time>2024-12-30T18:51:19.087Z</time>
      </trkpt>
      <trkpt lat="48.61637" lon="2.04317">
        <ele>112.9</ele>
        <time>2024-12-30T18:51:22.192Z</time>
      </trkpt>
      <trkpt lat="48.61637" lon="2.04325">
        <ele>112.9</ele>
        <time>2024-12-30T18:51:25.297Z</time>
      </trkpt>
      <trkpt lat="48.61636" lon="2.04333">
        <ele>112.9</ele>
        <time>2024-12-30T18:51:28.402Z</time>
      </trkpt>
      <trkpt lat="48.61635" lon="2.0434">
        <ele>112.6</ele>
        <time>2024-12-30T18:51:31.507Z</time>
      </trkpt>
      <trkpt lat="48.61634" lon="2.04348">
        <ele>112.4</ele>
        <time>2024-12-30T18:51:34.612Z</time>
      </trkpt>
      <trkpt lat="48.61634" lon="2.04356">
        <ele>112.1</ele>
        <time>2024-12-30T18:51:37.717Z</time>
      </trkpt>
      <trkpt lat="48.61633" lon="2.04364">
        <ele>112</ele>
        <time>2024-12-30T18:51:40.822Z</time>
      </trkpt>
      <trkpt lat="48.61632" lon="2.04372">
        <ele>111.9</ele>
        <time>2024-12-30T18:51:43.927Z</time>
      </trkpt>
      <trkpt lat="48.61631" lon="2.04379">
        <ele>111.8</ele>
        <time>2024-12-30T18:51:47.032Z</time>
      </trkpt>
      <trkpt lat="48.61631" lon="2.04387">
        <ele>111.7</ele>
        <time>2024-12-30T18:51:50.137Z</time>
      </trkpt>
      <trkpt lat="48.6163" lon="2.04395">
        <ele>111.7</ele>
        <time>2024-12-30T18:51:53.243Z</time>
      </trkpt>
      <trkpt lat="48.61629" lon="2.04403">
        <ele>111.8</ele>
        <time>2024-12-30T18:51:56.349Z</time>
      </trkpt>
      <trkpt lat="48.61629" lon="2.0441">
        <ele>111.9</ele>
        <time>2024-12-30T18:51:59.455Z</time>
      </trkpt>
      <trkpt lat="48.61628" lon="2.04418">
        <ele>111.9</ele>
        <time>2024-12-30T18:52:02.561Z</time>
      </trkpt>
      <trkpt lat="48.61627" lon="2.04426">
        <ele>111.7</ele>
        <time>2024-12-30T18:52:05.668Z</time>
      </trkpt>
      <trkpt lat="48.61627" lon="2.04431">
        <ele>111.5</ele>
        <time>2024-12-30T18:52:07.530Z</time>
      </trkpt>
      <trkpt lat="48.61626" lon="2.04443">
        <ele>111.1</ele>
        <time>2024-12-30T18:52:12.722Z</time>
      </trkpt>
      <trkpt lat="48.61625" lon="2.04454">
        <ele>111</ele>
        <time>2024-12-30T18:52:17.914Z</time>
      </trkpt>
      <trkpt lat="48.61624" lon="2.04466">
        <ele>111</ele>
        <time>2024-12-30T18:52:23.106Z</time>
      </trkpt>
      <trkpt lat="48.61623" lon="2.04478">
        <ele>111.1</ele>
        <time>2024-12-30T18:52:28.298Z</time>
      </trkpt>
      <trkpt lat="48.61621" lon="2.04489">
        <ele>111.2</ele>
        <time>2024-12-30T18:52:33.490Z</time>
      </trkpt>
      <trkpt lat="48.6162" lon="2.04501">
        <ele>111.3</ele>
        <time>2024-12-30T18:52:38.682Z</time>
      </trkpt>
      <trkpt lat="48.61619" lon="2.04512">
        <ele>111.6</ele>
        <time>2024-12-30T18:52:43.874Z</time>
      </trkpt>
      <trkpt lat="48.61618" lon="2.04524">
        <ele>111.9</ele>
        <time>2024-12-30T18:52:49.066Z</time>
      </trkpt>
      <trkpt lat="48.61617" lon="2.04536">
        <ele>112</ele>
        <time>2024-12-30T18:52:54.258Z</time>
      </trkpt>
      <trkpt lat="48.61616" lon="2.04547">
        <ele>112</ele>
        <time>2024-12-30T18:52:59.450Z</time>
      </trkpt>
      <trkpt lat="48.61615" lon="2.04559">
        <ele>112.1</ele>
        <time>2024-12-30T18:53:04.642Z</time>
      </trkpt>
      <trkpt lat="48.61614" lon="2.04571">
        <ele>112.5</ele>
        <time>2024-12-30T18:53:09.835Z</time>
      </trkpt>
      <trkpt lat="48.61612" lon="2.04582">
        <ele>112.9</ele>
        <time>2024-12-30T18:53:15.028Z</time>
      </trkpt>
      <trkpt lat="48.61611" lon="2.04594">
        <ele>113</ele>
        <time>2024-12-30T18:53:20.221Z</time>
      </trkpt>
      <trkpt lat="48.6161" lon="2.04605">
        <ele>113</ele>
        <time>2024-12-30T18:53:25.414Z</time>
      </trkpt>
      <trkpt lat="48.61609" lon="2.04617">
        <ele>113</ele>
        <time>2024-12-30T18:53:30.608Z</time>
      </trkpt>
      <trkpt lat="48.61608" lon="2.04625">
        <ele>113</ele>
        <time>2024-12-30T18:53:34.331Z</time>
      </trkpt>
      <trkpt lat="48.61607" lon="2.04634">
        <ele>113</ele>
        <time>2024-12-30T18:53:38.054Z</time>
      </trkpt>
      <trkpt lat="48.61606" lon="2.04642">
        <ele>113.1</ele>
        <time>2024-12-30T18:53:41.778Z</time>
      </trkpt>
      <trkpt lat="48.61605" lon="2.0465">
        <ele>113.3</ele>
        <time>2024-12-30T18:53:45.503Z</time>
      </trkpt>
      <trkpt lat="48.61606" lon="2.04657">
        <ele>113.5</ele>
        <time>2024-12-30T18:53:48.988Z</time>
        <extensions>
          <visugpx:TrkExtension xmlns:visugpx="https://www.visugpx.com/editgpx/">
            <visugpx:node>38</visugpx:node>
            </visugpx:TrkExtension>
        </extensions>
      </trkpt>
      <trkpt lat="48.61608" lon="2.04669">
        <ele>113.9</ele>
        <time>2024-12-30T18:53:55.140Z</time>
      </trkpt>
      <trkpt lat="48.61611" lon="2.04677">
        <ele>114</ele>
        <time>2024-12-30T18:53:59.292Z</time>
      </trkpt>
      <trkpt lat="48.61614" lon="2.04685">
        <ele>114</ele>
        <time>2024-12-30T18:54:03.445Z</time>
      </trkpt>
      <trkpt lat="48.61616" lon="2.04693">
        <ele>114.2</ele>
        <time>2024-12-30T18:54:07.598Z</time>
      </trkpt>
      <trkpt lat="48.61619" lon="2.04701">
        <ele>114.5</ele>
        <time>2024-12-30T18:54:11.751Z</time>
      </trkpt>
      <trkpt lat="48.61623" lon="2.04707">
        <ele>114.9</ele>
        <time>2024-12-30T18:54:16.035Z</time>
      </trkpt>
      <trkpt lat="48.61627" lon="2.04712">
        <ele>115.2</ele>
        <time>2024-12-30T18:54:20.319Z</time>
      </trkpt>
      <trkpt lat="48.61633" lon="2.04713">
        <ele>115.5</ele>
        <time>2024-12-30T18:54:24.352Z</time>
      </trkpt>
      <trkpt lat="48.61639" lon="2.04715">
        <ele>115.7</ele>
        <time>2024-12-30T18:54:28.386Z</time>
      </trkpt>
      <trkpt lat="48.61645" lon="2.04716">
        <ele>115.8</ele>
        <time>2024-12-30T18:54:32.420Z</time>
      </trkpt>
      <trkpt lat="48.61651" lon="2.04718">
        <ele>115.8</ele>
        <time>2024-12-30T18:54:36.454Z</time>
      </trkpt>
      <trkpt lat="48.61656" lon="2.04719">
        <ele>115.9</ele>
        <time>2024-12-30T18:54:40.488Z</time>
      </trkpt>
      <trkpt lat="48.61662" lon="2.0472">
        <ele>115.9</ele>
        <time>2024-12-30T18:54:44.522Z</time>
      </trkpt>
      <trkpt lat="48.61668" lon="2.04722">
        <ele>116</ele>
        <time>2024-12-30T18:54:48.556Z</time>
      </trkpt>
      <trkpt lat="48.61674" lon="2.04723">
        <ele>116</ele>
        <time>2024-12-30T18:54:52.590Z</time>
      </trkpt>
      <trkpt lat="48.61682" lon="2.04724">
        <ele>116.1</ele>
        <time>2024-12-30T18:54:57.851Z</time>
      </trkpt>
      <trkpt lat="48.6169" lon="2.04725">
        <ele>116.1</ele>
        <time>2024-12-30T18:55:03.113Z</time>
      </trkpt>
      <trkpt lat="48.61698" lon="2.04725">
        <ele>116.1</ele>
        <time>2024-12-30T18:55:08.375Z</time>
      </trkpt>
      <trkpt lat="48.61706" lon="2.04726">
        <ele>116.2</ele>
        <time>2024-12-30T18:55:13.637Z</time>
      </trkpt>
      <trkpt lat="48.61713" lon="2.04728">
        <ele>116.3</ele>
        <time>2024-12-30T18:55:18.220Z</time>
      </trkpt>
      <trkpt lat="48.61719" lon="2.0473">
        <ele>116.5</ele>
        <time>2024-12-30T18:55:22.804Z</time>
      </trkpt>
      <trkpt lat="48.61726" lon="2.04732">
        <ele>116.7</ele>
        <time>2024-12-30T18:55:27.388Z</time>
      </trkpt>
      <trkpt lat="48.61732" lon="2.04734">
        <ele>116.8</ele>
        <time>2024-12-30T18:55:31.972Z</time>
      </trkpt>
      <trkpt lat="48.61738" lon="2.04735">
        <ele>116.9</ele>
        <time>2024-12-30T18:55:36.039Z</time>
      </trkpt>
      <trkpt lat="48.61745" lon="2.04737">
        <ele>117</ele>
        <time>2024-12-30T18:55:40.106Z</time>
      </trkpt>
      <trkpt lat="48.61751" lon="2.04738">
        <ele>117.1</ele>
        <time>2024-12-30T18:55:44.173Z</time>
      </trkpt>
      <trkpt lat="48.61757" lon="2.0474">
        <ele>117.1</ele>
        <time>2024-12-30T18:55:48.240Z</time>
      </trkpt>
      <trkpt lat="48.61763" lon="2.04741">
        <ele>117</ele>
        <time>2024-12-30T18:55:52.307Z</time>
      </trkpt>
      <trkpt lat="48.6177" lon="2.04742">
        <ele>116.9</ele>
        <time>2024-12-30T18:55:56.374Z</time>
      </trkpt>
      <trkpt lat="48.61776" lon="2.04744">
        <ele>116.8</ele>
        <time>2024-12-30T18:56:00.441Z</time>
      </trkpt>
      <trkpt lat="48.61782" lon="2.04745">
        <ele>116.8</ele>
        <time>2024-12-30T18:56:04.508Z</time>
      </trkpt>
      <trkpt lat="48.61789" lon="2.04746">
        <ele>116.9</ele>
        <time>2024-12-30T18:56:09.345Z</time>
      </trkpt>
      <trkpt lat="48.61797" lon="2.04748">
        <ele>116.9</ele>
        <time>2024-12-30T18:56:14.182Z</time>
      </trkpt>
      <trkpt lat="48.61804" lon="2.04749">
        <ele>117</ele>
        <time>2024-12-30T18:56:19.019Z</time>
      </trkpt>
      <trkpt lat="48.61812" lon="2.04751">
        <ele>117</ele>
        <time>2024-12-30T18:56:23.856Z</time>
      </trkpt>
      <trkpt lat="48.61819" lon="2.04752">
        <ele>117</ele>
        <time>2024-12-30T18:56:28.693Z</time>
      </trkpt>
      <trkpt lat="48.61827" lon="2.04753">
        <ele>117</ele>
        <time>2024-12-30T18:56:33.530Z</time>
      </trkpt>
      <trkpt lat="48.61834" lon="2.04755">
        <ele>117</ele>
        <time>2024-12-30T18:56:38.367Z</time>
      </trkpt>
      <trkpt lat="48.61842" lon="2.04756">
        <ele>117</ele>
        <time>2024-12-30T18:56:43.204Z</time>
      </trkpt>
      <trkpt lat="48.61849" lon="2.04757">
        <ele>117</ele>
        <time>2024-12-30T18:56:48.041Z</time>
      </trkpt>
      <trkpt lat="48.61856" lon="2.04759">
        <ele>117</ele>
        <time>2024-12-30T18:56:52.878Z</time>
      </trkpt>
      <trkpt lat="48.61864" lon="2.0476">
        <ele>116.9</ele>
        <time>2024-12-30T18:56:57.715Z</time>
      </trkpt>
      <trkpt lat="48.61871" lon="2.04762">
        <ele>116.8</ele>
        <time>2024-12-30T18:57:02.553Z</time>
      </trkpt>
      <trkpt lat="48.61879" lon="2.04763">
        <ele>116.7</ele>
        <time>2024-12-30T18:57:07.391Z</time>
      </trkpt>
      <trkpt lat="48.61886" lon="2.04764">
        <ele>116.6</ele>
        <time>2024-12-30T18:57:12.229Z</time>
      </trkpt>
      <trkpt lat="48.61894" lon="2.04766">
        <ele>116.7</ele>
        <time>2024-12-30T18:57:17.067Z</time>
      </trkpt>
      <trkpt lat="48.61901" lon="2.04767">
        <ele>116.9</ele>
        <time>2024-12-30T18:57:21.905Z</time>
      </trkpt>
      <trkpt lat="48.61909" lon="2.04769">
        <ele>117.2</ele>
        <time>2024-12-30T18:57:27.379Z</time>
      </trkpt>
      <trkpt lat="48.61917" lon="2.04771">
        <ele>117.5</ele>
        <time>2024-12-30T18:57:32.853Z</time>
      </trkpt>
      <trkpt lat="48.61925" lon="2.04772">
        <ele>117.6</ele>
        <time>2024-12-30T18:57:38.327Z</time>
      </trkpt>
      <trkpt lat="48.61933" lon="2.04774">
        <ele>117.7</ele>
        <time>2024-12-30T18:57:43.801Z</time>
      </trkpt>
      <trkpt lat="48.61941" lon="2.04776">
        <ele>117.9</ele>
        <time>2024-12-30T18:57:49.276Z</time>
      </trkpt>
      <trkpt lat="48.61949" lon="2.04778">
        <ele>118</ele>
        <time>2024-12-30T18:57:54.751Z</time>
      </trkpt>
      <trkpt lat="48.61957" lon="2.04779">
        <ele>118.1</ele>
        <time>2024-12-30T18:58:00.226Z</time>
      </trkpt>
      <trkpt lat="48.61966" lon="2.04781">
        <ele>118.1</ele>
        <time>2024-12-30T18:58:05.701Z</time>
      </trkpt>
      <trkpt lat="48.61974" lon="2.04783">
        <ele>118.2</ele>
        <time>2024-12-30T18:58:11.176Z</time>
      </trkpt>
      <trkpt lat="48.61982" lon="2.04785">
        <ele>118.2</ele>
        <time>2024-12-30T18:58:16.651Z</time>
      </trkpt>
      <trkpt lat="48.6199" lon="2.04786">
        <ele>118.3</ele>
        <time>2024-12-30T18:58:22.126Z</time>
      </trkpt>
      <trkpt lat="48.61998" lon="2.04788">
        <ele>118.4</ele>
        <time>2024-12-30T18:58:27.601Z</time>
      </trkpt>
      <trkpt lat="48.62006" lon="2.0479">
        <ele>118.4</ele>
        <time>2024-12-30T18:58:33.076Z</time>
      </trkpt>
      <trkpt lat="48.62014" lon="2.04792">
        <ele>118.5</ele>
        <time>2024-12-30T18:58:38.551Z</time>
      </trkpt>
      <trkpt lat="48.62022" lon="2.04793">
        <ele>118.6</ele>
        <time>2024-12-30T18:58:44.026Z</time>
      </trkpt>
      <trkpt lat="48.6203" lon="2.04795">
        <ele>118.7</ele>
        <time>2024-12-30T18:58:49.501Z</time>
      </trkpt>
      <trkpt lat="48.62036" lon="2.04796">
        <ele>118.8</ele>
        <time>2024-12-30T18:58:53.907Z</time>
      </trkpt>
      <trkpt lat="48.62043" lon="2.04797">
        <ele>119</ele>
        <time>2024-12-30T18:58:58.313Z</time>
      </trkpt>
      <trkpt lat="48.62049" lon="2.04797">
        <ele>119.2</ele>
        <time>2024-12-30T18:59:02.719Z</time>
      </trkpt>
      <trkpt lat="48.62055" lon="2.04798">
        <ele>119.4</ele>
        <time>2024-12-30T18:59:07.126Z</time>
      </trkpt>
      <trkpt lat="48.6206" lon="2.04799">
        <ele>119.6</ele>
        <time>2024-12-30T18:59:10.761Z</time>
      </trkpt>
      <trkpt lat="48.62065" lon="2.048">
        <ele>119.7</ele>
        <time>2024-12-30T18:59:14.396Z</time>
      </trkpt>
      <trkpt lat="48.62071" lon="2.04801">
        <ele>119.8</ele>
        <time>2024-12-30T18:59:18.031Z</time>
      </trkpt>
      <trkpt lat="48.62076" lon="2.04803">
        <ele>119.9</ele>
        <time>2024-12-30T18:59:21.666Z</time>
      </trkpt>
      <trkpt lat="48.62081" lon="2.04804">
        <ele>119.9</ele>
        <time>2024-12-30T18:59:25.301Z</time>
      </trkpt>
      <trkpt lat="48.62086" lon="2.04805">
        <ele>120.1</ele>
        <time>2024-12-30T18:59:28.937Z</time>
      </trkpt>
      <trkpt lat="48.62091" lon="2.04806">
        <ele>120.3</ele>
        <time>2024-12-30T18:59:32.573Z</time>
      </trkpt>
      <trkpt lat="48.62097" lon="2.04807">
        <ele>120.5</ele>
        <time>2024-12-30T18:59:36.209Z</time>
      </trkpt>
      <trkpt lat="48.62102" lon="2.04808">
        <ele>120.7</ele>
        <time>2024-12-30T18:59:39.845Z</time>
      </trkpt>
      <trkpt lat="48.62107" lon="2.04809">
        <ele>120.8</ele>
        <time>2024-12-30T18:59:43.481Z</time>
      </trkpt>
      <trkpt lat="48.62112" lon="2.0481">
        <ele>121</ele>
        <time>2024-12-30T18:59:47.117Z</time>
      </trkpt>
      <trkpt lat="48.62117" lon="2.04812">
        <ele>121</ele>
        <time>2024-12-30T18:59:50.753Z</time>
      </trkpt>
      <trkpt lat="48.62122" lon="2.04813">
        <ele>121.1</ele>
        <time>2024-12-30T18:59:54.389Z</time>
      </trkpt>
      <trkpt lat="48.62128" lon="2.04814">
        <ele>121.2</ele>
        <time>2024-12-30T18:59:58.025Z</time>
      </trkpt>
      <trkpt lat="48.62133" lon="2.04815">
        <ele>121.3</ele>
        <time>2024-12-30T19:00:01.661Z</time>
      </trkpt>
      <trkpt lat="48.62138" lon="2.04816">
        <ele>121.4</ele>
        <time>2024-12-30T19:00:05.297Z</time>
      </trkpt>
      <trkpt lat="48.62144" lon="2.04817">
        <ele>121.5</ele>
        <time>2024-12-30T19:00:09.538Z</time>
      </trkpt>
      <trkpt lat="48.6215" lon="2.04819">
        <ele>121.7</ele>
        <time>2024-12-30T19:00:13.779Z</time>
      </trkpt>
      <trkpt lat="48.62156" lon="2.0482">
        <ele>121.8</ele>
        <time>2024-12-30T19:00:18.021Z</time>
      </trkpt>
      <trkpt lat="48.62162" lon="2.04821">
        <ele>121.9</ele>
        <time>2024-12-30T19:00:22.263Z</time>
      </trkpt>
      <trkpt lat="48.62168" lon="2.04822">
        <ele>122</ele>
        <time>2024-12-30T19:00:26.505Z</time>
      </trkpt>
      <trkpt lat="48.62174" lon="2.04824">
        <ele>122.3</ele>
        <time>2024-12-30T19:00:30.747Z</time>
      </trkpt>
      <trkpt lat="48.6218" lon="2.04825">
        <ele>122.5</ele>
        <time>2024-12-30T19:00:34.989Z</time>
      </trkpt>
      <trkpt lat="48.62186" lon="2.04826">
        <ele>122.7</ele>
        <time>2024-12-30T19:00:39.231Z</time>
        <extensions>
          <visugpx:TrkExtension xmlns:visugpx="https://www.visugpx.com/editgpx/">
            <visugpx:node>39</visugpx:node>
            </visugpx:TrkExtension>
        </extensions>
      </trkpt>
      <trkpt lat="48.62186" lon="2.04826">
        <ele>122.7</ele>
        <time>2024-12-30T19:00:39.231Z</time>
      </trkpt>
      <trkpt lat="48.62194" lon="2.04828">
        <ele>123</ele>
        <time>2024-12-30T19:00:45.113Z</time>
      </trkpt>
      <trkpt lat="48.62201" lon="2.04829">
        <ele>123.2</ele>
        <time>2024-12-30T19:00:50.995Z</time>
      </trkpt>
      <trkpt lat="48.62207" lon="2.04831">
        <ele>123.5</ele>
        <time>2024-12-30T19:00:55.723Z</time>
      </trkpt>
      <trkpt lat="48.62213" lon="2.04832">
        <ele>123.7</ele>
        <time>2024-12-30T19:01:00.451Z</time>
      </trkpt>
      <trkpt lat="48.62219" lon="2.04834">
        <ele>123.9</ele>
        <time>2024-12-30T19:01:05.179Z</time>
      </trkpt>
      <trkpt lat="48.62225" lon="2.04835">
        <ele>124.3</ele>
        <time>2024-12-30T19:01:09.907Z</time>
      </trkpt>
      <trkpt lat="48.62231" lon="2.04837">
        <ele>124.7</ele>
        <time>2024-12-30T19:01:14.635Z</time>
      </trkpt>
      <trkpt lat="48.62237" lon="2.04838">
        <ele>125.2</ele>
        <time>2024-12-30T19:01:19.364Z</time>
      </trkpt>
      <trkpt lat="48.62243" lon="2.0484">
        <ele>125.7</ele>
        <time>2024-12-30T19:01:24.093Z</time>
      </trkpt>
      <trkpt lat="48.62249" lon="2.04841">
        <ele>126.2</ele>
        <time>2024-12-30T19:01:28.822Z</time>
      </trkpt>
      <trkpt lat="48.62257" lon="2.04845">
        <ele>126.7</ele>
        <time>2024-12-30T19:01:35.373Z</time>
      </trkpt>
      <trkpt lat="48.62265" lon="2.04849">
        <ele>127.1</ele>
        <time>2024-12-30T19:01:41.924Z</time>
      </trkpt>
      <trkpt lat="48.62271" lon="2.04854">
        <ele>127.5</ele>
        <time>2024-12-30T19:01:47.189Z</time>
      </trkpt>
      <trkpt lat="48.62277" lon="2.04859">
        <ele>127.9</ele>
        <time>2024-12-30T19:01:52.454Z</time>
      </trkpt>
      <trkpt lat="48.62283" lon="2.04863">
        <ele>128.1</ele>
        <time>2024-12-30T19:01:57.719Z</time>
      </trkpt>
      <trkpt lat="48.62289" lon="2.04868">
        <ele>128.2</ele>
        <time>2024-12-30T19:02:02.985Z</time>
      </trkpt>
      <trkpt lat="48.62293" lon="2.04871">
        <ele>128.3</ele>
        <time>2024-12-30T19:02:06.530Z</time>
      </trkpt>
      <trkpt lat="48.62298" lon="2.04873">
        <ele>128.4</ele>
        <time>2024-12-30T19:02:10.075Z</time>
      </trkpt>
      <trkpt lat="48.62302" lon="2.04876">
        <ele>128.5</ele>
        <time>2024-12-30T19:02:13.620Z</time>
      </trkpt>
      <trkpt lat="48.62306" lon="2.04878">
        <ele>128.6</ele>
        <time>2024-12-30T19:02:17.166Z</time>
      </trkpt>
      <trkpt lat="48.62313" lon="2.04883">
        <ele>129</ele>
        <time>2024-12-30T19:02:23.009Z</time>
      </trkpt>
      <trkpt lat="48.6232" lon="2.04888">
        <ele>129.5</ele>
        <time>2024-12-30T19:02:28.852Z</time>
      </trkpt>
      <trkpt lat="48.62326" lon="2.04893">
        <ele>129.9</ele>
        <time>2024-12-30T19:02:34.696Z</time>
      </trkpt>
      <trkpt lat="48.62333" lon="2.04898">
        <ele>130.3</ele>
        <time>2024-12-30T19:02:40.540Z</time>
      </trkpt>
      <trkpt lat="48.62338" lon="2.04903">
        <ele>130.7</ele>
        <time>2024-12-30T19:02:44.967Z</time>
      </trkpt>
      <trkpt lat="48.62343" lon="2.04908">
        <ele>131.2</ele>
        <time>2024-12-30T19:02:49.394Z</time>
      </trkpt>
      <trkpt lat="48.62347" lon="2.04912">
        <ele>131.8</ele>
        <time>2024-12-30T19:02:53.821Z</time>
      </trkpt>
      <trkpt lat="48.62352" lon="2.04917">
        <ele>132.4</ele>
        <time>2024-12-30T19:02:58.248Z</time>
      </trkpt>
      <trkpt lat="48.62356" lon="2.0492">
        <ele>132.8</ele>
        <time>2024-12-30T19:03:01.894Z</time>
      </trkpt>
      <trkpt lat="48.62361" lon="2.04923">
        <ele>133.2</ele>
        <time>2024-12-30T19:03:05.540Z</time>
      </trkpt>
      <trkpt lat="48.62365" lon="2.04926">
        <ele>133.6</ele>
        <time>2024-12-30T19:03:09.186Z</time>
      </trkpt>
      <trkpt lat="48.62369" lon="2.04929">
        <ele>134</ele>
        <time>2024-12-30T19:03:12.833Z</time>
      </trkpt>
      <trkpt lat="48.62375" lon="2.04936">
        <ele>134.7</ele>
        <time>2024-12-30T19:03:18.841Z</time>
      </trkpt>
      <trkpt lat="48.62382" lon="2.04943">
        <ele>135.4</ele>
        <time>2024-12-30T19:03:24.849Z</time>
      </trkpt>
      <trkpt lat="48.62388" lon="2.0495">
        <ele>136.1</ele>
        <time>2024-12-30T19:03:30.857Z</time>
      </trkpt>
      <trkpt lat="48.62394" lon="2.04957">
        <ele>136.6</ele>
        <time>2024-12-30T19:03:36.865Z</time>
      </trkpt>
      <trkpt lat="48.624" lon="2.04963">
        <ele>137.1</ele>
        <time>2024-12-30T19:03:42.873Z</time>
      </trkpt>
      <trkpt lat="48.62407" lon="2.0497">
        <ele>137.6</ele>
        <time>2024-12-30T19:03:48.881Z</time>
      </trkpt>
      <trkpt lat="48.62413" lon="2.04977">
        <ele>138.1</ele>
        <time>2024-12-30T19:03:54.890Z</time>
      </trkpt>
      <trkpt lat="48.62419" lon="2.04984">
        <ele>138.4</ele>
        <time>2024-12-30T19:04:00.899Z</time>
      </trkpt>
      <trkpt lat="48.62423" lon="2.04988">
        <ele>138.4</ele>
        <time>2024-12-30T19:04:04.661Z</time>
      </trkpt>
      <trkpt lat="48.62428" lon="2.04991">
        <ele>138.4</ele>
        <time>2024-12-30T19:04:08.423Z</time>
      </trkpt>
      <trkpt lat="48.62432" lon="2.04995">
        <ele>138.4</ele>
        <time>2024-12-30T19:04:12.185Z</time>
      </trkpt>
      <trkpt lat="48.62436" lon="2.04998">
        <ele>138.3</ele>
        <time>2024-12-30T19:04:15.948Z</time>
      </trkpt>
      <trkpt lat="48.62441" lon="2.05001">
        <ele>138.1</ele>
        <time>2024-12-30T19:04:20.359Z</time>
      </trkpt>
      <trkpt lat="48.62447" lon="2.05004">
        <ele>138</ele>
        <time>2024-12-30T19:04:24.770Z</time>
      </trkpt>
      <trkpt lat="48.62452" lon="2.05006">
        <ele>137.7</ele>
        <time>2024-12-30T19:04:29.181Z</time>
      </trkpt>
      <trkpt lat="48.62458" lon="2.05009">
        <ele>137.4</ele>
        <time>2024-12-30T19:04:33.593Z</time>
      </trkpt>
      <trkpt lat="48.62463" lon="2.05012">
        <ele>137.1</ele>
        <time>2024-12-30T19:04:38.005Z</time>
      </trkpt>
      <trkpt lat="48.62468" lon="2.05015">
        <ele>136.8</ele>
        <time>2024-12-30T19:04:42.417Z</time>
      </trkpt>
      <trkpt lat="48.62474" lon="2.05017">
        <ele>136.5</ele>
        <time>2024-12-30T19:04:46.829Z</time>
      </trkpt>
      <trkpt lat="48.62479" lon="2.0502">
        <ele>136.1</ele>
        <time>2024-12-30T19:04:51.241Z</time>
      </trkpt>
      <trkpt lat="48.62485" lon="2.05023">
        <ele>135.6</ele>
        <time>2024-12-30T19:04:55.765Z</time>
      </trkpt>
      <trkpt lat="48.6249" lon="2.05026">
        <ele>135.1</ele>
        <time>2024-12-30T19:05:00.289Z</time>
      </trkpt>
      <trkpt lat="48.62496" lon="2.05029">
        <ele>134.5</ele>
        <time>2024-12-30T19:05:04.813Z</time>
      </trkpt>
      <trkpt lat="48.62501" lon="2.05032">
        <ele>134.1</ele>
        <time>2024-12-30T19:05:09.337Z</time>
      </trkpt>
      <trkpt lat="48.62507" lon="2.05034">
        <ele>133.8</ele>
        <time>2024-12-30T19:05:13.861Z</time>
      </trkpt>
      <trkpt lat="48.62512" lon="2.05037">
        <ele>133.5</ele>
        <time>2024-12-30T19:05:18.386Z</time>
      </trkpt>
      <trkpt lat="48.62518" lon="2.0504">
        <ele>133.2</ele>
        <time>2024-12-30T19:05:22.911Z</time>
      </trkpt>
      <trkpt lat="48.62523" lon="2.05043">
        <ele>132.9</ele>
        <time>2024-12-30T19:05:27.436Z</time>
      </trkpt>
      <trkpt lat="48.62531" lon="2.05048">
        <ele>132.7</ele>
        <time>2024-12-30T19:05:33.890Z</time>
      </trkpt>
      <trkpt lat="48.62539" lon="2.05052">
        <ele>132.8</ele>
        <time>2024-12-30T19:05:40.344Z</time>
      </trkpt>
      <trkpt lat="48.62546" lon="2.05057">
        <ele>133</ele>
        <time>2024-12-30T19:05:46.798Z</time>
      </trkpt>
      <trkpt lat="48.62554" lon="2.05061">
        <ele>133</ele>
        <time>2024-12-30T19:05:53.253Z</time>
      </trkpt>
      <trkpt lat="48.62562" lon="2.05064">
        <ele>133</ele>
        <time>2024-12-30T19:05:59.794Z</time>
      </trkpt>
      <trkpt lat="48.62571" lon="2.05066">
        <ele>133</ele>
        <time>2024-12-30T19:06:06.336Z</time>
      </trkpt>
      <trkpt lat="48.62579" lon="2.05069">
        <ele>133</ele>
        <time>2024-12-30T19:06:12.878Z</time>
      </trkpt>
      <trkpt lat="48.62587" lon="2.05071">
        <ele>133.2</ele>
        <time>2024-12-30T19:06:19.420Z</time>
      </trkpt>
      <trkpt lat="48.62593" lon="2.05072">
        <ele>133.5</ele>
        <time>2024-12-30T19:06:23.704Z</time>
      </trkpt>
      <trkpt lat="48.62598" lon="2.05072">
        <ele>133.8</ele>
        <time>2024-12-30T19:06:27.988Z</time>
      </trkpt>
      <trkpt lat="48.62604" lon="2.05073">
        <ele>134.2</ele>
        <time>2024-12-30T19:06:32.272Z</time>
      </trkpt>
      <trkpt lat="48.62609" lon="2.05073">
        <ele>134.5</ele>
        <time>2024-12-30T19:06:36.556Z</time>
      </trkpt>
      <trkpt lat="48.62615" lon="2.05074">
        <ele>134.8</ele>
        <time>2024-12-30T19:06:40.840Z</time>
      </trkpt>
      <trkpt lat="48.6262" lon="2.05074">
        <ele>135</ele>
        <time>2024-12-30T19:06:45.124Z</time>
      </trkpt>
      <trkpt lat="48.62626" lon="2.05075">
        <ele>135.2</ele>
        <time>2024-12-30T19:06:49.408Z</time>
      </trkpt>
      <trkpt lat="48.62631" lon="2.05075">
        <ele>135.4</ele>
        <time>2024-12-30T19:06:53.692Z</time>
      </trkpt>
      <trkpt lat="48.62631" lon="2.05082">
        <ele>135.7</ele>
        <time>2024-12-30T19:06:57.289Z</time>
      </trkpt>
      <trkpt lat="48.62633" lon="2.05092">
        <ele>136.1</ele>
        <time>2024-12-30T19:07:02.605Z</time>
      </trkpt>
      <trkpt lat="48.62635" lon="2.05102">
        <ele>136.5</ele>
        <time>2024-12-30T19:07:07.921Z</time>
      </trkpt>
      <trkpt lat="48.62636" lon="2.05112">
        <ele>136.9</ele>
        <time>2024-12-30T19:07:13.237Z</time>
      </trkpt>
      <trkpt lat="48.62638" lon="2.05122">
        <ele>137.4</ele>
        <time>2024-12-30T19:07:18.554Z</time>
      </trkpt>
      <trkpt lat="48.62639" lon="2.05131">
        <ele>137.7</ele>
        <time>2024-12-30T19:07:22.939Z</time>
      </trkpt>
      <trkpt lat="48.62639" lon="2.05139">
        <ele>138</ele>
        <time>2024-12-30T19:07:27.324Z</time>
      </trkpt>
      <trkpt lat="48.6264" lon="2.05148">
        <ele>138.6</ele>
        <time>2024-12-30T19:07:31.710Z</time>
      </trkpt>
      <trkpt lat="48.6264" lon="2.05156">
        <ele>139.3</ele>
        <time>2024-12-30T19:07:36.096Z</time>
      </trkpt>
      <trkpt lat="48.62643" lon="2.05164">
        <ele>140</ele>
        <time>2024-12-30T19:07:40.822Z</time>
        <extensions>
          <visugpx:TrkExtension xmlns:visugpx="https://www.visugpx.com/editgpx/">
            <visugpx:node>40</visugpx:node>
            </visugpx:TrkExtension>
        </extensions>
      </trkpt>
      <trkpt lat="48.62645" lon="2.05167">
        <ele>140.2</ele>
        <time>2024-12-30T19:07:43.011Z</time>
      </trkpt>
      <trkpt lat="48.62649" lon="2.05173">
        <ele>140.7</ele>
        <time>2024-12-30T19:07:47.482Z</time>
      </trkpt>
      <trkpt lat="48.62653" lon="2.0518">
        <ele>141.2</ele>
        <time>2024-12-30T19:07:51.953Z</time>
      </trkpt>
      <trkpt lat="48.62657" lon="2.05186">
        <ele>141.8</ele>
        <time>2024-12-30T19:07:56.424Z</time>
      </trkpt>
      <trkpt lat="48.62661" lon="2.05192">
        <ele>142.4</ele>
        <time>2024-12-30T19:08:00.895Z</time>
      </trkpt>
      <trkpt lat="48.62665" lon="2.05198">
        <ele>143.3</ele>
        <time>2024-12-30T19:08:05.366Z</time>
      </trkpt>
      <trkpt lat="48.62669" lon="2.05205">
        <ele>144.2</ele>
        <time>2024-12-30T19:08:09.837Z</time>
      </trkpt>
      <trkpt lat="48.62673" lon="2.05211">
        <ele>145</ele>
        <time>2024-12-30T19:08:14.308Z</time>
      </trkpt>
      <trkpt lat="48.62677" lon="2.05217">
        <ele>145.8</ele>
        <time>2024-12-30T19:08:18.779Z</time>
      </trkpt>
      <trkpt lat="48.62681" lon="2.05224">
        <ele>146.8</ele>
        <time>2024-12-30T19:08:23.791Z</time>
      </trkpt>
      <trkpt lat="48.62686" lon="2.05232">
        <ele>147.7</ele>
        <time>2024-12-30T19:08:28.803Z</time>
      </trkpt>
      <trkpt lat="48.6269" lon="2.05239">
        <ele>148.6</ele>
        <time>2024-12-30T19:08:33.815Z</time>
      </trkpt>
      <trkpt lat="48.62694" lon="2.05246">
        <ele>149.6</ele>
        <time>2024-12-30T19:08:38.827Z</time>
      </trkpt>
      <trkpt lat="48.62699" lon="2.05253">
        <ele>150.2</ele>
        <time>2024-12-30T19:08:43.839Z</time>
      </trkpt>
      <trkpt lat="48.62703" lon="2.05261">
        <ele>150.8</ele>
        <time>2024-12-30T19:08:48.851Z</time>
      </trkpt>
      <trkpt lat="48.62707" lon="2.05268">
        <ele>151.5</ele>
        <time>2024-12-30T19:08:53.863Z</time>
      </trkpt>
      <trkpt lat="48.62712" lon="2.05275">
        <ele>152.1</ele>
        <time>2024-12-30T19:08:58.875Z</time>
      </trkpt>
      <trkpt lat="48.62716" lon="2.05282">
        <ele>152.7</ele>
        <time>2024-12-30T19:09:03.888Z</time>
      </trkpt>
      <trkpt lat="48.6272" lon="2.0529">
        <ele>153.3</ele>
        <time>2024-12-30T19:09:08.901Z</time>
      </trkpt>
      <trkpt lat="48.62724" lon="2.05297">
        <ele>153.9</ele>
        <time>2024-12-30T19:09:13.914Z</time>
      </trkpt>
      <trkpt lat="48.62729" lon="2.05304">
        <ele>154.4</ele>
        <time>2024-12-30T19:09:18.927Z</time>
      </trkpt>
      <trkpt lat="48.62733" lon="2.05311">
        <ele>154.8</ele>
        <time>2024-12-30T19:09:23.940Z</time>
      </trkpt>
      <trkpt lat="48.62737" lon="2.05319">
        <ele>155.1</ele>
        <time>2024-12-30T19:09:28.953Z</time>
      </trkpt>
      <trkpt lat="48.62742" lon="2.05326">
        <ele>155.3</ele>
        <time>2024-12-30T19:09:33.966Z</time>
      </trkpt>
      <trkpt lat="48.62746" lon="2.05333">
        <ele>155.4</ele>
        <time>2024-12-30T19:09:38.979Z</time>
      </trkpt>
      <trkpt lat="48.62752" lon="2.0534">
        <ele>155.6</ele>
        <time>2024-12-30T19:09:44.870Z</time>
      </trkpt>
      <trkpt lat="48.62758" lon="2.05347">
        <ele>156</ele>
        <time>2024-12-30T19:09:50.761Z</time>
      </trkpt>
      <trkpt lat="48.62761" lon="2.05353">
        <ele>156.4</ele>
        <time>2024-12-30T19:09:54.425Z</time>
      </trkpt>
      <trkpt lat="48.62764" lon="2.05358">
        <ele>156.7</ele>
        <time>2024-12-30T19:09:58.090Z</time>
      </trkpt>
      <trkpt lat="48.62767" lon="2.05365">
        <ele>156.9</ele>
        <time>2024-12-30T19:10:02.337Z</time>
      </trkpt>
      <trkpt lat="48.62771" lon="2.05371">
        <ele>157</ele>
        <time>2024-12-30T19:10:06.585Z</time>
      </trkpt>
      <trkpt lat="48.62774" lon="2.05378">
        <ele>156.9</ele>
        <time>2024-12-30T19:10:10.833Z</time>
      </trkpt>
      <trkpt lat="48.62778" lon="2.05384">
        <ele>156.9</ele>
        <time>2024-12-30T19:10:15.081Z</time>
      </trkpt>
      <trkpt lat="48.62781" lon="2.05391">
        <ele>157.1</ele>
        <time>2024-12-30T19:10:19.329Z</time>
      </trkpt>
      <trkpt lat="48.62784" lon="2.05397">
        <ele>157.4</ele>
        <time>2024-12-30T19:10:23.577Z</time>
      </trkpt>
      <trkpt lat="48.62788" lon="2.05404">
        <ele>157.7</ele>
        <time>2024-12-30T19:10:27.825Z</time>
      </trkpt>
      <trkpt lat="48.62791" lon="2.0541">
        <ele>157.8</ele>
        <time>2024-12-30T19:10:32.073Z</time>
      </trkpt>
      <trkpt lat="48.62795" lon="2.05415">
        <ele>157.7</ele>
        <time>2024-12-30T19:10:36.107Z</time>
      </trkpt>
      <trkpt lat="48.62799" lon="2.0542">
        <ele>157.6</ele>
        <time>2024-12-30T19:10:40.141Z</time>
      </trkpt>
      <trkpt lat="48.62803" lon="2.05425">
        <ele>157.5</ele>
        <time>2024-12-30T19:10:44.175Z</time>
      </trkpt>
      <trkpt lat="48.62807" lon="2.0543">
        <ele>157.6</ele>
        <time>2024-12-30T19:10:48.210Z</time>
      </trkpt>
      <trkpt lat="48.6281" lon="2.05438">
        <ele>158.1</ele>
        <time>2024-12-30T19:10:52.825Z</time>
      </trkpt>
      <trkpt lat="48.62813" lon="2.05446">
        <ele>158.6</ele>
        <time>2024-12-30T19:10:57.440Z</time>
      </trkpt>
      <trkpt lat="48.62816" lon="2.05453">
        <ele>159</ele>
        <time>2024-12-30T19:11:02.055Z</time>
      </trkpt>
      <trkpt lat="48.62819" lon="2.05461">
        <ele>159.3</ele>
        <time>2024-12-30T19:11:06.670Z</time>
      </trkpt>
      <trkpt lat="48.62822" lon="2.05469">
        <ele>159.5</ele>
        <time>2024-12-30T19:11:11.286Z</time>
      </trkpt>
      <trkpt lat="48.62825" lon="2.05477">
        <ele>159.8</ele>
        <time>2024-12-30T19:11:15.902Z</time>
      </trkpt>
      <trkpt lat="48.62828" lon="2.05484">
        <ele>160</ele>
        <time>2024-12-30T19:11:20.518Z</time>
      </trkpt>
      <trkpt lat="48.62831" lon="2.05492">
        <ele>160</ele>
        <time>2024-12-30T19:11:25.134Z</time>
      </trkpt>
      <trkpt lat="48.62834" lon="2.05499">
        <ele>160.1</ele>
        <time>2024-12-30T19:11:29.374Z</time>
      </trkpt>
      <trkpt lat="48.62837" lon="2.05506">
        <ele>160.7</ele>
        <time>2024-12-30T19:11:33.614Z</time>
      </trkpt>
      <trkpt lat="48.62839" lon="2.05513">
        <ele>161.4</ele>
        <time>2024-12-30T19:11:37.854Z</time>
      </trkpt>
      <trkpt lat="48.62842" lon="2.05521">
        <ele>162</ele>
        <time>2024-12-30T19:11:42.094Z</time>
      </trkpt>
      <trkpt lat="48.62845" lon="2.05528">
        <ele>162.4</ele>
        <time>2024-12-30T19:11:46.334Z</time>
      </trkpt>
      <trkpt lat="48.62848" lon="2.05535">
        <ele>162.9</ele>
        <time>2024-12-30T19:11:50.574Z</time>
      </trkpt>
      <trkpt lat="48.6285" lon="2.05542">
        <ele>163.3</ele>
        <time>2024-12-30T19:11:54.814Z</time>
      </trkpt>
      <trkpt lat="48.62853" lon="2.05549">
        <ele>163.7</ele>
        <time>2024-12-30T19:11:59.055Z</time>
      </trkpt>
      <trkpt lat="48.62857" lon="2.05558">
        <ele>164.1</ele>
        <time>2024-12-30T19:12:04.522Z</time>
      </trkpt>
      <trkpt lat="48.62861" lon="2.05567">
        <ele>164.4</ele>
        <time>2024-12-30T19:12:09.989Z</time>
      </trkpt>
      <trkpt lat="48.62864" lon="2.05576">
        <ele>164.9</ele>
        <time>2024-12-30T19:12:15.457Z</time>
      </trkpt>
      <trkpt lat="48.62868" lon="2.05585">
        <ele>165.3</ele>
        <time>2024-12-30T19:12:20.925Z</time>
      </trkpt>
      <trkpt lat="48.62873" lon="2.05596">
        <ele>165.7</ele>
        <time>2024-12-30T19:12:27.464Z</time>
      </trkpt>
      <trkpt lat="48.62877" lon="2.05607">
        <ele>165.9</ele>
        <time>2024-12-30T19:12:34.003Z</time>
      </trkpt>
      <trkpt lat="48.62882" lon="2.05617">
        <ele>166</ele>
        <time>2024-12-30T19:12:40.542Z</time>
      </trkpt>
      <trkpt lat="48.62886" lon="2.05628">
        <ele>166</ele>
        <time>2024-12-30T19:12:47.082Z</time>
      </trkpt>
      <trkpt lat="48.62889" lon="2.05635">
        <ele>166</ele>
        <time>2024-12-30T19:12:51.270Z</time>
      </trkpt>
      <trkpt lat="48.62893" lon="2.05641">
        <ele>166</ele>
        <time>2024-12-30T19:12:55.458Z</time>
      </trkpt>
      <trkpt lat="48.62896" lon="2.05648">
        <ele>166</ele>
        <time>2024-12-30T19:12:59.646Z</time>
      </trkpt>
      <trkpt lat="48.62899" lon="2.05654">
        <ele>166</ele>
        <time>2024-12-30T19:13:03.834Z</time>
      </trkpt>
      <trkpt lat="48.62902" lon="2.05661">
        <ele>166</ele>
        <time>2024-12-30T19:13:08.023Z</time>
      </trkpt>
      <trkpt lat="48.62906" lon="2.05667">
        <ele>166</ele>
        <time>2024-12-30T19:13:12.212Z</time>
      </trkpt>
      <trkpt lat="48.62909" lon="2.05674">
        <ele>166</ele>
        <time>2024-12-30T19:13:16.401Z</time>
      </trkpt>
      <trkpt lat="48.62912" lon="2.0568">
        <ele>166</ele>
        <time>2024-12-30T19:13:20.590Z</time>
      </trkpt>
      <trkpt lat="48.62916" lon="2.05688">
        <ele>166</ele>
        <time>2024-12-30T19:13:25.413Z</time>
      </trkpt>
      <trkpt lat="48.62919" lon="2.05696">
        <ele>165.9</ele>
        <time>2024-12-30T19:13:30.237Z</time>
      </trkpt>
      <trkpt lat="48.62923" lon="2.05703">
        <ele>165.5</ele>
        <time>2024-12-30T19:13:35.061Z</time>
      </trkpt>
      <trkpt lat="48.62926" lon="2.05711">
        <ele>165.3</ele>
        <time>2024-12-30T19:13:39.885Z</time>
      </trkpt>
      <trkpt lat="48.6293" lon="2.05722">
        <ele>165</ele>
        <time>2024-12-30T19:13:46.337Z</time>
      </trkpt>
      <trkpt lat="48.62934" lon="2.05731">
        <ele>165</ele>
        <time>2024-12-30T19:13:51.913Z</time>
      </trkpt>
      <trkpt lat="48.62938" lon="2.05741">
        <ele>165</ele>
        <time>2024-12-30T19:13:57.489Z</time>
      </trkpt>
      <trkpt lat="48.62941" lon="2.0575">
        <ele>165</ele>
        <time>2024-12-30T19:14:03.066Z</time>
      </trkpt>
      <trkpt lat="48.62945" lon="2.05759">
        <ele>165</ele>
        <time>2024-12-30T19:14:08.643Z</time>
      </trkpt>
      <trkpt lat="48.62949" lon="2.05768">
        <ele>164.8</ele>
        <time>2024-12-30T19:14:14.220Z</time>
      </trkpt>
      <trkpt lat="48.62953" lon="2.05778">
        <ele>164.7</ele>
        <time>2024-12-30T19:14:19.797Z</time>
      </trkpt>
      <trkpt lat="48.62956" lon="2.05787">
        <ele>164.6</ele>
        <time>2024-12-30T19:14:25.374Z</time>
      </trkpt>
      <trkpt lat="48.6296" lon="2.05796">
        <ele>164.4</ele>
        <time>2024-12-30T19:14:30.951Z</time>
      </trkpt>
      <trkpt lat="48.6296" lon="2.05796">
        <ele>164.4</ele>
        <time>2024-12-30T19:14:30.951Z</time>
        <extensions>
          <visugpx:TrkExtension xmlns:visugpx="https://www.visugpx.com/editgpx/">
            <visugpx:node>41</visugpx:node>
            </visugpx:TrkExtension>
        </extensions>
      </trkpt>
      <trkpt lat="48.6296" lon="2.05796">
        <ele>164.4</ele>
        <time>2024-12-30T19:14:30.951Z</time>
      </trkpt>
      <trkpt lat="48.62964" lon="2.05805">
        <ele>164.3</ele>
        <time>2024-12-30T19:14:35.374Z</time>
      </trkpt>
      <trkpt lat="48.62961" lon="2.05808">
        <ele>164.4</ele>
        <time>2024-12-30T19:14:37.900Z</time>
      </trkpt>
      <trkpt lat="48.6296" lon="2.05812">
        <ele>164.3</ele>
        <time>2024-12-30T19:14:39.536Z</time>
      </trkpt>
      <trkpt lat="48.62962" lon="2.05817">
        <ele>164.2</ele>
        <time>2024-12-30T19:14:41.836Z</time>
      </trkpt>
      <trkpt lat="48.62961" lon="2.0583">
        <ele>164.1</ele>
        <time>2024-12-30T19:14:47.185Z</time>
      </trkpt>
      <trkpt lat="48.62961" lon="2.05843">
        <ele>164</ele>
        <time>2024-12-30T19:14:52.535Z</time>
      </trkpt>
      <trkpt lat="48.6296" lon="2.05855">
        <ele>164</ele>
        <time>2024-12-30T19:14:57.885Z</time>
      </trkpt>
      <trkpt lat="48.62959" lon="2.05868">
        <ele>164</ele>
        <time>2024-12-30T19:15:03.236Z</time>
      </trkpt>
      <trkpt lat="48.62959" lon="2.05878">
        <ele>164</ele>
        <time>2024-12-30T19:15:07.058Z</time>
      </trkpt>
      <trkpt lat="48.62959" lon="2.05888">
        <ele>164</ele>
        <time>2024-12-30T19:15:10.880Z</time>
      </trkpt>
      <trkpt lat="48.62959" lon="2.05897">
        <ele>163.7</ele>
        <time>2024-12-30T19:15:14.702Z</time>
      </trkpt>
      <trkpt lat="48.62959" lon="2.05907">
        <ele>163.3</ele>
        <time>2024-12-30T19:15:18.524Z</time>
      </trkpt>
      <trkpt lat="48.62959" lon="2.05914">
        <ele>163.1</ele>
        <time>2024-12-30T19:15:21.536Z</time>
      </trkpt>
      <trkpt lat="48.62959" lon="2.05922">
        <ele>163</ele>
        <time>2024-12-30T19:15:24.548Z</time>
      </trkpt>
      <trkpt lat="48.6296" lon="2.05929">
        <ele>163</ele>
        <time>2024-12-30T19:15:27.560Z</time>
      </trkpt>
      <trkpt lat="48.6296" lon="2.05937">
        <ele>163</ele>
        <time>2024-12-30T19:15:30.572Z</time>
      </trkpt>
      <trkpt lat="48.6296" lon="2.05944">
        <ele>163</ele>
        <time>2024-12-30T19:15:33.584Z</time>
      </trkpt>
      <trkpt lat="48.6296" lon="2.05952">
        <ele>163</ele>
        <time>2024-12-30T19:15:36.596Z</time>
      </trkpt>
      <trkpt lat="48.6296" lon="2.05959">
        <ele>163</ele>
        <time>2024-12-30T19:15:39.608Z</time>
      </trkpt>
      <trkpt lat="48.62961" lon="2.05967">
        <ele>163</ele>
        <time>2024-12-30T19:15:42.620Z</time>
      </trkpt>
      <trkpt lat="48.62961" lon="2.05974">
        <ele>162.9</ele>
        <time>2024-12-30T19:15:45.632Z</time>
      </trkpt>
      <trkpt lat="48.62961" lon="2.05981">
        <ele>162.7</ele>
        <time>2024-12-30T19:15:48.644Z</time>
      </trkpt>
      <trkpt lat="48.62961" lon="2.05989">
        <ele>162.4</ele>
        <time>2024-12-30T19:15:51.656Z</time>
      </trkpt>
      <trkpt lat="48.62961" lon="2.05996">
        <ele>162.1</ele>
        <time>2024-12-30T19:15:54.668Z</time>
      </trkpt>
      <trkpt lat="48.62961" lon="2.06004">
        <ele>162</ele>
        <time>2024-12-30T19:15:57.680Z</time>
      </trkpt>
      <trkpt lat="48.62962" lon="2.06011">
        <ele>162</ele>
        <time>2024-12-30T19:16:00.693Z</time>
      </trkpt>
      <trkpt lat="48.62962" lon="2.06019">
        <ele>162</ele>
        <time>2024-12-30T19:16:03.706Z</time>
      </trkpt>
      <trkpt lat="48.62962" lon="2.06026">
        <ele>162</ele>
        <time>2024-12-30T19:16:06.719Z</time>
      </trkpt>
      <trkpt lat="48.62962" lon="2.06036">
        <ele>162</ele>
        <time>2024-12-30T19:16:10.803Z</time>
      </trkpt>
      <trkpt lat="48.62962" lon="2.06046">
        <ele>162</ele>
        <time>2024-12-30T19:16:14.887Z</time>
      </trkpt>
      <trkpt lat="48.62962" lon="2.06056">
        <ele>162</ele>
        <time>2024-12-30T19:16:18.971Z</time>
      </trkpt>
      <trkpt lat="48.62962" lon="2.06066">
        <ele>161.9</ele>
        <time>2024-12-30T19:16:23.055Z</time>
      </trkpt>
      <trkpt lat="48.62962" lon="2.06076">
        <ele>161.7</ele>
        <time>2024-12-30T19:16:27.139Z</time>
      </trkpt>
      <trkpt lat="48.62962" lon="2.06086">
        <ele>161.6</ele>
        <time>2024-12-30T19:16:31.223Z</time>
      </trkpt>
      <trkpt lat="48.62962" lon="2.06096">
        <ele>161.4</ele>
        <time>2024-12-30T19:16:35.307Z</time>
      </trkpt>
      <trkpt lat="48.62963" lon="2.06106">
        <ele>161.1</ele>
        <time>2024-12-30T19:16:39.391Z</time>
      </trkpt>
      <trkpt lat="48.62963" lon="2.06115">
        <ele>161</ele>
        <time>2024-12-30T19:16:43.476Z</time>
      </trkpt>
      <trkpt lat="48.62963" lon="2.06125">
        <ele>161</ele>
        <time>2024-12-30T19:16:47.561Z</time>
      </trkpt>
      <trkpt lat="48.62963" lon="2.06135">
        <ele>161</ele>
        <time>2024-12-30T19:16:51.646Z</time>
      </trkpt>
      <trkpt lat="48.62963" lon="2.06145">
        <ele>161</ele>
        <time>2024-12-30T19:16:55.731Z</time>
      </trkpt>
      <trkpt lat="48.62963" lon="2.06155">
        <ele>161</ele>
        <time>2024-12-30T19:16:59.816Z</time>
      </trkpt>
      <trkpt lat="48.62963" lon="2.06165">
        <ele>161</ele>
        <time>2024-12-30T19:17:03.901Z</time>
      </trkpt>
      <trkpt lat="48.62963" lon="2.06175">
        <ele>160.9</ele>
        <time>2024-12-30T19:17:07.986Z</time>
      </trkpt>
      <trkpt lat="48.62963" lon="2.06185">
        <ele>160.8</ele>
        <time>2024-12-30T19:17:12.071Z</time>
      </trkpt>
      <trkpt lat="48.62963" lon="2.06192">
        <ele>160.7</ele>
        <time>2024-12-30T19:17:15.029Z</time>
      </trkpt>
      <trkpt lat="48.62964" lon="2.062">
        <ele>160.6</ele>
        <time>2024-12-30T19:17:17.987Z</time>
      </trkpt>
      <trkpt lat="48.62964" lon="2.06207">
        <ele>160.4</ele>
        <time>2024-12-30T19:17:20.945Z</time>
      </trkpt>
      <trkpt lat="48.62965" lon="2.06215">
        <ele>160.2</ele>
        <time>2024-12-30T19:17:23.903Z</time>
      </trkpt>
      <trkpt lat="48.62965" lon="2.06222">
        <ele>160</ele>
        <time>2024-12-30T19:17:26.861Z</time>
      </trkpt>
      <trkpt lat="48.62965" lon="2.06229">
        <ele>160</ele>
        <time>2024-12-30T19:17:29.819Z</time>
      </trkpt>
      <trkpt lat="48.62966" lon="2.06237">
        <ele>160</ele>
        <time>2024-12-30T19:17:32.778Z</time>
      </trkpt>
      <trkpt lat="48.62966" lon="2.06244">
        <ele>160</ele>
        <time>2024-12-30T19:17:35.737Z</time>
      </trkpt>
      <trkpt lat="48.62967" lon="2.06253">
        <ele>160</ele>
        <time>2024-12-30T19:17:39.792Z</time>
      </trkpt>
      <trkpt lat="48.62968" lon="2.06263">
        <ele>159.9</ele>
        <time>2024-12-30T19:17:43.847Z</time>
      </trkpt>
      <trkpt lat="48.62969" lon="2.06272">
        <ele>159.9</ele>
        <time>2024-12-30T19:17:47.902Z</time>
      </trkpt>
      <trkpt lat="48.62971" lon="2.06282">
        <ele>159.9</ele>
        <time>2024-12-30T19:17:51.957Z</time>
      </trkpt>
      <trkpt lat="48.62972" lon="2.06291">
        <ele>160</ele>
        <time>2024-12-30T19:17:56.012Z</time>
      </trkpt>
      <trkpt lat="48.62973" lon="2.063">
        <ele>160</ele>
        <time>2024-12-30T19:18:00.067Z</time>
      </trkpt>
      <trkpt lat="48.62974" lon="2.0631">
        <ele>160</ele>
        <time>2024-12-30T19:18:04.122Z</time>
      </trkpt>
      <trkpt lat="48.62975" lon="2.06319">
        <ele>160</ele>
        <time>2024-12-30T19:18:08.178Z</time>
      </trkpt>
      <trkpt lat="48.62976" lon="2.06329">
        <ele>160</ele>
        <time>2024-12-30T19:18:12.254Z</time>
      </trkpt>
      <trkpt lat="48.62976" lon="2.06339">
        <ele>159.8</ele>
        <time>2024-12-30T19:18:16.331Z</time>
      </trkpt>
      <trkpt lat="48.62975" lon="2.0635">
        <ele>159.5</ele>
        <time>2024-12-30T19:18:20.731Z</time>
      </trkpt>
      <trkpt lat="48.62975" lon="2.06361">
        <ele>159.1</ele>
        <time>2024-12-30T19:18:25.131Z</time>
      </trkpt>
      <trkpt lat="48.62974" lon="2.06371">
        <ele>159.1</ele>
        <time>2024-12-30T19:18:29.531Z</time>
      </trkpt>
      <trkpt lat="48.62974" lon="2.06382">
        <ele>159</ele>
        <time>2024-12-30T19:18:33.931Z</time>
      </trkpt>
      <trkpt lat="48.62973" lon="2.06393">
        <ele>159</ele>
        <time>2024-12-30T19:18:38.331Z</time>
      </trkpt>
      <trkpt lat="48.62972" lon="2.06404">
        <ele>159</ele>
        <time>2024-12-30T19:18:42.731Z</time>
      </trkpt>
      <trkpt lat="48.62972" lon="2.06414">
        <ele>159</ele>
        <time>2024-12-30T19:18:47.132Z</time>
      </trkpt>
      <trkpt lat="48.62971" lon="2.06425">
        <ele>159</ele>
        <time>2024-12-30T19:18:51.534Z</time>
      </trkpt>
      <trkpt lat="48.62971" lon="2.06437">
        <ele>158.9</ele>
        <time>2024-12-30T19:18:56.708Z</time>
      </trkpt>
      <trkpt lat="48.6297" lon="2.0645">
        <ele>158.9</ele>
        <time>2024-12-30T19:19:01.882Z</time>
      </trkpt>
      <trkpt lat="48.6297" lon="2.06462">
        <ele>158.9</ele>
        <time>2024-12-30T19:19:07.056Z</time>
      </trkpt>
      <trkpt lat="48.62969" lon="2.06474">
        <ele>158.9</ele>
        <time>2024-12-30T19:19:12.231Z</time>
      </trkpt>
      <trkpt lat="48.6297" lon="2.06484">
        <ele>158.9</ele>
        <time>2024-12-30T19:19:16.337Z</time>
      </trkpt>
      <trkpt lat="48.6297" lon="2.06493">
        <ele>158.9</ele>
        <time>2024-12-30T19:19:20.443Z</time>
      </trkpt>
      <trkpt lat="48.62971" lon="2.06503">
        <ele>158.9</ele>
        <time>2024-12-30T19:19:24.549Z</time>
      </trkpt>
      <trkpt lat="48.62971" lon="2.06512">
        <ele>159</ele>
        <time>2024-12-30T19:19:28.655Z</time>
      </trkpt>
      <trkpt lat="48.62972" lon="2.0652">
        <ele>159</ele>
        <time>2024-12-30T19:19:32.127Z</time>
      </trkpt>
      <trkpt lat="48.62972" lon="2.06528">
        <ele>159</ele>
        <time>2024-12-30T19:19:35.600Z</time>
      </trkpt>
      <trkpt lat="48.62973" lon="2.06536">
        <ele>159</ele>
        <time>2024-12-30T19:19:39.073Z</time>
      </trkpt>
      <trkpt lat="48.62973" lon="2.06545">
        <ele>159</ele>
        <time>2024-12-30T19:19:42.546Z</time>
      </trkpt>
      <trkpt lat="48.62974" lon="2.06553">
        <ele>159</ele>
        <time>2024-12-30T19:19:46.019Z</time>
      </trkpt>
      <trkpt lat="48.62974" lon="2.06561">
        <ele>159</ele>
        <time>2024-12-30T19:19:49.492Z</time>
      </trkpt>
      <trkpt lat="48.62975" lon="2.06569">
        <ele>159</ele>
        <time>2024-12-30T19:19:52.965Z</time>
      </trkpt>
      <trkpt lat="48.62975" lon="2.06577">
        <ele>159</ele>
        <time>2024-12-30T19:19:56.438Z</time>
        <extensions>
          <visugpx:TrkExtension xmlns:visugpx="https://www.visugpx.com/editgpx/">
            <visugpx:node>42</visugpx:node>
            </visugpx:TrkExtension>
        </extensions>
      </trkpt>
      <trkpt lat="48.62975" lon="2.06577">
        <ele>159</ele>
        <time>2024-12-30T19:19:56.438Z</time>
      </trkpt>
      <trkpt lat="48.62976" lon="2.06587">
        <ele>158.9</ele>
        <time>2024-12-30T19:20:00.263Z</time>
      </trkpt>
      <trkpt lat="48.62976" lon="2.06596">
        <ele>158.5</ele>
        <time>2024-12-30T19:20:04.088Z</time>
      </trkpt>
      <trkpt lat="48.62977" lon="2.06606">
        <ele>158.2</ele>
        <time>2024-12-30T19:20:07.913Z</time>
      </trkpt>
      <trkpt lat="48.62978" lon="2.06615">
        <ele>158</ele>
        <time>2024-12-30T19:20:11.739Z</time>
      </trkpt>
      <trkpt lat="48.62978" lon="2.06625">
        <ele>158</ele>
        <time>2024-12-30T19:20:15.565Z</time>
      </trkpt>
      <trkpt lat="48.62979" lon="2.06634">
        <ele>158</ele>
        <time>2024-12-30T19:20:19.391Z</time>
      </trkpt>
      <trkpt lat="48.62979" lon="2.06644">
        <ele>158</ele>
        <time>2024-12-30T19:20:23.217Z</time>
      </trkpt>
      <trkpt lat="48.6298" lon="2.06653">
        <ele>158</ele>
        <time>2024-12-30T19:20:27.043Z</time>
      </trkpt>
      <trkpt lat="48.62981" lon="2.06657">
        <ele>158</ele>
        <time>2024-12-30T19:20:28.863Z</time>
      </trkpt>
      <trkpt lat="48.62983" lon="2.06665">
        <ele>158</ele>
        <time>2024-12-30T19:20:32.503Z</time>
      </trkpt>
      <trkpt lat="48.62978" lon="2.06668">
        <ele>158</ele>
        <time>2024-12-30T19:20:36.067Z</time>
      </trkpt>
      <trkpt lat="48.62973" lon="2.06671">
        <ele>158</ele>
        <time>2024-12-30T19:20:39.631Z</time>
      </trkpt>
      <trkpt lat="48.62967" lon="2.06674">
        <ele>158</ele>
        <time>2024-12-30T19:20:43.196Z</time>
      </trkpt>
      <trkpt lat="48.62962" lon="2.06677">
        <ele>157.9</ele>
        <time>2024-12-30T19:20:46.762Z</time>
      </trkpt>
      <trkpt lat="48.62958" lon="2.0668">
        <ele>157.8</ele>
        <time>2024-12-30T19:20:49.420Z</time>
      </trkpt>
      <trkpt lat="48.62954" lon="2.06682">
        <ele>157.6</ele>
        <time>2024-12-30T19:20:52.078Z</time>
      </trkpt>
      <trkpt lat="48.62949" lon="2.06685">
        <ele>157.5</ele>
        <time>2024-12-30T19:20:54.737Z</time>
      </trkpt>
      <trkpt lat="48.62945" lon="2.06687">
        <ele>157.3</ele>
        <time>2024-12-30T19:20:57.397Z</time>
      </trkpt>
      <trkpt lat="48.62945" lon="2.06695">
        <ele>157</ele>
        <time>2024-12-30T19:21:00.283Z</time>
      </trkpt>
      <trkpt lat="48.62945" lon="2.06703">
        <ele>156.7</ele>
        <time>2024-12-30T19:21:03.169Z</time>
      </trkpt>
      <trkpt lat="48.62945" lon="2.0671">
        <ele>156.5</ele>
        <time>2024-12-30T19:21:06.055Z</time>
      </trkpt>
      <trkpt lat="48.62945" lon="2.06718">
        <ele>156.2</ele>
        <time>2024-12-30T19:21:08.942Z</time>
      </trkpt>
      <trkpt lat="48.62944" lon="2.06731">
        <ele>155.7</ele>
        <time>2024-12-30T19:21:13.630Z</time>
      </trkpt>
      <trkpt lat="48.62943" lon="2.06743">
        <ele>155.2</ele>
        <time>2024-12-30T19:21:18.319Z</time>
      </trkpt>
      <trkpt lat="48.62943" lon="2.06752">
        <ele>154.9</ele>
        <time>2024-12-30T19:21:21.519Z</time>
      </trkpt>
      <trkpt lat="48.62943" lon="2.0676">
        <ele>154.6</ele>
        <time>2024-12-30T19:21:24.719Z</time>
      </trkpt>
      <trkpt lat="48.62943" lon="2.06769">
        <ele>154.3</ele>
        <time>2024-12-30T19:21:27.919Z</time>
      </trkpt>
      <trkpt lat="48.62943" lon="2.06777">
        <ele>154</ele>
        <time>2024-12-30T19:21:31.119Z</time>
      </trkpt>
      <trkpt lat="48.62944" lon="2.06786">
        <ele>153.4</ele>
        <time>2024-12-30T19:21:34.319Z</time>
      </trkpt>
      <trkpt lat="48.62944" lon="2.06795">
        <ele>152.8</ele>
        <time>2024-12-30T19:21:37.519Z</time>
      </trkpt>
      <trkpt lat="48.62944" lon="2.06803">
        <ele>152.1</ele>
        <time>2024-12-30T19:21:40.719Z</time>
      </trkpt>
      <trkpt lat="48.62944" lon="2.06812">
        <ele>151.8</ele>
        <time>2024-12-30T19:21:43.919Z</time>
      </trkpt>
      <trkpt lat="48.62944" lon="2.0682">
        <ele>151.4</ele>
        <time>2024-12-30T19:21:47.119Z</time>
      </trkpt>
      <trkpt lat="48.62944" lon="2.06829">
        <ele>151.1</ele>
        <time>2024-12-30T19:21:50.320Z</time>
      </trkpt>
      <trkpt lat="48.62944" lon="2.06838">
        <ele>150.8</ele>
        <time>2024-12-30T19:21:53.521Z</time>
      </trkpt>
      <trkpt lat="48.62944" lon="2.06846">
        <ele>150.5</ele>
        <time>2024-12-30T19:21:56.722Z</time>
      </trkpt>
      <trkpt lat="48.62944" lon="2.06855">
        <ele>150.2</ele>
        <time>2024-12-30T19:21:59.923Z</time>
      </trkpt>
      <trkpt lat="48.62944" lon="2.06863">
        <ele>149.9</ele>
        <time>2024-12-30T19:22:03.124Z</time>
      </trkpt>
      <trkpt lat="48.62944" lon="2.06872">
        <ele>149.6</ele>
        <time>2024-12-30T19:22:06.325Z</time>
      </trkpt>
      <trkpt lat="48.62945" lon="2.06881">
        <ele>149.3</ele>
        <time>2024-12-30T19:22:09.526Z</time>
      </trkpt>
      <trkpt lat="48.62945" lon="2.06889">
        <ele>149</ele>
        <time>2024-12-30T19:22:12.727Z</time>
      </trkpt>
      <trkpt lat="48.62945" lon="2.06898">
        <ele>148.7</ele>
        <time>2024-12-30T19:22:15.928Z</time>
      </trkpt>
      <trkpt lat="48.62945" lon="2.06906">
        <ele>148.4</ele>
        <time>2024-12-30T19:22:19.129Z</time>
      </trkpt>
      <trkpt lat="48.62945" lon="2.06915">
        <ele>148.1</ele>
        <time>2024-12-30T19:22:22.330Z</time>
      </trkpt>
      <trkpt lat="48.62945" lon="2.06924">
        <ele>147.8</ele>
        <time>2024-12-30T19:22:25.531Z</time>
      </trkpt>
      <trkpt lat="48.62945" lon="2.06932">
        <ele>147.4</ele>
        <time>2024-12-30T19:22:28.732Z</time>
      </trkpt>
      <trkpt lat="48.62945" lon="2.06941">
        <ele>147.1</ele>
        <time>2024-12-30T19:22:31.933Z</time>
      </trkpt>
      <trkpt lat="48.62945" lon="2.06949">
        <ele>146.8</ele>
        <time>2024-12-30T19:22:35.134Z</time>
      </trkpt>
      <trkpt lat="48.62945" lon="2.06958">
        <ele>146.5</ele>
        <time>2024-12-30T19:22:38.335Z</time>
      </trkpt>
      <trkpt lat="48.62945" lon="2.06966">
        <ele>146.2</ele>
        <time>2024-12-30T19:22:41.536Z</time>
      </trkpt>
      <trkpt lat="48.62946" lon="2.06975">
        <ele>145.9</ele>
        <time>2024-12-30T19:22:44.737Z</time>
      </trkpt>
      <trkpt lat="48.62946" lon="2.06984">
        <ele>145.6</ele>
        <time>2024-12-30T19:22:47.938Z</time>
      </trkpt>
      <trkpt lat="48.62946" lon="2.06992">
        <ele>145.3</ele>
        <time>2024-12-30T19:22:51.139Z</time>
      </trkpt>
      <trkpt lat="48.62946" lon="2.07001">
        <ele>145</ele>
        <time>2024-12-30T19:22:54.340Z</time>
      </trkpt>
      <trkpt lat="48.62946" lon="2.07009">
        <ele>145</ele>
        <time>2024-12-30T19:22:57.541Z</time>
      </trkpt>
      <trkpt lat="48.62946" lon="2.07018">
        <ele>145</ele>
        <time>2024-12-30T19:23:00.742Z</time>
      </trkpt>
      <trkpt lat="48.62946" lon="2.07027">
        <ele>144.9</ele>
        <time>2024-12-30T19:23:04.363Z</time>
      </trkpt>
      <trkpt lat="48.62946" lon="2.07035">
        <ele>144.7</ele>
        <time>2024-12-30T19:23:07.985Z</time>
      </trkpt>
      <trkpt lat="48.62946" lon="2.07044">
        <ele>144.4</ele>
        <time>2024-12-30T19:23:11.607Z</time>
      </trkpt>
      <trkpt lat="48.62946" lon="2.07053">
        <ele>144.1</ele>
        <time>2024-12-30T19:23:15.229Z</time>
      </trkpt>
      <trkpt lat="48.62946" lon="2.07061">
        <ele>144</ele>
        <time>2024-12-30T19:23:18.851Z</time>
      </trkpt>
      <trkpt lat="48.62946" lon="2.0707">
        <ele>144</ele>
        <time>2024-12-30T19:23:22.473Z</time>
      </trkpt>
      <trkpt lat="48.62946" lon="2.07078">
        <ele>144</ele>
        <time>2024-12-30T19:23:26.095Z</time>
      </trkpt>
      <trkpt lat="48.62947" lon="2.07087">
        <ele>144</ele>
        <time>2024-12-30T19:23:29.717Z</time>
      </trkpt>
      <trkpt lat="48.62947" lon="2.07096">
        <ele>144</ele>
        <time>2024-12-30T19:23:33.339Z</time>
      </trkpt>
      <trkpt lat="48.62947" lon="2.07104">
        <ele>144</ele>
        <time>2024-12-30T19:23:36.961Z</time>
      </trkpt>
      <trkpt lat="48.62947" lon="2.07113">
        <ele>144</ele>
        <time>2024-12-30T19:23:40.583Z</time>
      </trkpt>
      <trkpt lat="48.62947" lon="2.07122">
        <ele>144</ele>
        <time>2024-12-30T19:23:44.205Z</time>
      </trkpt>
      <trkpt lat="48.62947" lon="2.0713">
        <ele>144</ele>
        <time>2024-12-30T19:23:47.827Z</time>
      </trkpt>
      <trkpt lat="48.62947" lon="2.07139">
        <ele>144</ele>
        <time>2024-12-30T19:23:51.449Z</time>
      </trkpt>
      <trkpt lat="48.62947" lon="2.07147">
        <ele>144.3</ele>
        <time>2024-12-30T19:23:55.071Z</time>
      </trkpt>
      <trkpt lat="48.62947" lon="2.07156">
        <ele>144.6</ele>
        <time>2024-12-30T19:23:58.693Z</time>
        <extensions>
          <visugpx:TrkExtension xmlns:visugpx="https://www.visugpx.com/editgpx/">
            <visugpx:node>43</visugpx:node>
            </visugpx:TrkExtension>
        </extensions>
      </trkpt>
      <trkpt lat="48.62947" lon="2.07156">
        <ele>144.6</ele>
        <time>2024-12-30T19:23:58.693Z</time>
      </trkpt>
      <trkpt lat="48.62947" lon="2.07157">
        <ele>144.7</ele>
        <time>2024-12-30T19:23:59.403Z</time>
      </trkpt>
      <trkpt lat="48.62943" lon="2.07154">
        <ele>144.5</ele>
        <time>2024-12-30T19:24:01.919Z</time>
      </trkpt>
      <trkpt lat="48.62935" lon="2.07152">
        <ele>144.2</ele>
        <time>2024-12-30T19:24:07.836Z</time>
      </trkpt>
      <trkpt lat="48.62927" lon="2.07151">
        <ele>143.8</ele>
        <time>2024-12-30T19:24:13.753Z</time>
      </trkpt>
      <trkpt lat="48.62919" lon="2.07149">
        <ele>143.5</ele>
        <time>2024-12-30T19:24:19.670Z</time>
      </trkpt>
      <trkpt lat="48.62912" lon="2.07148">
        <ele>143.1</ele>
        <time>2024-12-30T19:24:25.587Z</time>
      </trkpt>
      <trkpt lat="48.62904" lon="2.07146">
        <ele>142.7</ele>
        <time>2024-12-30T19:24:31.504Z</time>
      </trkpt>
      <trkpt lat="48.62896" lon="2.07145">
        <ele>142.3</ele>
        <time>2024-12-30T19:24:37.421Z</time>
      </trkpt>
      <trkpt lat="48.62888" lon="2.07143">
        <ele>142</ele>
        <time>2024-12-30T19:24:43.338Z</time>
      </trkpt>
      <trkpt lat="48.6288" lon="2.07142">
        <ele>142</ele>
        <time>2024-12-30T19:24:49.255Z</time>
      </trkpt>
      <trkpt lat="48.62872" lon="2.0714">
        <ele>142</ele>
        <time>2024-12-30T19:24:55.172Z</time>
      </trkpt>
      <trkpt lat="48.62864" lon="2.07138">
        <ele>142</ele>
        <time>2024-12-30T19:25:01.089Z</time>
      </trkpt>
      <trkpt lat="48.62856" lon="2.07137">
        <ele>142</ele>
        <time>2024-12-30T19:25:07.006Z</time>
      </trkpt>
      <trkpt lat="48.62849" lon="2.07135">
        <ele>142</ele>
        <time>2024-12-30T19:25:12.923Z</time>
      </trkpt>
      <trkpt lat="48.62841" lon="2.07134">
        <ele>142</ele>
        <time>2024-12-30T19:25:18.840Z</time>
      </trkpt>
      <trkpt lat="48.62833" lon="2.07132">
        <ele>142</ele>
        <time>2024-12-30T19:25:24.757Z</time>
      </trkpt>
      <trkpt lat="48.62825" lon="2.07131">
        <ele>142.6</ele>
        <time>2024-12-30T19:25:30.674Z</time>
      </trkpt>
      <trkpt lat="48.62817" lon="2.07129">
        <ele>143.2</ele>
        <time>2024-12-30T19:25:36.591Z</time>
      </trkpt>
      <trkpt lat="48.62809" lon="2.07127">
        <ele>143.7</ele>
        <time>2024-12-30T19:25:42.509Z</time>
      </trkpt>
      <trkpt lat="48.62801" lon="2.07126">
        <ele>144.5</ele>
        <time>2024-12-30T19:25:48.427Z</time>
      </trkpt>
      <trkpt lat="48.62793" lon="2.07124">
        <ele>145.3</ele>
        <time>2024-12-30T19:25:54.345Z</time>
      </trkpt>
      <trkpt lat="48.62786" lon="2.07123">
        <ele>146.2</ele>
        <time>2024-12-30T19:26:00.263Z</time>
      </trkpt>
      <trkpt lat="48.62778" lon="2.07121">
        <ele>147</ele>
        <time>2024-12-30T19:26:06.181Z</time>
      </trkpt>
      <trkpt lat="48.6277" lon="2.0712">
        <ele>148.2</ele>
        <time>2024-12-30T19:26:12.099Z</time>
      </trkpt>
      <trkpt lat="48.62762" lon="2.07118">
        <ele>149.3</ele>
        <time>2024-12-30T19:26:18.017Z</time>
      </trkpt>
      <trkpt lat="48.62754" lon="2.07117">
        <ele>150.4</ele>
        <time>2024-12-30T19:26:23.935Z</time>
      </trkpt>
      <trkpt lat="48.62746" lon="2.07115">
        <ele>151.4</ele>
        <time>2024-12-30T19:26:29.853Z</time>
      </trkpt>
      <trkpt lat="48.62738" lon="2.07113">
        <ele>152.3</ele>
        <time>2024-12-30T19:26:35.771Z</time>
      </trkpt>
      <trkpt lat="48.6273" lon="2.07112">
        <ele>153.1</ele>
        <time>2024-12-30T19:26:41.689Z</time>
      </trkpt>
      <trkpt lat="48.62723" lon="2.0711">
        <ele>154</ele>
        <time>2024-12-30T19:26:47.607Z</time>
      </trkpt>
      <trkpt lat="48.62715" lon="2.07109">
        <ele>154.5</ele>
        <time>2024-12-30T19:26:53.525Z</time>
      </trkpt>
      <trkpt lat="48.62707" lon="2.07107">
        <ele>155.1</ele>
        <time>2024-12-30T19:26:59.443Z</time>
      </trkpt>
      <trkpt lat="48.62699" lon="2.07106">
        <ele>155.7</ele>
        <time>2024-12-30T19:27:05.361Z</time>
      </trkpt>
      <trkpt lat="48.62691" lon="2.07104">
        <ele>156.2</ele>
        <time>2024-12-30T19:27:11.280Z</time>
      </trkpt>
      <trkpt lat="48.62685" lon="2.07107">
        <ele>156.7</ele>
        <time>2024-12-30T19:27:16.397Z</time>
      </trkpt>
      <trkpt lat="48.62679" lon="2.0711">
        <ele>157.1</ele>
        <time>2024-12-30T19:27:21.514Z</time>
      </trkpt>
      <trkpt lat="48.62673" lon="2.07113">
        <ele>157.5</ele>
        <time>2024-12-30T19:27:26.631Z</time>
      </trkpt>
      <trkpt lat="48.62667" lon="2.07116">
        <ele>158</ele>
        <time>2024-12-30T19:27:31.750Z</time>
      </trkpt>
      <trkpt lat="48.62662" lon="2.07121">
        <ele>158.2</ele>
        <time>2024-12-30T19:27:36.037Z</time>
      </trkpt>
      <trkpt lat="48.62662" lon="2.07131">
        <ele>158.2</ele>
        <time>2024-12-30T19:27:40.293Z</time>
      </trkpt>
      <trkpt lat="48.62661" lon="2.07139">
        <ele>158.2</ele>
        <time>2024-12-30T19:27:43.889Z</time>
      </trkpt>
      <trkpt lat="48.62659" lon="2.07146">
        <ele>158.3</ele>
        <time>2024-12-30T19:27:47.485Z</time>
      </trkpt>
      <trkpt lat="48.62658" lon="2.07154">
        <ele>158.5</ele>
        <time>2024-12-30T19:27:51.081Z</time>
      </trkpt>
      <trkpt lat="48.62656" lon="2.07161">
        <ele>158.7</ele>
        <time>2024-12-30T19:27:54.678Z</time>
      </trkpt>
      <trkpt lat="48.62653" lon="2.07167">
        <ele>159</ele>
        <time>2024-12-30T19:27:58.271Z</time>
      </trkpt>
      <trkpt lat="48.6265" lon="2.07172">
        <ele>159.2</ele>
        <time>2024-12-30T19:28:01.865Z</time>
      </trkpt>
      <trkpt lat="48.62646" lon="2.07176">
        <ele>159.5</ele>
        <time>2024-12-30T19:28:05.715Z</time>
      </trkpt>
      <trkpt lat="48.62642" lon="2.0718">
        <ele>159.8</ele>
        <time>2024-12-30T19:28:09.565Z</time>
      </trkpt>
      <trkpt lat="48.62637" lon="2.07183">
        <ele>160.1</ele>
        <time>2024-12-30T19:28:13.415Z</time>
      </trkpt>
      <trkpt lat="48.62633" lon="2.07187">
        <ele>160.4</ele>
        <time>2024-12-30T19:28:17.266Z</time>
      </trkpt>
      <trkpt lat="48.6263" lon="2.07194">
        <ele>160.7</ele>
        <time>2024-12-30T19:28:21.547Z</time>
      </trkpt>
      <trkpt lat="48.62626" lon="2.07201">
        <ele>160.9</ele>
        <time>2024-12-30T19:28:25.828Z</time>
      </trkpt>
      <trkpt lat="48.62623" lon="2.07208">
        <ele>161.2</ele>
        <time>2024-12-30T19:28:30.109Z</time>
      </trkpt>
      <trkpt lat="48.62619" lon="2.07215">
        <ele>161.4</ele>
        <time>2024-12-30T19:28:34.391Z</time>
      </trkpt>
      <trkpt lat="48.62617" lon="2.07224">
        <ele>161.6</ele>
        <time>2024-12-30T19:28:38.545Z</time>
      </trkpt>
      <trkpt lat="48.62615" lon="2.07232">
        <ele>161.7</ele>
        <time>2024-12-30T19:28:42.700Z</time>
      </trkpt>
      <trkpt lat="48.62611" lon="2.07242">
        <ele>162</ele>
        <time>2024-12-30T19:28:48.322Z</time>
      </trkpt>
      <trkpt lat="48.62607" lon="2.07252">
        <ele>162.3</ele>
        <time>2024-12-30T19:28:53.946Z</time>
      </trkpt>
      <trkpt lat="48.62604" lon="2.07257">
        <ele>162.5</ele>
        <time>2024-12-30T19:28:57.602Z</time>
      </trkpt>
      <trkpt lat="48.626" lon="2.07262">
        <ele>162.8</ele>
        <time>2024-12-30T19:29:01.258Z</time>
      </trkpt>
      <trkpt lat="48.62597" lon="2.07267">
        <ele>163.1</ele>
        <time>2024-12-30T19:29:04.914Z</time>
      </trkpt>
      <trkpt lat="48.62593" lon="2.07272">
        <ele>163.3</ele>
        <time>2024-12-30T19:29:08.572Z</time>
      </trkpt>
      <trkpt lat="48.62589" lon="2.07281">
        <ele>163.5</ele>
        <time>2024-12-30T19:29:13.200Z</time>
      </trkpt>
      <trkpt lat="48.62585" lon="2.0729">
        <ele>163.5</ele>
        <time>2024-12-30T19:29:17.828Z</time>
      </trkpt>
      <trkpt lat="48.62581" lon="2.07298">
        <ele>163.4</ele>
        <time>2024-12-30T19:29:22.457Z</time>
      </trkpt>
      <trkpt lat="48.62577" lon="2.07307">
        <ele>163.5</ele>
        <time>2024-12-30T19:29:27.087Z</time>
      </trkpt>
      <trkpt lat="48.62582" lon="2.07316">
        <ele>163.1</ele>
        <time>2024-12-30T19:29:31.812Z</time>
      </trkpt>
      <trkpt lat="48.62588" lon="2.07326">
        <ele>162.8</ele>
        <time>2024-12-30T19:29:36.537Z</time>
      </trkpt>
      <trkpt lat="48.62593" lon="2.07335">
        <ele>162.7</ele>
        <time>2024-12-30T19:29:41.262Z</time>
      </trkpt>
      <trkpt lat="48.62598" lon="2.07344">
        <ele>162.5</ele>
        <time>2024-12-30T19:29:45.988Z</time>
      </trkpt>
      <trkpt lat="48.62594" lon="2.07354">
        <ele>162.6</ele>
        <time>2024-12-30T19:29:51.039Z</time>
      </trkpt>
      <trkpt lat="48.6259" lon="2.07363">
        <ele>162.8</ele>
        <time>2024-12-30T19:29:56.090Z</time>
      </trkpt>
      <trkpt lat="48.62586" lon="2.07373">
        <ele>162.9</ele>
        <time>2024-12-30T19:30:01.141Z</time>
      </trkpt>
      <trkpt lat="48.62582" lon="2.07382">
        <ele>163</ele>
        <time>2024-12-30T19:30:06.193Z</time>
      </trkpt>
      <trkpt lat="48.6258" lon="2.07394">
        <ele>163.1</ele>
        <time>2024-12-30T19:30:10.989Z</time>
      </trkpt>
      <trkpt lat="48.62577" lon="2.07406">
        <ele>163.1</ele>
        <time>2024-12-30T19:30:15.785Z</time>
      </trkpt>
      <trkpt lat="48.62575" lon="2.07418">
        <ele>163</ele>
        <time>2024-12-30T19:30:20.581Z</time>
      </trkpt>
      <trkpt lat="48.62572" lon="2.0743">
        <ele>162.5</ele>
        <time>2024-12-30T19:30:25.377Z</time>
      </trkpt>
      <trkpt lat="48.6257" lon="2.07441">
        <ele>162.1</ele>
        <time>2024-12-30T19:30:30.173Z</time>
      </trkpt>
      <trkpt lat="48.62567" lon="2.07453">
        <ele>161.7</ele>
        <time>2024-12-30T19:30:34.970Z</time>
      </trkpt>
      <trkpt lat="48.62565" lon="2.07465">
        <ele>161.3</ele>
        <time>2024-12-30T19:30:39.767Z</time>
      </trkpt>
      <trkpt lat="48.62562" lon="2.07477">
        <ele>160.8</ele>
        <time>2024-12-30T19:30:44.565Z</time>
      </trkpt>
      <trkpt lat="48.62556" lon="2.07483">
        <ele>160.6</ele>
        <time>2024-12-30T19:30:49.275Z</time>
      </trkpt>
      <trkpt lat="48.62549" lon="2.07489">
        <ele>160.6</ele>
        <time>2024-12-30T19:30:53.986Z</time>
      </trkpt>
      <trkpt lat="48.62544" lon="2.07492">
        <ele>160.7</ele>
        <time>2024-12-30T19:30:57.453Z</time>
      </trkpt>
      <trkpt lat="48.6254" lon="2.07495">
        <ele>160.8</ele>
        <time>2024-12-30T19:31:00.921Z</time>
      </trkpt>
      <trkpt lat="48.62535" lon="2.07498">
        <ele>160.8</ele>
        <time>2024-12-30T19:31:04.389Z</time>
      </trkpt>
      <trkpt lat="48.6253" lon="2.07501">
        <ele>160.9</ele>
        <time>2024-12-30T19:31:07.858Z</time>
      </trkpt>
      <trkpt lat="48.62527" lon="2.07504">
        <ele>160.9</ele>
        <time>2024-12-30T19:31:10.174Z</time>
      </trkpt>
      <trkpt lat="48.62521" lon="2.07503">
        <ele>161.1</ele>
        <time>2024-12-30T19:31:14.487Z</time>
      </trkpt>
      <trkpt lat="48.62514" lon="2.07501">
        <ele>161.5</ele>
        <time>2024-12-30T19:31:19.738Z</time>
      </trkpt>
      <trkpt lat="48.62508" lon="2.07498">
        <ele>161.8</ele>
        <time>2024-12-30T19:31:24.989Z</time>
      </trkpt>
      <trkpt lat="48.62501" lon="2.07496">
        <ele>162.1</ele>
        <time>2024-12-30T19:31:30.240Z</time>
      </trkpt>
      <trkpt lat="48.62494" lon="2.07493">
        <ele>162.5</ele>
        <time>2024-12-30T19:31:35.493Z</time>
      </trkpt>
      <trkpt lat="48.62488" lon="2.07491">
        <ele>162.8</ele>
        <time>2024-12-30T19:31:40.162Z</time>
      </trkpt>
      <trkpt lat="48.62482" lon="2.07488">
        <ele>163.1</ele>
        <time>2024-12-30T19:31:44.833Z</time>
      </trkpt>
      <trkpt lat="48.62474" lon="2.0749">
        <ele>163.3</ele>
        <time>2024-12-30T19:31:50.472Z</time>
      </trkpt>
      <trkpt lat="48.6247" lon="2.0749">
        <ele>163.4</ele>
        <time>2024-12-30T19:31:53.258Z</time>
        <extensions>
          <visugpx:TrkExtension xmlns:visugpx="https://www.visugpx.com/editgpx/">
            <visugpx:node>44</visugpx:node>
            </visugpx:TrkExtension>
        </extensions>
      </trkpt>
      <trkpt lat="48.6247" lon="2.0749">
        <ele>163.4</ele>
        <time>2024-12-30T19:31:53.258Z</time>
      </trkpt>
      <trkpt lat="48.62474" lon="2.0749">
        <ele>163.3</ele>
        <time>2024-12-30T19:31:55.645Z</time>
      </trkpt>
      <trkpt lat="48.62472" lon="2.07498">
        <ele>163.1</ele>
        <time>2024-12-30T19:31:58.673Z</time>
      </trkpt>
      <trkpt lat="48.62471" lon="2.07506">
        <ele>162.8</ele>
        <time>2024-12-30T19:32:01.701Z</time>
      </trkpt>
      <trkpt lat="48.62469" lon="2.07513">
        <ele>162.5</ele>
        <time>2024-12-30T19:32:04.729Z</time>
      </trkpt>
      <trkpt lat="48.62468" lon="2.07521">
        <ele>162.2</ele>
        <time>2024-12-30T19:32:07.757Z</time>
      </trkpt>
      <trkpt lat="48.62466" lon="2.07529">
        <ele>162</ele>
        <time>2024-12-30T19:32:10.785Z</time>
      </trkpt>
      <trkpt lat="48.62464" lon="2.07537">
        <ele>161.7</ele>
        <time>2024-12-30T19:32:13.813Z</time>
      </trkpt>
      <trkpt lat="48.62463" lon="2.07544">
        <ele>161.4</ele>
        <time>2024-12-30T19:32:16.841Z</time>
      </trkpt>
      <trkpt lat="48.62461" lon="2.07552">
        <ele>161.1</ele>
        <time>2024-12-30T19:32:19.870Z</time>
      </trkpt>
      <trkpt lat="48.6246" lon="2.07563">
        <ele>160.6</ele>
        <time>2024-12-30T19:32:24.097Z</time>
      </trkpt>
      <trkpt lat="48.62459" lon="2.07575">
        <ele>160</ele>
        <time>2024-12-30T19:32:28.324Z</time>
      </trkpt>
      <trkpt lat="48.62458" lon="2.07586">
        <ele>159.4</ele>
        <time>2024-12-30T19:32:32.551Z</time>
      </trkpt>
      <trkpt lat="48.62457" lon="2.07597">
        <ele>158.8</ele>
        <time>2024-12-30T19:32:36.778Z</time>
      </trkpt>
      <trkpt lat="48.62456" lon="2.07608">
        <ele>158.2</ele>
        <time>2024-12-30T19:32:41.006Z</time>
      </trkpt>
      <trkpt lat="48.62455" lon="2.0762">
        <ele>157.4</ele>
        <time>2024-12-30T19:32:45.234Z</time>
      </trkpt>
      <trkpt lat="48.62454" lon="2.07631">
        <ele>156.6</ele>
        <time>2024-12-30T19:32:49.462Z</time>
      </trkpt>
      <trkpt lat="48.62453" lon="2.07642">
        <ele>155.8</ele>
        <time>2024-12-30T19:32:53.691Z</time>
      </trkpt>
      <trkpt lat="48.62454" lon="2.07651">
        <ele>155.3</ele>
        <time>2024-12-30T19:32:57.061Z</time>
      </trkpt>
      <trkpt lat="48.62454" lon="2.0766">
        <ele>154.7</ele>
        <time>2024-12-30T19:33:00.431Z</time>
      </trkpt>
      <trkpt lat="48.62455" lon="2.07669">
        <ele>154.3</ele>
        <time>2024-12-30T19:33:03.801Z</time>
      </trkpt>
      <trkpt lat="48.62456" lon="2.07678">
        <ele>154</ele>
        <time>2024-12-30T19:33:07.171Z</time>
      </trkpt>
      <trkpt lat="48.62456" lon="2.07687">
        <ele>153.7</ele>
        <time>2024-12-30T19:33:10.541Z</time>
      </trkpt>
      <trkpt lat="48.62457" lon="2.07696">
        <ele>153.4</ele>
        <time>2024-12-30T19:33:13.912Z</time>
      </trkpt>
      <trkpt lat="48.62457" lon="2.07705">
        <ele>152.9</ele>
        <time>2024-12-30T19:33:17.283Z</time>
      </trkpt>
      <trkpt lat="48.62458" lon="2.07714">
        <ele>152.4</ele>
        <time>2024-12-30T19:33:20.654Z</time>
      </trkpt>
      <trkpt lat="48.62458" lon="2.07721">
        <ele>152.1</ele>
        <time>2024-12-30T19:33:23.313Z</time>
      </trkpt>
      <trkpt lat="48.62459" lon="2.07728">
        <ele>151.8</ele>
        <time>2024-12-30T19:33:25.972Z</time>
      </trkpt>
      <trkpt lat="48.62459" lon="2.07735">
        <ele>151.5</ele>
        <time>2024-12-30T19:33:28.631Z</time>
      </trkpt>
      <trkpt lat="48.62459" lon="2.07743">
        <ele>151.3</ele>
        <time>2024-12-30T19:33:31.290Z</time>
      </trkpt>
      <trkpt lat="48.6246" lon="2.0775">
        <ele>151</ele>
        <time>2024-12-30T19:33:33.949Z</time>
      </trkpt>
      <trkpt lat="48.6246" lon="2.07757">
        <ele>150.8</ele>
        <time>2024-12-30T19:33:36.608Z</time>
      </trkpt>
      <trkpt lat="48.6246" lon="2.07764">
        <ele>150.5</ele>
        <time>2024-12-30T19:33:39.267Z</time>
      </trkpt>
      <trkpt lat="48.62461" lon="2.07771">
        <ele>150.2</ele>
        <time>2024-12-30T19:33:41.926Z</time>
      </trkpt>
      <trkpt lat="48.62461" lon="2.07778">
        <ele>150</ele>
        <time>2024-12-30T19:33:44.585Z</time>
      </trkpt>
      <trkpt lat="48.62461" lon="2.07785">
        <ele>149.7</ele>
        <time>2024-12-30T19:33:47.244Z</time>
      </trkpt>
      <trkpt lat="48.62461" lon="2.07792">
        <ele>149.5</ele>
        <time>2024-12-30T19:33:49.904Z</time>
      </trkpt>
      <trkpt lat="48.62462" lon="2.078">
        <ele>149.2</ele>
        <time>2024-12-30T19:33:52.564Z</time>
      </trkpt>
      <trkpt lat="48.62462" lon="2.07807">
        <ele>149</ele>
        <time>2024-12-30T19:33:55.224Z</time>
      </trkpt>
      <trkpt lat="48.62462" lon="2.07814">
        <ele>148.7</ele>
        <time>2024-12-30T19:33:57.884Z</time>
      </trkpt>
      <trkpt lat="48.62463" lon="2.07821">
        <ele>148.4</ele>
        <time>2024-12-30T19:34:00.544Z</time>
      </trkpt>
      <trkpt lat="48.62463" lon="2.07828">
        <ele>148.2</ele>
        <time>2024-12-30T19:34:03.204Z</time>
      </trkpt>
      <trkpt lat="48.62463" lon="2.07838">
        <ele>148</ele>
        <time>2024-12-30T19:34:07.233Z</time>
      </trkpt>
      <trkpt lat="48.62463" lon="2.07848">
        <ele>148</ele>
        <time>2024-12-30T19:34:11.262Z</time>
      </trkpt>
      <trkpt lat="48.62462" lon="2.07858">
        <ele>148</ele>
        <time>2024-12-30T19:34:15.291Z</time>
      </trkpt>
      <trkpt lat="48.62462" lon="2.07869">
        <ele>147.7</ele>
        <time>2024-12-30T19:34:19.320Z</time>
      </trkpt>
      <trkpt lat="48.62462" lon="2.07879">
        <ele>147.4</ele>
        <time>2024-12-30T19:34:23.349Z</time>
      </trkpt>
      <trkpt lat="48.62462" lon="2.07889">
        <ele>147</ele>
        <time>2024-12-30T19:34:27.378Z</time>
      </trkpt>
      <trkpt lat="48.62461" lon="2.07899">
        <ele>147</ele>
        <time>2024-12-30T19:34:31.407Z</time>
      </trkpt>
      <trkpt lat="48.62461" lon="2.07909">
        <ele>147</ele>
        <time>2024-12-30T19:34:35.437Z</time>
      </trkpt>
      <trkpt lat="48.6246" lon="2.07918">
        <ele>147</ele>
        <time>2024-12-30T19:34:39.311Z</time>
      </trkpt>
      <trkpt lat="48.62459" lon="2.07928">
        <ele>146.8</ele>
        <time>2024-12-30T19:34:43.185Z</time>
      </trkpt>
      <trkpt lat="48.62458" lon="2.07937">
        <ele>146.7</ele>
        <time>2024-12-30T19:34:47.060Z</time>
      </trkpt>
      <trkpt lat="48.62457" lon="2.07946">
        <ele>146.6</ele>
        <time>2024-12-30T19:34:50.935Z</time>
      </trkpt>
      <trkpt lat="48.62456" lon="2.07955">
        <ele>146.6</ele>
        <time>2024-12-30T19:34:54.810Z</time>
      </trkpt>
      <trkpt lat="48.62455" lon="2.07965">
        <ele>146.6</ele>
        <time>2024-12-30T19:34:58.685Z</time>
      </trkpt>
      <trkpt lat="48.62454" lon="2.07974">
        <ele>146.6</ele>
        <time>2024-12-30T19:35:02.560Z</time>
      </trkpt>
      <trkpt lat="48.62453" lon="2.07983">
        <ele>146.3</ele>
        <time>2024-12-30T19:35:06.435Z</time>
      </trkpt>
      <trkpt lat="48.62451" lon="2.07992">
        <ele>146</ele>
        <time>2024-12-30T19:35:10.310Z</time>
      </trkpt>
      <trkpt lat="48.6245" lon="2.08002">
        <ele>145.8</ele>
        <time>2024-12-30T19:35:14.185Z</time>
      </trkpt>
      <trkpt lat="48.62449" lon="2.08011">
        <ele>145.8</ele>
        <time>2024-12-30T19:35:18.060Z</time>
      </trkpt>
      <trkpt lat="48.62448" lon="2.0802">
        <ele>145.9</ele>
        <time>2024-12-30T19:35:21.935Z</time>
      </trkpt>
      <trkpt lat="48.62447" lon="2.08029">
        <ele>145.9</ele>
        <time>2024-12-30T19:35:25.810Z</time>
      </trkpt>
      <trkpt lat="48.62446" lon="2.08039">
        <ele>145.9</ele>
        <time>2024-12-30T19:35:29.685Z</time>
      </trkpt>
      <trkpt lat="48.62445" lon="2.08048">
        <ele>146</ele>
        <time>2024-12-30T19:35:33.560Z</time>
      </trkpt>
      <trkpt lat="48.62444" lon="2.08057">
        <ele>146</ele>
        <time>2024-12-30T19:35:37.436Z</time>
      </trkpt>
      <trkpt lat="48.62443" lon="2.08065">
        <ele>146</ele>
        <time>2024-12-30T19:35:40.998Z</time>
      </trkpt>
      <trkpt lat="48.62443" lon="2.08074">
        <ele>145.9</ele>
        <time>2024-12-30T19:35:44.560Z</time>
      </trkpt>
      <trkpt lat="48.62442" lon="2.08082">
        <ele>145.9</ele>
        <time>2024-12-30T19:35:48.122Z</time>
      </trkpt>
      <trkpt lat="48.62442" lon="2.08091">
        <ele>145.9</ele>
        <time>2024-12-30T19:35:51.684Z</time>
      </trkpt>
      <trkpt lat="48.62441" lon="2.08099">
        <ele>145.9</ele>
        <time>2024-12-30T19:35:55.247Z</time>
      </trkpt>
      <trkpt lat="48.6244" lon="2.08107">
        <ele>145.9</ele>
        <time>2024-12-30T19:35:58.810Z</time>
      </trkpt>
      <trkpt lat="48.6244" lon="2.08116">
        <ele>145.9</ele>
        <time>2024-12-30T19:36:02.373Z</time>
      </trkpt>
      <trkpt lat="48.62439" lon="2.08124">
        <ele>145.9</ele>
        <time>2024-12-30T19:36:05.937Z</time>
      </trkpt>
      <trkpt lat="48.62439" lon="2.08131">
        <ele>145.9</ele>
        <time>2024-12-30T19:36:09.432Z</time>
      </trkpt>
      <trkpt lat="48.6244" lon="2.08139">
        <ele>146</ele>
        <time>2024-12-30T19:36:12.927Z</time>
      </trkpt>
      <trkpt lat="48.6244" lon="2.08146">
        <ele>146.2</ele>
        <time>2024-12-30T19:36:16.422Z</time>
      </trkpt>
      <trkpt lat="48.6244" lon="2.08153">
        <ele>146.4</ele>
        <time>2024-12-30T19:36:19.917Z</time>
      </trkpt>
      <trkpt lat="48.6244" lon="2.0816">
        <ele>146.6</ele>
        <time>2024-12-30T19:36:23.412Z</time>
      </trkpt>
      <trkpt lat="48.62441" lon="2.08168">
        <ele>146.9</ele>
        <time>2024-12-30T19:36:26.908Z</time>
      </trkpt>
      <trkpt lat="48.62441" lon="2.08175">
        <ele>147.2</ele>
        <time>2024-12-30T19:36:30.404Z</time>
      </trkpt>
      <trkpt lat="48.62441" lon="2.08182">
        <ele>147.4</ele>
        <time>2024-12-30T19:36:33.900Z</time>
      </trkpt>
      <trkpt lat="48.62441" lon="2.0819">
        <ele>147.7</ele>
        <time>2024-12-30T19:36:37.246Z</time>
      </trkpt>
      <trkpt lat="48.6244" lon="2.08198">
        <ele>147.8</ele>
        <time>2024-12-30T19:36:40.592Z</time>
      </trkpt>
      <trkpt lat="48.6244" lon="2.08206">
        <ele>147.8</ele>
        <time>2024-12-30T19:36:43.938Z</time>
      </trkpt>
      <trkpt lat="48.62439" lon="2.08214">
        <ele>147.8</ele>
        <time>2024-12-30T19:36:47.284Z</time>
      </trkpt>
      <trkpt lat="48.62439" lon="2.08222">
        <ele>147.8</ele>
        <time>2024-12-30T19:36:50.630Z</time>
      </trkpt>
      <trkpt lat="48.62438" lon="2.0823">
        <ele>147.8</ele>
        <time>2024-12-30T19:36:53.976Z</time>
      </trkpt>
      <trkpt lat="48.62438" lon="2.08238">
        <ele>147.8</ele>
        <time>2024-12-30T19:36:57.322Z</time>
      </trkpt>
      <trkpt lat="48.62438" lon="2.08247">
        <ele>147.8</ele>
        <time>2024-12-30T19:37:00.668Z</time>
      </trkpt>
      <trkpt lat="48.62437" lon="2.08255">
        <ele>147.6</ele>
        <time>2024-12-30T19:37:04.014Z</time>
      </trkpt>
      <trkpt lat="48.62437" lon="2.08263">
        <ele>147.4</ele>
        <time>2024-12-30T19:37:07.360Z</time>
      </trkpt>
      <trkpt lat="48.62436" lon="2.08271">
        <ele>147.2</ele>
        <time>2024-12-30T19:37:10.706Z</time>
      </trkpt>
      <trkpt lat="48.62436" lon="2.08279">
        <ele>147</ele>
        <time>2024-12-30T19:37:14.052Z</time>
      </trkpt>
      <trkpt lat="48.62435" lon="2.08287">
        <ele>146.9</ele>
        <time>2024-12-30T19:37:17.398Z</time>
      </trkpt>
      <trkpt lat="48.62435" lon="2.08295">
        <ele>146.8</ele>
        <time>2024-12-30T19:37:20.744Z</time>
      </trkpt>
      <trkpt lat="48.62434" lon="2.08303">
        <ele>146.7</ele>
        <time>2024-12-30T19:37:24.090Z</time>
      </trkpt>
      <trkpt lat="48.62434" lon="2.08311">
        <ele>146.6</ele>
        <time>2024-12-30T19:37:27.438Z</time>
      </trkpt>
      <trkpt lat="48.62431" lon="2.08322">
        <ele>146.5</ele>
        <time>2024-12-30T19:37:31.800Z</time>
      </trkpt>
      <trkpt lat="48.62429" lon="2.08333">
        <ele>146.4</ele>
        <time>2024-12-30T19:37:36.162Z</time>
      </trkpt>
      <trkpt lat="48.62426" lon="2.08343">
        <ele>146.3</ele>
        <time>2024-12-30T19:37:40.524Z</time>
      </trkpt>
      <trkpt lat="48.62423" lon="2.08354">
        <ele>146.2</ele>
        <time>2024-12-30T19:37:44.886Z</time>
      </trkpt>
      <trkpt lat="48.6242" lon="2.08365">
        <ele>146.1</ele>
        <time>2024-12-30T19:37:49.248Z</time>
      </trkpt>
      <trkpt lat="48.62418" lon="2.08376">
        <ele>146</ele>
        <time>2024-12-30T19:37:53.610Z</time>
      </trkpt>
      <trkpt lat="48.62415" lon="2.08387">
        <ele>145.9</ele>
        <time>2024-12-30T19:37:57.972Z</time>
      </trkpt>
      <trkpt lat="48.62412" lon="2.08398">
        <ele>145.5</ele>
        <time>2024-12-30T19:38:02.335Z</time>
      </trkpt>
      <trkpt lat="48.62409" lon="2.08408">
        <ele>145</ele>
        <time>2024-12-30T19:38:06.698Z</time>
      </trkpt>
      <trkpt lat="48.62407" lon="2.08419">
        <ele>144.5</ele>
        <time>2024-12-30T19:38:11.061Z</time>
      </trkpt>
      <trkpt lat="48.62404" lon="2.0843">
        <ele>144.1</ele>
        <time>2024-12-30T19:38:15.424Z</time>
      </trkpt>
      <trkpt lat="48.62401" lon="2.08441">
        <ele>143.6</ele>
        <time>2024-12-30T19:38:19.787Z</time>
      </trkpt>
      <trkpt lat="48.62398" lon="2.08452">
        <ele>143.1</ele>
        <time>2024-12-30T19:38:24.150Z</time>
      </trkpt>
      <trkpt lat="48.62396" lon="2.08462">
        <ele>142.6</ele>
        <time>2024-12-30T19:38:28.513Z</time>
      </trkpt>
      <trkpt lat="48.62393" lon="2.08473">
        <ele>142.1</ele>
        <time>2024-12-30T19:38:32.876Z</time>
      </trkpt>
      <trkpt lat="48.6239" lon="2.08484">
        <ele>141.6</ele>
        <time>2024-12-30T19:38:37.240Z</time>
      </trkpt>
      <trkpt lat="48.62388" lon="2.08492">
        <ele>141.3</ele>
        <time>2024-12-30T19:38:40.368Z</time>
      </trkpt>
      <trkpt lat="48.62385" lon="2.08499">
        <ele>140.9</ele>
        <time>2024-12-30T19:38:43.496Z</time>
      </trkpt>
      <trkpt lat="48.62383" lon="2.08507">
        <ele>140.5</ele>
        <time>2024-12-30T19:38:46.624Z</time>
      </trkpt>
      <trkpt lat="48.6238" lon="2.08514">
        <ele>140.2</ele>
        <time>2024-12-30T19:38:49.752Z</time>
      </trkpt>
      <trkpt lat="48.62378" lon="2.08522">
        <ele>139.8</ele>
        <time>2024-12-30T19:38:52.880Z</time>
      </trkpt>
      <trkpt lat="48.62375" lon="2.08529">
        <ele>139.5</ele>
        <time>2024-12-30T19:38:56.008Z</time>
      </trkpt>
      <trkpt lat="48.62373" lon="2.08537">
        <ele>139.3</ele>
        <time>2024-12-30T19:38:59.137Z</time>
      </trkpt>
      <trkpt lat="48.6237" lon="2.08544">
        <ele>139.1</ele>
        <time>2024-12-30T19:39:02.267Z</time>
      </trkpt>
      <trkpt lat="48.62366" lon="2.08552">
        <ele>139</ele>
        <time>2024-12-30T19:39:06.164Z</time>
      </trkpt>
      <trkpt lat="48.62362" lon="2.0856">
        <ele>138.7</ele>
        <time>2024-12-30T19:39:10.063Z</time>
      </trkpt>
      <trkpt lat="48.6236" lon="2.08566">
        <ele>138.2</ele>
        <time>2024-12-30T19:39:12.633Z</time>
      </trkpt>
      <trkpt lat="48.62358" lon="2.08573">
        <ele>137.7</ele>
        <time>2024-12-30T19:39:15.204Z</time>
      </trkpt>
      <trkpt lat="48.62356" lon="2.08579">
        <ele>137.3</ele>
        <time>2024-12-30T19:39:17.775Z</time>
      </trkpt>
      <trkpt lat="48.62354" lon="2.08585">
        <ele>136.9</ele>
        <time>2024-12-30T19:39:20.346Z</time>
      </trkpt>
      <trkpt lat="48.62352" lon="2.08591">
        <ele>136.7</ele>
        <time>2024-12-30T19:39:22.917Z</time>
      </trkpt>
      <trkpt lat="48.6235" lon="2.08598">
        <ele>136.5</ele>
        <time>2024-12-30T19:39:25.488Z</time>
      </trkpt>
      <trkpt lat="48.62348" lon="2.08604">
        <ele>136.3</ele>
        <time>2024-12-30T19:39:28.059Z</time>
      </trkpt>
      <trkpt lat="48.62347" lon="2.0861">
        <ele>136</ele>
        <time>2024-12-30T19:39:30.630Z</time>
      </trkpt>
      <trkpt lat="48.62345" lon="2.08616">
        <ele>135.7</ele>
        <time>2024-12-30T19:39:33.201Z</time>
      </trkpt>
      <trkpt lat="48.62343" lon="2.08623">
        <ele>135.3</ele>
        <time>2024-12-30T19:39:35.772Z</time>
      </trkpt>
      <trkpt lat="48.62341" lon="2.08629">
        <ele>134.9</ele>
        <time>2024-12-30T19:39:38.343Z</time>
      </trkpt>
      <trkpt lat="48.62339" lon="2.08635">
        <ele>134.4</ele>
        <time>2024-12-30T19:39:40.914Z</time>
      </trkpt>
      <trkpt lat="48.62337" lon="2.08641">
        <ele>134</ele>
        <time>2024-12-30T19:39:43.485Z</time>
      </trkpt>
      <trkpt lat="48.62335" lon="2.08648">
        <ele>133.7</ele>
        <time>2024-12-30T19:39:46.056Z</time>
      </trkpt>
      <trkpt lat="48.62333" lon="2.08654">
        <ele>133.5</ele>
        <time>2024-12-30T19:39:48.627Z</time>
      </trkpt>
      <trkpt lat="48.62331" lon="2.0866">
        <ele>133.2</ele>
        <time>2024-12-30T19:39:51.199Z</time>
      </trkpt>
      <trkpt lat="48.62335" lon="2.08667">
        <ele>133</ele>
        <time>2024-12-30T19:39:54.893Z</time>
      </trkpt>
      <trkpt lat="48.62339" lon="2.08674">
        <ele>132.9</ele>
        <time>2024-12-30T19:39:58.587Z</time>
      </trkpt>
      <trkpt lat="48.62344" lon="2.08682">
        <ele>132.6</ele>
        <time>2024-12-30T19:40:02.281Z</time>
      </trkpt>
      <trkpt lat="48.62348" lon="2.08689">
        <ele>132.3</ele>
        <time>2024-12-30T19:40:05.976Z</time>
      </trkpt>
      <trkpt lat="48.62352" lon="2.08696">
        <ele>132</ele>
        <time>2024-12-30T19:40:09.671Z</time>
      </trkpt>
      <trkpt lat="48.62356" lon="2.08703">
        <ele>131.9</ele>
        <time>2024-12-30T19:40:13.366Z</time>
      </trkpt>
      <trkpt lat="48.6236" lon="2.0871">
        <ele>132</ele>
        <time>2024-12-30T19:40:17.061Z</time>
      </trkpt>
      <trkpt lat="48.62364" lon="2.08717">
        <ele>132</ele>
        <time>2024-12-30T19:40:20.756Z</time>
      </trkpt>
      <trkpt lat="48.62368" lon="2.08724">
        <ele>131.9</ele>
        <time>2024-12-30T19:40:24.451Z</time>
      </trkpt>
      <trkpt lat="48.62373" lon="2.08732">
        <ele>131.7</ele>
        <time>2024-12-30T19:40:28.146Z</time>
      </trkpt>
      <trkpt lat="48.62377" lon="2.08739">
        <ele>131.4</ele>
        <time>2024-12-30T19:40:31.841Z</time>
      </trkpt>
      <trkpt lat="48.62381" lon="2.08746">
        <ele>131.1</ele>
        <time>2024-12-30T19:40:35.536Z</time>
      </trkpt>
      <trkpt lat="48.62385" lon="2.08753">
        <ele>130.9</ele>
        <time>2024-12-30T19:40:39.231Z</time>
      </trkpt>
      <trkpt lat="48.62389" lon="2.0876">
        <ele>130.6</ele>
        <time>2024-12-30T19:40:42.926Z</time>
      </trkpt>
      <trkpt lat="48.62393" lon="2.08767">
        <ele>130.4</ele>
        <time>2024-12-30T19:40:46.621Z</time>
      </trkpt>
      <trkpt lat="48.62398" lon="2.08775">
        <ele>130.1</ele>
        <time>2024-12-30T19:40:50.316Z</time>
      </trkpt>
      <trkpt lat="48.62402" lon="2.08782">
        <ele>129.9</ele>
        <time>2024-12-30T19:40:54.011Z</time>
      </trkpt>
      <trkpt lat="48.62406" lon="2.08789">
        <ele>129.6</ele>
        <time>2024-12-30T19:40:57.706Z</time>
      </trkpt>
      <trkpt lat="48.6241" lon="2.08796">
        <ele>129.3</ele>
        <time>2024-12-30T19:41:01.401Z</time>
      </trkpt>
      <trkpt lat="48.62414" lon="2.08803">
        <ele>129.1</ele>
        <time>2024-12-30T19:41:05.096Z</time>
      </trkpt>
      <trkpt lat="48.62418" lon="2.0881">
        <ele>129</ele>
        <time>2024-12-30T19:41:08.791Z</time>
      </trkpt>
      <trkpt lat="48.62422" lon="2.08817">
        <ele>128.9</ele>
        <time>2024-12-30T19:41:12.486Z</time>
      </trkpt>
      <trkpt lat="48.62427" lon="2.08825">
        <ele>128.8</ele>
        <time>2024-12-30T19:41:16.181Z</time>
      </trkpt>
      <trkpt lat="48.62431" lon="2.08832">
        <ele>128.5</ele>
        <time>2024-12-30T19:41:19.876Z</time>
      </trkpt>
      <trkpt lat="48.62435" lon="2.08839">
        <ele>128.3</ele>
        <time>2024-12-30T19:41:23.571Z</time>
      </trkpt>
      <trkpt lat="48.62439" lon="2.08846">
        <ele>128.1</ele>
        <time>2024-12-30T19:41:27.266Z</time>
      </trkpt>
      <trkpt lat="48.62443" lon="2.08853">
        <ele>128</ele>
        <time>2024-12-30T19:41:30.961Z</time>
      </trkpt>
      <trkpt lat="48.62447" lon="2.0886">
        <ele>127.9</ele>
        <time>2024-12-30T19:41:34.656Z</time>
      </trkpt>
      <trkpt lat="48.62452" lon="2.08868">
        <ele>127.6</ele>
        <time>2024-12-30T19:41:38.351Z</time>
      </trkpt>
      <trkpt lat="48.62456" lon="2.08875">
        <ele>127.3</ele>
        <time>2024-12-30T19:41:42.046Z</time>
      </trkpt>
      <trkpt lat="48.6246" lon="2.08882">
        <ele>127.1</ele>
        <time>2024-12-30T19:41:45.741Z</time>
      </trkpt>
      <trkpt lat="48.62464" lon="2.08889">
        <ele>127</ele>
        <time>2024-12-30T19:41:49.436Z</time>
      </trkpt>
      <trkpt lat="48.62469" lon="2.08897">
        <ele>126.7</ele>
        <time>2024-12-30T19:41:53.762Z</time>
      </trkpt>
      <trkpt lat="48.62474" lon="2.08905">
        <ele>126.4</ele>
        <time>2024-12-30T19:41:58.088Z</time>
      </trkpt>
      <trkpt lat="48.62479" lon="2.08913">
        <ele>126.1</ele>
        <time>2024-12-30T19:42:02.414Z</time>
      </trkpt>
      <trkpt lat="48.62484" lon="2.08921">
        <ele>125.8</ele>
        <time>2024-12-30T19:42:06.740Z</time>
      </trkpt>
      <trkpt lat="48.62489" lon="2.08929">
        <ele>125.5</ele>
        <time>2024-12-30T19:42:11.066Z</time>
      </trkpt>
      <trkpt lat="48.62494" lon="2.08937">
        <ele>125.3</ele>
        <time>2024-12-30T19:42:15.392Z</time>
      </trkpt>
      <trkpt lat="48.62499" lon="2.08945">
        <ele>125</ele>
        <time>2024-12-30T19:42:19.718Z</time>
      </trkpt>
      <trkpt lat="48.62504" lon="2.08954">
        <ele>125</ele>
        <time>2024-12-30T19:42:24.044Z</time>
      </trkpt>
      <trkpt lat="48.62508" lon="2.08962">
        <ele>125</ele>
        <time>2024-12-30T19:42:28.370Z</time>
      </trkpt>
      <trkpt lat="48.62513" lon="2.0897">
        <ele>125</ele>
        <time>2024-12-30T19:42:32.696Z</time>
      </trkpt>
      <trkpt lat="48.62518" lon="2.08978">
        <ele>124.8</ele>
        <time>2024-12-30T19:42:37.022Z</time>
      </trkpt>
      <trkpt lat="48.62523" lon="2.08986">
        <ele>124.5</ele>
        <time>2024-12-30T19:42:41.349Z</time>
      </trkpt>
      <trkpt lat="48.62528" lon="2.08994">
        <ele>124.2</ele>
        <time>2024-12-30T19:42:45.676Z</time>
      </trkpt>
      <trkpt lat="48.62533" lon="2.09002">
        <ele>124</ele>
        <time>2024-12-30T19:42:50.003Z</time>
      </trkpt>
      <trkpt lat="48.62538" lon="2.0901">
        <ele>124</ele>
        <time>2024-12-30T19:42:54.330Z</time>
      </trkpt>
      <trkpt lat="48.62543" lon="2.09018">
        <ele>124</ele>
        <time>2024-12-30T19:42:58.657Z</time>
      </trkpt>
      <trkpt lat="48.62548" lon="2.09024">
        <ele>124</ele>
        <time>2024-12-30T19:43:02.595Z</time>
      </trkpt>
      <trkpt lat="48.62553" lon="2.09031">
        <ele>123.9</ele>
        <time>2024-12-30T19:43:06.533Z</time>
      </trkpt>
      <trkpt lat="48.62558" lon="2.09037">
        <ele>123.6</ele>
        <time>2024-12-30T19:43:10.471Z</time>
      </trkpt>
      <trkpt lat="48.62563" lon="2.09044">
        <ele>123.3</ele>
        <time>2024-12-30T19:43:14.409Z</time>
      </trkpt>
      <trkpt lat="48.62568" lon="2.0905">
        <ele>123.1</ele>
        <time>2024-12-30T19:43:18.347Z</time>
      </trkpt>
      <trkpt lat="48.62573" lon="2.09056">
        <ele>123</ele>
        <time>2024-12-30T19:43:22.285Z</time>
      </trkpt>
      <trkpt lat="48.62578" lon="2.09063">
        <ele>122.7</ele>
        <time>2024-12-30T19:43:26.224Z</time>
      </trkpt>
      <trkpt lat="48.62583" lon="2.09069">
        <ele>122.5</ele>
        <time>2024-12-30T19:43:30.163Z</time>
      </trkpt>
      <trkpt lat="48.62588" lon="2.09075">
        <ele>122.3</ele>
        <time>2024-12-30T19:43:34.102Z</time>
      </trkpt>
      <trkpt lat="48.62593" lon="2.09082">
        <ele>122.1</ele>
        <time>2024-12-30T19:43:38.041Z</time>
      </trkpt>
      <trkpt lat="48.62598" lon="2.09088">
        <ele>121.9</ele>
        <time>2024-12-30T19:43:41.980Z</time>
      </trkpt>
      <trkpt lat="48.62603" lon="2.09095">
        <ele>121.9</ele>
        <time>2024-12-30T19:43:45.919Z</time>
      </trkpt>
      <trkpt lat="48.62608" lon="2.09101">
        <ele>121.9</ele>
        <time>2024-12-30T19:43:49.858Z</time>
      </trkpt>
      <trkpt lat="48.62613" lon="2.09107">
        <ele>122</ele>
        <time>2024-12-30T19:43:53.797Z</time>
      </trkpt>
      <trkpt lat="48.62618" lon="2.09114">
        <ele>121.9</ele>
        <time>2024-12-30T19:43:57.736Z</time>
      </trkpt>
      <trkpt lat="48.62623" lon="2.0912">
        <ele>121.7</ele>
        <time>2024-12-30T19:44:01.675Z</time>
      </trkpt>
      <trkpt lat="48.62625" lon="2.0913">
        <ele>121.3</ele>
        <time>2024-12-30T19:44:05.566Z</time>
      </trkpt>
      <trkpt lat="48.62623" lon="2.09134">
        <ele>121.2</ele>
        <time>2024-12-30T19:44:07.515Z</time>
      </trkpt>
      <trkpt lat="48.62623" lon="2.09137">
        <ele>121.1</ele>
        <time>2024-12-30T19:44:08.632Z</time>
      </trkpt>
      <trkpt lat="48.62623" lon="2.09137">
        <ele>121.1</ele>
        <time>2024-12-30T19:44:08.632Z</time>
        <extensions>
          <visugpx:TrkExtension xmlns:visugpx="https://www.visugpx.com/editgpx/">
            <visugpx:node>45</visugpx:node>
            </visugpx:TrkExtension>
        </extensions>
      </trkpt>
      <trkpt lat="48.62623" lon="2.09149">
        <ele>120.6</ele>
        <time>2024-12-30T19:44:13.109Z</time>
      </trkpt>
      <trkpt lat="48.62622" lon="2.09161">
        <ele>120.2</ele>
        <time>2024-12-30T19:44:17.588Z</time>
      </trkpt>
      <trkpt lat="48.62623" lon="2.09174">
        <ele>120</ele>
        <time>2024-12-30T19:44:22.729Z</time>
      </trkpt>
      <trkpt lat="48.62625" lon="2.09186">
        <ele>120</ele>
        <time>2024-12-30T19:44:27.870Z</time>
      </trkpt>
      <trkpt lat="48.62626" lon="2.09199">
        <ele>119.9</ele>
        <time>2024-12-30T19:44:33.011Z</time>
      </trkpt>
      <trkpt lat="48.62627" lon="2.09211">
        <ele>119.7</ele>
        <time>2024-12-30T19:44:38.152Z</time>
      </trkpt>
      <trkpt lat="48.62629" lon="2.09223">
        <ele>119.4</ele>
        <time>2024-12-30T19:44:43.236Z</time>
      </trkpt>
      <trkpt lat="48.62631" lon="2.09235">
        <ele>119.4</ele>
        <time>2024-12-30T19:44:48.320Z</time>
      </trkpt>
      <trkpt lat="48.62632" lon="2.09247">
        <ele>119.4</ele>
        <time>2024-12-30T19:44:53.405Z</time>
      </trkpt>
      <trkpt lat="48.62634" lon="2.09259">
        <ele>119.4</ele>
        <time>2024-12-30T19:44:58.490Z</time>
      </trkpt>
      <trkpt lat="48.62637" lon="2.09271">
        <ele>119.1</ele>
        <time>2024-12-30T19:45:03.375Z</time>
      </trkpt>
      <trkpt lat="48.6264" lon="2.09282">
        <ele>119</ele>
        <time>2024-12-30T19:45:08.261Z</time>
      </trkpt>
      <trkpt lat="48.62641" lon="2.09289">
        <ele>119</ele>
        <time>2024-12-30T19:45:11.069Z</time>
      </trkpt>
      <trkpt lat="48.62643" lon="2.09295">
        <ele>118.9</ele>
        <time>2024-12-30T19:45:13.877Z</time>
      </trkpt>
      <trkpt lat="48.62644" lon="2.09302">
        <ele>118.8</ele>
        <time>2024-12-30T19:45:16.685Z</time>
      </trkpt>
      <trkpt lat="48.62646" lon="2.09308">
        <ele>118.8</ele>
        <time>2024-12-30T19:45:19.493Z</time>
      </trkpt>
      <trkpt lat="48.62647" lon="2.09315">
        <ele>118.7</ele>
        <time>2024-12-30T19:45:22.301Z</time>
      </trkpt>
      <trkpt lat="48.62648" lon="2.09321">
        <ele>118.7</ele>
        <time>2024-12-30T19:45:25.109Z</time>
      </trkpt>
      <trkpt lat="48.6265" lon="2.09328">
        <ele>118.6</ele>
        <time>2024-12-30T19:45:27.917Z</time>
      </trkpt>
      <trkpt lat="48.62651" lon="2.09334">
        <ele>118.6</ele>
        <time>2024-12-30T19:45:30.725Z</time>
      </trkpt>
      <trkpt lat="48.62654" lon="2.09342">
        <ele>118.5</ele>
        <time>2024-12-30T19:45:34.466Z</time>
      </trkpt>
      <trkpt lat="48.62657" lon="2.09351">
        <ele>118.4</ele>
        <time>2024-12-30T19:45:38.207Z</time>
      </trkpt>
      <trkpt lat="48.62659" lon="2.09359">
        <ele>118.3</ele>
        <time>2024-12-30T19:45:41.948Z</time>
      </trkpt>
      <trkpt lat="48.62662" lon="2.09367">
        <ele>118.2</ele>
        <time>2024-12-30T19:45:45.690Z</time>
      </trkpt>
      <trkpt lat="48.62665" lon="2.09373">
        <ele>118.1</ele>
        <time>2024-12-30T19:45:48.430Z</time>
      </trkpt>
      <trkpt lat="48.62667" lon="2.09379">
        <ele>118</ele>
        <time>2024-12-30T19:45:51.170Z</time>
      </trkpt>
      <trkpt lat="48.6267" lon="2.09384">
        <ele>117.9</ele>
        <time>2024-12-30T19:45:53.910Z</time>
      </trkpt>
      <trkpt lat="48.62672" lon="2.0939">
        <ele>117.8</ele>
        <time>2024-12-30T19:45:56.651Z</time>
      </trkpt>
      <trkpt lat="48.62675" lon="2.09397">
        <ele>117.7</ele>
        <time>2024-12-30T19:45:59.991Z</time>
      </trkpt>
      <trkpt lat="48.62679" lon="2.09404">
        <ele>117.6</ele>
        <time>2024-12-30T19:46:03.331Z</time>
      </trkpt>
      <trkpt lat="48.62682" lon="2.0941">
        <ele>117.5</ele>
        <time>2024-12-30T19:46:06.672Z</time>
      </trkpt>
      <trkpt lat="48.62685" lon="2.09417">
        <ele>117.3</ele>
        <time>2024-12-30T19:46:10.013Z</time>
      </trkpt>
      <trkpt lat="48.62688" lon="2.09424">
        <ele>117.2</ele>
        <time>2024-12-30T19:46:13.354Z</time>
      </trkpt>
      <trkpt lat="48.62692" lon="2.09431">
        <ele>117.1</ele>
        <time>2024-12-30T19:46:16.695Z</time>
      </trkpt>
      <trkpt lat="48.62695" lon="2.09437">
        <ele>117</ele>
        <time>2024-12-30T19:46:20.036Z</time>
      </trkpt>
      <trkpt lat="48.62698" lon="2.09444">
        <ele>116.9</ele>
        <time>2024-12-30T19:46:23.377Z</time>
      </trkpt>
      <trkpt lat="48.62704" lon="2.09454">
        <ele>116.7</ele>
        <time>2024-12-30T19:46:28.455Z</time>
      </trkpt>
      <trkpt lat="48.62709" lon="2.09464">
        <ele>116.5</ele>
        <time>2024-12-30T19:46:33.534Z</time>
      </trkpt>
      <trkpt lat="48.62715" lon="2.09473">
        <ele>116.3</ele>
        <time>2024-12-30T19:46:38.613Z</time>
      </trkpt>
      <trkpt lat="48.6272" lon="2.09483">
        <ele>116.1</ele>
        <time>2024-12-30T19:46:43.692Z</time>
      </trkpt>
      <trkpt lat="48.62723" lon="2.0949">
        <ele>116</ele>
        <time>2024-12-30T19:46:47.183Z</time>
      </trkpt>
      <trkpt lat="48.62727" lon="2.09498">
        <ele>115.8</ele>
        <time>2024-12-30T19:46:50.675Z</time>
      </trkpt>
      <trkpt lat="48.6273" lon="2.09505">
        <ele>115.7</ele>
        <time>2024-12-30T19:46:54.167Z</time>
      </trkpt>
      <trkpt lat="48.62733" lon="2.09512">
        <ele>115.6</ele>
        <time>2024-12-30T19:46:57.659Z</time>
      </trkpt>
      <trkpt lat="48.62732" lon="2.09515">
        <ele>115.6</ele>
        <time>2024-12-30T19:46:59.089Z</time>
      </trkpt>
      <trkpt lat="48.62734" lon="2.09524">
        <ele>115.6</ele>
        <time>2024-12-30T19:47:02.984Z</time>
      </trkpt>
      <trkpt lat="48.62736" lon="2.09533">
        <ele>115.5</ele>
        <time>2024-12-30T19:47:06.879Z</time>
      </trkpt>
      <trkpt lat="48.62737" lon="2.09542">
        <ele>115.5</ele>
        <time>2024-12-30T19:47:10.775Z</time>
      </trkpt>
      <trkpt lat="48.62739" lon="2.09551">
        <ele>115.4</ele>
        <time>2024-12-30T19:47:14.671Z</time>
      </trkpt>
      <trkpt lat="48.62739" lon="2.09561">
        <ele>115.4</ele>
        <time>2024-12-30T19:47:18.668Z</time>
      </trkpt>
      <trkpt lat="48.6274" lon="2.0957">
        <ele>115.4</ele>
        <time>2024-12-30T19:47:22.665Z</time>
      </trkpt>
      <trkpt lat="48.6274" lon="2.0958">
        <ele>115.4</ele>
        <time>2024-12-30T19:47:26.662Z</time>
      </trkpt>
      <trkpt lat="48.6274" lon="2.09589">
        <ele>115.3</ele>
        <time>2024-12-30T19:47:30.660Z</time>
      </trkpt>
      <trkpt lat="48.6274" lon="2.09598">
        <ele>115.2</ele>
        <time>2024-12-30T19:47:34.101Z</time>
      </trkpt>
      <trkpt lat="48.62739" lon="2.09606">
        <ele>115.1</ele>
        <time>2024-12-30T19:47:37.543Z</time>
      </trkpt>
      <trkpt lat="48.62737" lon="2.09613">
        <ele>115</ele>
        <time>2024-12-30T19:47:40.538Z</time>
      </trkpt>
      <trkpt lat="48.62736" lon="2.0962">
        <ele>114.8</ele>
        <time>2024-12-30T19:47:43.533Z</time>
      </trkpt>
      <trkpt lat="48.62734" lon="2.09627">
        <ele>114.8</ele>
        <time>2024-12-30T19:47:46.528Z</time>
      </trkpt>
      <trkpt lat="48.62732" lon="2.09634">
        <ele>114.7</ele>
        <time>2024-12-30T19:47:49.524Z</time>
      </trkpt>
      <trkpt lat="48.62728" lon="2.09645">
        <ele>114.8</ele>
        <time>2024-12-30T19:47:55.071Z</time>
      </trkpt>
      <trkpt lat="48.62724" lon="2.09653">
        <ele>115</ele>
        <time>2024-12-30T19:47:59.724Z</time>
      </trkpt>
      <trkpt lat="48.62719" lon="2.09662">
        <ele>115.1</ele>
        <time>2024-12-30T19:48:04.377Z</time>
      </trkpt>
      <trkpt lat="48.62715" lon="2.0967">
        <ele>115.2</ele>
        <time>2024-12-30T19:48:09.030Z</time>
      </trkpt>
      <trkpt lat="48.6271" lon="2.09678">
        <ele>115</ele>
        <time>2024-12-30T19:48:13.684Z</time>
      </trkpt>
      <trkpt lat="48.62707" lon="2.09687">
        <ele>114.8</ele>
        <time>2024-12-30T19:48:17.844Z</time>
      </trkpt>
      <trkpt lat="48.62703" lon="2.09696">
        <ele>114.6</ele>
        <time>2024-12-30T19:48:22.004Z</time>
      </trkpt>
      <trkpt lat="48.627" lon="2.09705">
        <ele>114.5</ele>
        <time>2024-12-30T19:48:26.164Z</time>
      </trkpt>
      <trkpt lat="48.62696" lon="2.09714">
        <ele>114.3</ele>
        <time>2024-12-30T19:48:30.324Z</time>
      </trkpt>
      <trkpt lat="48.62693" lon="2.09722">
        <ele>114.1</ele>
        <time>2024-12-30T19:48:34.484Z</time>
      </trkpt>
      <trkpt lat="48.62689" lon="2.09731">
        <ele>114.1</ele>
        <time>2024-12-30T19:48:38.644Z</time>
      </trkpt>
      <trkpt lat="48.62686" lon="2.0974">
        <ele>114.1</ele>
        <time>2024-12-30T19:48:42.805Z</time>
      </trkpt>
      <trkpt lat="48.62682" lon="2.09749">
        <ele>114</ele>
        <time>2024-12-30T19:48:46.967Z</time>
      </trkpt>
      <trkpt lat="48.6268" lon="2.09748">
        <ele>114</ele>
        <time>2024-12-30T19:48:48.324Z</time>
      </trkpt>
      <trkpt lat="48.6268" lon="2.09748">
        <ele>114</ele>
        <time>2024-12-30T19:48:48.324Z</time>
        <extensions>
          <visugpx:TrkExtension xmlns:visugpx="https://www.visugpx.com/editgpx/">
            <visugpx:node>46</visugpx:node>
            </visugpx:TrkExtension>
        </extensions>
      </trkpt>
      <trkpt lat="48.6268" lon="2.09748">
        <ele>114</ele>
        <time>2024-12-30T19:48:48.324Z</time>
      </trkpt>
      <trkpt lat="48.62682" lon="2.09749">
        <ele>114</ele>
        <time>2024-12-30T19:48:49.680Z</time>
      </trkpt>
      <trkpt lat="48.62688" lon="2.09756">
        <ele>113.9</ele>
        <time>2024-12-30T19:48:53.801Z</time>
      </trkpt>
      <trkpt lat="48.62693" lon="2.09762">
        <ele>113.6</ele>
        <time>2024-12-30T19:48:57.922Z</time>
      </trkpt>
      <trkpt lat="48.62698" lon="2.09765">
        <ele>113.4</ele>
        <time>2024-12-30T19:49:01.019Z</time>
      </trkpt>
      <trkpt lat="48.62705" lon="2.0977">
        <ele>113.2</ele>
        <time>2024-12-30T19:49:05.527Z</time>
      </trkpt>
      <trkpt lat="48.62712" lon="2.09775">
        <ele>113</ele>
        <time>2024-12-30T19:49:10.036Z</time>
      </trkpt>
      <trkpt lat="48.62718" lon="2.0978">
        <ele>112.9</ele>
        <time>2024-12-30T19:49:14.545Z</time>
      </trkpt>
      <trkpt lat="48.62725" lon="2.09785">
        <ele>112.7</ele>
        <time>2024-12-30T19:49:19.054Z</time>
      </trkpt>
      <trkpt lat="48.62732" lon="2.09789">
        <ele>112.4</ele>
        <time>2024-12-30T19:49:23.563Z</time>
      </trkpt>
      <trkpt lat="48.62739" lon="2.09794">
        <ele>112.2</ele>
        <time>2024-12-30T19:49:28.072Z</time>
      </trkpt>
      <trkpt lat="48.62745" lon="2.09799">
        <ele>112</ele>
        <time>2024-12-30T19:49:32.581Z</time>
      </trkpt>
      <trkpt lat="48.62752" lon="2.09804">
        <ele>112.1</ele>
        <time>2024-12-30T19:49:37.090Z</time>
      </trkpt>
      <trkpt lat="48.62759" lon="2.0981">
        <ele>112.3</ele>
        <time>2024-12-30T19:49:42.843Z</time>
      </trkpt>
      <trkpt lat="48.62765" lon="2.09815">
        <ele>112.7</ele>
        <time>2024-12-30T19:49:48.596Z</time>
      </trkpt>
      <trkpt lat="48.62772" lon="2.09821">
        <ele>113.2</ele>
        <time>2024-12-30T19:49:54.350Z</time>
      </trkpt>
      <trkpt lat="48.62778" lon="2.09826">
        <ele>113.8</ele>
        <time>2024-12-30T19:50:00.104Z</time>
      </trkpt>
      <trkpt lat="48.62783" lon="2.09831">
        <ele>114.3</ele>
        <time>2024-12-30T19:50:05.163Z</time>
      </trkpt>
      <trkpt lat="48.62789" lon="2.09836">
        <ele>114.8</ele>
        <time>2024-12-30T19:50:10.764Z</time>
      </trkpt>
      <trkpt lat="48.62796" lon="2.09841">
        <ele>115.3</ele>
        <time>2024-12-30T19:50:16.366Z</time>
      </trkpt>
      <trkpt lat="48.62802" lon="2.09845">
        <ele>115.7</ele>
        <time>2024-12-30T19:50:21.968Z</time>
      </trkpt>
      <trkpt lat="48.62808" lon="2.0985">
        <ele>116.2</ele>
        <time>2024-12-30T19:50:27.570Z</time>
      </trkpt>
      <trkpt lat="48.62815" lon="2.09856">
        <ele>116.6</ele>
        <time>2024-12-30T19:50:33.388Z</time>
      </trkpt>
      <trkpt lat="48.62821" lon="2.09861">
        <ele>117.1</ele>
        <time>2024-12-30T19:50:39.206Z</time>
      </trkpt>
      <trkpt lat="48.62828" lon="2.09866">
        <ele>117.7</ele>
        <time>2024-12-30T19:50:45.397Z</time>
      </trkpt>
      <trkpt lat="48.62834" lon="2.0987">
        <ele>118.4</ele>
        <time>2024-12-30T19:50:51.588Z</time>
      </trkpt>
      <trkpt lat="48.62842" lon="2.09875">
        <ele>119.6</ele>
        <time>2024-12-30T19:51:00.470Z</time>
      </trkpt>
      <trkpt lat="48.62847" lon="2.09878">
        <ele>120.2</ele>
        <time>2024-12-30T19:51:05.282Z</time>
      </trkpt>
      <trkpt lat="48.62852" lon="2.0988">
        <ele>120.9</ele>
        <time>2024-12-30T19:51:10.094Z</time>
      </trkpt>
      <trkpt lat="48.62856" lon="2.09883">
        <ele>121.4</ele>
        <time>2024-12-30T19:51:14.906Z</time>
      </trkpt>
      <trkpt lat="48.62861" lon="2.09885">
        <ele>122</ele>
        <time>2024-12-30T19:51:19.718Z</time>
      </trkpt>
      <trkpt lat="48.62865" lon="2.09887">
        <ele>122.1</ele>
        <time>2024-12-30T19:51:22.640Z</time>
      </trkpt>
      <trkpt lat="48.6287" lon="2.09891">
        <ele>122.3</ele>
        <time>2024-12-30T19:51:26.711Z</time>
        <extensions>
          <visugpx:TrkExtension xmlns:visugpx="https://www.visugpx.com/editgpx/">
            <visugpx:node>47</visugpx:node>
            </visugpx:TrkExtension>
        </extensions>
      </trkpt>
      <trkpt lat="48.6287" lon="2.09891">
        <ele>122.3</ele>
        <time>2024-12-30T19:51:26.711Z</time>
      </trkpt>
      <trkpt lat="48.6287" lon="2.09891">
        <ele>122.3</ele>
        <time>2024-12-30T19:51:26.711Z</time>
      </trkpt>
      <trkpt lat="48.62875" lon="2.09888">
        <ele>122.5</ele>
        <time>2024-12-30T19:51:30.479Z</time>
      </trkpt>
      <trkpt lat="48.62879" lon="2.09884">
        <ele>122.8</ele>
        <time>2024-12-30T19:51:34.247Z</time>
      </trkpt>
      <trkpt lat="48.62884" lon="2.09881">
        <ele>123.1</ele>
        <time>2024-12-30T19:51:38.015Z</time>
      </trkpt>
      <trkpt lat="48.62889" lon="2.09878">
        <ele>123.4</ele>
        <time>2024-12-30T19:51:41.783Z</time>
      </trkpt>
      <trkpt lat="48.62893" lon="2.09874">
        <ele>123.6</ele>
        <time>2024-12-30T19:51:45.551Z</time>
      </trkpt>
      <trkpt lat="48.62898" lon="2.09871">
        <ele>123.8</ele>
        <time>2024-12-30T19:51:49.319Z</time>
      </trkpt>
      <trkpt lat="48.62902" lon="2.09867">
        <ele>123.9</ele>
        <time>2024-12-30T19:51:53.088Z</time>
      </trkpt>
      <trkpt lat="48.62907" lon="2.09864">
        <ele>124</ele>
        <time>2024-12-30T19:51:56.857Z</time>
      </trkpt>
      <trkpt lat="48.62913" lon="2.09867">
        <ele>124</ele>
        <time>2024-12-30T19:52:00.926Z</time>
      </trkpt>
      <trkpt lat="48.62919" lon="2.09868">
        <ele>124.1</ele>
        <time>2024-12-30T19:52:05.019Z</time>
      </trkpt>
      <trkpt lat="48.62923" lon="2.09862">
        <ele>124.4</ele>
        <time>2024-12-30T19:52:09.316Z</time>
      </trkpt>
      <trkpt lat="48.62926" lon="2.09855">
        <ele>124.5</ele>
        <time>2024-12-30T19:52:13.073Z</time>
      </trkpt>
      <trkpt lat="48.62934" lon="2.09854">
        <ele>124.9</ele>
        <time>2024-12-30T19:52:18.408Z</time>
      </trkpt>
      <trkpt lat="48.62941" lon="2.09853">
        <ele>125.2</ele>
        <time>2024-12-30T19:52:23.743Z</time>
      </trkpt>
      <trkpt lat="48.62949" lon="2.09851">
        <ele>125.3</ele>
        <time>2024-12-30T19:52:29.078Z</time>
      </trkpt>
      <trkpt lat="48.62956" lon="2.0985">
        <ele>125.4</ele>
        <time>2024-12-30T19:52:34.413Z</time>
        <extensions>
          <visugpx:TrkExtension xmlns:visugpx="https://www.visugpx.com/editgpx/">
            <visugpx:node>48</visugpx:node>
            </visugpx:TrkExtension>
        </extensions>
      </trkpt>
      <trkpt lat="48.62962" lon="2.09849">
        <ele>125.4</ele>
        <time>2024-12-30T19:52:37.969Z</time>
      </trkpt>
      <trkpt lat="48.62967" lon="2.09849">
        <ele>125.5</ele>
        <time>2024-12-30T19:52:41.525Z</time>
      </trkpt>
      <trkpt lat="48.62973" lon="2.09848">
        <ele>125.5</ele>
        <time>2024-12-30T19:52:45.081Z</time>
      </trkpt>
      <trkpt lat="48.62978" lon="2.09847">
        <ele>125.5</ele>
        <time>2024-12-30T19:52:48.637Z</time>
      </trkpt>
      <trkpt lat="48.62984" lon="2.09846">
        <ele>125.5</ele>
        <time>2024-12-30T19:52:52.193Z</time>
      </trkpt>
      <trkpt lat="48.62989" lon="2.09846">
        <ele>125.4</ele>
        <time>2024-12-30T19:52:55.749Z</time>
      </trkpt>
      <trkpt lat="48.62995" lon="2.09845">
        <ele>125.4</ele>
        <time>2024-12-30T19:52:59.305Z</time>
      </trkpt>
      <trkpt lat="48.63" lon="2.09844">
        <ele>125.4</ele>
        <time>2024-12-30T19:53:02.861Z</time>
      </trkpt>
      <trkpt lat="48.63008" lon="2.09842">
        <ele>125.5</ele>
        <time>2024-12-30T19:53:08.010Z</time>
      </trkpt>
      <trkpt lat="48.63015" lon="2.09839">
        <ele>125.6</ele>
        <time>2024-12-30T19:53:13.160Z</time>
      </trkpt>
      <trkpt lat="48.63021" lon="2.09839">
        <ele>125.8</ele>
        <time>2024-12-30T19:53:17.075Z</time>
      </trkpt>
      <trkpt lat="48.63026" lon="2.0984">
        <ele>126</ele>
        <time>2024-12-30T19:53:20.990Z</time>
      </trkpt>
      <trkpt lat="48.63032" lon="2.0984">
        <ele>126.1</ele>
        <time>2024-12-30T19:53:24.905Z</time>
      </trkpt>
      <trkpt lat="48.63037" lon="2.0984">
        <ele>126.3</ele>
        <time>2024-12-30T19:53:28.821Z</time>
        <extensions>
          <visugpx:TrkExtension xmlns:visugpx="https://www.visugpx.com/editgpx/">
            <visugpx:node>49</visugpx:node>
            </visugpx:TrkExtension>
        </extensions>
      </trkpt>
      <trkpt lat="48.63043" lon="2.0984">
        <ele>126.5</ele>
        <time>2024-12-30T19:53:32.792Z</time>
      </trkpt>
      <trkpt lat="48.63048" lon="2.0984">
        <ele>126.7</ele>
        <time>2024-12-30T19:53:36.764Z</time>
      </trkpt>
      <trkpt lat="48.63051" lon="2.09846">
        <ele>126.8</ele>
        <time>2024-12-30T19:53:40.173Z</time>
      </trkpt>
      <trkpt lat="48.63055" lon="2.09848">
        <ele>127</ele>
        <time>2024-12-30T19:53:43.327Z</time>
      </trkpt>
      <trkpt lat="48.63059" lon="2.09847">
        <ele>127.2</ele>
        <time>2024-12-30T19:53:46.380Z</time>
      </trkpt>
      <trkpt lat="48.63062" lon="2.09842">
        <ele>127.5</ele>
        <time>2024-12-30T19:53:49.946Z</time>
      </trkpt>
      <trkpt lat="48.63069" lon="2.09842">
        <ele>127.9</ele>
        <time>2024-12-30T19:53:55.180Z</time>
      </trkpt>
      <trkpt lat="48.63075" lon="2.09841">
        <ele>128.4</ele>
        <time>2024-12-30T19:54:00.415Z</time>
      </trkpt>
      <trkpt lat="48.63083" lon="2.09844">
        <ele>128.9</ele>
        <time>2024-12-30T19:54:06.128Z</time>
      </trkpt>
      <trkpt lat="48.6309" lon="2.09846">
        <ele>129.2</ele>
        <time>2024-12-30T19:54:11.841Z</time>
      </trkpt>
      <trkpt lat="48.63098" lon="2.09849">
        <ele>129.5</ele>
        <time>2024-12-30T19:54:17.554Z</time>
      </trkpt>
      <trkpt lat="48.63105" lon="2.09851">
        <ele>129.8</ele>
        <time>2024-12-30T19:54:23.268Z</time>
      </trkpt>
      <trkpt lat="48.6311" lon="2.09853">
        <ele>129.9</ele>
        <time>2024-12-30T19:54:26.811Z</time>
      </trkpt>
      <trkpt lat="48.63114" lon="2.09856">
        <ele>130.1</ele>
        <time>2024-12-30T19:54:30.355Z</time>
      </trkpt>
      <trkpt lat="48.63119" lon="2.09858">
        <ele>130.3</ele>
        <time>2024-12-30T19:54:33.899Z</time>
      </trkpt>
      <trkpt lat="48.63124" lon="2.09861">
        <ele>130.5</ele>
        <time>2024-12-30T19:54:37.443Z</time>
      </trkpt>
      <trkpt lat="48.63128" lon="2.09863">
        <ele>130.6</ele>
        <time>2024-12-30T19:54:40.987Z</time>
      </trkpt>
      <trkpt lat="48.63133" lon="2.09865">
        <ele>130.8</ele>
        <time>2024-12-30T19:54:44.531Z</time>
      </trkpt>
      <trkpt lat="48.63138" lon="2.09868">
        <ele>131</ele>
        <time>2024-12-30T19:54:48.075Z</time>
      </trkpt>
      <trkpt lat="48.63143" lon="2.0987">
        <ele>131.1</ele>
        <time>2024-12-30T19:54:51.619Z</time>
      </trkpt>
      <trkpt lat="48.63147" lon="2.09872">
        <ele>131.3</ele>
        <time>2024-12-30T19:54:55.163Z</time>
      </trkpt>
      <trkpt lat="48.63152" lon="2.09875">
        <ele>131.5</ele>
        <time>2024-12-30T19:54:58.707Z</time>
      </trkpt>
      <trkpt lat="48.63157" lon="2.09877">
        <ele>131.6</ele>
        <time>2024-12-30T19:55:02.251Z</time>
      </trkpt>
      <trkpt lat="48.63161" lon="2.0988">
        <ele>131.8</ele>
        <time>2024-12-30T19:55:05.795Z</time>
      </trkpt>
      <trkpt lat="48.63166" lon="2.09882">
        <ele>132</ele>
        <time>2024-12-30T19:55:09.339Z</time>
      </trkpt>
      <trkpt lat="48.63171" lon="2.09884">
        <ele>132.1</ele>
        <time>2024-12-30T19:55:12.883Z</time>
      </trkpt>
      <trkpt lat="48.63175" lon="2.09887">
        <ele>132.3</ele>
        <time>2024-12-30T19:55:16.427Z</time>
      </trkpt>
      <trkpt lat="48.6318" lon="2.09889">
        <ele>132.5</ele>
        <time>2024-12-30T19:55:19.971Z</time>
      </trkpt>
      <trkpt lat="48.63185" lon="2.09892">
        <ele>132.6</ele>
        <time>2024-12-30T19:55:23.480Z</time>
      </trkpt>
      <trkpt lat="48.63189" lon="2.09894">
        <ele>132.8</ele>
        <time>2024-12-30T19:55:26.989Z</time>
      </trkpt>
      <trkpt lat="48.63194" lon="2.09897">
        <ele>133</ele>
        <time>2024-12-30T19:55:30.498Z</time>
      </trkpt>
      <trkpt lat="48.63199" lon="2.09899">
        <ele>133.1</ele>
        <time>2024-12-30T19:55:34.007Z</time>
      </trkpt>
      <trkpt lat="48.63203" lon="2.09902">
        <ele>133.3</ele>
        <time>2024-12-30T19:55:37.516Z</time>
      </trkpt>
      <trkpt lat="48.63208" lon="2.09904">
        <ele>133.5</ele>
        <time>2024-12-30T19:55:41.025Z</time>
      </trkpt>
      <trkpt lat="48.63212" lon="2.09907">
        <ele>133.6</ele>
        <time>2024-12-30T19:55:44.534Z</time>
      </trkpt>
      <trkpt lat="48.63217" lon="2.09909">
        <ele>133.8</ele>
        <time>2024-12-30T19:55:48.044Z</time>
      </trkpt>
      <trkpt lat="48.63221" lon="2.09911">
        <ele>134</ele>
        <time>2024-12-30T19:55:51.794Z</time>
      </trkpt>
      <trkpt lat="48.63226" lon="2.09914">
        <ele>134.3</ele>
        <time>2024-12-30T19:55:55.544Z</time>
      </trkpt>
      <trkpt lat="48.6323" lon="2.09916">
        <ele>134.6</ele>
        <time>2024-12-30T19:55:59.294Z</time>
      </trkpt>
      <trkpt lat="48.63235" lon="2.09919">
        <ele>134.9</ele>
        <time>2024-12-30T19:56:03.044Z</time>
      </trkpt>
      <trkpt lat="48.63239" lon="2.09921">
        <ele>135.2</ele>
        <time>2024-12-30T19:56:06.795Z</time>
      </trkpt>
      <trkpt lat="48.63244" lon="2.09923">
        <ele>135.5</ele>
        <time>2024-12-30T19:56:10.546Z</time>
      </trkpt>
      <trkpt lat="48.63248" lon="2.09926">
        <ele>135.9</ele>
        <time>2024-12-30T19:56:14.297Z</time>
      </trkpt>
      <trkpt lat="48.63253" lon="2.09928">
        <ele>136.1</ele>
        <time>2024-12-30T19:56:18.048Z</time>
      </trkpt>
      <trkpt lat="48.63257" lon="2.0993">
        <ele>136.4</ele>
        <time>2024-12-30T19:56:21.799Z</time>
      </trkpt>
      <trkpt lat="48.63261" lon="2.09933">
        <ele>136.6</ele>
        <time>2024-12-30T19:56:25.550Z</time>
      </trkpt>
      <trkpt lat="48.63266" lon="2.09935">
        <ele>136.9</ele>
        <time>2024-12-30T19:56:29.301Z</time>
      </trkpt>
      <trkpt lat="48.6327" lon="2.09938">
        <ele>137.3</ele>
        <time>2024-12-30T19:56:33.052Z</time>
      </trkpt>
      <trkpt lat="48.63275" lon="2.0994">
        <ele>137.6</ele>
        <time>2024-12-30T19:56:36.803Z</time>
      </trkpt>
      <trkpt lat="48.63279" lon="2.09942">
        <ele>138</ele>
        <time>2024-12-30T19:56:40.554Z</time>
      </trkpt>
      <trkpt lat="48.63284" lon="2.09945">
        <ele>138.4</ele>
        <time>2024-12-30T19:56:44.305Z</time>
      </trkpt>
      <trkpt lat="48.63288" lon="2.09947">
        <ele>138.8</ele>
        <time>2024-12-30T19:56:48.056Z</time>
      </trkpt>
      <trkpt lat="48.63293" lon="2.09949">
        <ele>139.2</ele>
        <time>2024-12-30T19:56:52.162Z</time>
      </trkpt>
      <trkpt lat="48.63297" lon="2.09951">
        <ele>139.7</ele>
        <time>2024-12-30T19:56:56.269Z</time>
      </trkpt>
      <trkpt lat="48.63302" lon="2.09953">
        <ele>140.1</ele>
        <time>2024-12-30T19:57:00.376Z</time>
      </trkpt>
      <trkpt lat="48.63307" lon="2.09956">
        <ele>140.5</ele>
        <time>2024-12-30T19:57:04.483Z</time>
      </trkpt>
      <trkpt lat="48.63311" lon="2.09958">
        <ele>140.9</ele>
        <time>2024-12-30T19:57:08.590Z</time>
      </trkpt>
      <trkpt lat="48.63316" lon="2.0996">
        <ele>141.3</ele>
        <time>2024-12-30T19:57:12.697Z</time>
      </trkpt>
      <trkpt lat="48.6332" lon="2.09962">
        <ele>141.7</ele>
        <time>2024-12-30T19:57:16.804Z</time>
      </trkpt>
      <trkpt lat="48.63325" lon="2.09964">
        <ele>142.1</ele>
        <time>2024-12-30T19:57:20.911Z</time>
      </trkpt>
      <trkpt lat="48.63331" lon="2.09967">
        <ele>142.6</ele>
        <time>2024-12-30T19:57:26.167Z</time>
      </trkpt>
      <trkpt lat="48.6334" lon="2.09971">
        <ele>143.2</ele>
        <time>2024-12-30T19:57:32.965Z</time>
      </trkpt>
      <trkpt lat="48.63348" lon="2.09974">
        <ele>143.6</ele>
        <time>2024-12-30T19:57:39.764Z</time>
      </trkpt>
      <trkpt lat="48.63355" lon="2.09976">
        <ele>143.9</ele>
        <time>2024-12-30T19:57:45.346Z</time>
      </trkpt>
      <trkpt lat="48.63362" lon="2.09977">
        <ele>144.2</ele>
        <time>2024-12-30T19:57:50.928Z</time>
      </trkpt>
      <trkpt lat="48.63369" lon="2.09979">
        <ele>144.8</ele>
        <time>2024-12-30T19:57:56.510Z</time>
      </trkpt>
      <trkpt lat="48.63376" lon="2.0998">
        <ele>145.4</ele>
        <time>2024-12-30T19:58:02.093Z</time>
      </trkpt>
      <trkpt lat="48.63383" lon="2.0998">
        <ele>145.9</ele>
        <time>2024-12-30T19:58:06.845Z</time>
      </trkpt>
      <trkpt lat="48.6339" lon="2.0998">
        <ele>146.3</ele>
        <time>2024-12-30T19:58:11.597Z</time>
      </trkpt>
      <trkpt lat="48.63397" lon="2.0998">
        <ele>146.6</ele>
        <time>2024-12-30T19:58:16.349Z</time>
      </trkpt>
      <trkpt lat="48.63404" lon="2.09981">
        <ele>146.9</ele>
        <time>2024-12-30T19:58:21.101Z</time>
      </trkpt>
      <trkpt lat="48.63411" lon="2.09981">
        <ele>147.1</ele>
        <time>2024-12-30T19:58:25.853Z</time>
      </trkpt>
      <trkpt lat="48.63418" lon="2.09981">
        <ele>147.3</ele>
        <time>2024-12-30T19:58:30.605Z</time>
      </trkpt>
      <trkpt lat="48.63425" lon="2.09981">
        <ele>147.5</ele>
        <time>2024-12-30T19:58:35.358Z</time>
      </trkpt>
      <trkpt lat="48.63433" lon="2.09981">
        <ele>147.7</ele>
        <time>2024-12-30T19:58:40.111Z</time>
      </trkpt>
      <trkpt lat="48.6344" lon="2.09981">
        <ele>147.9</ele>
        <time>2024-12-30T19:58:44.864Z</time>
      </trkpt>
      <trkpt lat="48.63447" lon="2.09981">
        <ele>148</ele>
        <time>2024-12-30T19:58:49.617Z</time>
      </trkpt>
      <trkpt lat="48.63454" lon="2.09981">
        <ele>147.9</ele>
        <time>2024-12-30T19:58:54.370Z</time>
      </trkpt>
      <trkpt lat="48.63461" lon="2.09982">
        <ele>147.8</ele>
        <time>2024-12-30T19:58:59.123Z</time>
      </trkpt>
      <trkpt lat="48.63468" lon="2.09982">
        <ele>147.7</ele>
        <time>2024-12-30T19:59:03.876Z</time>
      </trkpt>
      <trkpt lat="48.63475" lon="2.09982">
        <ele>147.6</ele>
        <time>2024-12-30T19:59:08.629Z</time>
      </trkpt>
      <trkpt lat="48.63482" lon="2.09982">
        <ele>147.3</ele>
        <time>2024-12-30T19:59:13.382Z</time>
      </trkpt>
      <trkpt lat="48.63489" lon="2.09982">
        <ele>147</ele>
        <time>2024-12-30T19:59:18.135Z</time>
      </trkpt>
      <trkpt lat="48.63491" lon="2.09986">
        <ele>146.8</ele>
        <time>2024-12-30T19:59:20.002Z</time>
      </trkpt>
      <trkpt lat="48.63493" lon="2.09987">
        <ele>146.7</ele>
        <time>2024-12-30T19:59:21.189Z</time>
      </trkpt>
      <trkpt lat="48.63496" lon="2.09986">
        <ele>146.6</ele>
        <time>2024-12-30T19:59:22.982Z</time>
      </trkpt>
      <trkpt lat="48.63498" lon="2.0999">
        <ele>146.4</ele>
        <time>2024-12-30T19:59:24.850Z</time>
      </trkpt>
      <trkpt lat="48.63504" lon="2.09993">
        <ele>146.1</ele>
        <time>2024-12-30T19:59:28.410Z</time>
      </trkpt>
      <trkpt lat="48.63511" lon="2.09993">
        <ele>145.8</ele>
        <time>2024-12-30T19:59:32.600Z</time>
      </trkpt>
      <trkpt lat="48.63519" lon="2.09993">
        <ele>145.6</ele>
        <time>2024-12-30T19:59:36.790Z</time>
      </trkpt>
      <trkpt lat="48.63526" lon="2.09993">
        <ele>145.3</ele>
        <time>2024-12-30T19:59:40.980Z</time>
      </trkpt>
      <trkpt lat="48.63534" lon="2.09993">
        <ele>145</ele>
        <time>2024-12-30T19:59:45.170Z</time>
      </trkpt>
      <trkpt lat="48.63541" lon="2.09993">
        <ele>144.8</ele>
        <time>2024-12-30T19:59:49.360Z</time>
      </trkpt>
      <trkpt lat="48.63549" lon="2.09993">
        <ele>144.5</ele>
        <time>2024-12-30T19:59:53.551Z</time>
      </trkpt>
      <trkpt lat="48.63556" lon="2.09993">
        <ele>144.2</ele>
        <time>2024-12-30T19:59:57.742Z</time>
      </trkpt>
      <trkpt lat="48.63564" lon="2.09993">
        <ele>144</ele>
        <time>2024-12-30T20:00:01.933Z</time>
      </trkpt>
      <trkpt lat="48.63571" lon="2.09992">
        <ele>143.7</ele>
        <time>2024-12-30T20:00:06.124Z</time>
      </trkpt>
      <trkpt lat="48.63578" lon="2.09992">
        <ele>143.5</ele>
        <time>2024-12-30T20:00:10.315Z</time>
      </trkpt>
      <trkpt lat="48.63586" lon="2.09992">
        <ele>143.1</ele>
        <time>2024-12-30T20:00:14.506Z</time>
      </trkpt>
      <trkpt lat="48.63593" lon="2.09992">
        <ele>142.6</ele>
        <time>2024-12-30T20:00:18.697Z</time>
      </trkpt>
      <trkpt lat="48.63601" lon="2.09992">
        <ele>142</ele>
        <time>2024-12-30T20:00:22.888Z</time>
      </trkpt>
      <trkpt lat="48.63608" lon="2.09992">
        <ele>141.5</ele>
        <time>2024-12-30T20:00:27.079Z</time>
      </trkpt>
      <trkpt lat="48.63616" lon="2.09992">
        <ele>141.1</ele>
        <time>2024-12-30T20:00:31.270Z</time>
      </trkpt>
      <trkpt lat="48.63623" lon="2.09992">
        <ele>140.7</ele>
        <time>2024-12-30T20:00:35.461Z</time>
      </trkpt>
      <trkpt lat="48.63628" lon="2.09991">
        <ele>140.5</ele>
        <time>2024-12-30T20:00:38.058Z</time>
      </trkpt>
      <trkpt lat="48.63632" lon="2.09991">
        <ele>140.3</ele>
        <time>2024-12-30T20:00:40.655Z</time>
      </trkpt>
      <trkpt lat="48.63637" lon="2.0999">
        <ele>140.1</ele>
        <time>2024-12-30T20:00:43.252Z</time>
      </trkpt>
      <trkpt lat="48.63641" lon="2.0999">
        <ele>139.8</ele>
        <time>2024-12-30T20:00:45.849Z</time>
      </trkpt>
      <trkpt lat="48.63646" lon="2.09989">
        <ele>139.5</ele>
        <time>2024-12-30T20:00:48.446Z</time>
      </trkpt>
      <trkpt lat="48.63651" lon="2.09988">
        <ele>139.2</ele>
        <time>2024-12-30T20:00:51.043Z</time>
      </trkpt>
      <trkpt lat="48.63655" lon="2.09988">
        <ele>138.8</ele>
        <time>2024-12-30T20:00:53.640Z</time>
      </trkpt>
      <trkpt lat="48.6366" lon="2.09987">
        <ele>138.5</ele>
        <time>2024-12-30T20:00:56.238Z</time>
      </trkpt>
      <trkpt lat="48.63664" lon="2.09987">
        <ele>138.2</ele>
        <time>2024-12-30T20:00:58.836Z</time>
      </trkpt>
      <trkpt lat="48.63669" lon="2.09986">
        <ele>137.8</ele>
        <time>2024-12-30T20:01:01.434Z</time>
      </trkpt>
      <trkpt lat="48.63674" lon="2.09986">
        <ele>137.5</ele>
        <time>2024-12-30T20:01:04.032Z</time>
      </trkpt>
      <trkpt lat="48.63678" lon="2.09985">
        <ele>137.2</ele>
        <time>2024-12-30T20:01:06.630Z</time>
      </trkpt>
      <trkpt lat="48.63683" lon="2.09984">
        <ele>136.8</ele>
        <time>2024-12-30T20:01:09.228Z</time>
      </trkpt>
      <trkpt lat="48.63687" lon="2.09984">
        <ele>136.5</ele>
        <time>2024-12-30T20:01:11.826Z</time>
      </trkpt>
      <trkpt lat="48.63692" lon="2.09983">
        <ele>136.2</ele>
        <time>2024-12-30T20:01:14.424Z</time>
      </trkpt>
      <trkpt lat="48.63697" lon="2.09983">
        <ele>135.9</ele>
        <time>2024-12-30T20:01:17.022Z</time>
      </trkpt>
      <trkpt lat="48.63701" lon="2.09982">
        <ele>135.5</ele>
        <time>2024-12-30T20:01:19.620Z</time>
      </trkpt>
      <trkpt lat="48.63706" lon="2.09981">
        <ele>135.2</ele>
        <time>2024-12-30T20:01:22.218Z</time>
      </trkpt>
      <trkpt lat="48.6371" lon="2.09981">
        <ele>134.9</ele>
        <time>2024-12-30T20:01:24.816Z</time>
      </trkpt>
      <trkpt lat="48.63715" lon="2.0998">
        <ele>134.5</ele>
        <time>2024-12-30T20:01:27.414Z</time>
      </trkpt>
      <trkpt lat="48.6372" lon="2.0998">
        <ele>134.2</ele>
        <time>2024-12-30T20:01:30.012Z</time>
      </trkpt>
      <trkpt lat="48.63724" lon="2.09979">
        <ele>133.8</ele>
        <time>2024-12-30T20:01:32.610Z</time>
      </trkpt>
      <trkpt lat="48.63729" lon="2.09978">
        <ele>133.5</ele>
        <time>2024-12-30T20:01:35.208Z</time>
      </trkpt>
      <trkpt lat="48.63733" lon="2.09978">
        <ele>133.1</ele>
        <time>2024-12-30T20:01:37.806Z</time>
      </trkpt>
      <trkpt lat="48.63738" lon="2.09977">
        <ele>132.8</ele>
        <time>2024-12-30T20:01:40.404Z</time>
      </trkpt>
      <trkpt lat="48.63742" lon="2.09977">
        <ele>132.4</ele>
        <time>2024-12-30T20:01:43.002Z</time>
      </trkpt>
      <trkpt lat="48.63747" lon="2.09976">
        <ele>132.1</ele>
        <time>2024-12-30T20:01:45.600Z</time>
      </trkpt>
      <trkpt lat="48.63752" lon="2.09975">
        <ele>131.8</ele>
        <time>2024-12-30T20:01:48.198Z</time>
      </trkpt>
      <trkpt lat="48.63756" lon="2.09975">
        <ele>131.5</ele>
        <time>2024-12-30T20:01:50.796Z</time>
      </trkpt>
      <trkpt lat="48.63761" lon="2.09974">
        <ele>131.2</ele>
        <time>2024-12-30T20:01:53.394Z</time>
      </trkpt>
      <trkpt lat="48.63765" lon="2.09974">
        <ele>130.9</ele>
        <time>2024-12-30T20:01:55.992Z</time>
      </trkpt>
      <trkpt lat="48.6377" lon="2.09973">
        <ele>130.6</ele>
        <time>2024-12-30T20:01:58.590Z</time>
      </trkpt>
      <trkpt lat="48.63775" lon="2.09972">
        <ele>130.2</ele>
        <time>2024-12-30T20:02:01.208Z</time>
      </trkpt>
      <trkpt lat="48.63779" lon="2.09972">
        <ele>130</ele>
        <time>2024-12-30T20:02:03.826Z</time>
      </trkpt>
      <trkpt lat="48.63784" lon="2.09971">
        <ele>129.8</ele>
        <time>2024-12-30T20:02:06.444Z</time>
      </trkpt>
      <trkpt lat="48.63789" lon="2.0997">
        <ele>129.7</ele>
        <time>2024-12-30T20:02:09.062Z</time>
      </trkpt>
      <trkpt lat="48.63793" lon="2.0997">
        <ele>129.5</ele>
        <time>2024-12-30T20:02:11.680Z</time>
      </trkpt>
      <trkpt lat="48.63798" lon="2.09969">
        <ele>129.3</ele>
        <time>2024-12-30T20:02:14.298Z</time>
      </trkpt>
      <trkpt lat="48.63802" lon="2.09968">
        <ele>129.1</ele>
        <time>2024-12-30T20:02:16.916Z</time>
      </trkpt>
      <trkpt lat="48.63807" lon="2.09968">
        <ele>128.9</ele>
        <time>2024-12-30T20:02:19.534Z</time>
      </trkpt>
      <trkpt lat="48.63812" lon="2.09967">
        <ele>128.6</ele>
        <time>2024-12-30T20:02:22.152Z</time>
      </trkpt>
      <trkpt lat="48.63816" lon="2.09966">
        <ele>128.2</ele>
        <time>2024-12-30T20:02:24.771Z</time>
      </trkpt>
      <trkpt lat="48.63821" lon="2.09965">
        <ele>127.9</ele>
        <time>2024-12-30T20:02:27.390Z</time>
      </trkpt>
      <trkpt lat="48.63826" lon="2.09965">
        <ele>127.6</ele>
        <time>2024-12-30T20:02:30.009Z</time>
      </trkpt>
      <trkpt lat="48.6383" lon="2.09964">
        <ele>127.2</ele>
        <time>2024-12-30T20:02:32.628Z</time>
      </trkpt>
      <trkpt lat="48.63835" lon="2.09963">
        <ele>126.9</ele>
        <time>2024-12-30T20:02:35.247Z</time>
      </trkpt>
      <trkpt lat="48.63839" lon="2.09963">
        <ele>126.6</ele>
        <time>2024-12-30T20:02:37.866Z</time>
      </trkpt>
      <trkpt lat="48.63844" lon="2.09962">
        <ele>126.4</ele>
        <time>2024-12-30T20:02:40.485Z</time>
      </trkpt>
      <trkpt lat="48.63849" lon="2.09962">
        <ele>126.1</ele>
        <time>2024-12-30T20:02:43.094Z</time>
      </trkpt>
      <trkpt lat="48.63853" lon="2.09963">
        <ele>125.8</ele>
        <time>2024-12-30T20:02:45.703Z</time>
      </trkpt>
      <trkpt lat="48.63858" lon="2.09963">
        <ele>125.5</ele>
        <time>2024-12-30T20:02:48.313Z</time>
      </trkpt>
      <trkpt lat="48.63863" lon="2.09964">
        <ele>125.2</ele>
        <time>2024-12-30T20:02:50.923Z</time>
      </trkpt>
      <trkpt lat="48.63867" lon="2.09964">
        <ele>124.9</ele>
        <time>2024-12-30T20:02:53.533Z</time>
      </trkpt>
      <trkpt lat="48.63872" lon="2.09964">
        <ele>124.5</ele>
        <time>2024-12-30T20:02:56.143Z</time>
      </trkpt>
      <trkpt lat="48.63876" lon="2.09965">
        <ele>124.2</ele>
        <time>2024-12-30T20:02:58.753Z</time>
      </trkpt>
      <trkpt lat="48.63881" lon="2.09965">
        <ele>123.8</ele>
        <time>2024-12-30T20:03:01.363Z</time>
      </trkpt>
      <trkpt lat="48.63888" lon="2.09966">
        <ele>123.3</ele>
        <time>2024-12-30T20:03:05.289Z</time>
      </trkpt>
      <trkpt lat="48.63895" lon="2.09967">
        <ele>122.9</ele>
        <time>2024-12-30T20:03:09.215Z</time>
      </trkpt>
      <trkpt lat="48.63902" lon="2.09968">
        <ele>122.6</ele>
        <time>2024-12-30T20:03:13.141Z</time>
      </trkpt>
      <trkpt lat="48.63909" lon="2.09969">
        <ele>122.3</ele>
        <time>2024-12-30T20:03:17.067Z</time>
      </trkpt>
      <trkpt lat="48.63916" lon="2.0997">
        <ele>122</ele>
        <time>2024-12-30T20:03:20.993Z</time>
      </trkpt>
      <trkpt lat="48.63923" lon="2.09971">
        <ele>121.6</ele>
        <time>2024-12-30T20:03:24.919Z</time>
      </trkpt>
      <trkpt lat="48.6393" lon="2.09972">
        <ele>121.1</ele>
        <time>2024-12-30T20:03:28.846Z</time>
      </trkpt>
      <trkpt lat="48.63937" lon="2.09973">
        <ele>120.6</ele>
        <time>2024-12-30T20:03:32.773Z</time>
      </trkpt>
      <trkpt lat="48.63943" lon="2.09974">
        <ele>120.1</ele>
        <time>2024-12-30T20:03:36.700Z</time>
      </trkpt>
      <trkpt lat="48.6395" lon="2.09975">
        <ele>119.8</ele>
        <time>2024-12-30T20:03:40.627Z</time>
      </trkpt>
      <trkpt lat="48.63957" lon="2.09976">
        <ele>119.5</ele>
        <time>2024-12-30T20:03:44.554Z</time>
      </trkpt>
      <trkpt lat="48.63964" lon="2.09977">
        <ele>119.3</ele>
        <time>2024-12-30T20:03:48.481Z</time>
      </trkpt>
      <trkpt lat="48.63971" lon="2.09978">
        <ele>119</ele>
        <time>2024-12-30T20:03:52.408Z</time>
      </trkpt>
      <trkpt lat="48.63978" lon="2.09979">
        <ele>118.8</ele>
        <time>2024-12-30T20:03:56.335Z</time>
      </trkpt>
      <trkpt lat="48.63985" lon="2.0998">
        <ele>118.5</ele>
        <time>2024-12-30T20:04:00.262Z</time>
      </trkpt>
      <trkpt lat="48.63992" lon="2.09981">
        <ele>118.3</ele>
        <time>2024-12-30T20:04:04.189Z</time>
      </trkpt>
      <trkpt lat="48.63999" lon="2.09984">
        <ele>118</ele>
        <time>2024-12-30T20:04:08.359Z</time>
      </trkpt>
      <trkpt lat="48.64006" lon="2.09986">
        <ele>117.8</ele>
        <time>2024-12-30T20:04:12.530Z</time>
      </trkpt>
      <trkpt lat="48.64012" lon="2.09986">
        <ele>117.6</ele>
        <time>2024-12-30T20:04:16.025Z</time>
      </trkpt>
      <trkpt lat="48.64018" lon="2.09986">
        <ele>117.4</ele>
        <time>2024-12-30T20:04:19.521Z</time>
      </trkpt>
      <trkpt lat="48.64024" lon="2.09985">
        <ele>117.1</ele>
        <time>2024-12-30T20:04:23.017Z</time>
      </trkpt>
      <trkpt lat="48.6403" lon="2.09985">
        <ele>117</ele>
        <time>2024-12-30T20:04:26.513Z</time>
      </trkpt>
      <trkpt lat="48.64033" lon="2.09978">
        <ele>117</ele>
        <time>2024-12-30T20:04:30.063Z</time>
      </trkpt>
      <trkpt lat="48.64039" lon="2.09979">
        <ele>116.9</ele>
        <time>2024-12-30T20:04:33.741Z</time>
      </trkpt>
      <trkpt lat="48.64045" lon="2.09979">
        <ele>116.8</ele>
        <time>2024-12-30T20:04:37.419Z</time>
      </trkpt>
      <trkpt lat="48.64045" lon="2.09979">
        <ele>116.8</ele>
        <time>2024-12-30T20:04:37.419Z</time>
        <extensions>
          <visugpx:TrkExtension xmlns:visugpx="https://www.visugpx.com/editgpx/">
            <visugpx:node>50</visugpx:node>
            </visugpx:TrkExtension>
        </extensions>
      </trkpt>
      <trkpt lat="48.6405" lon="2.09979">
        <ele>116.8</ele>
        <time>2024-12-30T20:04:40.317Z</time>
      </trkpt>
      <trkpt lat="48.64054" lon="2.09979">
        <ele>116.8</ele>
        <time>2024-12-30T20:04:43.215Z</time>
      </trkpt>
      <trkpt lat="48.64057" lon="2.09973">
        <ele>116.9</ele>
        <time>2024-12-30T20:04:46.334Z</time>
      </trkpt>
      <trkpt lat="48.64059" lon="2.09967">
        <ele>116.9</ele>
        <time>2024-12-30T20:04:49.454Z</time>
      </trkpt>
      <trkpt lat="48.64061" lon="2.09957">
        <ele>116.8</ele>
        <time>2024-12-30T20:04:53.707Z</time>
      </trkpt>
      <trkpt lat="48.64062" lon="2.0995">
        <ele>116.8</ele>
        <time>2024-12-30T20:04:56.961Z</time>
      </trkpt>
      <trkpt lat="48.64063" lon="2.09943">
        <ele>116.8</ele>
        <time>2024-12-30T20:05:00.215Z</time>
      </trkpt>
      <trkpt lat="48.64064" lon="2.09935">
        <ele>116.8</ele>
        <time>2024-12-30T20:05:03.469Z</time>
      </trkpt>
      <trkpt lat="48.64064" lon="2.09928">
        <ele>116.9</ele>
        <time>2024-12-30T20:05:06.723Z</time>
      </trkpt>
      <trkpt lat="48.64065" lon="2.09921">
        <ele>116.9</ele>
        <time>2024-12-30T20:05:09.977Z</time>
      </trkpt>
      <trkpt lat="48.64066" lon="2.09914">
        <ele>117</ele>
        <time>2024-12-30T20:05:13.231Z</time>
      </trkpt>
      <trkpt lat="48.64067" lon="2.09907">
        <ele>117</ele>
        <time>2024-12-30T20:05:16.485Z</time>
      </trkpt>
      <trkpt lat="48.64068" lon="2.09899">
        <ele>117</ele>
        <time>2024-12-30T20:05:19.739Z</time>
      </trkpt>
      <trkpt lat="48.64069" lon="2.09892">
        <ele>117</ele>
        <time>2024-12-30T20:05:22.993Z</time>
      </trkpt>
      <trkpt lat="48.64069" lon="2.09885">
        <ele>117</ele>
        <time>2024-12-30T20:05:26.247Z</time>
      </trkpt>
      <trkpt lat="48.6407" lon="2.09878">
        <ele>117</ele>
        <time>2024-12-30T20:05:29.501Z</time>
      </trkpt>
      <trkpt lat="48.64071" lon="2.0987">
        <ele>117</ele>
        <time>2024-12-30T20:05:32.755Z</time>
      </trkpt>
      <trkpt lat="48.64072" lon="2.09863">
        <ele>117</ele>
        <time>2024-12-30T20:05:36.009Z</time>
      </trkpt>
      <trkpt lat="48.64073" lon="2.09856">
        <ele>117.1</ele>
        <time>2024-12-30T20:05:39.264Z</time>
      </trkpt>
      <trkpt lat="48.64073" lon="2.09849">
        <ele>117.2</ele>
        <time>2024-12-30T20:05:42.519Z</time>
      </trkpt>
      <trkpt lat="48.64074" lon="2.09842">
        <ele>117.2</ele>
        <time>2024-12-30T20:05:45.774Z</time>
      </trkpt>
      <trkpt lat="48.64075" lon="2.09834">
        <ele>117.3</ele>
        <time>2024-12-30T20:05:49.029Z</time>
      </trkpt>
      <trkpt lat="48.64076" lon="2.09827">
        <ele>117.4</ele>
        <time>2024-12-30T20:05:52.284Z</time>
      </trkpt>
      <trkpt lat="48.64077" lon="2.0982">
        <ele>117.6</ele>
        <time>2024-12-30T20:05:55.539Z</time>
      </trkpt>
      <trkpt lat="48.64078" lon="2.09813">
        <ele>117.8</ele>
        <time>2024-12-30T20:05:58.794Z</time>
      </trkpt>
      <trkpt lat="48.64078" lon="2.09805">
        <ele>118</ele>
        <time>2024-12-30T20:06:02.049Z</time>
      </trkpt>
      <trkpt lat="48.64079" lon="2.09798">
        <ele>118</ele>
        <time>2024-12-30T20:06:05.304Z</time>
      </trkpt>
      <trkpt lat="48.6408" lon="2.09791">
        <ele>118</ele>
        <time>2024-12-30T20:06:08.559Z</time>
      </trkpt>
      <trkpt lat="48.64081" lon="2.09784">
        <ele>118</ele>
        <time>2024-12-30T20:06:11.814Z</time>
      </trkpt>
      <trkpt lat="48.64082" lon="2.09777">
        <ele>118</ele>
        <time>2024-12-30T20:06:15.069Z</time>
      </trkpt>
      <trkpt lat="48.64083" lon="2.09769">
        <ele>118</ele>
        <time>2024-12-30T20:06:18.324Z</time>
      </trkpt>
      <trkpt lat="48.64083" lon="2.09762">
        <ele>118</ele>
        <time>2024-12-30T20:06:21.579Z</time>
      </trkpt>
      <trkpt lat="48.64084" lon="2.09755">
        <ele>118</ele>
        <time>2024-12-30T20:06:24.834Z</time>
      </trkpt>
      <trkpt lat="48.64085" lon="2.09748">
        <ele>118.1</ele>
        <time>2024-12-30T20:06:28.089Z</time>
      </trkpt>
      <trkpt lat="48.64086" lon="2.0974">
        <ele>118.3</ele>
        <time>2024-12-30T20:06:31.344Z</time>
      </trkpt>
      <trkpt lat="48.64087" lon="2.09733">
        <ele>118.5</ele>
        <time>2024-12-30T20:06:34.599Z</time>
      </trkpt>
      <trkpt lat="48.64088" lon="2.09726">
        <ele>118.7</ele>
        <time>2024-12-30T20:06:37.854Z</time>
      </trkpt>
      <trkpt lat="48.64088" lon="2.09719">
        <ele>118.8</ele>
        <time>2024-12-30T20:06:41.109Z</time>
      </trkpt>
      <trkpt lat="48.64089" lon="2.09712">
        <ele>118.8</ele>
        <time>2024-12-30T20:06:44.364Z</time>
      </trkpt>
      <trkpt lat="48.6409" lon="2.09704">
        <ele>118.8</ele>
        <time>2024-12-30T20:06:47.619Z</time>
      </trkpt>
      <trkpt lat="48.64091" lon="2.09697">
        <ele>118.7</ele>
        <time>2024-12-30T20:06:50.874Z</time>
      </trkpt>
      <trkpt lat="48.64092" lon="2.0969">
        <ele>118.7</ele>
        <time>2024-12-30T20:06:54.129Z</time>
      </trkpt>
      <trkpt lat="48.64093" lon="2.09683">
        <ele>118.7</ele>
        <time>2024-12-30T20:06:57.384Z</time>
      </trkpt>
      <trkpt lat="48.64093" lon="2.09676">
        <ele>118.6</ele>
        <time>2024-12-30T20:07:00.639Z</time>
      </trkpt>
      <trkpt lat="48.64094" lon="2.09668">
        <ele>118.6</ele>
        <time>2024-12-30T20:07:03.894Z</time>
      </trkpt>
      <trkpt lat="48.64095" lon="2.09661">
        <ele>118.6</ele>
        <time>2024-12-30T20:07:07.149Z</time>
      </trkpt>
      <trkpt lat="48.64096" lon="2.09654">
        <ele>118.6</ele>
        <time>2024-12-30T20:07:10.404Z</time>
      </trkpt>
      <trkpt lat="48.64097" lon="2.09647">
        <ele>118.5</ele>
        <time>2024-12-30T20:07:13.659Z</time>
      </trkpt>
      <trkpt lat="48.64097" lon="2.09639">
        <ele>118.5</ele>
        <time>2024-12-30T20:07:16.914Z</time>
      </trkpt>
      <trkpt lat="48.64098" lon="2.09632">
        <ele>118.7</ele>
        <time>2024-12-30T20:07:20.169Z</time>
      </trkpt>
      <trkpt lat="48.64099" lon="2.09625">
        <ele>118.9</ele>
        <time>2024-12-30T20:07:23.424Z</time>
      </trkpt>
      <trkpt lat="48.641" lon="2.09618">
        <ele>119.2</ele>
        <time>2024-12-30T20:07:26.679Z</time>
      </trkpt>
      <trkpt lat="48.64101" lon="2.09611">
        <ele>119.4</ele>
        <time>2024-12-30T20:07:29.934Z</time>
      </trkpt>
      <trkpt lat="48.64102" lon="2.09603">
        <ele>119.5</ele>
        <time>2024-12-30T20:07:33.189Z</time>
      </trkpt>
      <trkpt lat="48.64102" lon="2.09596">
        <ele>119.7</ele>
        <time>2024-12-30T20:07:36.444Z</time>
      </trkpt>
      <trkpt lat="48.64103" lon="2.09589">
        <ele>119.9</ele>
        <time>2024-12-30T20:07:39.699Z</time>
      </trkpt>
      <trkpt lat="48.64104" lon="2.09582">
        <ele>120</ele>
        <time>2024-12-30T20:07:42.954Z</time>
      </trkpt>
      <trkpt lat="48.64105" lon="2.09574">
        <ele>120.1</ele>
        <time>2024-12-30T20:07:46.209Z</time>
      </trkpt>
      <trkpt lat="48.64106" lon="2.09567">
        <ele>120.1</ele>
        <time>2024-12-30T20:07:49.464Z</time>
      </trkpt>
      <trkpt lat="48.64107" lon="2.0956">
        <ele>120.1</ele>
        <time>2024-12-30T20:07:52.719Z</time>
      </trkpt>
      <trkpt lat="48.64107" lon="2.09553">
        <ele>120.2</ele>
        <time>2024-12-30T20:07:55.974Z</time>
      </trkpt>
      <trkpt lat="48.64108" lon="2.09546">
        <ele>120.4</ele>
        <time>2024-12-30T20:07:59.229Z</time>
      </trkpt>
      <trkpt lat="48.64109" lon="2.09538">
        <ele>120.6</ele>
        <time>2024-12-30T20:08:02.484Z</time>
      </trkpt>
      <trkpt lat="48.6411" lon="2.09531">
        <ele>120.9</ele>
        <time>2024-12-30T20:08:05.739Z</time>
      </trkpt>
      <trkpt lat="48.64111" lon="2.09524">
        <ele>121</ele>
        <time>2024-12-30T20:08:08.994Z</time>
      </trkpt>
      <trkpt lat="48.64112" lon="2.09517">
        <ele>121</ele>
        <time>2024-12-30T20:08:12.249Z</time>
      </trkpt>
      <trkpt lat="48.64112" lon="2.09509">
        <ele>121</ele>
        <time>2024-12-30T20:08:15.504Z</time>
      </trkpt>
      <trkpt lat="48.64113" lon="2.09502">
        <ele>120.9</ele>
        <time>2024-12-30T20:08:18.759Z</time>
      </trkpt>
      <trkpt lat="48.64114" lon="2.09495">
        <ele>121.1</ele>
        <time>2024-12-30T20:08:22.014Z</time>
      </trkpt>
      <trkpt lat="48.64116" lon="2.09486">
        <ele>121.3</ele>
        <time>2024-12-30T20:08:26.140Z</time>
      </trkpt>
      <trkpt lat="48.64117" lon="2.09477">
        <ele>121.4</ele>
        <time>2024-12-30T20:08:30.266Z</time>
      </trkpt>
      <trkpt lat="48.64119" lon="2.09468">
        <ele>121.4</ele>
        <time>2024-12-30T20:08:34.392Z</time>
      </trkpt>
      <trkpt lat="48.64121" lon="2.09459">
        <ele>121.3</ele>
        <time>2024-12-30T20:08:38.518Z</time>
      </trkpt>
      <trkpt lat="48.64122" lon="2.0945">
        <ele>121.2</ele>
        <time>2024-12-30T20:08:42.644Z</time>
      </trkpt>
      <trkpt lat="48.64124" lon="2.09441">
        <ele>121.1</ele>
        <time>2024-12-30T20:08:46.770Z</time>
      </trkpt>
      <trkpt lat="48.64126" lon="2.09432">
        <ele>121.2</ele>
        <time>2024-12-30T20:08:50.896Z</time>
      </trkpt>
      <trkpt lat="48.64128" lon="2.09423">
        <ele>121.3</ele>
        <time>2024-12-30T20:08:55.022Z</time>
      </trkpt>
      <trkpt lat="48.64129" lon="2.09413">
        <ele>121.4</ele>
        <time>2024-12-30T20:08:59.148Z</time>
      </trkpt>
      <trkpt lat="48.64131" lon="2.09404">
        <ele>121.4</ele>
        <time>2024-12-30T20:09:03.274Z</time>
      </trkpt>
      <trkpt lat="48.64133" lon="2.09395">
        <ele>121.4</ele>
        <time>2024-12-30T20:09:07.400Z</time>
      </trkpt>
      <trkpt lat="48.64134" lon="2.09386">
        <ele>121.4</ele>
        <time>2024-12-30T20:09:11.526Z</time>
      </trkpt>
      <trkpt lat="48.64136" lon="2.09377">
        <ele>121.6</ele>
        <time>2024-12-30T20:09:15.652Z</time>
      </trkpt>
      <trkpt lat="48.64138" lon="2.09368">
        <ele>121.8</ele>
        <time>2024-12-30T20:09:19.778Z</time>
      </trkpt>
      <trkpt lat="48.64139" lon="2.09359">
        <ele>122</ele>
        <time>2024-12-30T20:09:23.904Z</time>
      </trkpt>
      <trkpt lat="48.64141" lon="2.0935">
        <ele>121.9</ele>
        <time>2024-12-30T20:09:28.030Z</time>
      </trkpt>
      <trkpt lat="48.64143" lon="2.09341">
        <ele>121.8</ele>
        <time>2024-12-30T20:09:32.156Z</time>
      </trkpt>
      <trkpt lat="48.64144" lon="2.09332">
        <ele>121.8</ele>
        <time>2024-12-30T20:09:36.282Z</time>
      </trkpt>
      <trkpt lat="48.64146" lon="2.09323">
        <ele>122</ele>
        <time>2024-12-30T20:09:40.408Z</time>
      </trkpt>
      <trkpt lat="48.64148" lon="2.09314">
        <ele>122.2</ele>
        <time>2024-12-30T20:09:44.535Z</time>
      </trkpt>
      <trkpt lat="48.64149" lon="2.09305">
        <ele>122.2</ele>
        <time>2024-12-30T20:09:48.662Z</time>
      </trkpt>
      <trkpt lat="48.64151" lon="2.09296">
        <ele>122.1</ele>
        <time>2024-12-30T20:09:52.789Z</time>
      </trkpt>
      <trkpt lat="48.64153" lon="2.09287">
        <ele>122</ele>
        <time>2024-12-30T20:09:56.916Z</time>
      </trkpt>
      <trkpt lat="48.64155" lon="2.09278">
        <ele>121.9</ele>
        <time>2024-12-30T20:10:01.043Z</time>
      </trkpt>
      <trkpt lat="48.64156" lon="2.09268">
        <ele>122</ele>
        <time>2024-12-30T20:10:05.170Z</time>
      </trkpt>
      <trkpt lat="48.64158" lon="2.09259">
        <ele>122.1</ele>
        <time>2024-12-30T20:10:09.297Z</time>
      </trkpt>
      <trkpt lat="48.6416" lon="2.0925">
        <ele>122.2</ele>
        <time>2024-12-30T20:10:13.424Z</time>
      </trkpt>
      <trkpt lat="48.64161" lon="2.09241">
        <ele>122.4</ele>
        <time>2024-12-30T20:10:17.551Z</time>
      </trkpt>
      <trkpt lat="48.64163" lon="2.09232">
        <ele>122.7</ele>
        <time>2024-12-30T20:10:21.678Z</time>
      </trkpt>
      <trkpt lat="48.64165" lon="2.09223">
        <ele>123</ele>
        <time>2024-12-30T20:10:25.805Z</time>
      </trkpt>
      <trkpt lat="48.64166" lon="2.09214">
        <ele>123</ele>
        <time>2024-12-30T20:10:29.932Z</time>
      </trkpt>
      <trkpt lat="48.64168" lon="2.09205">
        <ele>123</ele>
        <time>2024-12-30T20:10:34.059Z</time>
      </trkpt>
      <trkpt lat="48.6417" lon="2.09199">
        <ele>123</ele>
        <time>2024-12-30T20:10:37.090Z</time>
      </trkpt>
      <trkpt lat="48.64171" lon="2.09192">
        <ele>123.1</ele>
        <time>2024-12-30T20:10:40.121Z</time>
      </trkpt>
      <trkpt lat="48.6417" lon="2.09184">
        <ele>123.3</ele>
        <time>2024-12-30T20:10:44.016Z</time>
      </trkpt>
      <trkpt lat="48.64165" lon="2.09187">
        <ele>123.3</ele>
        <time>2024-12-30T20:10:47.479Z</time>
      </trkpt>
      <trkpt lat="48.64161" lon="2.09187">
        <ele>123.4</ele>
        <time>2024-12-30T20:10:50.585Z</time>
      </trkpt>
      <trkpt lat="48.64156" lon="2.09187">
        <ele>123.5</ele>
        <time>2024-12-30T20:10:53.691Z</time>
      </trkpt>
      <trkpt lat="48.64149" lon="2.09179">
        <ele>123.8</ele>
        <time>2024-12-30T20:10:59.981Z</time>
      </trkpt>
      <trkpt lat="48.64147" lon="2.09172">
        <ele>123.9</ele>
        <time>2024-12-30T20:11:03.433Z</time>
      </trkpt>
      <trkpt lat="48.64142" lon="2.09165">
        <ele>124</ele>
        <time>2024-12-30T20:11:08.767Z</time>
      </trkpt>
      <trkpt lat="48.64136" lon="2.09159">
        <ele>124.4</ele>
        <time>2024-12-30T20:11:14.101Z</time>
      </trkpt>
      <trkpt lat="48.64131" lon="2.09152">
        <ele>124.8</ele>
        <time>2024-12-30T20:11:19.436Z</time>
      </trkpt>
      <trkpt lat="48.64125" lon="2.09145">
        <ele>125.3</ele>
        <time>2024-12-30T20:11:24.772Z</time>
      </trkpt>
      <trkpt lat="48.6412" lon="2.09136">
        <ele>125.7</ele>
        <time>2024-12-30T20:11:30.664Z</time>
      </trkpt>
      <trkpt lat="48.64117" lon="2.09124">
        <ele>125.8</ele>
        <time>2024-12-30T20:11:36.326Z</time>
      </trkpt>
      <trkpt lat="48.64114" lon="2.09112">
        <ele>125.9</ele>
        <time>2024-12-30T20:11:41.990Z</time>
      </trkpt>
      <trkpt lat="48.64108" lon="2.09108">
        <ele>126.2</ele>
        <time>2024-12-30T20:11:46.870Z</time>
      </trkpt>
      <trkpt lat="48.64102" lon="2.09106">
        <ele>126.5</ele>
        <time>2024-12-30T20:11:51.513Z</time>
      </trkpt>
      <trkpt lat="48.64096" lon="2.09104">
        <ele>126.8</ele>
        <time>2024-12-30T20:11:56.156Z</time>
      </trkpt>
      <trkpt lat="48.6409" lon="2.09101">
        <ele>127.1</ele>
        <time>2024-12-30T20:12:00.799Z</time>
      </trkpt>
      <trkpt lat="48.64084" lon="2.09099">
        <ele>127.4</ele>
        <time>2024-12-30T20:12:05.443Z</time>
      </trkpt>
      <trkpt lat="48.64078" lon="2.09095">
        <ele>127.8</ele>
        <time>2024-12-30T20:12:10.695Z</time>
      </trkpt>
      <trkpt lat="48.64072" lon="2.09091">
        <ele>128.2</ele>
        <time>2024-12-30T20:12:15.947Z</time>
      </trkpt>
      <trkpt lat="48.64065" lon="2.09086">
        <ele>128.5</ele>
        <time>2024-12-30T20:12:21.200Z</time>
      </trkpt>
      <trkpt lat="48.64059" lon="2.09082">
        <ele>128.9</ele>
        <time>2024-12-30T20:12:26.454Z</time>
      </trkpt>
      <trkpt lat="48.64054" lon="2.09081">
        <ele>129.1</ele>
        <time>2024-12-30T20:12:30.450Z</time>
      </trkpt>
      <trkpt lat="48.64048" lon="2.0908">
        <ele>129.3</ele>
        <time>2024-12-30T20:12:34.447Z</time>
      </trkpt>
      <trkpt lat="48.64044" lon="2.09073">
        <ele>129.6</ele>
        <time>2024-12-30T20:12:39.193Z</time>
      </trkpt>
      <trkpt lat="48.6404" lon="2.09066">
        <ele>129.9</ele>
        <time>2024-12-30T20:12:43.939Z</time>
      </trkpt>
      <trkpt lat="48.64036" lon="2.09059">
        <ele>130.3</ele>
        <time>2024-12-30T20:12:48.685Z</time>
      </trkpt>
      <trkpt lat="48.64032" lon="2.09052">
        <ele>130.7</ele>
        <time>2024-12-30T20:12:53.432Z</time>
      </trkpt>
      <trkpt lat="48.64027" lon="2.09045">
        <ele>131</ele>
        <time>2024-12-30T20:12:58.179Z</time>
      </trkpt>
      <trkpt lat="48.64023" lon="2.09038">
        <ele>131.3</ele>
        <time>2024-12-30T20:13:02.926Z</time>
      </trkpt>
      <trkpt lat="48.64019" lon="2.09031">
        <ele>131.6</ele>
        <time>2024-12-30T20:13:07.673Z</time>
      </trkpt>
      <trkpt lat="48.64015" lon="2.09024">
        <ele>132</ele>
        <time>2024-12-30T20:13:12.421Z</time>
      </trkpt>
      <trkpt lat="48.64013" lon="2.09018">
        <ele>132.3</ele>
        <time>2024-12-30T20:13:16.175Z</time>
      </trkpt>
      <trkpt lat="48.6401" lon="2.09011">
        <ele>132.5</ele>
        <time>2024-12-30T20:13:19.931Z</time>
      </trkpt>
      <trkpt lat="48.64008" lon="2.09003">
        <ele>132.7</ele>
        <time>2024-12-30T20:13:24.117Z</time>
      </trkpt>
      <trkpt lat="48.64006" lon="2.08995">
        <ele>133</ele>
        <time>2024-12-30T20:13:28.304Z</time>
      </trkpt>
      <trkpt lat="48.64007" lon="2.08986">
        <ele>133.2</ele>
        <time>2024-12-30T20:13:32.591Z</time>
      </trkpt>
      <trkpt lat="48.64009" lon="2.08977">
        <ele>133.5</ele>
        <time>2024-12-30T20:13:36.879Z</time>
      </trkpt>
      <trkpt lat="48.6401" lon="2.08968">
        <ele>133.7</ele>
        <time>2024-12-30T20:13:41.167Z</time>
      </trkpt>
      <trkpt lat="48.64011" lon="2.0896">
        <ele>133.9</ele>
        <time>2024-12-30T20:13:45.455Z</time>
      </trkpt>
      <trkpt lat="48.64012" lon="2.08951">
        <ele>134</ele>
        <time>2024-12-30T20:13:49.743Z</time>
      </trkpt>
      <trkpt lat="48.64014" lon="2.08942">
        <ele>134.1</ele>
        <time>2024-12-30T20:13:54.031Z</time>
      </trkpt>
      <trkpt lat="48.64015" lon="2.08933">
        <ele>134.4</ele>
        <time>2024-12-30T20:13:58.319Z</time>
      </trkpt>
      <trkpt lat="48.64016" lon="2.08924">
        <ele>134.6</ele>
        <time>2024-12-30T20:14:02.607Z</time>
      </trkpt>
      <trkpt lat="48.64013" lon="2.08914">
        <ele>135.2</ele>
        <time>2024-12-30T20:14:08.717Z</time>
      </trkpt>
      <trkpt lat="48.64008" lon="2.08909">
        <ele>135.7</ele>
        <time>2024-12-30T20:14:13.496Z</time>
      </trkpt>
      <trkpt lat="48.64003" lon="2.08904">
        <ele>136.2</ele>
        <time>2024-12-30T20:14:18.275Z</time>
      </trkpt>
      <trkpt lat="48.63998" lon="2.08899">
        <ele>136.7</ele>
        <time>2024-12-30T20:14:23.054Z</time>
      </trkpt>
      <trkpt lat="48.63994" lon="2.08894">
        <ele>137.1</ele>
        <time>2024-12-30T20:14:27.833Z</time>
      </trkpt>
      <trkpt lat="48.63989" lon="2.08888">
        <ele>137.4</ele>
        <time>2024-12-30T20:14:32.612Z</time>
      </trkpt>
      <trkpt lat="48.63984" lon="2.08883">
        <ele>137.8</ele>
        <time>2024-12-30T20:14:37.392Z</time>
      </trkpt>
      <trkpt lat="48.63979" lon="2.08878">
        <ele>138.1</ele>
        <time>2024-12-30T20:14:42.172Z</time>
      </trkpt>
      <trkpt lat="48.63974" lon="2.08873">
        <ele>138.5</ele>
        <time>2024-12-30T20:14:46.953Z</time>
      </trkpt>
      <trkpt lat="48.63971" lon="2.08867">
        <ele>138.8</ele>
        <time>2024-12-30T20:14:50.937Z</time>
      </trkpt>
      <trkpt lat="48.63969" lon="2.08862">
        <ele>139.3</ele>
        <time>2024-12-30T20:14:54.921Z</time>
      </trkpt>
      <trkpt lat="48.63966" lon="2.08856">
        <ele>139.7</ele>
        <time>2024-12-30T20:14:58.905Z</time>
      </trkpt>
      <trkpt lat="48.63963" lon="2.0885">
        <ele>140.1</ele>
        <time>2024-12-30T20:15:02.891Z</time>
      </trkpt>
      <trkpt lat="48.63959" lon="2.08845">
        <ele>140.5</ele>
        <time>2024-12-30T20:15:07.364Z</time>
      </trkpt>
      <trkpt lat="48.63955" lon="2.0884">
        <ele>141</ele>
        <time>2024-12-30T20:15:11.837Z</time>
      </trkpt>
      <trkpt lat="48.63951" lon="2.08834">
        <ele>141.5</ele>
        <time>2024-12-30T20:15:16.310Z</time>
      </trkpt>
      <trkpt lat="48.63948" lon="2.08829">
        <ele>141.9</ele>
        <time>2024-12-30T20:15:20.784Z</time>
      </trkpt>
      <trkpt lat="48.63944" lon="2.08824">
        <ele>142.4</ele>
        <time>2024-12-30T20:15:25.258Z</time>
      </trkpt>
      <trkpt lat="48.6394" lon="2.08819">
        <ele>142.9</ele>
        <time>2024-12-30T20:15:29.732Z</time>
      </trkpt>
      <trkpt lat="48.63936" lon="2.08813">
        <ele>143.3</ele>
        <time>2024-12-30T20:15:34.206Z</time>
      </trkpt>
      <trkpt lat="48.63932" lon="2.08808">
        <ele>143.8</ele>
        <time>2024-12-30T20:15:38.681Z</time>
      </trkpt>
      <trkpt lat="48.63925" lon="2.08805">
        <ele>144.4</ele>
        <time>2024-12-30T20:15:45.019Z</time>
      </trkpt>
      <trkpt lat="48.63918" lon="2.08802">
        <ele>145.1</ele>
        <time>2024-12-30T20:15:51.357Z</time>
      </trkpt>
      <trkpt lat="48.6391" lon="2.08799">
        <ele>145.7</ele>
        <time>2024-12-30T20:15:57.695Z</time>
      </trkpt>
      <trkpt lat="48.63903" lon="2.08796">
        <ele>146.3</ele>
        <time>2024-12-30T20:16:04.035Z</time>
      </trkpt>
      <trkpt lat="48.63897" lon="2.08792">
        <ele>146.9</ele>
        <time>2024-12-30T20:16:10.016Z</time>
      </trkpt>
      <trkpt lat="48.63891" lon="2.08787">
        <ele>147.6</ele>
        <time>2024-12-30T20:16:15.997Z</time>
      </trkpt>
      <trkpt lat="48.63884" lon="2.08783">
        <ele>148.2</ele>
        <time>2024-12-30T20:16:21.979Z</time>
      </trkpt>
      <trkpt lat="48.63878" lon="2.08778">
        <ele>148.8</ele>
        <time>2024-12-30T20:16:27.962Z</time>
      </trkpt>
      <trkpt lat="48.63872" lon="2.08772">
        <ele>149.5</ele>
        <time>2024-12-30T20:16:34.684Z</time>
      </trkpt>
      <trkpt lat="48.63865" lon="2.08765">
        <ele>150.2</ele>
        <time>2024-12-30T20:16:41.408Z</time>
      </trkpt>
      <trkpt lat="48.6386" lon="2.08755">
        <ele>150.9</ele>
        <time>2024-12-30T20:16:48.427Z</time>
      </trkpt>
      <trkpt lat="48.63857" lon="2.08745">
        <ele>151.3</ele>
        <time>2024-12-30T20:16:53.920Z</time>
      </trkpt>
      <trkpt lat="48.63853" lon="2.08736">
        <ele>151.6</ele>
        <time>2024-12-30T20:16:59.413Z</time>
      </trkpt>
      <trkpt lat="48.6385" lon="2.08726">
        <ele>151.8</ele>
        <time>2024-12-30T20:17:04.906Z</time>
      </trkpt>
      <trkpt lat="48.63846" lon="2.08716">
        <ele>152.3</ele>
        <time>2024-12-30T20:17:10.400Z</time>
      </trkpt>
      <trkpt lat="48.63844" lon="2.08709">
        <ele>152.7</ele>
        <time>2024-12-30T20:17:14.820Z</time>
      </trkpt>
      <trkpt lat="48.63842" lon="2.08702">
        <ele>153.2</ele>
        <time>2024-12-30T20:17:19.240Z</time>
      </trkpt>
      <trkpt lat="48.63839" lon="2.08694">
        <ele>153.6</ele>
        <time>2024-12-30T20:17:23.660Z</time>
      </trkpt>
      <trkpt lat="48.63837" lon="2.08687">
        <ele>154</ele>
        <time>2024-12-30T20:17:28.082Z</time>
      </trkpt>
      <trkpt lat="48.63838" lon="2.08678">
        <ele>154.2</ele>
        <time>2024-12-30T20:17:32.118Z</time>
      </trkpt>
      <trkpt lat="48.63839" lon="2.08669">
        <ele>154.3</ele>
        <time>2024-12-30T20:17:36.154Z</time>
      </trkpt>
      <trkpt lat="48.6384" lon="2.0866">
        <ele>154.3</ele>
        <time>2024-12-30T20:17:40.190Z</time>
      </trkpt>
      <trkpt lat="48.63841" lon="2.08651">
        <ele>154.3</ele>
        <time>2024-12-30T20:17:44.226Z</time>
      </trkpt>
      <trkpt lat="48.63839" lon="2.0864">
        <ele>154.6</ele>
        <time>2024-12-30T20:17:49.731Z</time>
      </trkpt>
      <trkpt lat="48.63836" lon="2.08631">
        <ele>155.1</ele>
        <time>2024-12-30T20:17:55.482Z</time>
      </trkpt>
      <trkpt lat="48.63832" lon="2.08622">
        <ele>155.7</ele>
        <time>2024-12-30T20:18:01.234Z</time>
      </trkpt>
      <trkpt lat="48.6383" lon="2.08612">
        <ele>156.1</ele>
        <time>2024-12-30T20:18:07.006Z</time>
      </trkpt>
      <trkpt lat="48.63827" lon="2.08601">
        <ele>156.6</ele>
        <time>2024-12-30T20:18:12.779Z</time>
      </trkpt>
      <trkpt lat="48.63827" lon="2.08589">
        <ele>157.1</ele>
        <time>2024-12-30T20:18:18.694Z</time>
      </trkpt>
      <trkpt lat="48.63826" lon="2.08576">
        <ele>157.3</ele>
        <time>2024-12-30T20:18:24.609Z</time>
      </trkpt>
      <trkpt lat="48.63826" lon="2.08564">
        <ele>157.5</ele>
        <time>2024-12-30T20:18:30.524Z</time>
      </trkpt>
      <trkpt lat="48.63825" lon="2.08551">
        <ele>157.7</ele>
        <time>2024-12-30T20:18:36.440Z</time>
      </trkpt>
      <trkpt lat="48.63825" lon="2.08541">
        <ele>158</ele>
        <time>2024-12-30T20:18:41.234Z</time>
      </trkpt>
      <trkpt lat="48.63825" lon="2.08531">
        <ele>158.2</ele>
        <time>2024-12-30T20:18:46.029Z</time>
      </trkpt>
      <trkpt lat="48.63826" lon="2.08524">
        <ele>158.3</ele>
        <time>2024-12-30T20:18:49.253Z</time>
      </trkpt>
      <trkpt lat="48.63827" lon="2.08517">
        <ele>158.3</ele>
        <time>2024-12-30T20:18:52.477Z</time>
      </trkpt>
      <trkpt lat="48.63827" lon="2.08509">
        <ele>158.4</ele>
        <time>2024-12-30T20:18:55.701Z</time>
      </trkpt>
      <trkpt lat="48.63828" lon="2.08502">
        <ele>158.4</ele>
        <time>2024-12-30T20:18:58.925Z</time>
      </trkpt>
      <trkpt lat="48.63828" lon="2.08489">
        <ele>158.7</ele>
        <time>2024-12-30T20:19:05.225Z</time>
      </trkpt>
      <trkpt lat="48.63827" lon="2.08476">
        <ele>159.1</ele>
        <time>2024-12-30T20:19:11.526Z</time>
      </trkpt>
      <trkpt lat="48.63826" lon="2.08465">
        <ele>159.3</ele>
        <time>2024-12-30T20:19:16.511Z</time>
      </trkpt>
      <trkpt lat="48.63825" lon="2.08455">
        <ele>159.3</ele>
        <time>2024-12-30T20:19:21.496Z</time>
      </trkpt>
      <trkpt lat="48.63824" lon="2.08444">
        <ele>159.4</ele>
        <time>2024-12-30T20:19:26.481Z</time>
      </trkpt>
      <trkpt lat="48.63823" lon="2.08433">
        <ele>159.8</ele>
        <time>2024-12-30T20:19:31.467Z</time>
      </trkpt>
      <trkpt lat="48.63822" lon="2.08423">
        <ele>160.2</ele>
        <time>2024-12-30T20:19:36.427Z</time>
      </trkpt>
      <trkpt lat="48.63821" lon="2.08413">
        <ele>160.4</ele>
        <time>2024-12-30T20:19:41.389Z</time>
      </trkpt>
      <trkpt lat="48.63822" lon="2.08404">
        <ele>160.4</ele>
        <time>2024-12-30T20:19:45.444Z</time>
      </trkpt>
      <trkpt lat="48.63822" lon="2.08394">
        <ele>160.4</ele>
        <time>2024-12-30T20:19:49.500Z</time>
      </trkpt>
      <trkpt lat="48.63824" lon="2.08387">
        <ele>160.4</ele>
        <time>2024-12-30T20:19:52.994Z</time>
      </trkpt>
      <trkpt lat="48.63825" lon="2.0838">
        <ele>160.5</ele>
        <time>2024-12-30T20:19:56.488Z</time>
      </trkpt>
      <trkpt lat="48.63827" lon="2.08372">
        <ele>160.7</ele>
        <time>2024-12-30T20:19:59.982Z</time>
      </trkpt>
      <trkpt lat="48.63828" lon="2.08365">
        <ele>160.9</ele>
        <time>2024-12-30T20:20:03.477Z</time>
      </trkpt>
      <trkpt lat="48.63833" lon="2.08355">
        <ele>161</ele>
        <time>2024-12-30T20:20:09.017Z</time>
      </trkpt>
      <trkpt lat="48.63837" lon="2.08347">
        <ele>160.8</ele>
        <time>2024-12-30T20:20:13.002Z</time>
      </trkpt>
      <trkpt lat="48.63841" lon="2.08339">
        <ele>160.7</ele>
        <time>2024-12-30T20:20:16.988Z</time>
      </trkpt>
      <trkpt lat="48.63845" lon="2.08329">
        <ele>160.7</ele>
        <time>2024-12-30T20:20:21.803Z</time>
      </trkpt>
      <trkpt lat="48.63848" lon="2.08319">
        <ele>160.7</ele>
        <time>2024-12-30T20:20:26.618Z</time>
      </trkpt>
      <trkpt lat="48.6385" lon="2.08311">
        <ele>160.7</ele>
        <time>2024-12-30T20:20:30.615Z</time>
      </trkpt>
      <trkpt lat="48.63853" lon="2.08302">
        <ele>160.7</ele>
        <time>2024-12-30T20:20:34.612Z</time>
      </trkpt>
      <trkpt lat="48.63855" lon="2.08294">
        <ele>160.8</ele>
        <time>2024-12-30T20:20:38.609Z</time>
      </trkpt>
      <trkpt lat="48.63857" lon="2.08285">
        <ele>160.9</ele>
        <time>2024-12-30T20:20:42.607Z</time>
      </trkpt>
      <trkpt lat="48.63858" lon="2.08277">
        <ele>161.1</ele>
        <time>2024-12-30T20:20:46.095Z</time>
      </trkpt>
      <trkpt lat="48.63859" lon="2.08269">
        <ele>161.1</ele>
        <time>2024-12-30T20:20:49.583Z</time>
      </trkpt>
      <trkpt lat="48.63859" lon="2.08261">
        <ele>161.1</ele>
        <time>2024-12-30T20:20:53.071Z</time>
      </trkpt>
      <trkpt lat="48.6386" lon="2.08253">
        <ele>161</ele>
        <time>2024-12-30T20:20:56.560Z</time>
      </trkpt>
      <trkpt lat="48.6386" lon="2.08245">
        <ele>161.2</ele>
        <time>2024-12-30T20:21:00.532Z</time>
      </trkpt>
      <trkpt lat="48.63859" lon="2.08236">
        <ele>161.6</ele>
        <time>2024-12-30T20:21:04.504Z</time>
      </trkpt>
      <trkpt lat="48.63859" lon="2.08228">
        <ele>161.9</ele>
        <time>2024-12-30T20:21:08.476Z</time>
      </trkpt>
      <trkpt lat="48.63859" lon="2.0822">
        <ele>162.1</ele>
        <time>2024-12-30T20:21:12.448Z</time>
      </trkpt>
      <trkpt lat="48.63858" lon="2.08211">
        <ele>162.1</ele>
        <time>2024-12-30T20:21:16.420Z</time>
      </trkpt>
      <trkpt lat="48.63858" lon="2.08203">
        <ele>162.1</ele>
        <time>2024-12-30T20:21:20.393Z</time>
      </trkpt>
      <trkpt lat="48.63857" lon="2.08194">
        <ele>162.1</ele>
        <time>2024-12-30T20:21:24.366Z</time>
      </trkpt>
      <trkpt lat="48.63857" lon="2.08186">
        <ele>162.5</ele>
        <time>2024-12-30T20:21:28.340Z</time>
      </trkpt>
      <trkpt lat="48.63857" lon="2.08179">
        <ele>162.7</ele>
        <time>2024-12-30T20:21:31.805Z</time>
      </trkpt>
      <trkpt lat="48.63857" lon="2.08172">
        <ele>163</ele>
        <time>2024-12-30T20:21:35.270Z</time>
      </trkpt>
      <trkpt lat="48.63856" lon="2.08164">
        <ele>163.2</ele>
        <time>2024-12-30T20:21:38.735Z</time>
      </trkpt>
      <trkpt lat="48.63856" lon="2.08157">
        <ele>163.2</ele>
        <time>2024-12-30T20:21:42.201Z</time>
      </trkpt>
      <trkpt lat="48.63856" lon="2.0815">
        <ele>163.2</ele>
        <time>2024-12-30T20:21:45.135Z</time>
      </trkpt>
      <trkpt lat="48.63857" lon="2.08143">
        <ele>163.2</ele>
        <time>2024-12-30T20:21:48.069Z</time>
      </trkpt>
      <trkpt lat="48.63857" lon="2.08136">
        <ele>163.2</ele>
        <time>2024-12-30T20:21:51.003Z</time>
      </trkpt>
      <trkpt lat="48.63857" lon="2.08129">
        <ele>163.1</ele>
        <time>2024-12-30T20:21:53.937Z</time>
      </trkpt>
      <trkpt lat="48.63857" lon="2.08122">
        <ele>163.1</ele>
        <time>2024-12-30T20:21:57.284Z</time>
      </trkpt>
      <trkpt lat="48.63857" lon="2.08115">
        <ele>163.1</ele>
        <time>2024-12-30T20:22:00.631Z</time>
      </trkpt>
      <trkpt lat="48.63857" lon="2.08107">
        <ele>163.3</ele>
        <time>2024-12-30T20:22:03.978Z</time>
      </trkpt>
      <trkpt lat="48.63857" lon="2.081">
        <ele>163.5</ele>
        <time>2024-12-30T20:22:07.325Z</time>
      </trkpt>
      <trkpt lat="48.63857" lon="2.08093">
        <ele>163.8</ele>
        <time>2024-12-30T20:22:10.672Z</time>
      </trkpt>
      <trkpt lat="48.63857" lon="2.08086">
        <ele>164.1</ele>
        <time>2024-12-30T20:22:14.020Z</time>
      </trkpt>
      <trkpt lat="48.63857" lon="2.08078">
        <ele>164.1</ele>
        <time>2024-12-30T20:22:17.368Z</time>
      </trkpt>
      <trkpt lat="48.63857" lon="2.08071">
        <ele>164.1</ele>
        <time>2024-12-30T20:22:20.716Z</time>
      </trkpt>
      <trkpt lat="48.63856" lon="2.08059">
        <ele>164.2</ele>
        <time>2024-12-30T20:22:26.386Z</time>
      </trkpt>
      <trkpt lat="48.63856" lon="2.08048">
        <ele>164.5</ele>
        <time>2024-12-30T20:22:32.056Z</time>
      </trkpt>
      <trkpt lat="48.63855" lon="2.08036">
        <ele>164.9</ele>
        <time>2024-12-30T20:22:37.727Z</time>
      </trkpt>
      <trkpt lat="48.63854" lon="2.08024">
        <ele>165.3</ele>
        <time>2024-12-30T20:22:43.399Z</time>
      </trkpt>
      <trkpt lat="48.63855" lon="2.08017">
        <ele>165.2</ele>
        <time>2024-12-30T20:22:46.257Z</time>
      </trkpt>
      <trkpt lat="48.63852" lon="2.08012">
        <ele>165.3</ele>
        <time>2024-12-30T20:22:49.339Z</time>
      </trkpt>
      <trkpt lat="48.63854" lon="2.07999">
        <ele>165.3</ele>
        <time>2024-12-30T20:22:54.856Z</time>
      </trkpt>
      <trkpt lat="48.63855" lon="2.07986">
        <ele>165.2</ele>
        <time>2024-12-30T20:23:00.373Z</time>
      </trkpt>
      <trkpt lat="48.63857" lon="2.07973">
        <ele>165.2</ele>
        <time>2024-12-30T20:23:05.890Z</time>
      </trkpt>
      <trkpt lat="48.63858" lon="2.0796">
        <ele>165.1</ele>
        <time>2024-12-30T20:23:11.408Z</time>
      </trkpt>
      <trkpt lat="48.6386" lon="2.07947">
        <ele>165.1</ele>
        <time>2024-12-30T20:23:16.926Z</time>
      </trkpt>
      <trkpt lat="48.63861" lon="2.07934">
        <ele>165</ele>
        <time>2024-12-30T20:23:22.444Z</time>
      </trkpt>
      <trkpt lat="48.63863" lon="2.07921">
        <ele>165</ele>
        <time>2024-12-30T20:23:27.962Z</time>
      </trkpt>
      <trkpt lat="48.63864" lon="2.07908">
        <ele>164.9</ele>
        <time>2024-12-30T20:23:33.480Z</time>
      </trkpt>
      <trkpt lat="48.63864" lon="2.07899">
        <ele>164.9</ele>
        <time>2024-12-30T20:23:37.309Z</time>
      </trkpt>
      <trkpt lat="48.63864" lon="2.0789">
        <ele>164.9</ele>
        <time>2024-12-30T20:23:41.139Z</time>
      </trkpt>
      <trkpt lat="48.63864" lon="2.07879">
        <ele>165.2</ele>
        <time>2024-12-30T20:23:46.357Z</time>
      </trkpt>
      <trkpt lat="48.63865" lon="2.07868">
        <ele>165.6</ele>
        <time>2024-12-30T20:23:51.575Z</time>
      </trkpt>
      <trkpt lat="48.63865" lon="2.07857">
        <ele>165.9</ele>
        <time>2024-12-30T20:23:56.793Z</time>
      </trkpt>
      <trkpt lat="48.63865" lon="2.07846">
        <ele>165.9</ele>
        <time>2024-12-30T20:24:02.012Z</time>
      </trkpt>
      <trkpt lat="48.63866" lon="2.07836">
        <ele>165.8</ele>
        <time>2024-12-30T20:24:06.112Z</time>
      </trkpt>
      <trkpt lat="48.63867" lon="2.07827">
        <ele>165.8</ele>
        <time>2024-12-30T20:24:10.213Z</time>
      </trkpt>
      <trkpt lat="48.63868" lon="2.07817">
        <ele>165.8</ele>
        <time>2024-12-30T20:24:14.314Z</time>
      </trkpt>
      <trkpt lat="48.63869" lon="2.07807">
        <ele>165.7</ele>
        <time>2024-12-30T20:24:18.415Z</time>
      </trkpt>
      <trkpt lat="48.63871" lon="2.07794">
        <ele>165.8</ele>
        <time>2024-12-30T20:24:24.560Z</time>
      </trkpt>
      <trkpt lat="48.63873" lon="2.07781">
        <ele>166</ele>
        <time>2024-12-30T20:24:30.705Z</time>
      </trkpt>
      <trkpt lat="48.63875" lon="2.07767">
        <ele>166.2</ele>
        <time>2024-12-30T20:24:36.851Z</time>
      </trkpt>
      <trkpt lat="48.63877" lon="2.07754">
        <ele>166.4</ele>
        <time>2024-12-30T20:24:42.997Z</time>
      </trkpt>
      <trkpt lat="48.63879" lon="2.07744">
        <ele>166.5</ele>
        <time>2024-12-30T20:24:47.904Z</time>
      </trkpt>
      <trkpt lat="48.63882" lon="2.07734">
        <ele>166.7</ele>
        <time>2024-12-30T20:24:52.811Z</time>
      </trkpt>
      <trkpt lat="48.63884" lon="2.07723">
        <ele>167</ele>
        <time>2024-12-30T20:24:57.718Z</time>
      </trkpt>
      <trkpt lat="48.63886" lon="2.07713">
        <ele>167</ele>
        <time>2024-12-30T20:25:02.626Z</time>
      </trkpt>
      <trkpt lat="48.63889" lon="2.07702">
        <ele>167</ele>
        <time>2024-12-30T20:25:07.575Z</time>
      </trkpt>
      <trkpt lat="48.63891" lon="2.07691">
        <ele>166.9</ele>
        <time>2024-12-30T20:25:12.525Z</time>
      </trkpt>
      <trkpt lat="48.63894" lon="2.0768">
        <ele>166.9</ele>
        <time>2024-12-30T20:25:17.475Z</time>
      </trkpt>
      <trkpt lat="48.63896" lon="2.07669">
        <ele>167</ele>
        <time>2024-12-30T20:25:22.425Z</time>
      </trkpt>
      <trkpt lat="48.639" lon="2.07666">
        <ele>167</ele>
        <time>2024-12-30T20:25:25.300Z</time>
      </trkpt>
      <trkpt lat="48.63907" lon="2.07666">
        <ele>167</ele>
        <time>2024-12-30T20:25:29.340Z</time>
      </trkpt>
      <trkpt lat="48.63913" lon="2.07666">
        <ele>167</ele>
        <time>2024-12-30T20:25:33.380Z</time>
      </trkpt>
      <trkpt lat="48.6392" lon="2.07666">
        <ele>166.9</ele>
        <time>2024-12-30T20:25:37.421Z</time>
      </trkpt>
      <trkpt lat="48.63926" lon="2.07666">
        <ele>166.7</ele>
        <time>2024-12-30T20:25:41.462Z</time>
      </trkpt>
      <trkpt lat="48.63931" lon="2.0766">
        <ele>166.6</ele>
        <time>2024-12-30T20:25:45.379Z</time>
      </trkpt>
      <trkpt lat="48.63932" lon="2.07652">
        <ele>166.7</ele>
        <time>2024-12-30T20:25:49.050Z</time>
      </trkpt>
      <trkpt lat="48.63931" lon="2.07645">
        <ele>166.9</ele>
        <time>2024-12-30T20:25:52.657Z</time>
      </trkpt>
      <trkpt lat="48.63929" lon="2.07638">
        <ele>167</ele>
        <time>2024-12-30T20:25:56.264Z</time>
      </trkpt>
      <trkpt lat="48.63928" lon="2.0763">
        <ele>167.2</ele>
        <time>2024-12-30T20:25:59.871Z</time>
      </trkpt>
      <trkpt lat="48.63926" lon="2.07623">
        <ele>167.4</ele>
        <time>2024-12-30T20:26:03.480Z</time>
      </trkpt>
      <trkpt lat="48.63925" lon="2.0761">
        <ele>167.7</ele>
        <time>2024-12-30T20:26:09.512Z</time>
      </trkpt>
      <trkpt lat="48.63923" lon="2.07597">
        <ele>167.8</ele>
        <time>2024-12-30T20:26:15.544Z</time>
      </trkpt>
      <trkpt lat="48.63922" lon="2.07584">
        <ele>167.8</ele>
        <time>2024-12-30T20:26:21.576Z</time>
      </trkpt>
      <trkpt lat="48.6392" lon="2.07571">
        <ele>167.9</ele>
        <time>2024-12-30T20:26:27.608Z</time>
      </trkpt>
      <trkpt lat="48.63919" lon="2.07558">
        <ele>167.9</ele>
        <time>2024-12-30T20:26:33.640Z</time>
      </trkpt>
      <trkpt lat="48.63917" lon="2.07545">
        <ele>168.4</ele>
        <time>2024-12-30T20:26:39.672Z</time>
      </trkpt>
      <trkpt lat="48.63916" lon="2.07532">
        <ele>168.9</ele>
        <time>2024-12-30T20:26:45.704Z</time>
      </trkpt>
      <trkpt lat="48.63914" lon="2.07519">
        <ele>169</ele>
        <time>2024-12-30T20:26:51.738Z</time>
      </trkpt>
      <trkpt lat="48.63914" lon="2.07512">
        <ele>169</ele>
        <time>2024-12-30T20:26:54.794Z</time>
      </trkpt>
      <trkpt lat="48.63914" lon="2.07505">
        <ele>169</ele>
        <time>2024-12-30T20:26:57.850Z</time>
      </trkpt>
      <trkpt lat="48.63914" lon="2.07498">
        <ele>169</ele>
        <time>2024-12-30T20:27:00.907Z</time>
      </trkpt>
      <trkpt lat="48.63914" lon="2.07491">
        <ele>169</ele>
        <time>2024-12-30T20:27:03.964Z</time>
      </trkpt>
      <trkpt lat="48.63914" lon="2.07483">
        <ele>169.1</ele>
        <time>2024-12-30T20:27:07.021Z</time>
      </trkpt>
      <trkpt lat="48.63914" lon="2.07476">
        <ele>169.1</ele>
        <time>2024-12-30T20:27:10.078Z</time>
      </trkpt>
      <trkpt lat="48.63914" lon="2.07469">
        <ele>169.1</ele>
        <time>2024-12-30T20:27:13.135Z</time>
      </trkpt>
      <trkpt lat="48.63914" lon="2.07462">
        <ele>169.1</ele>
        <time>2024-12-30T20:27:16.192Z</time>
      </trkpt>
      <trkpt lat="48.63915" lon="2.07454">
        <ele>169.1</ele>
        <time>2024-12-30T20:27:19.994Z</time>
      </trkpt>
      <trkpt lat="48.63916" lon="2.07445">
        <ele>169</ele>
        <time>2024-12-30T20:27:23.796Z</time>
      </trkpt>
      <trkpt lat="48.63916" lon="2.07437">
        <ele>169</ele>
        <time>2024-12-30T20:27:27.598Z</time>
      </trkpt>
      <trkpt lat="48.63917" lon="2.07428">
        <ele>169</ele>
        <time>2024-12-30T20:27:31.400Z</time>
      </trkpt>
      <trkpt lat="48.63918" lon="2.0742">
        <ele>169</ele>
        <time>2024-12-30T20:27:35.202Z</time>
      </trkpt>
      <trkpt lat="48.63919" lon="2.07411">
        <ele>169.2</ele>
        <time>2024-12-30T20:27:39.004Z</time>
      </trkpt>
      <trkpt lat="48.63919" lon="2.07403">
        <ele>169.5</ele>
        <time>2024-12-30T20:27:42.806Z</time>
      </trkpt>
      <trkpt lat="48.6392" lon="2.07394">
        <ele>169.7</ele>
        <time>2024-12-30T20:27:46.608Z</time>
      </trkpt>
      <trkpt lat="48.63921" lon="2.07387">
        <ele>169.9</ele>
        <time>2024-12-30T20:27:49.675Z</time>
      </trkpt>
      <trkpt lat="48.63922" lon="2.0738">
        <ele>169.8</ele>
        <time>2024-12-30T20:27:52.742Z</time>
      </trkpt>
      <trkpt lat="48.63922" lon="2.07373">
        <ele>169.8</ele>
        <time>2024-12-30T20:27:55.809Z</time>
      </trkpt>
      <trkpt lat="48.63923" lon="2.07366">
        <ele>169.8</ele>
        <time>2024-12-30T20:27:58.877Z</time>
      </trkpt>
      <trkpt lat="48.63924" lon="2.07359">
        <ele>169.8</ele>
        <time>2024-12-30T20:28:01.945Z</time>
      </trkpt>
      <trkpt lat="48.63925" lon="2.07352">
        <ele>169.8</ele>
        <time>2024-12-30T20:28:05.013Z</time>
      </trkpt>
      <trkpt lat="48.63925" lon="2.07345">
        <ele>169.9</ele>
        <time>2024-12-30T20:28:08.081Z</time>
      </trkpt>
      <trkpt lat="48.63926" lon="2.07338">
        <ele>169.9</ele>
        <time>2024-12-30T20:28:11.149Z</time>
      </trkpt>
      <trkpt lat="48.63929" lon="2.07334">
        <ele>170</ele>
        <time>2024-12-30T20:28:13.933Z</time>
      </trkpt>
      <trkpt lat="48.63931" lon="2.07325">
        <ele>170</ele>
        <time>2024-12-30T20:28:17.973Z</time>
      </trkpt>
      <trkpt lat="48.63932" lon="2.07316">
        <ele>170</ele>
        <time>2024-12-30T20:28:22.066Z</time>
      </trkpt>
      <trkpt lat="48.63933" lon="2.07306">
        <ele>170</ele>
        <time>2024-12-30T20:28:26.160Z</time>
      </trkpt>
      <trkpt lat="48.63933" lon="2.07299">
        <ele>170.1</ele>
        <time>2024-12-30T20:28:29.346Z</time>
      </trkpt>
      <trkpt lat="48.63933" lon="2.07292">
        <ele>170.2</ele>
        <time>2024-12-30T20:28:32.533Z</time>
      </trkpt>
      <trkpt lat="48.6393" lon="2.07284">
        <ele>170.4</ele>
        <time>2024-12-30T20:28:36.873Z</time>
      </trkpt>
      <trkpt lat="48.6393" lon="2.07271">
        <ele>170.5</ele>
        <time>2024-12-30T20:28:42.608Z</time>
      </trkpt>
      <trkpt lat="48.63932" lon="2.07264">
        <ele>170.4</ele>
        <time>2024-12-30T20:28:45.663Z</time>
      </trkpt>
      <trkpt lat="48.63937" lon="2.07259">
        <ele>170.3</ele>
        <time>2024-12-30T20:28:49.331Z</time>
      </trkpt>
      <trkpt lat="48.63944" lon="2.07255">
        <ele>170</ele>
        <time>2024-12-30T20:28:53.603Z</time>
      </trkpt>
      <trkpt lat="48.63944" lon="2.07255">
        <ele>170</ele>
        <time>2024-12-30T20:28:53.603Z</time>
        <extensions>
          <visugpx:TrkExtension xmlns:visugpx="https://www.visugpx.com/editgpx/">
            <visugpx:node>51</visugpx:node>
            </visugpx:TrkExtension>
        </extensions>
      </trkpt>
      <trkpt lat="48.6395" lon="2.07252">
        <ele>170</ele>
        <time>2024-12-30T20:28:57.672Z</time>
      </trkpt>
      <trkpt lat="48.63955" lon="2.07256">
        <ele>169.9</ele>
        <time>2024-12-30T20:29:00.766Z</time>
      </trkpt>
      <trkpt lat="48.63959" lon="2.07259">
        <ele>169.8</ele>
        <time>2024-12-30T20:29:03.860Z</time>
      </trkpt>
      <trkpt lat="48.63964" lon="2.07263">
        <ele>169.7</ele>
        <time>2024-12-30T20:29:06.954Z</time>
      </trkpt>
      <trkpt lat="48.63969" lon="2.07266">
        <ele>169.5</ele>
        <time>2024-12-30T20:29:10.048Z</time>
      </trkpt>
      <trkpt lat="48.63973" lon="2.0727">
        <ele>169.3</ele>
        <time>2024-12-30T20:29:13.142Z</time>
      </trkpt>
      <trkpt lat="48.63978" lon="2.07273">
        <ele>169.1</ele>
        <time>2024-12-30T20:29:16.237Z</time>
      </trkpt>
      <trkpt lat="48.63982" lon="2.07277">
        <ele>169</ele>
        <time>2024-12-30T20:29:19.332Z</time>
      </trkpt>
      <trkpt lat="48.63987" lon="2.0728">
        <ele>169</ele>
        <time>2024-12-30T20:29:22.427Z</time>
      </trkpt>
      <trkpt lat="48.63993" lon="2.07284">
        <ele>168.8</ele>
        <time>2024-12-30T20:29:26.081Z</time>
      </trkpt>
      <trkpt lat="48.63998" lon="2.07287">
        <ele>168.7</ele>
        <time>2024-12-30T20:29:29.735Z</time>
      </trkpt>
      <trkpt lat="48.64004" lon="2.07291">
        <ele>168.5</ele>
        <time>2024-12-30T20:29:33.390Z</time>
      </trkpt>
      <trkpt lat="48.6401" lon="2.07295">
        <ele>168.3</ele>
        <time>2024-12-30T20:29:37.045Z</time>
      </trkpt>
      <trkpt lat="48.64015" lon="2.07298">
        <ele>168.1</ele>
        <time>2024-12-30T20:29:40.700Z</time>
      </trkpt>
      <trkpt lat="48.64021" lon="2.07302">
        <ele>168</ele>
        <time>2024-12-30T20:29:44.355Z</time>
      </trkpt>
      <trkpt lat="48.64026" lon="2.07305">
        <ele>168</ele>
        <time>2024-12-30T20:29:48.010Z</time>
      </trkpt>
      <trkpt lat="48.64032" lon="2.07309">
        <ele>167.8</ele>
        <time>2024-12-30T20:29:51.665Z</time>
      </trkpt>
      <trkpt lat="48.64038" lon="2.07313">
        <ele>167.7</ele>
        <time>2024-12-30T20:29:55.223Z</time>
      </trkpt>
      <trkpt lat="48.64043" lon="2.07317">
        <ele>167.5</ele>
        <time>2024-12-30T20:29:58.781Z</time>
      </trkpt>
      <trkpt lat="48.64049" lon="2.0732">
        <ele>167.3</ele>
        <time>2024-12-30T20:30:02.339Z</time>
      </trkpt>
      <trkpt lat="48.64054" lon="2.07324">
        <ele>167.1</ele>
        <time>2024-12-30T20:30:05.898Z</time>
      </trkpt>
      <trkpt lat="48.64058" lon="2.07327">
        <ele>166.9</ele>
        <time>2024-12-30T20:30:08.554Z</time>
      </trkpt>
      <trkpt lat="48.64063" lon="2.0733">
        <ele>166.8</ele>
        <time>2024-12-30T20:30:11.210Z</time>
      </trkpt>
      <trkpt lat="48.64067" lon="2.07332">
        <ele>166.6</ele>
        <time>2024-12-30T20:30:13.866Z</time>
      </trkpt>
      <trkpt lat="48.64071" lon="2.07335">
        <ele>166.4</ele>
        <time>2024-12-30T20:30:16.522Z</time>
      </trkpt>
      <trkpt lat="48.64076" lon="2.07338">
        <ele>166.3</ele>
        <time>2024-12-30T20:30:19.577Z</time>
      </trkpt>
      <trkpt lat="48.64081" lon="2.07342">
        <ele>166.1</ele>
        <time>2024-12-30T20:30:22.632Z</time>
      </trkpt>
      <trkpt lat="48.64085" lon="2.07345">
        <ele>165.9</ele>
        <time>2024-12-30T20:30:25.687Z</time>
      </trkpt>
      <trkpt lat="48.6409" lon="2.07348">
        <ele>165.8</ele>
        <time>2024-12-30T20:30:28.742Z</time>
      </trkpt>
      <trkpt lat="48.64095" lon="2.07351">
        <ele>165.6</ele>
        <time>2024-12-30T20:30:31.797Z</time>
      </trkpt>
      <trkpt lat="48.641" lon="2.07355">
        <ele>165.4</ele>
        <time>2024-12-30T20:30:34.852Z</time>
      </trkpt>
      <trkpt lat="48.64104" lon="2.07358">
        <ele>165.2</ele>
        <time>2024-12-30T20:30:37.908Z</time>
      </trkpt>
      <trkpt lat="48.64109" lon="2.07361">
        <ele>165.1</ele>
        <time>2024-12-30T20:30:40.964Z</time>
      </trkpt>
      <trkpt lat="48.64111" lon="2.07355">
        <ele>165</ele>
        <time>2024-12-30T20:30:44.001Z</time>
      </trkpt>
      <trkpt lat="48.64113" lon="2.07348">
        <ele>164.9</ele>
        <time>2024-12-30T20:30:47.038Z</time>
      </trkpt>
      <trkpt lat="48.64115" lon="2.07342">
        <ele>164.8</ele>
        <time>2024-12-30T20:30:50.075Z</time>
      </trkpt>
      <trkpt lat="48.64118" lon="2.07335">
        <ele>164.8</ele>
        <time>2024-12-30T20:30:53.112Z</time>
      </trkpt>
      <trkpt lat="48.6412" lon="2.07329">
        <ele>164.9</ele>
        <time>2024-12-30T20:30:56.149Z</time>
      </trkpt>
      <trkpt lat="48.64122" lon="2.07322">
        <ele>165</ele>
        <time>2024-12-30T20:30:59.186Z</time>
      </trkpt>
      <trkpt lat="48.64124" lon="2.07316">
        <ele>165.2</ele>
        <time>2024-12-30T20:31:02.223Z</time>
      </trkpt>
      <trkpt lat="48.64126" lon="2.0731">
        <ele>165.3</ele>
        <time>2024-12-30T20:31:05.260Z</time>
      </trkpt>
      <trkpt lat="48.64128" lon="2.07303">
        <ele>165.4</ele>
        <time>2024-12-30T20:31:08.297Z</time>
      </trkpt>
      <trkpt lat="48.6413" lon="2.07297">
        <ele>165.3</ele>
        <time>2024-12-30T20:31:11.334Z</time>
      </trkpt>
      <trkpt lat="48.64132" lon="2.0729">
        <ele>165.2</ele>
        <time>2024-12-30T20:31:14.371Z</time>
      </trkpt>
      <trkpt lat="48.64135" lon="2.07284">
        <ele>165.2</ele>
        <time>2024-12-30T20:31:17.408Z</time>
      </trkpt>
      <trkpt lat="48.64137" lon="2.07277">
        <ele>165.1</ele>
        <time>2024-12-30T20:31:20.446Z</time>
      </trkpt>
      <trkpt lat="48.64139" lon="2.07271">
        <ele>165</ele>
        <time>2024-12-30T20:31:23.484Z</time>
      </trkpt>
      <trkpt lat="48.64141" lon="2.07264">
        <ele>164.9</ele>
        <time>2024-12-30T20:31:26.522Z</time>
      </trkpt>
      <trkpt lat="48.64143" lon="2.07258">
        <ele>164.9</ele>
        <time>2024-12-30T20:31:29.560Z</time>
      </trkpt>
      <trkpt lat="48.64145" lon="2.07252">
        <ele>164.8</ele>
        <time>2024-12-30T20:31:32.634Z</time>
      </trkpt>
      <trkpt lat="48.64147" lon="2.07245">
        <ele>164.8</ele>
        <time>2024-12-30T20:31:35.708Z</time>
      </trkpt>
      <trkpt lat="48.64149" lon="2.07239">
        <ele>164.9</ele>
        <time>2024-12-30T20:31:38.782Z</time>
      </trkpt>
      <trkpt lat="48.64152" lon="2.07232">
        <ele>164.9</ele>
        <time>2024-12-30T20:31:41.856Z</time>
      </trkpt>
      <trkpt lat="48.64154" lon="2.07226">
        <ele>164.9</ele>
        <time>2024-12-30T20:31:44.930Z</time>
      </trkpt>
      <trkpt lat="48.64156" lon="2.07219">
        <ele>164.9</ele>
        <time>2024-12-30T20:31:48.004Z</time>
      </trkpt>
      <trkpt lat="48.64158" lon="2.07213">
        <ele>164.9</ele>
        <time>2024-12-30T20:31:51.078Z</time>
      </trkpt>
      <trkpt lat="48.6416" lon="2.07207">
        <ele>164.9</ele>
        <time>2024-12-30T20:31:54.152Z</time>
      </trkpt>
      <trkpt lat="48.64162" lon="2.072">
        <ele>165</ele>
        <time>2024-12-30T20:31:57.226Z</time>
      </trkpt>
      <trkpt lat="48.64164" lon="2.07194">
        <ele>165.1</ele>
        <time>2024-12-30T20:32:00.300Z</time>
      </trkpt>
      <trkpt lat="48.64166" lon="2.07187">
        <ele>165</ele>
        <time>2024-12-30T20:32:03.374Z</time>
      </trkpt>
      <trkpt lat="48.64169" lon="2.07181">
        <ele>164.9</ele>
        <time>2024-12-30T20:32:06.449Z</time>
      </trkpt>
      <trkpt lat="48.64171" lon="2.07174">
        <ele>164.8</ele>
        <time>2024-12-30T20:32:09.524Z</time>
      </trkpt>
      <trkpt lat="48.64173" lon="2.07168">
        <ele>164.8</ele>
        <time>2024-12-30T20:32:12.599Z</time>
      </trkpt>
    </trkseg>
  </trk>
</gpx>